GFSCGP_sfc_wetblb_000.txt.gz
Wetbulb
51.71 46.86 43.64 44.20 47.23 43.40 40.77 37.47 37.80 38.39 41.09 38.00 37.98 38.21 42.12 43.32 42.02 39.49 40.60 42.92 43.22 45.10 45.40 47.17 47.16 46.73 47.28 47.19 47.61 47.81 50.74 51.67 55.42 56.65 56.34 56.41 56.91 57.85 58.41 59.21 59.69 59.29 58.70 58.16
47.56 43.02 47.48 46.83 46.24 45.29 40.68 39.55 35.91 40.14 41.06 38.29 38.54 38.66 41.63 41.56 41.30 39.70 41.61 42.51 43.31 44.42 45.33 46.29 46.45 45.88 45.95 46.07 47.15 48.27 48.58 49.53 52.71 56.20 56.90 57.49 57.59 57.92 58.03 56.88 55.20 55.10 56.27 56.59
43.29 46.39 49.51 47.68 43.10 42.75 39.81 38.96 37.26 38.24 39.82 39.33 37.16 36.46 37.61 38.89 39.52 41.32 42.47 43.11 43.75 44.62 45.12 45.10 45.45 45.22 45.35 45.57 45.84 47.34 47.57 48.56 49.26 50.67 53.62 53.11 53.48 52.19 51.24 51.30 50.28 50.74 51.43 50.82
45.78 48.40 47.79 46.48 44.10 43.97 40.05 41.43 42.23 39.14 35.91 31.88 36.64 29.93 34.81 36.36 37.89 39.86 40.24 42.21 43.10 44.14 44.19 46.10 46.14 45.70 45.48 45.73 46.45 46.85 47.64 47.84 48.41 47.77 48.41 47.49 47.19 46.48 47.34 47.76 47.36 48.30 48.78 49.03
43.50 45.44 45.68 45.00 45.51 45.51 42.30 43.57 41.76 40.52 34.50 30.36 32.29 30.70 33.94 34.31 36.22 38.55 39.81 40.69 42.19 43.52 44.50 44.97 45.34 45.78 45.74 46.05 45.43 45.64 47.11 47.35 47.28 47.36 46.73 46.87 45.72 45.60 45.95 46.00 45.62 45.99 46.77 47.54
42.83 47.87 47.53 46.98 47.36 46.11 45.05 41.47 39.23 36.63 32.78 28.05 32.40 33.11 31.90 33.78 36.07 36.98 38.66 39.89 42.56 43.53 44.01 44.64 45.01 45.14 44.69 44.92 45.29 45.52 46.66 46.13 46.36 46.51 46.01 45.20 44.13 43.79 43.89 43.82 43.60 44.22 44.72 45.35
39.64 43.99 44.74 47.12 41.61 42.56 42.01 38.91 32.16 29.56 27.67 27.68 30.57 29.29 34.26 36.81 38.49 41.09 41.24 40.43 41.99 43.13 43.38 43.82 43.73 43.72 43.79 43.97 44.64 45.93 45.61 44.77 45.08 44.82 44.22 43.79 43.24 42.48 41.92 41.73 41.77 41.08 41.59 42.18
36.18 35.62 39.34 41.26 42.98 40.03 39.33 36.81 30.03 26.00 25.74 27.62 30.73 28.63 35.01 37.23 39.19 40.40 43.25 41.92 42.24 42.65 42.75 43.57 43.33 42.73 42.98 43.79 43.82 43.96 43.84 43.47 43.72 43.58 42.55 41.67 41.39 41.60 40.94 40.20 40.15 39.69 39.85 40.36
36.50 35.82 37.58 41.25 40.19 44.06 35.60 35.05 36.63 31.70 27.75 27.88 30.97 33.64 38.63 38.93 38.51 38.15 40.36 40.98 41.34 42.17 42.70 43.10 42.40 42.05 42.61 43.01 42.95 42.60 42.11 41.71 41.59 41.30 40.97 39.43 38.74 38.32 37.70 37.63 37.15 37.26 37.39 39.23
37.14 30.28 38.43 37.69 41.19 39.64 38.03 39.76 32.70 31.46 26.97 25.14 27.81 28.30 32.85 35.99 36.48 37.24 38.32 39.73 40.88 42.10 42.47 42.35 41.79 42.01 42.68 42.49 41.40 40.63 40.46 39.80 39.59 39.21 38.69 37.75 36.33 35.90 35.43 35.02 34.15 34.23 34.75 35.12
37.47 34.41 34.91 37.38 35.84 35.21 34.72 32.95 32.42 33.66 30.59 26.70 24.36 29.74 35.20 36.04 37.72 38.67 39.00 39.94 40.74 41.87 42.27 41.82 41.19 42.09 41.80 40.40 39.26 38.44 38.40 38.24 37.60 37.53 36.33 34.82 34.25 33.83 33.16 32.61 32.61 32.50 32.74 33.16
39.80 34.49 31.31 34.72 36.99 37.64 34.76 34.53 34.24 30.63 27.23 26.85 26.46 30.19 36.64 36.48 37.23 40.05 39.97 41.24 41.17 42.27 42.36 41.12 41.19 41.17 39.82 38.19 37.09 36.43 36.62 36.51 36.28 36.34 34.40 32.94 32.18 31.54 30.64 30.59 31.07 31.49 30.80 32.06
41.55 34.97 31.12 34.05 35.77 36.26 34.69 34.13 33.76 32.87 31.15 26.65 26.67 30.46 38.43 36.08 38.36 40.08 41.38 42.38 42.20 41.42 40.68 40.39 40.77 40.00 38.79 37.01 35.67 34.70 34.47 34.09 34.43 33.74 31.72 30.51 29.98 29.18 28.50 28.93 29.96 30.44 30.46 30.59
45.57 36.90 33.37 31.33 32.55 35.92 33.09 34.17 33.48 34.15 28.91 28.60 29.18 32.19 35.29 35.48 38.16 39.64 40.54 41.92 41.46 40.83 40.78 40.71 40.60 38.94 37.45 35.69 34.09 33.00 32.63 32.62 32.63 31.42 29.97 29.08 28.61 28.26 28.17 28.66 28.98 29.31 29.67 29.07
42.22 35.55 34.29 33.40 35.80 36.50 35.81 35.92 33.92 33.25 34.81 32.54 33.74 32.99 35.35 36.57 38.02 37.38 38.45 39.10 40.16 40.32 39.55 41.44 40.38 37.42 35.33 33.46 32.48 32.17 31.87 31.03 31.01 29.40 28.84 28.63 28.78 28.54 28.17 28.09 28.18 28.44 28.57 28.81
40.62 34.09 33.54 29.92 33.56 32.70 32.30 34.85 34.28 33.95 33.38 32.02 33.66 33.78 35.85 37.73 38.34 39.17 37.43 39.20 40.27 39.93 39.31 41.10 39.40 36.81 34.31 31.80 31.61 31.62 30.36 29.35 29.63 28.43 28.00 28.50 28.21 28.02 27.61 27.59 27.63 27.49 27.46 27.40
36.31 33.76 32.45 28.85 31.33 30.89 28.96 32.48 34.24 33.88 33.95 35.57 32.39 34.91 36.97 38.06 39.87 39.43 40.38 40.02 40.40 39.73 38.26 40.09 37.46 35.44 32.54 31.50 31.37 29.38 28.46 28.56 29.17 28.05 27.48 27.67 27.65 27.08 27.02 27.03 26.51 26.24 25.87 25.98
34.61 32.64 31.06 26.49 28.74 22.42 31.51 35.99 35.25 34.42 34.50 36.15 37.54 38.48 39.14 39.21 38.75 38.00 38.20 38.46 39.46 38.11 39.69 38.25 35.52 33.01 31.52 31.05 29.98 29.00 29.74 29.71 28.09 26.61 26.35 26.81 26.64 26.12 26.21 25.41 24.79 24.35 25.22 24.94
36.71 34.12 30.13 28.73 26.28 30.35 33.74 34.89 35.79 35.65 34.83 38.38 38.22 38.67 38.42 37.75 37.10 36.75 39.28 38.61 37.52 38.03 38.30 36.20 34.46 32.22 30.08 29.20 29.25 28.93 28.76 25.77 25.59 25.53 25.21 25.69 25.52 25.02 24.71 24.07 23.62 24.25 24.45 24.93
35.74 35.38 32.68 26.00 25.41 25.83 32.90 37.49 39.64 39.80 32.93 39.49 39.66 38.63 38.26 37.24 33.38 36.01 38.45 38.02 37.17 37.17 35.82 33.81 31.97 30.64 29.36 27.74 27.17 25.82 25.02 24.43 24.31 24.98 25.00 25.37 25.29 24.45 23.38 23.29 23.57 24.10 24.28 24.69
31.02 30.89 29.65 30.50 28.55 31.13 36.82 39.24 39.94 31.37 32.63 38.68 37.99 37.59 37.71 35.88 37.26 38.37 38.08 36.18 36.03 34.76 33.50 32.26 30.93 28.69 27.10 26.97 28.97 25.61 24.24 23.34 24.22 24.86 24.87 24.81 24.58 23.54 23.26 23.11 23.29 24.17 24.01 24.00
30.00 27.97 28.11 28.93 27.39 27.43 37.67 38.31 35.06 36.38 36.82 37.98 37.73 37.71 36.99 37.50 37.91 38.57 37.77 36.59 34.59 32.84 32.13 30.81 28.08 26.73 27.31 30.11 26.00 24.32 23.70 23.84 23.90 23.95 23.71 23.32 23.05 24.27 26.26 23.33 23.58 23.44 22.99 22.48
31.25 33.24 31.23 32.39 32.09 37.48 36.91 37.47 38.35 38.93 37.75 37.21 37.40 38.41 38.30 37.53 37.36 37.79 37.38 35.85 34.23 32.43 31.00 29.85 27.97 26.78 26.05 25.92 24.94 22.30 23.08 23.24 23.19 22.36 22.01 21.93 22.84 23.20 23.50 23.08 23.55 23.47 23.04 22.24
32.88 36.20 34.80 34.63 35.80 36.36 37.87 38.40 38.84 39.18 38.73 38.67 38.47 37.91 37.40 35.80 35.82 35.04 36.13 35.16 33.56 30.92 28.96 28.29 26.73 26.24 27.54 26.15 23.96 22.57 22.70 22.94 22.16 20.73 20.65 21.63 21.28 23.52 23.01 22.61 23.73 23.00 22.28 21.96
34.05 35.57 34.38 33.52 34.89 36.77 37.11 37.59 38.71 38.47 38.10 37.80 36.92 36.08 35.62 34.20 33.50 33.16 34.10 33.84 32.10 29.84 28.38 28.07 28.17 27.26 24.58 22.79 22.28 22.36 23.07 22.22 21.52 21.12 21.60 21.56 21.78 21.16 22.36 23.28 22.61 23.18 23.88 25.20
35.12 35.00 33.69 32.79 36.88 36.33 36.23 37.97 37.81 37.79 36.78 35.89 35.12 33.46 33.01 32.77 33.39 33.35 33.63 33.93 30.83 28.02 28.08 27.49 26.43 23.60 22.30 21.76 21.50 22.10 22.58 22.09 20.53 21.05 22.22 21.83 22.85 22.05 22.79 22.25 22.56 27.97 29.18 30.25

GFSCGP_sfc_wetblb_003.txt.gz
Wetbulb
48.34 45.94 43.59 45.52 47.33 45.55 42.07 42.26 41.64 42.89 44.23 42.29 41.56 40.77 44.73 46.09 45.73 45.09 44.67 46.29 47.15 47.71 48.76 49.39 49.65 49.94 51.19 50.89 51.72 52.19 54.91 56.88 60.06 60.49 60.67 61.08 59.32 57.81 56.51 55.70 55.28 54.80 55.14 55.06
44.97 43.13 47.85 47.65 47.06 44.59 42.19 40.67 39.82 42.15 43.32 42.23 41.94 41.77 45.11 44.50 45.06 44.79 44.59 45.85 46.87 47.53 48.08 48.52 49.03 49.48 49.30 49.81 50.84 51.38 51.79 52.97 57.16 60.11 60.38 60.56 57.16 55.26 54.39 53.79 53.15 53.14 52.08 51.60
41.17 45.06 49.36 47.47 45.25 44.78 42.05 40.39 39.71 41.01 42.12 42.16 39.92 40.12 41.02 43.62 43.59 43.09 45.09 46.56 46.96 47.41 47.27 47.77 48.36 48.60 49.31 48.99 49.43 50.42 51.11 51.49 51.89 53.55 54.52 54.34 54.17 53.68 52.65 51.35 50.78 50.55 50.86 49.97
43.93 48.04 47.04 46.13 43.84 45.06 41.32 43.04 43.70 41.17 40.32 36.63 40.77 33.85 38.67 41.88 41.08 42.11 43.77 45.65 46.26 47.01 47.65 47.98 48.09 48.47 48.74 48.51 49.98 50.40 50.50 50.90 51.13 52.19 51.53 50.64 49.93 48.49 48.92 49.02 49.15 48.78 48.93 48.32
42.29 44.82 44.68 44.10 44.78 45.88 43.11 45.58 44.00 42.47 39.06 35.56 36.06 35.13 38.42 38.42 38.62 40.64 42.55 44.24 45.73 46.98 47.70 47.05 47.55 47.94 48.27 48.81 48.82 49.48 49.72 49.38 49.50 49.62 49.76 49.00 47.53 47.73 47.28 46.72 46.00 46.25 46.35 46.61
44.51 48.38 48.84 47.21 47.05 47.22 42.65 41.73 40.66 38.26 35.94 31.33 34.98 36.29 36.64 38.27 39.35 40.19 42.16 43.30 45.34 46.26 46.84 46.73 47.05 47.58 47.74 48.64 48.91 49.00 48.29 47.31 47.52 47.61 47.31 46.50 45.56 44.46 43.78 43.24 42.51 42.77 43.11 43.46
41.72 44.84 46.82 49.23 42.72 43.66 42.94 41.31 34.52 31.06 29.87 30.62 33.62 32.96 37.78 40.50 40.77 43.24 43.58 43.30 45.04 46.42 46.28 46.23 46.29 46.82 47.22 47.59 47.91 47.86 47.33 45.53 45.60 45.00 44.42 44.33 43.35 42.46 40.92 40.39 39.70 39.20 39.22 40.04
36.12 36.00 41.66 45.77 43.80 40.47 41.97 41.08 34.32 28.69 28.19 30.62 32.97 31.85 38.36 41.38 42.83 42.63 44.71 44.50 45.32 45.57 45.95 46.01 46.16 46.36 46.46 46.28 46.23 45.83 45.24 44.35 43.92 42.92 41.49 41.12 40.98 40.06 39.11 38.52 38.09 37.55 37.52 38.37
34.86 36.07 40.36 43.64 43.09 44.66 38.00 37.90 40.13 33.00 31.87 31.00 34.16 37.09 41.75 41.78 41.01 40.36 41.99 43.34 44.61 45.06 45.16 45.43 45.19 45.80 45.74 45.09 44.31 43.96 43.24 42.62 42.63 40.84 39.27 38.08 37.76 37.20 36.61 36.61 36.76 36.38 36.50 36.84
39.04 32.12 38.65 38.95 42.57 40.34 41.35 42.00 35.63 34.00 29.16 27.59 31.07 31.58 36.25 39.22 40.02 39.54 40.11 43.10 43.68 44.35 44.60 44.43 44.37 44.94 44.48 43.15 42.41 42.45 41.98 40.97 40.09 38.79 37.84 36.14 35.84 35.76 35.55 35.52 34.64 34.59 35.12 35.42
37.60 35.49 34.29 38.03 37.35 35.13 36.69 36.35 35.78 35.78 33.17 29.93 28.05 33.01 38.47 39.21 39.86 40.80 40.69 42.79 43.83 44.12 44.23 43.90 44.06 44.40 42.44 41.25 40.80 40.38 39.99 39.46 38.41 36.70 35.33 34.58 34.34 34.23 34.10 33.75 33.75 33.85 34.15 34.18
38.53 35.26 31.10 33.53 37.88 39.76 38.67 37.40 37.40 32.46 29.52 29.38 30.28 33.27 40.04 39.26 39.59 41.30 41.15 42.36 43.80 44.69 44.13 43.39 43.67 41.91 40.02 39.01 38.56 38.52 38.20 37.60 36.64 35.03 33.92 33.40 33.30 32.97 32.63 32.56 32.73 33.09 32.72 33.43
40.90 35.09 31.06 34.50 37.28 38.00 35.85 35.80 36.05 34.55 33.08 28.64 29.74 33.43 39.76 39.73 40.91 41.27 41.89 42.95 43.48 43.62 42.75 42.28 42.04 40.30 38.78 37.65 36.92 36.42 35.96 35.61 34.57 33.51 32.86 32.32 32.08 31.97 31.70 31.75 32.07 32.34 32.22 32.40
44.99 36.44 34.19 31.88 33.51 35.96 33.56 33.94 34.13 36.06 31.08 30.40 30.90 34.90 37.85 39.11 40.60 41.17 42.72 43.80 43.79 42.92 42.14 41.82 41.27 39.64 37.94 36.67 35.83 34.91 33.96 34.34 33.17 32.36 31.95 31.53 31.52 31.26 31.19 31.57 31.54 31.37 31.62 31.29
43.10 36.08 34.71 33.50 36.51 36.95 36.27 35.87 34.13 34.07 36.78 34.70 35.44 34.02 37.90 38.95 40.09 41.04 42.07 42.08 41.90 41.18 41.22 41.80 40.46 38.30 36.55 35.20 34.50 33.81 32.95 32.78 32.30 31.41 31.23 30.94 31.12 31.26 31.13 30.90 30.77 30.84 30.74 30.69
40.71 34.97 34.33 31.02 34.56 35.32 34.70 35.62 36.16 35.55 34.05 34.89 34.94 35.06 39.50 40.34 40.60 41.68 41.87 41.29 41.38 41.01 41.25 42.13 40.20 37.72 35.80 34.69 33.90 33.09 31.88 31.28 31.55 30.48 30.11 30.53 30.49 30.51 30.24 30.19 29.88 29.72 29.72 29.85
38.20 34.58 33.33 31.64 32.62 32.71 30.40 33.41 34.47 35.55 35.16 37.58 34.10 39.73 38.50 39.27 40.24 40.74 40.99 41.65 41.56 41.42 40.92 42.00 39.76 37.50 35.00 34.15 33.55 31.96 30.76 30.76 30.59 30.01 29.51 29.73 29.82 29.39 29.44 29.34 28.99 28.70 28.51 28.61
36.16 35.20 33.32 28.09 31.40 23.92 34.02 36.22 37.01 36.03 34.98 35.97 36.40 36.60 39.22 39.74 40.12 40.04 40.91 41.26 40.80 41.01 39.99 40.89 37.93 35.44 34.07 33.54 32.30 31.02 30.83 30.42 29.73 28.92 28.82 29.11 28.83 28.54 28.79 28.33 27.87 27.83 28.24 28.01
36.83 35.62 31.27 28.78 26.72 30.81 34.17 34.90 34.63 35.09 34.45 37.83 37.40 37.96 38.59 38.91 39.43 39.50 41.05 40.69 39.94 39.84 40.60 39.23 37.04 34.12 32.60 31.86 31.30 30.48 29.64 28.42 28.28 28.32 27.94 28.24 28.13 27.70 27.58 27.14 27.04 27.69 27.84 27.92
36.36 36.22 35.32 28.03 25.99 26.57 34.18 37.74 40.01 39.63 32.83 39.38 39.16 38.47 37.72 38.48 35.81 37.75 39.86 39.93 38.20 37.98 37.36 35.47 33.37 31.78 31.09 30.00 29.70 28.99 28.41 27.72 27.28 27.42 27.44 27.81 27.77 27.15 26.50 26.77 27.00 27.54 27.34 27.03
32.13 31.67 30.65 31.42 28.61 31.76 37.56 39.23 39.63 31.82 34.19 38.94 39.12 38.54 38.05 37.16 38.66 39.15 39.52 38.03 36.72 35.38 34.05 32.78 31.93 30.65 29.64 29.03 29.28 28.86 27.29 26.65 26.97 27.16 27.20 27.24 27.18 26.24 26.95 27.08 27.07 26.96 26.72 26.49
31.83 29.74 29.08 29.85 28.24 27.84 38.80 38.95 35.68 37.38 37.21 37.92 37.92 38.24 37.95 38.20 38.68 39.12 39.01 37.16 35.15 33.34 32.88 31.37 29.15 28.54 28.68 30.12 29.54 26.87 26.16 26.62 26.57 26.46 26.02 26.06 26.14 26.16 27.15 26.47 26.77 26.65 25.86 24.98
31.20 33.72 31.90 32.56 32.10 37.06 36.97 37.90 38.03 38.55 37.47 37.64 38.02 38.20 38.62 38.35 38.35 38.70 38.08 37.00 34.73 33.30 32.03 30.79 29.29 28.07 27.92 27.98 27.35 25.89 26.04 25.89 25.65 25.07 24.94 25.00 25.41 25.74 26.20 25.97 25.82 25.66 25.56 24.47
33.41 36.11 33.98 34.00 35.39 35.46 36.77 37.74 38.30 38.88 38.55 38.76 39.06 38.65 38.41 37.87 38.06 37.42 37.17 36.03 34.12 32.49 30.32 29.51 28.00 27.00 27.33 27.78 27.27 25.64 25.41 25.36 24.57 23.99 24.02 24.75 24.71 26.65 26.07 25.22 25.40 24.86 24.41 24.22
34.71 36.07 34.12 32.76 34.67 36.25 36.95 37.07 37.83 37.59 37.91 37.72 37.71 37.39 37.32 36.62 35.67 35.74 35.26 34.97 33.95 31.29 29.80 28.59 27.60 27.46 27.71 26.24 25.17 24.89 25.42 24.42 23.92 23.81 24.03 24.28 24.26 23.62 24.38 24.99 24.86 25.23 26.55 26.90
34.91 34.41 33.64 33.05 36.70 36.37 36.53 37.53 37.96 37.41 36.61 36.92 36.95 35.33 34.52 34.72 34.81 35.29 34.43 34.54 32.18 29.36 27.95 26.99 26.62 27.38 25.52 24.15 24.05 24.25 24.42 23.94 22.75 23.17 24.35 23.82 24.72 24.32 24.27 23.62 24.20 27.76 28.74 29.71

GFSCGP_sfc_wetblb_006.txt.gz
Wetbulb
47.41 41.38 40.64 46.33 47.63 48.45 47.65 47.11 45.87 48.49 50.20 47.76 48.75 49.68 50.09 53.55 52.51 51.97 51.75 52.65 53.06 52.99 53.50 54.42 55.13 56.64 57.14 58.24 59.52 61.46 62.92 63.88 64.62 64.77 63.44 61.64 58.96 58.25 57.46 57.07 56.44 55.74 55.39 55.32
42.27 38.53 46.37 48.55 49.00 47.96 48.06 45.37 44.87 49.01 48.33 47.38 48.82 48.75 52.04 53.26 51.53 51.95 51.61 52.23 52.60 52.42 53.00 53.43 54.42 55.14 55.52 56.01 56.90 58.21 59.93 61.97 63.48 63.81 61.46 59.38 57.75 56.70 56.18 55.66 54.75 54.53 53.50 53.17
38.86 42.54 47.88 47.69 47.03 46.10 46.63 44.26 45.15 45.61 46.88 47.30 46.29 47.05 49.30 48.06 48.19 48.10 51.00 53.14 53.01 52.62 52.04 52.81 53.50 54.16 55.01 54.89 55.25 55.49 56.73 57.29 57.87 58.40 57.99 57.63 57.39 56.64 55.12 53.87 53.01 52.15 51.93 50.66
40.40 45.75 46.51 45.94 45.28 47.78 43.42 49.11 47.82 45.84 43.97 41.92 46.38 40.82 47.20 49.33 47.05 47.58 50.13 51.20 51.78 52.22 52.72 52.80 53.20 53.67 54.12 54.50 55.75 55.73 55.90 55.88 56.55 57.45 56.52 55.51 54.05 52.00 51.88 51.70 51.46 50.80 49.89 47.93
37.99 42.63 42.11 44.35 45.91 49.00 45.58 49.33 48.00 46.36 44.21 43.81 44.51 41.23 46.00 45.16 44.90 46.13 49.39 50.77 51.60 52.56 52.50 52.07 52.53 52.60 53.45 54.39 54.41 54.59 54.25 53.81 54.20 54.35 54.28 53.16 51.64 51.09 50.56 49.89 48.79 48.15 47.88 46.38
41.62 47.94 45.23 48.01 48.95 49.59 48.46 46.67 45.30 44.30 43.09 38.31 43.80 42.13 44.12 45.32 45.73 46.91 49.34 50.57 51.23 51.83 52.09 52.24 52.46 52.87 52.76 53.72 53.67 53.39 52.26 51.57 52.12 51.80 51.40 50.73 49.35 48.22 47.60 46.30 45.41 44.95 44.71 44.43
37.00 37.67 48.21 50.45 45.30 44.98 47.79 44.21 36.36 35.54 34.80 36.86 40.28 39.39 44.92 47.03 46.21 48.19 48.71 50.23 51.33 51.98 51.56 51.26 51.34 51.87 52.25 52.35 52.23 51.71 50.75 49.15 49.78 49.30 48.41 47.71 46.81 45.96 44.40 43.54 42.72 42.04 41.92 42.11
33.22 34.94 44.85 49.42 46.73 41.73 43.29 45.15 39.24 32.04 34.35 37.54 38.42 37.94 43.73 46.76 47.65 48.32 50.90 51.59 51.78 51.54 51.94 51.72 52.05 52.20 51.94 51.51 51.07 50.50 49.41 48.09 47.44 46.53 45.44 44.95 44.59 43.55 42.41 41.60 41.23 40.70 40.41 40.65
33.98 34.61 45.11 48.08 47.22 46.75 41.45 39.87 45.50 38.70 38.62 38.01 40.96 43.58 47.07 46.39 46.28 46.79 48.44 50.30 50.47 51.07 51.23 51.30 51.74 52.00 51.42 50.58 49.83 49.28 48.37 46.96 45.69 44.54 43.67 42.26 41.78 41.17 40.52 40.26 40.40 40.00 39.88 39.12
39.76 34.77 41.99 42.54 47.66 43.52 45.29 47.72 38.00 40.20 33.22 32.26 38.03 39.25 43.24 44.68 45.10 45.50 46.97 48.67 50.44 50.92 50.76 50.91 51.04 51.11 50.62 49.30 48.39 48.07 47.49 45.49 44.08 42.92 41.78 40.69 39.87 39.59 39.42 39.44 38.81 38.70 38.89 38.90
43.97 42.14 35.69 43.44 40.45 40.81 43.12 40.43 42.33 42.57 39.72 36.91 35.77 39.44 46.20 45.45 45.99 46.42 47.41 49.60 50.47 50.01 50.44 50.30 50.63 50.59 48.81 47.82 47.17 46.14 45.46 44.07 42.20 40.99 40.07 39.60 38.75 38.16 38.12 38.09 37.92 37.82 38.19 37.89
45.19 43.16 36.72 37.45 41.93 46.56 46.25 43.64 43.72 39.50 35.31 38.47 38.57 40.38 45.96 46.13 46.19 46.52 48.08 49.28 50.58 50.93 50.75 50.34 50.25 48.67 46.70 46.20 45.41 44.82 44.12 42.96 40.99 39.34 38.69 37.87 37.51 37.82 37.54 37.26 37.22 37.38 37.00 37.41
45.38 41.76 35.94 35.97 39.43 40.69 41.04 43.80 45.90 44.78 41.17 38.15 37.28 40.12 44.84 46.86 47.17 47.10 47.88 48.88 49.88 49.87 49.73 49.48 49.13 47.28 46.26 45.06 44.11 43.28 42.57 41.02 39.18 38.31 37.57 37.24 37.10 36.92 36.70 36.66 36.64 36.67 36.35 36.33
46.49 42.96 40.55 36.37 39.53 43.15 40.01 41.52 44.41 44.25 39.35 39.75 39.69 42.64 43.80 45.34 46.46 46.96 48.15 49.39 49.63 49.43 48.85 48.70 48.08 47.13 45.81 44.43 42.90 41.56 40.51 39.73 37.78 36.84 36.90 36.43 36.13 35.73 36.15 36.26 36.09 35.71 35.78 35.54
45.90 40.08 42.20 41.38 42.26 43.26 42.12 41.39 41.03 40.72 43.05 39.73 42.93 41.65 45.70 46.97 47.81 48.74 49.42 49.39 48.98 48.25 47.73 47.59 47.57 46.69 45.05 42.99 41.64 40.35 39.11 38.21 36.70 36.13 35.90 35.00 34.52 35.64 35.69 35.60 35.39 35.35 35.22 35.12
46.59 40.24 39.85 38.09 40.28 42.01 40.10 42.20 42.94 43.09 43.77 43.50 43.75 43.09 47.76 47.35 48.52 46.99 47.92 47.40 47.26 47.52 47.10 47.37 47.49 46.40 44.07 42.25 40.56 39.03 37.59 36.28 35.98 35.35 34.25 34.31 34.53 34.94 35.01 34.88 34.46 34.50 34.58 34.78
43.66 41.67 39.44 36.52 38.20 38.61 36.44 40.73 41.34 42.54 44.07 43.56 40.37 45.49 46.05 44.26 45.11 46.99 47.48 47.33 47.21 47.21 47.06 46.99 46.89 45.51 43.20 41.58 40.50 38.74 36.98 35.56 35.03 34.42 33.97 33.64 34.02 33.98 34.02 34.04 33.85 33.81 33.76 34.16
43.52 41.08 39.59 34.82 35.62 30.35 41.40 41.87 45.24 43.38 44.73 45.60 45.39 44.16 45.88 46.75 47.17 46.72 47.94 47.40 46.41 46.17 46.32 47.11 46.79 44.19 42.24 40.78 39.09 37.30 35.71 34.94 33.99 33.34 33.45 33.52 33.29 32.98 33.38 33.28 33.35 33.57 33.71 33.33
46.49 40.81 36.96 34.12 33.77 38.24 38.46 39.32 39.81 40.55 42.25 44.10 44.18 44.12 45.10 44.87 45.41 43.92 45.29 45.63 45.40 44.98 45.94 46.97 45.99 43.05 40.27 39.13 38.02 36.16 34.51 33.57 33.29 32.92 32.87 32.75 32.76 32.22 32.44 32.42 32.61 33.05 32.75 32.55
40.30 43.05 39.22 34.00 32.35 32.13 38.72 41.52 43.77 44.21 38.08 43.15 44.38 43.91 43.27 44.10 41.52 44.00 44.38 44.07 43.03 43.56 43.76 42.83 41.56 40.14 39.40 37.59 36.22 35.23 33.82 32.50 30.88 32.26 32.12 32.48 32.39 31.85 31.71 32.09 32.05 32.55 32.46 31.78
35.82 36.86 36.20 36.75 35.82 38.42 41.85 43.25 44.68 36.95 39.68 43.55 45.07 44.52 43.91 43.67 44.75 43.87 43.28 41.72 42.11 41.95 40.58 39.77 39.22 38.52 37.63 35.64 35.16 33.91 31.03 30.19 31.94 32.07 31.99 32.09 32.18 31.72 31.81 31.88 32.27 31.92 31.38 31.15
37.69 36.06 35.49 36.69 34.45 32.27 42.51 41.42 40.02 42.81 44.22 44.24 44.68 44.69 43.17 43.06 42.73 43.05 42.57 41.10 39.97 38.53 38.12 38.42 37.29 35.95 34.99 34.75 34.06 31.26 30.58 32.12 31.88 31.48 31.31 31.43 31.69 31.35 31.14 31.26 31.37 31.11 30.60 29.68
36.51 41.12 39.11 39.98 39.28 40.87 42.03 42.75 43.27 45.89 43.67 43.24 43.53 43.60 43.40 42.45 42.59 42.87 42.40 41.46 40.16 38.93 37.48 36.97 36.60 34.48 34.02 33.56 32.42 30.64 31.56 31.40 30.93 30.74 30.75 30.84 31.05 31.18 31.62 30.55 29.68 29.22 29.51 28.48
37.95 40.00 39.40 38.59 39.43 39.72 41.06 41.85 43.42 44.97 43.65 43.93 44.30 43.55 43.98 42.88 42.98 42.54 42.43 41.92 40.80 39.15 37.37 36.28 35.36 34.29 32.86 31.62 30.95 31.59 31.10 30.69 30.00 29.87 30.19 30.55 30.30 30.23 30.47 30.42 29.93 28.70 28.07 27.55
40.39 40.95 39.20 37.01 38.66 40.07 40.91 42.54 42.79 42.32 42.80 42.44 42.78 42.82 42.98 43.20 41.83 41.96 41.30 40.94 40.57 38.79 37.07 36.13 35.21 33.97 32.42 31.98 30.73 30.73 30.48 30.05 29.42 29.58 29.79 29.90 29.91 29.84 29.45 29.52 28.84 28.18 28.97 28.74
41.03 40.87 40.59 40.62 42.69 43.16 42.34 42.57 43.24 42.64 42.15 42.89 41.99 40.58 40.34 40.99 40.61 39.87 40.10 40.10 39.54 37.76 36.22 34.39 33.70 33.17 31.37 30.50 30.12 30.08 29.98 29.46 28.66 28.35 29.34 29.24 28.88 29.14 28.45 28.00 27.84 30.02 29.72 29.97

GFSCGP_sfc_wetblb_009.txt.gz
Wetbulb
45.80 41.12 38.43 42.66 45.93 45.81 46.76 45.72 45.89 48.76 51.51 50.82 49.73 49.33 51.21 53.84 54.40 54.15 53.60 54.11 54.80 54.59 55.68 56.57 57.87 58.75 59.44 61.24 62.71 63.64 63.82 64.79 65.43 65.10 62.92 60.79 58.40 58.02 57.14 56.64 56.14 55.40 54.80 54.58
40.98 37.42 43.87 45.86 46.11 45.47 46.05 45.28 46.09 48.48 50.42 49.52 48.88 48.49 51.92 53.56 54.18 55.23 53.61 53.71 54.51 53.85 54.41 55.19 56.17 56.97 57.17 58.10 59.91 61.16 62.92 64.03 62.98 61.56 60.74 59.42 57.81 56.77 56.02 55.48 54.17 53.57 52.30 51.89
37.52 40.79 45.34 44.12 41.41 44.36 45.78 44.60 45.47 45.15 49.04 49.28 48.19 46.82 49.54 53.07 54.40 53.08 53.58 54.77 55.06 53.86 53.29 54.18 55.10 55.75 56.40 56.09 57.13 57.42 58.00 58.86 59.28 59.36 58.88 57.96 57.62 56.93 54.42 53.44 52.65 51.42 50.36 48.68
39.41 42.66 42.18 42.52 40.67 44.10 42.32 47.83 47.80 46.43 45.55 40.90 49.04 39.92 47.81 50.89 48.75 49.58 51.31 53.59 53.93 53.87 54.10 54.39 54.51 54.94 55.46 55.91 57.23 57.06 57.27 57.44 57.99 58.49 57.44 56.15 53.94 51.30 51.91 51.86 51.34 50.64 49.12 46.83
35.45 39.28 40.03 40.03 42.47 45.73 44.42 49.69 47.99 47.07 46.09 44.74 44.08 42.46 46.54 50.72 47.85 48.86 50.79 52.89 53.58 53.80 53.75 53.64 54.14 54.58 55.23 55.93 55.73 55.61 55.27 55.08 55.46 55.44 54.96 53.54 51.90 51.42 51.05 50.46 49.27 48.16 47.67 46.38
38.72 45.04 43.82 43.03 46.36 47.79 49.25 47.61 46.95 46.94 44.63 37.77 43.79 43.50 44.16 46.92 48.29 49.73 50.88 52.20 52.84 53.11 53.55 53.85 54.18 54.45 54.19 54.97 54.61 54.57 53.27 52.74 53.12 53.07 52.55 51.61 50.53 49.77 48.64 47.30 46.35 45.87 45.49 44.90
36.77 36.47 41.58 45.67 41.67 45.66 46.81 42.90 37.15 34.74 35.60 36.20 45.30 43.27 45.77 47.15 48.66 50.15 50.27 51.43 52.61 53.14 52.94 52.58 52.54 52.86 53.17 53.24 53.06 52.52 51.77 50.65 51.09 50.46 49.93 49.24 48.44 47.51 45.73 45.11 44.07 43.16 42.78 42.55
33.28 31.30 38.33 42.13 44.08 41.75 43.32 43.49 38.03 31.51 33.21 37.61 42.52 38.77 44.70 49.19 50.21 51.22 52.19 52.47 52.79 52.62 52.99 52.41 53.02 53.23 53.14 52.75 52.13 51.54 50.43 49.05 48.81 48.19 47.19 46.92 46.53 45.39 44.08 43.10 42.45 41.78 41.28 41.11
33.29 34.48 42.40 44.05 48.03 46.60 41.89 41.64 45.64 41.14 42.63 40.01 40.96 44.77 47.07 48.80 48.38 48.87 50.70 51.76 51.66 52.26 52.65 52.65 53.29 53.51 52.97 52.31 51.82 51.04 49.49 48.00 47.20 46.42 45.66 44.51 43.88 42.98 42.14 41.86 41.69 41.00 40.81 39.96
37.59 33.40 38.85 44.61 47.47 45.39 45.30 48.47 40.06 42.19 34.19 33.90 39.59 41.46 42.56 45.19 46.92 48.08 48.82 50.67 51.70 52.54 52.57 52.77 53.01 53.09 52.72 51.85 50.99 50.63 49.55 47.46 46.10 44.94 44.03 42.92 41.81 41.24 40.99 40.90 39.80 39.69 39.65 39.51
40.39 35.81 35.26 41.15 42.16 40.58 42.47 42.03 44.09 44.92 42.29 37.57 36.45 40.13 48.58 46.78 47.86 48.10 49.23 51.27 51.91 52.16 52.05 52.31 52.73 52.85 51.85 50.76 49.89 48.78 47.51 45.68 44.25 43.50 42.81 41.76 40.49 40.07 40.08 39.52 39.16 38.81 38.78 38.54
42.50 38.71 33.23 37.27 42.61 47.83 46.59 44.06 45.37 40.57 37.58 41.15 40.00 40.12 48.24 48.31 48.73 49.39 49.84 50.94 52.58 52.71 52.39 52.37 52.48 51.74 50.00 49.27 48.67 47.54 46.96 45.21 43.57 42.30 41.27 40.16 39.95 39.74 39.26 38.68 38.34 38.26 37.66 38.05
45.15 39.33 34.86 36.20 39.98 43.69 41.75 45.14 46.78 46.30 44.92 40.70 38.03 40.63 48.26 49.22 49.27 49.63 49.69 50.83 52.22 52.08 52.07 51.86 51.77 50.42 49.24 48.66 47.74 46.64 45.88 43.94 42.05 40.96 40.08 39.49 39.14 38.94 38.14 37.94 37.72 37.51 37.12 36.93
47.84 42.36 40.22 37.31 40.31 42.80 40.42 42.76 45.53 44.08 40.09 40.87 42.00 42.78 44.94 47.42 48.11 48.85 49.65 51.03 51.66 51.61 51.36 51.16 50.89 50.10 49.51 48.35 47.00 45.64 44.27 42.66 40.79 39.48 38.89 38.37 38.01 37.28 37.46 37.30 36.95 36.67 36.55 36.17
45.95 40.86 43.09 43.49 44.51 44.51 43.55 43.05 43.39 42.99 44.08 41.10 43.64 43.53 46.74 48.06 49.11 49.92 50.62 50.89 50.77 50.32 50.29 50.43 50.30 49.95 49.08 47.33 45.87 44.44 42.87 41.13 39.79 38.27 37.66 36.83 36.47 37.17 36.79 36.51 36.44 36.26 36.10 36.13
45.69 40.78 42.48 40.77 42.91 43.91 42.25 44.09 44.67 44.37 45.10 44.95 45.42 45.32 50.39 51.07 51.09 50.24 50.56 50.28 49.86 49.98 50.23 50.35 50.41 50.12 48.33 46.72 44.62 42.84 41.09 39.58 38.50 37.14 36.13 36.05 36.17 36.11 35.95 35.81 35.37 35.39 35.50 35.67
42.89 42.15 40.64 36.97 41.36 41.38 37.89 42.68 43.55 44.33 45.59 45.50 42.17 46.85 50.83 47.14 47.91 49.25 49.82 50.16 49.84 50.13 50.04 49.83 49.76 49.74 48.33 46.25 44.30 41.39 39.83 38.31 37.19 36.17 35.72 35.35 35.27 34.90 35.00 35.06 34.79 34.70 34.76 35.44
42.95 42.70 41.59 37.02 38.86 31.25 42.42 44.95 46.72 45.00 46.32 47.72 47.81 49.07 48.25 48.51 48.98 50.00 50.95 49.76 49.40 49.22 49.12 49.44 49.66 48.83 47.11 45.29 42.99 41.28 38.21 37.29 36.29 35.27 34.90 34.95 34.63 34.06 34.32 34.12 33.96 34.29 34.60 34.40
46.46 43.16 39.10 35.89 36.38 41.03 43.79 41.70 43.13 43.57 43.32 47.98 47.17 48.45 47.99 48.34 46.99 45.31 47.90 49.47 48.26 48.36 49.05 49.82 49.79 47.49 44.71 42.09 40.81 38.14 37.11 36.10 35.07 34.45 34.09 34.05 33.95 33.22 33.21 32.90 33.13 33.61 33.74 33.64
44.11 44.84 40.91 38.13 33.49 32.45 40.45 43.50 45.72 47.49 39.40 48.71 49.41 47.95 46.74 45.65 41.84 43.98 46.06 46.55 46.16 46.64 47.13 46.82 46.11 43.54 42.01 40.82 39.13 37.57 36.33 35.29 33.23 32.87 32.88 33.63 33.55 32.92 32.43 32.58 32.58 33.41 33.46 32.76
37.55 38.96 36.49 36.11 35.67 40.67 44.04 44.66 46.17 37.10 40.94 44.99 47.21 47.72 46.15 44.55 46.46 45.86 45.58 44.65 45.09 44.90 44.01 43.30 42.57 41.57 40.58 38.78 38.14 37.08 34.30 32.52 32.52 32.51 33.08 33.30 33.37 32.81 32.72 32.36 32.81 32.69 32.21 31.89
36.99 34.74 35.45 36.83 34.92 33.79 45.58 43.60 40.84 44.25 46.14 46.54 47.39 47.36 46.60 44.93 44.56 44.53 43.76 42.36 42.08 40.89 40.45 41.33 40.49 38.84 37.77 37.71 37.31 33.97 32.52 32.67 32.51 32.86 32.63 32.70 32.85 32.67 32.56 32.45 32.62 32.07 31.23 30.36
38.98 43.22 40.84 41.95 41.26 43.78 45.97 44.40 46.07 47.82 46.38 46.66 46.56 46.51 45.50 43.99 43.49 43.39 42.49 41.98 41.15 40.25 39.54 40.14 39.24 36.60 36.28 36.10 35.69 32.75 32.32 32.40 32.36 32.11 31.96 32.18 32.19 32.30 32.62 31.74 31.02 30.40 30.31 29.11
41.09 42.32 42.45 40.93 41.81 42.79 44.29 44.56 46.15 48.22 46.69 46.87 46.24 45.39 45.30 43.63 43.73 43.26 43.21 42.45 41.36 40.75 39.29 39.10 37.57 35.92 34.57 34.02 32.51 32.78 32.52 32.29 31.45 31.08 31.36 31.51 31.20 31.67 31.67 31.98 31.19 30.00 28.92 28.09
42.22 42.06 41.65 40.42 40.68 41.64 42.87 44.48 44.99 44.94 45.41 44.54 45.02 45.18 44.75 44.31 43.68 43.71 43.20 43.09 42.54 40.92 39.65 38.59 37.77 36.80 34.58 33.14 32.78 32.51 32.05 31.65 30.50 30.71 30.50 30.88 31.34 30.70 30.51 30.82 30.28 29.47 29.86 29.58
42.53 42.82 41.21 41.87 44.50 44.96 43.44 44.55 45.07 43.70 43.30 43.70 42.88 42.06 42.78 44.29 42.59 42.66 42.20 42.42 41.90 40.25 39.09 37.67 36.99 35.18 34.18 33.08 32.24 31.96 31.72 30.93 30.06 29.11 29.85 30.34 29.89 30.25 30.02 29.23 28.97 31.87 31.88 31.96

GFSCGP_sfc_wetblb_012.txt.gz
Wetbulb
44.30 39.55 36.73 39.69 41.55 42.42 42.90 42.12 42.59 45.21 49.92 47.67 47.22 47.29 49.76 51.35 51.04 49.89 49.34 48.57 50.11 50.46 51.97 53.07 53.76 54.91 57.15 58.77 58.92 59.83 60.49 61.16 61.59 60.86 57.41 55.27 53.14 52.34 51.58 51.14 50.29 49.28 48.78 49.17
39.72 35.64 40.75 43.16 43.04 41.81 41.55 40.91 41.75 46.23 49.25 47.85 47.49 46.64 49.97 49.96 50.52 50.96 50.25 49.08 49.67 49.75 50.15 51.51 52.52 52.30 54.43 55.81 57.26 59.09 58.97 58.07 57.82 57.06 55.57 54.72 52.20 51.18 50.42 49.58 48.34 47.04 45.90 45.72
35.77 38.49 42.64 41.38 40.35 39.68 39.76 39.94 41.68 42.64 47.14 47.43 45.37 43.25 45.14 49.06 50.71 51.04 52.26 50.35 51.08 49.95 49.32 49.95 50.24 50.95 51.61 52.28 52.86 54.53 55.02 55.63 55.81 55.30 54.75 53.31 52.52 50.66 48.49 47.78 46.41 45.58 44.09 43.33
37.94 41.73 39.81 39.50 38.14 40.37 36.31 44.12 44.14 44.25 43.12 38.45 44.60 33.05 42.69 46.84 48.31 49.57 47.44 47.84 49.90 49.72 49.87 50.51 50.40 50.18 50.60 51.48 52.62 53.30 53.91 54.16 54.61 54.10 52.70 50.52 47.77 45.85 46.42 45.85 45.53 44.33 43.35 41.72
35.17 37.70 37.49 36.78 38.91 41.57 38.69 45.14 43.10 44.89 43.12 40.35 41.99 37.68 41.04 46.08 45.69 44.83 45.31 47.28 49.62 49.58 49.66 49.57 50.14 51.41 51.66 51.57 50.52 50.50 50.78 50.87 50.90 50.37 49.54 47.83 46.07 45.49 45.18 44.44 42.90 42.14 41.72 40.79
37.92 42.94 40.96 39.38 41.40 41.78 44.10 41.35 42.69 44.58 42.68 36.19 40.92 38.89 38.52 42.72 44.59 45.04 46.04 47.90 49.49 49.31 49.25 49.74 50.56 51.27 50.58 50.49 49.73 48.72 48.37 48.41 48.42 47.73 47.02 45.86 44.35 43.58 42.28 40.90 39.99 39.66 39.88 39.78
36.26 36.66 40.21 40.69 39.39 41.31 42.11 39.60 34.75 33.08 34.28 33.43 41.83 39.37 40.07 42.27 46.06 47.57 46.96 48.04 48.92 49.30 49.03 48.92 48.60 48.85 49.18 48.66 48.20 47.95 47.08 46.01 46.02 45.19 44.33 43.58 42.30 40.85 38.97 38.60 37.83 37.12 37.25 37.12
29.52 27.33 37.00 39.21 38.84 38.16 39.76 39.11 32.95 29.02 31.16 32.91 41.80 35.22 39.77 45.58 46.57 48.06 49.18 49.18 49.23 48.81 48.66 48.47 48.53 48.48 48.66 48.60 46.94 46.31 45.28 44.11 43.76 42.72 41.65 40.99 40.73 39.46 38.46 37.65 37.00 36.19 35.91 35.70
32.03 30.94 39.87 42.27 41.21 43.14 38.32 33.63 40.39 37.55 39.07 34.50 35.19 38.49 41.25 44.89 44.20 45.93 47.45 48.48 48.01 48.54 48.57 48.38 48.80 48.92 48.35 47.19 46.55 45.49 44.02 43.09 42.39 41.32 39.76 38.46 37.99 37.50 36.86 36.45 36.29 35.85 35.63 37.49
34.83 31.53 39.68 41.05 44.16 44.80 42.39 45.10 37.20 37.87 31.40 28.36 33.63 35.69 36.30 40.31 41.61 43.86 46.10 46.81 47.88 48.64 48.62 48.65 49.18 48.74 48.15 47.46 46.38 45.04 43.71 41.98 40.92 39.80 38.55 37.55 36.27 36.20 35.98 35.69 34.75 34.90 35.10 35.17
36.76 33.76 35.59 38.34 40.90 39.03 40.43 40.51 41.57 41.30 38.84 32.24 29.52 33.45 42.91 42.30 44.22 43.45 45.00 47.93 48.42 48.48 48.69 48.97 48.98 48.68 47.27 46.18 45.41 43.89 42.04 40.58 39.41 38.79 37.56 36.02 35.52 35.76 35.30 34.66 34.37 34.21 34.21 34.00
37.74 36.03 32.94 35.14 40.89 45.74 44.67 41.90 42.57 37.13 34.63 35.72 34.46 32.98 43.92 43.92 44.88 45.51 45.05 48.79 49.25 49.32 48.98 48.99 48.37 47.26 45.51 44.86 43.94 42.64 41.44 39.74 38.69 37.90 36.39 35.68 35.59 35.15 34.18 33.76 33.87 34.07 33.20 33.48
38.30 34.93 31.83 32.86 39.42 43.72 42.07 43.42 43.65 41.96 40.38 35.24 31.79 32.72 44.14 43.84 43.97 45.04 45.06 47.45 49.12 48.89 47.88 47.89 47.60 46.22 44.66 44.15 43.11 42.22 40.97 38.38 37.63 36.92 35.75 35.17 34.51 33.63 33.04 33.22 33.47 33.61 33.18 32.44
46.03 40.15 34.14 33.25 36.73 40.42 39.47 41.68 42.98 40.94 35.37 35.71 35.67 34.97 40.04 42.77 43.50 44.45 45.02 46.41 48.15 48.45 48.36 47.45 46.95 45.28 44.41 43.80 42.66 41.28 39.28 37.65 36.62 35.89 35.03 33.83 32.78 32.72 32.57 32.83 33.29 33.57 32.60 31.67
40.47 38.23 39.75 41.42 42.68 42.65 41.89 41.36 41.83 40.53 40.84 35.17 37.83 38.85 40.70 43.08 43.41 44.21 45.09 46.85 47.57 47.59 47.61 46.98 45.97 44.99 43.90 42.59 41.36 39.98 38.15 36.55 35.76 34.76 33.96 32.71 33.17 33.41 32.87 33.18 32.94 32.52 31.93 32.05
42.50 37.57 40.35 38.31 41.38 42.04 40.54 42.46 42.47 42.19 41.66 40.82 42.53 40.40 45.68 45.07 45.46 44.56 44.25 45.81 46.90 47.30 47.51 46.89 46.78 45.41 43.37 41.17 39.67 38.70 36.67 35.17 34.98 33.62 32.91 33.62 33.37 33.26 32.76 32.37 31.60 31.16 30.91 30.78
39.98 39.47 37.57 32.13 38.42 38.84 34.31 39.66 41.81 42.10 43.11 43.08 39.83 43.83 44.57 42.99 45.04 44.57 44.71 46.18 46.18 46.41 46.66 46.32 46.30 45.08 42.86 40.68 39.23 36.30 35.00 34.45 33.54 33.26 33.30 33.28 33.30 32.52 31.72 31.29 30.48 29.83 29.22 29.25
39.61 39.24 38.89 32.83 34.03 26.34 36.92 40.65 42.93 42.45 43.59 44.07 44.09 44.57 45.11 44.30 44.33 44.57 45.42 44.92 44.94 46.15 46.36 46.19 45.72 44.08 41.66 39.84 37.85 35.53 34.13 33.64 33.41 32.68 32.80 33.04 32.45 31.20 30.51 29.58 28.95 28.19 28.41 28.10
44.26 41.48 36.85 33.21 31.88 37.09 39.26 38.77 38.86 39.44 40.08 44.42 43.71 45.23 43.53 43.37 41.95 40.67 43.60 44.78 44.10 44.76 45.50 45.26 44.07 41.37 39.02 37.36 35.11 34.28 33.78 32.72 32.44 32.06 31.61 31.62 31.23 29.42 29.01 28.07 27.18 27.33 27.39 27.37
44.09 42.90 39.51 32.77 29.53 27.48 35.69 40.03 43.13 43.16 34.47 41.97 44.26 44.36 42.21 42.07 36.11 37.76 42.11 43.27 42.80 43.51 43.65 42.16 40.49 39.24 37.33 35.09 34.41 33.32 32.02 31.38 30.31 30.36 30.23 30.49 30.15 29.04 27.50 26.99 26.47 27.25 27.41 27.97
37.92 38.69 36.27 35.38 32.91 35.62 40.79 41.29 42.70 33.22 35.44 41.63 43.24 44.02 42.56 38.93 40.02 41.92 42.34 41.42 41.71 40.80 39.61 39.12 38.22 36.56 34.86 34.74 34.33 31.99 30.40 28.82 29.45 30.03 30.23 30.11 29.39 28.09 27.29 26.63 26.82 26.78 26.17 26.09
37.08 35.89 35.37 36.00 33.84 31.40 43.12 40.93 36.94 40.51 41.18 42.44 43.30 43.04 40.98 40.87 41.31 40.82 40.37 39.58 38.83 37.93 38.19 37.97 35.56 33.84 34.09 34.59 32.41 29.49 27.95 28.65 29.40 29.71 29.46 28.67 27.78 28.75 29.65 26.52 26.40 26.39 25.13 23.93
36.62 39.43 38.02 38.41 37.45 42.10 41.85 41.17 42.80 44.32 42.37 42.57 41.51 42.25 42.20 40.73 39.86 39.82 38.78 37.97 37.70 37.13 37.12 36.54 34.20 32.74 32.56 32.21 30.84 27.79 27.46 28.98 28.98 28.10 27.50 27.23 27.27 27.54 27.86 26.33 25.42 24.71 24.29 23.14
40.05 41.62 37.14 38.00 38.10 39.24 40.70 41.98 43.05 44.78 43.62 43.47 43.21 42.55 42.12 40.36 40.50 39.32 38.95 37.94 37.11 36.58 35.97 35.10 32.73 31.10 29.47 28.56 29.11 28.15 28.50 29.04 28.34 26.77 25.95 26.00 25.54 27.12 26.50 26.52 25.95 24.36 23.11 23.16
37.69 38.62 37.89 36.22 37.76 39.55 40.33 41.13 41.98 42.15 42.35 41.89 42.14 42.13 41.55 41.25 40.18 40.34 39.71 38.79 37.71 36.44 35.39 34.57 32.85 31.09 28.68 28.44 28.08 28.21 28.80 28.36 26.20 24.98 24.59 25.19 25.89 25.38 24.76 25.45 24.86 24.22 24.88 26.28
39.30 38.37 36.89 36.93 42.10 40.80 40.27 41.70 42.48 41.34 41.15 41.31 40.80 39.74 40.76 40.45 39.63 39.54 38.71 39.07 37.82 35.92 35.19 34.05 32.40 29.61 28.75 28.46 27.99 28.22 28.60 26.95 25.24 23.80 24.13 24.07 23.91 24.04 23.99 23.18 24.73 30.26 31.38 32.01

GFSCGP_sfc_wetblb_015.txt.gz
Wetbulb
41.99 36.93 34.55 36.98 39.91 39.90 38.19 37.41 38.44 42.27 46.45 45.27 44.83 45.53 47.73 49.70 49.29 47.19 45.44 45.11 47.30 48.39 49.91 51.87 53.01 54.45 55.67 56.71 57.64 58.29 59.13 59.49 58.38 55.55 53.20 51.43 49.42 49.14 48.17 47.38 46.41 45.25 45.23 44.68
36.97 34.60 38.98 41.06 40.92 40.30 38.92 36.83 36.71 40.90 45.52 45.04 44.79 44.55 48.10 49.21 49.83 48.87 48.11 46.16 46.97 47.38 48.68 50.33 51.58 52.63 53.86 54.27 55.29 55.55 55.60 55.97 56.07 55.04 53.01 51.16 49.31 47.58 46.84 45.61 43.53 42.85 42.35 42.58
33.74 37.09 41.40 39.83 38.12 37.37 37.70 36.14 36.41 37.47 42.80 45.22 43.50 42.06 44.55 47.92 50.18 49.63 49.08 47.73 49.04 48.85 48.46 47.77 48.68 49.93 50.79 51.40 52.50 53.41 53.62 53.96 53.83 53.19 52.24 50.86 49.38 47.32 45.37 43.72 42.25 41.22 41.21 41.20
35.98 39.60 38.08 37.79 36.54 37.83 33.38 40.22 39.91 39.09 38.43 35.90 43.27 35.89 41.27 45.61 45.80 47.06 46.29 45.39 47.68 48.01 48.78 48.57 48.29 48.33 49.38 49.74 51.30 52.47 53.15 53.07 52.62 51.96 50.80 48.49 45.98 44.07 43.91 43.59 41.78 40.44 39.90 39.59
33.84 36.18 35.85 34.82 36.55 39.31 35.50 40.96 39.45 39.37 37.80 38.69 40.23 37.90 38.58 43.64 44.48 45.77 45.42 45.66 47.21 48.38 49.05 48.37 48.63 49.59 49.73 48.97 48.13 48.15 48.81 49.07 48.98 48.76 47.43 46.10 43.89 43.27 42.88 41.06 39.79 38.87 38.09 38.61
36.78 41.50 39.62 38.07 39.81 40.02 41.53 38.72 38.51 39.13 38.50 32.31 37.70 37.28 35.56 39.72 43.31 46.01 44.20 46.02 47.01 47.71 48.04 48.71 49.55 49.57 48.14 47.35 46.54 46.11 46.36 45.56 45.74 45.91 45.16 43.81 41.93 40.24 39.14 37.94 37.18 37.26 37.26 37.09
36.53 36.47 39.42 41.02 36.88 39.59 38.16 34.12 28.14 27.93 29.26 29.10 38.99 35.23 38.29 42.05 45.23 47.62 44.59 46.03 46.91 47.71 47.89 48.23 48.14 47.70 46.81 45.81 45.19 45.22 44.54 43.17 42.88 42.22 41.42 40.36 38.74 37.72 36.88 36.22 35.31 35.11 35.10 34.76
26.97 21.98 35.36 39.15 37.00 34.01 35.02 33.82 29.34 21.95 26.33 31.87 40.73 35.22 40.36 46.46 45.37 47.16 47.06 47.29 47.22 47.10 47.79 47.85 47.83 47.08 46.03 45.62 44.33 43.51 42.49 41.35 40.97 40.05 39.06 38.34 37.90 36.85 36.06 35.57 34.67 34.15 34.06 33.77
27.37 28.35 38.93 39.19 39.62 39.27 34.70 31.17 37.07 34.21 36.37 32.75 37.45 38.88 41.79 41.56 42.62 44.94 45.67 46.17 46.02 46.19 47.02 47.21 47.57 47.32 45.77 44.21 43.20 42.33 41.37 40.23 39.54 38.26 36.87 35.87 35.87 35.53 34.61 34.12 34.16 33.70 33.58 36.24
34.42 28.09 36.40 37.86 39.98 39.78 38.13 40.56 32.16 32.94 29.40 28.48 32.42 32.37 34.75 37.24 40.47 43.87 44.53 44.84 45.73 46.44 46.66 47.14 47.57 47.11 45.85 44.24 42.78 41.53 40.73 39.47 38.29 36.92 35.55 35.11 34.26 34.25 33.81 33.45 32.74 32.91 32.95 33.16
36.79 33.40 32.55 34.31 36.23 33.77 36.25 36.75 37.21 37.60 35.14 31.78 29.35 32.18 39.42 40.11 42.30 43.26 44.75 45.60 45.81 46.19 46.61 47.03 47.44 47.38 45.51 43.64 42.19 40.49 39.40 37.99 36.75 36.02 34.53 33.86 33.85 33.70 33.19 32.66 32.40 32.27 32.31 32.28
37.74 35.05 30.22 32.70 40.01 42.61 39.88 38.34 38.07 32.85 32.89 35.81 31.55 31.06 39.89 41.86 42.11 44.47 44.78 46.33 46.82 47.12 47.00 47.30 47.31 45.84 44.31 43.21 41.16 39.71 38.09 37.18 36.25 35.18 34.25 33.81 33.65 33.00 32.10 31.84 32.03 32.33 31.62 32.12
38.14 33.75 28.06 31.67 37.69 41.72 38.23 41.04 40.84 40.05 39.13 35.69 29.60 31.23 41.79 40.58 41.44 42.72 44.47 45.95 46.52 46.54 46.56 46.59 45.72 44.40 43.71 42.25 40.61 39.02 37.25 35.96 35.23 34.72 33.80 33.11 32.31 31.78 31.13 31.25 31.85 32.35 31.85 31.33
40.38 36.63 34.04 31.41 36.09 40.58 37.44 38.78 40.94 38.98 35.22 34.59 32.50 34.42 37.84 39.72 41.44 41.37 44.01 46.15 46.29 46.64 47.00 46.03 44.67 43.73 43.17 41.87 40.75 38.51 35.93 35.37 34.66 34.06 32.90 31.72 31.39 31.11 31.07 31.65 32.05 31.99 31.82 31.01
37.85 33.41 35.58 35.92 37.12 40.13 40.54 39.76 38.21 36.14 40.02 36.40 35.35 36.49 38.64 40.45 41.01 41.33 44.35 46.05 45.95 45.91 46.11 45.69 44.44 43.23 42.48 40.96 39.32 37.18 35.19 34.29 33.92 32.94 32.07 31.46 31.58 31.81 31.83 31.64 31.33 31.60 31.09 30.86
39.39 34.65 38.08 38.12 41.26 41.45 39.80 41.48 41.86 41.54 42.04 40.97 39.87 38.24 40.49 41.11 41.42 41.17 43.36 46.02 46.01 45.83 46.16 45.68 44.81 43.52 42.04 40.32 38.20 36.45 34.18 33.29 33.21 32.09 31.61 32.13 31.92 31.97 31.49 31.09 30.98 30.12 29.85 29.57
38.41 37.66 37.88 32.29 40.39 39.16 35.86 40.28 40.61 40.93 41.49 40.90 36.94 41.44 40.51 40.78 42.86 42.09 42.25 46.09 45.65 45.13 44.98 45.18 44.81 43.35 41.34 39.42 37.38 34.59 32.92 32.48 31.81 31.44 31.92 32.21 31.93 31.49 31.27 30.66 29.71 28.73 27.53 26.77
36.94 37.18 38.77 32.58 33.07 25.57 36.43 39.93 43.31 42.00 42.50 42.62 43.05 43.02 42.28 41.31 39.99 40.77 41.50 43.76 44.76 45.71 45.40 45.42 44.55 41.46 39.63 37.02 35.52 33.35 32.76 31.85 31.62 31.29 31.30 31.64 31.59 30.58 30.00 28.92 27.68 26.02 26.05 25.94
42.12 39.16 36.37 31.85 30.40 34.36 36.25 37.53 38.09 38.47 38.62 42.49 42.77 42.23 41.34 41.12 40.99 39.31 41.39 42.50 42.50 43.13 43.43 42.70 40.58 38.94 37.22 35.03 33.84 32.86 31.72 31.29 31.00 30.57 30.59 30.74 30.30 29.26 28.33 26.83 25.27 25.23 25.34 25.29
42.45 40.83 37.48 27.99 25.89 26.42 34.82 38.87 40.35 40.27 33.35 39.99 40.50 41.60 41.29 40.49 36.28 36.41 39.72 42.32 41.18 41.23 40.89 38.48 37.40 35.67 33.69 32.65 33.16 31.74 29.99 30.06 29.63 29.76 30.01 30.13 29.58 28.30 26.68 25.20 24.77 25.42 25.49 25.51
38.10 38.23 31.54 32.20 31.50 33.27 39.82 39.64 40.50 32.34 33.90 39.82 40.32 41.58 40.94 38.25 38.74 39.66 40.27 39.04 38.94 38.48 37.27 37.02 35.89 33.37 32.40 32.11 32.57 30.65 29.04 28.19 29.27 29.62 29.54 29.32 28.62 27.22 25.71 25.01 25.25 25.33 24.46 24.01
36.95 35.65 35.46 36.04 33.16 29.16 40.57 38.50 35.26 38.61 39.38 39.96 39.50 39.63 38.44 38.89 39.43 38.85 38.31 37.57 37.71 36.75 36.02 35.22 33.62 32.57 31.90 32.32 31.36 28.09 26.98 27.98 28.61 28.82 28.81 27.91 26.41 27.29 28.58 25.72 25.13 24.94 23.36 21.73
36.59 39.04 37.14 37.49 37.35 41.23 41.10 39.45 41.65 42.09 40.55 39.19 39.24 39.62 39.60 38.45 37.88 37.79 36.34 36.08 35.75 35.59 34.16 33.80 32.89 31.37 30.28 29.51 29.24 26.43 26.53 28.02 28.02 27.21 26.11 25.54 25.61 26.18 26.24 25.21 24.48 23.56 22.26 21.11
38.66 41.54 37.64 38.39 39.35 38.43 38.99 40.32 41.74 42.17 40.70 40.50 40.77 40.20 39.89 37.58 37.66 36.47 36.30 35.72 35.60 35.13 33.69 32.84 31.40 28.79 27.03 27.60 27.74 26.99 27.28 27.82 26.60 25.06 24.41 24.79 24.28 26.24 24.97 24.63 24.41 23.02 21.40 21.17
37.33 39.08 37.23 35.12 36.07 37.31 38.16 39.06 40.26 40.44 40.98 40.49 40.48 40.53 39.44 38.61 37.41 37.08 36.34 35.94 35.47 34.70 32.53 31.60 30.04 28.33 26.57 26.38 26.32 26.58 26.92 26.52 24.55 24.20 23.71 23.24 23.96 23.55 22.84 23.22 23.06 23.17 23.39 25.27
37.40 36.49 35.66 35.88 39.12 38.58 38.08 40.34 40.84 40.33 39.89 40.73 40.26 38.88 39.55 40.21 38.82 38.24 36.72 36.21 35.02 33.43 32.84 31.30 29.39 27.09 26.17 25.75 25.73 26.20 26.73 25.71 24.13 23.07 22.86 22.72 22.82 22.21 21.91 21.17 22.20 28.45 30.07 30.94

GFSCGP_sfc_wetblb_018.txt.gz
Wetbulb
40.46 36.21 33.62 35.50 38.77 38.79 37.49 35.02 34.28 37.94 43.78 42.24 42.55 43.62 46.10 48.96 47.38 46.02 46.87 45.61 44.53 47.36 48.84 50.22 51.69 52.96 54.96 55.81 56.56 56.69 58.01 54.75 54.52 52.75 50.39 48.53 48.16 47.68 46.35 44.67 44.08 43.31 42.63 42.25
37.60 34.14 38.27 39.03 38.69 38.52 37.55 35.63 35.17 38.30 41.79 42.47 41.28 41.50 45.78 47.95 48.87 48.85 48.81 46.12 44.90 46.55 47.36 49.53 52.03 52.74 54.85 55.07 55.58 56.23 56.28 54.02 53.70 52.58 49.94 48.34 46.42 46.56 43.59 42.06 40.85 40.97 40.94 41.13
34.16 35.84 39.91 38.57 37.04 35.89 35.77 34.52 34.65 34.81 39.08 40.79 40.09 37.90 41.71 46.85 48.74 49.28 50.42 48.00 47.08 48.21 47.68 48.22 50.14 51.04 52.06 52.40 52.99 53.48 53.06 52.77 52.19 51.01 49.46 47.81 46.83 44.60 41.92 40.22 39.18 39.22 39.77 39.87
36.24 39.29 37.47 37.23 35.91 36.55 32.30 38.76 38.40 37.13 35.11 29.84 40.19 31.61 38.81 43.83 45.53 46.99 48.86 43.94 46.88 47.70 47.90 47.94 49.08 49.45 50.33 50.27 51.35 51.85 52.25 51.50 50.97 50.60 48.39 46.88 44.75 42.31 41.76 40.44 38.63 37.84 38.34 38.45
34.06 35.22 35.45 33.96 35.13 38.29 34.33 39.39 37.57 37.49 35.05 33.39 34.01 32.24 37.52 43.04 41.99 45.48 48.17 43.81 46.85 47.98 48.19 48.57 49.49 50.00 49.52 49.55 49.50 49.80 50.34 50.08 49.24 48.60 47.45 45.63 42.86 41.96 40.99 38.93 37.13 36.30 36.40 37.27
36.41 41.68 38.93 37.00 38.73 39.65 40.24 36.98 36.28 35.60 35.77 28.28 32.09 33.09 33.88 39.24 42.26 44.59 46.51 45.35 46.65 47.71 47.42 47.55 48.37 48.80 47.07 46.33 46.26 46.68 47.92 46.48 46.92 46.40 44.44 43.20 41.38 39.20 38.06 36.54 35.89 35.76 35.62 35.63
35.19 36.32 39.14 40.70 36.72 38.92 37.28 32.91 24.77 22.62 23.75 22.95 33.42 31.67 34.16 41.06 43.37 46.26 47.47 44.16 45.62 47.43 46.54 47.21 47.39 46.94 45.54 44.70 43.99 44.26 44.94 42.75 43.26 42.75 41.67 40.34 38.68 37.38 35.89 35.08 34.57 34.20 33.90 33.57
29.28 26.54 34.84 39.19 37.54 34.93 34.69 33.46 25.34 16.79 17.94 23.32 35.99 30.55 35.62 43.36 46.12 47.62 47.29 46.99 46.15 46.17 47.21 47.59 47.30 46.45 45.17 44.31 42.80 42.30 42.24 40.17 40.38 39.71 37.69 36.67 36.40 35.68 35.02 34.40 33.80 33.36 33.00 32.86
28.57 28.25 37.86 38.49 39.33 38.94 33.34 31.18 35.49 29.06 30.59 29.63 32.70 36.77 42.57 45.39 42.32 42.45 46.13 45.01 44.96 46.07 46.88 46.94 46.51 45.83 44.64 43.27 41.86 41.36 40.49 38.74 38.17 37.15 36.24 34.84 34.74 34.63 33.77 33.14 33.00 32.63 32.57 35.04
32.67 24.35 34.83 37.49 38.93 38.87 35.47 37.28 28.46 28.72 22.51 20.54 30.85 35.26 36.54 41.05 41.04 41.02 42.38 43.24 44.79 46.25 46.53 46.40 46.32 45.33 44.28 42.65 40.52 39.53 39.38 37.96 36.22 35.16 34.76 34.20 33.38 33.18 32.65 32.42 31.85 31.83 31.79 31.94
34.79 30.63 31.24 34.70 32.82 32.16 33.76 32.14 33.38 31.77 29.86 29.81 27.05 32.63 41.50 41.28 42.62 42.24 42.69 44.38 44.72 45.44 45.81 46.34 46.16 45.28 43.08 41.42 40.19 38.36 37.74 36.32 34.76 34.14 33.09 32.62 32.40 32.37 31.97 31.58 31.21 31.26 31.17 31.12
36.15 33.33 27.64 30.37 37.32 39.05 36.53 33.43 33.31 28.47 27.25 31.35 31.84 32.01 42.99 42.14 44.26 45.27 44.26 44.69 45.34 46.14 46.25 46.18 45.93 44.08 42.11 40.60 39.08 37.84 36.23 35.40 34.13 33.38 32.78 32.37 32.17 31.72 31.02 30.80 30.97 31.19 30.51 30.77
37.54 33.65 27.12 28.70 33.23 37.17 35.55 35.71 37.24 36.54 35.52 32.80 30.66 32.69 40.96 40.53 42.36 45.02 43.56 43.83 44.88 45.09 45.31 45.50 44.70 43.31 41.93 39.87 38.03 36.63 35.44 34.23 33.50 33.36 32.44 31.80 31.19 30.75 30.16 30.35 30.86 31.12 30.59 30.28
40.65 35.27 31.85 27.14 33.88 37.12 34.60 34.65 37.79 35.99 31.24 32.07 31.87 34.23 39.39 38.12 39.97 41.34 42.42 43.85 44.37 44.87 45.39 44.99 43.79 42.65 41.52 39.73 37.88 35.99 34.00 34.09 33.18 32.87 31.74 30.87 30.49 30.16 30.15 30.64 30.78 30.86 30.67 29.92
37.63 31.93 33.76 34.69 35.89 37.20 37.95 36.09 37.94 36.65 36.75 32.88 35.62 36.95 40.42 40.84 40.76 42.05 43.43 43.73 43.86 44.26 44.49 44.46 43.37 42.27 40.59 38.78 36.99 35.42 33.87 33.17 32.91 32.04 31.23 30.63 30.48 30.58 30.64 30.69 30.49 30.43 29.71 29.57
38.62 31.87 34.48 35.12 38.58 37.63 38.04 38.84 39.83 39.06 36.83 35.69 35.60 35.32 42.36 39.80 40.25 41.07 42.53 43.84 43.98 44.34 44.78 44.54 43.76 42.02 40.03 38.92 36.51 35.11 32.84 32.26 32.85 31.40 30.87 31.11 30.91 30.70 30.55 30.18 29.44 29.09 28.45 27.79
37.10 34.85 34.05 33.30 39.30 38.70 36.08 38.67 38.92 38.96 38.59 36.81 33.01 39.51 40.53 39.98 41.08 40.81 41.85 44.78 44.60 44.90 44.97 44.16 43.06 42.44 40.97 38.19 35.99 33.43 32.26 32.07 31.37 30.87 30.90 31.00 30.87 30.37 30.08 29.44 28.67 27.64 26.52 26.22
37.26 35.84 37.53 33.55 36.17 26.16 36.50 44.05 43.10 40.19 40.25 42.42 42.46 40.17 39.98 40.17 38.50 39.59 40.24 43.97 44.40 45.20 44.80 44.27 43.29 41.29 39.14 36.21 34.38 32.35 31.95 31.25 30.77 30.24 30.45 30.84 30.70 29.77 28.85 27.92 26.62 25.65 25.68 25.65
41.17 38.60 33.00 30.14 28.84 33.36 35.71 37.35 39.38 39.98 39.29 42.35 43.14 39.86 39.58 39.87 39.98 39.79 40.45 41.56 42.54 43.49 44.51 44.13 42.25 38.06 35.50 33.83 33.01 31.91 30.63 30.31 30.12 29.59 29.90 30.08 29.61 28.24 27.27 26.01 25.07 25.31 25.03 24.47
38.93 39.39 35.42 27.33 26.07 26.82 34.81 37.18 38.86 39.07 32.48 39.00 41.11 39.63 39.47 39.11 36.25 38.04 39.26 39.94 39.51 39.29 39.59 37.64 36.36 34.86 33.20 32.20 32.47 31.19 29.37 28.98 28.65 29.10 29.35 28.92 28.35 27.36 26.00 24.78 24.32 24.66 23.97 23.83
37.00 35.86 31.02 30.22 31.30 32.19 38.53 38.90 38.92 31.33 33.29 38.35 38.81 40.26 40.22 38.18 38.12 38.85 37.81 36.09 36.76 36.24 34.80 35.01 34.63 32.69 31.09 31.34 31.48 29.25 28.14 27.87 28.81 28.57 28.23 28.07 27.46 26.09 25.05 24.26 23.96 23.81 23.34 22.75
35.51 34.50 34.64 34.48 28.92 25.97 39.51 38.16 34.01 37.50 38.12 38.25 37.81 38.24 37.53 38.31 38.50 37.15 36.84 36.13 35.75 34.29 33.67 33.57 31.89 30.33 29.65 30.33 30.41 28.00 26.94 26.90 27.45 27.72 27.43 26.40 24.97 26.55 27.25 24.58 24.17 24.01 21.81 20.44
34.69 37.83 35.95 35.79 34.93 39.56 38.72 38.56 40.40 40.33 39.29 37.84 37.14 38.72 38.90 37.56 36.92 36.99 35.43 34.89 33.71 33.09 32.53 32.60 31.28 29.49 28.41 28.42 28.82 26.09 25.12 26.73 26.81 25.94 24.70 24.29 24.94 24.67 24.33 24.21 23.40 22.48 21.00 20.01
36.47 39.67 37.70 37.95 37.96 38.33 38.16 39.65 40.23 40.86 39.61 38.81 38.97 39.10 39.19 36.52 36.47 35.13 34.69 34.00 32.75 32.34 31.46 31.37 30.02 28.22 26.06 26.33 26.82 25.98 26.22 26.74 25.43 23.81 23.06 22.93 23.06 24.31 22.70 22.83 23.53 22.20 20.42 19.94
38.66 39.54 36.91 36.59 36.24 36.76 38.21 38.98 39.52 39.17 39.51 38.66 38.49 38.57 37.94 37.09 35.86 35.50 34.35 33.65 32.72 31.03 30.25 29.86 28.32 27.09 25.19 25.54 25.48 25.75 25.81 25.33 23.69 22.61 22.73 22.33 22.81 22.09 21.64 22.08 21.60 22.43 22.40 24.14
37.03 38.37 37.76 37.05 39.91 39.21 38.12 39.60 39.66 39.39 38.48 38.95 38.27 37.33 37.72 37.73 36.24 35.58 34.33 34.04 32.77 30.75 30.15 28.70 27.02 25.94 24.59 24.62 24.44 24.80 25.36 24.26 22.87 22.53 22.41 21.96 22.07 21.06 21.02 20.46 20.72 27.38 29.14 30.13

GFSCGP_sfc_wetblb_021.txt.gz
Wetbulb
39.60 37.38 34.37 37.00 37.06 37.53 36.28 35.79 35.30 36.18 41.06 38.84 38.45 39.73 42.82 45.80 46.38 47.61 45.26 46.14 46.18 46.18 47.31 49.20 49.88 50.74 52.62 54.12 54.30 52.86 55.86 53.77 53.67 51.82 50.33 50.87 47.86 46.69 45.76 45.32 44.62 43.00 41.63 40.89
36.13 32.47 36.86 37.91 37.17 36.42 36.12 35.36 35.04 37.29 40.38 38.91 37.55 37.14 41.08 43.03 44.59 47.12 47.94 47.37 48.20 44.62 46.78 48.32 49.45 51.41 53.82 54.53 54.71 55.14 52.90 52.47 53.07 52.11 48.30 46.54 45.42 44.79 43.72 42.85 41.06 40.13 39.85 39.78
33.36 34.75 39.30 37.43 35.36 34.05 33.94 32.74 33.25 33.63 37.23 38.72 36.31 33.81 36.62 41.77 44.94 46.87 49.10 49.67 49.89 46.51 46.55 46.94 49.45 51.47 52.48 53.20 53.87 53.20 52.19 51.42 50.47 48.83 47.60 45.48 45.02 43.64 42.31 40.80 37.86 37.90 38.70 38.76
36.86 39.85 36.71 35.26 33.97 35.16 30.74 36.81 36.41 35.13 33.18 27.54 35.98 25.61 33.84 38.19 41.31 44.77 47.05 48.21 46.87 45.43 47.29 47.84 49.65 50.45 51.74 52.15 52.47 51.66 51.37 49.85 49.01 49.07 47.10 46.07 44.34 41.21 40.79 37.92 36.25 36.44 37.39 37.29
33.95 34.77 34.51 33.25 34.99 37.39 33.86 38.08 36.55 36.31 33.24 31.12 31.69 29.20 29.89 39.12 38.34 41.86 44.19 46.84 45.16 45.89 47.65 47.92 50.41 51.75 51.27 50.55 50.42 49.88 49.55 48.85 47.61 47.06 46.63 44.81 42.72 41.21 38.45 36.41 35.13 34.94 35.39 36.18
35.49 39.46 37.95 36.28 38.16 38.27 39.40 36.09 34.78 35.59 33.15 25.64 29.98 29.33 29.50 32.76 37.52 41.34 44.13 46.78 46.41 45.53 47.35 48.29 48.94 49.27 48.28 48.21 48.38 48.78 48.71 47.04 46.55 45.60 44.20 43.92 41.50 38.93 37.10 34.81 34.33 34.31 34.27 34.52
35.45 36.43 38.87 39.40 35.14 38.12 37.12 33.86 26.08 24.41 24.09 22.15 30.25 29.17 31.53 35.65 39.85 43.27 45.02 46.17 45.58 45.67 46.00 47.15 47.88 47.96 46.70 46.70 46.50 47.37 47.85 44.94 44.19 43.15 41.87 40.79 39.47 38.41 36.35 35.02 34.26 33.56 33.01 32.73
28.40 25.82 36.12 38.49 35.78 33.37 33.65 33.37 26.42 18.60 18.11 20.68 30.63 24.84 31.37 39.85 42.37 43.44 45.40 44.90 43.73 45.63 46.61 48.04 48.81 48.23 46.54 45.75 45.29 45.55 45.20 42.49 41.62 40.37 38.49 37.21 36.51 36.05 34.78 34.08 33.43 32.72 32.34 32.21
28.56 26.46 36.92 37.91 38.73 38.13 34.29 30.28 34.92 28.70 29.16 26.41 28.36 31.79 39.45 40.21 41.57 42.29 43.42 44.24 43.13 44.79 46.29 47.86 47.51 46.30 45.15 43.60 42.39 43.21 41.93 39.54 38.77 36.84 35.72 34.32 34.22 34.14 33.32 32.43 32.31 31.91 31.91 33.72
33.65 23.44 33.61 36.27 39.03 38.81 35.63 36.87 29.16 30.01 20.41 17.78 23.71 28.92 31.86 36.34 39.92 42.28 40.85 42.94 43.20 44.77 46.19 46.94 46.19 44.59 43.62 41.24 39.58 39.32 40.01 38.44 36.10 34.87 34.49 33.54 32.61 32.51 32.07 31.93 31.20 31.18 31.04 31.14
36.30 31.91 28.03 34.98 33.45 31.60 33.54 31.71 32.59 30.37 27.27 20.77 21.50 26.03 38.41 39.80 42.53 40.81 40.30 41.82 43.32 44.70 45.97 45.58 45.23 44.10 41.83 39.86 38.80 37.17 36.79 35.79 34.38 33.99 32.71 32.17 31.51 31.46 31.17 30.78 30.50 30.54 30.45 30.42
36.06 32.86 26.94 29.50 36.15 38.14 35.47 32.45 32.12 26.65 21.80 25.97 23.81 26.14 40.01 38.84 40.76 43.23 41.24 43.32 44.52 46.05 45.48 45.32 43.80 41.64 40.58 39.17 37.36 36.05 34.89 34.34 33.30 32.69 32.12 31.26 31.10 30.75 30.23 30.02 30.10 30.41 29.72 29.99
36.67 32.50 25.61 29.04 31.49 35.22 33.55 34.06 34.12 32.87 32.09 26.09 23.23 26.55 41.40 42.84 42.11 43.94 43.79 44.67 44.79 45.00 44.39 43.63 42.19 41.35 39.62 37.95 36.38 35.15 34.06 32.83 32.38 32.53 31.71 30.69 30.22 29.97 29.49 29.54 29.92 30.11 29.64 29.16
40.14 34.40 30.78 25.74 30.69 33.31 30.67 32.60 33.85 32.77 27.34 27.89 29.02 32.43 38.34 41.05 41.52 42.12 42.07 44.31 44.76 44.15 44.36 43.39 41.99 40.56 38.72 37.52 36.11 34.16 32.49 32.80 32.19 32.00 30.98 30.00 29.65 29.43 29.39 29.64 29.70 29.75 29.21 28.48
37.71 30.75 32.69 33.29 34.31 34.40 34.43 33.11 33.71 31.56 31.99 28.09 31.73 34.69 37.67 40.69 41.57 43.31 42.81 42.99 43.01 43.48 43.54 43.07 41.61 39.91 37.84 35.98 34.47 33.68 32.38 32.21 32.16 31.32 30.55 29.81 29.50 29.69 29.74 29.49 29.16 29.04 28.48 27.57
38.65 30.04 33.07 31.16 35.67 35.01 33.71 34.93 34.16 33.80 34.41 34.08 36.43 35.49 41.50 43.19 42.09 41.00 41.84 42.88 42.82 43.35 43.76 43.34 42.29 40.12 37.60 36.03 34.43 33.38 31.97 31.61 32.14 30.92 30.04 30.08 29.89 29.85 29.36 28.74 28.15 27.68 26.74 26.37
35.03 33.32 33.30 31.79 36.84 35.13 31.98 36.18 34.83 36.03 37.55 37.71 33.99 38.40 41.85 41.16 42.02 42.35 42.55 43.83 43.32 43.65 43.89 43.12 42.20 40.72 38.45 36.05 34.60 32.28 31.84 31.39 30.84 30.41 30.07 30.09 29.99 29.25 28.52 27.94 27.14 26.11 24.93 24.65
36.77 35.55 35.38 32.68 34.88 27.89 37.45 43.14 40.86 37.90 40.18 40.31 40.61 40.90 41.70 42.25 44.87 41.09 42.54 44.20 43.69 44.07 43.94 43.33 42.19 39.94 37.68 35.46 33.68 31.60 31.65 31.01 30.50 29.63 29.61 29.93 29.65 28.54 27.62 26.41 25.23 24.10 24.29 24.56
40.47 37.83 34.78 32.01 29.86 34.18 35.33 40.84 40.44 38.71 37.94 42.62 41.29 42.09 42.70 42.20 39.75 40.45 41.16 42.88 42.57 43.31 44.02 42.98 41.93 38.44 35.43 33.66 32.38 31.47 30.28 29.80 29.71 28.80 28.92 29.02 28.79 26.94 26.09 24.64 23.53 23.86 24.03 23.91
38.27 39.16 36.54 32.86 28.47 26.55 33.09 36.96 43.05 43.33 35.78 42.60 42.80 42.15 42.77 40.78 37.05 40.18 40.36 40.95 40.44 41.33 41.02 38.47 36.36 34.99 33.03 31.59 32.24 31.08 29.06 28.75 27.93 28.23 28.27 27.85 27.33 25.87 24.37 23.61 23.53 23.54 23.65 23.01
33.43 36.55 34.26 32.40 31.07 31.01 37.36 38.07 40.46 31.03 32.57 37.46 41.94 44.05 43.35 39.84 40.49 37.43 36.35 34.98 35.85 36.70 35.22 34.93 34.86 32.94 30.78 31.54 31.69 29.12 27.97 27.20 28.11 27.91 27.18 26.57 25.78 24.58 23.69 23.32 23.33 23.09 21.56 21.19
34.83 33.86 33.48 34.01 28.22 24.92 37.65 36.73 33.36 36.26 37.06 37.62 37.94 38.99 37.14 36.89 35.97 35.35 35.03 34.03 33.78 32.81 32.33 32.30 30.84 29.54 29.41 30.74 30.50 27.92 27.43 26.86 27.09 26.92 25.98 24.62 23.61 26.14 26.35 24.03 23.25 23.03 20.70 19.65
32.75 35.67 33.61 34.22 32.96 38.37 38.31 37.61 39.39 39.18 38.40 36.22 36.48 37.86 37.98 36.42 35.47 35.01 32.94 32.33 32.00 31.58 31.02 31.47 29.99 28.42 27.65 28.22 29.91 27.05 24.67 25.92 25.54 24.64 23.49 22.78 23.69 23.81 23.88 23.62 22.58 21.66 20.06 19.19
35.77 38.61 36.48 36.65 36.12 37.49 37.93 39.00 39.58 39.63 37.70 37.42 38.33 38.66 39.08 35.83 35.12 32.95 32.28 31.64 31.09 30.92 30.03 30.30 29.43 27.45 25.17 25.84 26.28 25.78 25.23 25.46 24.33 22.26 21.69 22.34 23.44 22.19 21.78 22.28 23.07 21.63 19.91 19.52
37.49 38.43 36.96 35.96 37.04 36.97 37.89 37.85 38.84 38.29 38.39 37.70 37.86 38.05 37.48 36.43 35.16 34.29 32.56 31.46 30.52 29.85 29.42 29.68 28.21 26.48 24.19 24.57 24.33 24.55 24.68 24.31 22.62 21.83 22.28 21.88 22.03 21.28 20.91 21.35 20.50 22.03 21.98 23.25
37.71 38.52 36.85 36.70 40.10 38.97 37.87 39.53 39.15 37.95 37.29 37.66 37.21 36.21 36.92 37.27 35.25 34.34 32.24 31.34 30.34 28.67 28.13 26.90 25.46 24.89 23.27 23.68 23.25 23.68 24.22 23.53 22.50 21.90 21.96 22.40 21.37 20.05 20.40 19.87 20.30 26.63 28.57 29.66

GFSCGP_sfc_wetblb_024.txt.gz
Wetbulb
39.52 37.49 34.77 37.50 36.74 35.93 34.00 35.85 35.31 38.54 41.97 39.06 37.48 37.72 40.14 42.47 43.25 43.72 45.49 47.21 45.76 46.60 49.75 48.21 48.81 49.68 50.63 51.87 51.91 55.40 56.48 53.75 53.98 52.07 50.38 50.07 48.40 47.02 45.50 45.20 44.56 43.62 42.61 40.76
35.34 32.48 37.38 38.29 38.69 37.57 36.29 34.00 33.41 36.31 38.80 37.59 36.24 35.98 39.59 41.05 41.92 43.86 44.84 46.21 46.80 47.16 45.53 47.51 48.07 48.94 51.48 52.67 52.54 54.20 53.67 52.87 53.48 53.37 47.93 50.39 46.52 45.07 43.54 42.94 42.12 41.85 40.33 39.07
32.06 33.73 38.51 37.32 34.50 34.19 34.30 31.80 30.79 30.88 34.98 36.98 35.07 32.18 34.83 39.12 41.44 42.58 44.11 45.70 47.38 47.70 46.98 46.32 46.87 49.34 51.45 52.34 52.71 52.95 51.25 51.05 50.34 48.07 46.64 44.27 43.87 42.61 41.41 40.68 40.21 39.75 38.01 37.69
35.69 38.70 36.40 34.37 33.21 33.67 29.71 35.26 34.97 33.74 31.62 25.83 32.63 24.24 30.72 35.15 37.29 38.49 41.12 43.49 45.98 47.33 45.81 46.80 46.80 49.27 51.19 52.15 52.54 51.41 50.77 49.20 48.16 48.16 46.81 45.71 44.91 42.29 41.62 40.04 38.67 36.10 36.40 36.35
33.93 34.40 34.44 33.85 34.11 35.52 32.51 36.68 34.90 34.52 31.92 30.87 29.95 27.28 27.46 32.85 33.24 36.49 40.26 42.24 45.05 47.20 47.37 46.27 47.54 50.57 51.18 51.60 50.69 49.57 48.46 48.12 46.60 46.82 47.35 45.40 42.69 41.06 39.43 37.84 36.05 33.95 34.26 35.01
36.42 38.84 37.63 35.10 37.34 37.34 38.55 35.00 34.80 34.56 32.67 25.46 29.30 27.38 28.04 30.76 34.00 35.72 40.00 41.80 44.85 46.63 45.69 47.07 48.29 50.45 50.08 49.77 48.91 48.06 47.75 45.47 45.33 45.15 43.66 45.27 42.01 39.35 37.43 35.63 33.90 33.09 33.24 33.42
35.84 36.38 39.34 39.73 34.05 37.13 36.62 33.58 25.55 23.53 24.04 21.28 28.63 27.34 29.89 33.24 36.19 37.08 38.86 40.80 44.24 45.74 44.36 45.95 47.89 49.69 48.78 48.74 48.04 47.71 47.35 44.52 43.91 44.87 45.03 43.53 41.17 39.26 36.22 34.64 33.73 32.56 32.09 31.76
26.54 23.53 34.97 38.89 35.22 31.99 33.12 32.28 26.01 19.45 17.10 19.05 28.51 23.08 28.96 36.94 40.55 41.79 42.23 42.72 43.27 43.50 43.79 46.55 48.76 50.41 49.54 49.01 47.95 48.24 46.58 43.66 43.16 43.13 40.07 38.35 38.09 37.03 35.56 34.15 33.28 32.13 31.68 31.35
29.59 26.90 35.95 38.33 37.91 37.33 33.81 30.14 34.18 29.02 29.90 25.98 25.93 28.82 34.48 38.65 36.90 39.15 39.91 40.96 42.03 42.32 43.85 46.37 48.93 49.92 48.69 47.84 47.34 46.72 44.60 41.59 40.42 38.43 37.33 35.78 35.63 35.10 33.49 31.98 31.73 31.27 31.15 32.49
30.48 27.01 32.37 35.42 38.47 38.52 36.20 36.48 28.28 29.13 20.95 19.47 21.25 23.21 27.22 33.98 37.23 39.67 39.67 39.32 40.46 42.38 44.11 46.22 48.55 47.57 46.77 46.09 43.24 43.25 43.12 40.16 37.00 35.63 35.55 34.34 32.85 32.59 31.75 31.50 30.61 30.40 30.22 30.19
35.57 31.91 27.86 35.09 33.27 30.84 34.14 32.56 33.44 31.72 29.12 18.92 17.39 21.61 33.47 36.18 37.21 40.33 41.30 42.35 41.38 42.48 44.47 46.39 46.43 44.24 41.91 41.20 41.58 39.37 38.87 36.35 34.67 33.93 32.95 32.47 31.54 31.19 30.60 30.29 29.74 29.67 29.57 29.62
36.52 33.21 27.20 28.13 35.85 37.81 35.45 32.34 32.20 25.48 20.90 25.23 22.28 25.15 38.98 38.14 41.43 42.39 42.41 41.40 41.12 43.20 45.12 45.40 43.47 41.14 40.85 39.05 38.72 37.97 37.29 34.75 33.36 32.72 32.09 31.12 30.81 30.23 29.64 29.09 29.10 29.51 28.86 29.12
36.03 31.96 25.69 26.92 31.43 35.53 32.76 33.96 33.84 32.88 30.75 23.05 19.73 24.92 37.01 36.85 41.69 42.41 41.88 42.00 42.58 42.84 42.66 40.95 40.49 40.35 38.48 37.40 35.83 36.01 35.06 32.63 32.19 32.21 31.36 30.34 29.49 29.18 28.41 28.50 28.92 29.12 28.68 28.29
39.68 34.59 29.88 25.26 29.11 31.90 30.23 32.34 33.98 32.02 27.17 26.05 26.46 28.75 34.26 37.01 39.78 42.46 43.04 41.13 42.30 42.91 42.52 41.81 40.72 38.85 37.25 36.18 34.52 33.49 31.87 32.39 31.73 31.45 30.74 29.53 28.69 28.36 28.32 28.58 28.64 28.68 28.22 27.60
37.86 30.50 32.50 33.14 34.03 32.87 32.88 32.22 33.27 31.12 30.54 25.88 28.73 29.72 34.31 38.79 39.71 42.15 42.67 44.66 44.17 44.17 42.06 41.20 39.51 37.39 35.66 34.19 32.92 32.26 31.54 31.51 31.65 30.84 30.11 28.79 28.41 28.65 28.59 28.30 28.08 27.98 27.80 27.11
39.47 30.55 33.27 30.74 34.36 34.50 31.70 34.69 34.17 32.65 32.52 32.18 32.52 31.83 39.57 41.53 43.02 42.97 43.77 43.92 44.48 43.17 43.06 41.65 39.54 37.21 35.17 33.76 32.40 32.04 30.99 30.69 31.62 30.56 29.22 29.13 29.07 28.72 28.09 27.54 27.35 27.35 26.91 26.22
36.50 32.69 32.59 29.10 34.10 33.45 30.78 32.98 34.02 34.10 35.06 33.85 29.81 34.68 39.28 39.44 41.56 41.88 41.74 42.12 43.05 43.57 43.18 41.42 39.33 37.71 35.58 34.00 32.99 31.42 30.95 30.78 30.37 29.83 29.37 29.24 28.93 28.04 27.49 27.23 26.96 26.53 25.27 24.71
36.84 34.46 34.05 30.88 34.28 28.04 36.79 42.66 38.48 35.91 36.91 37.47 36.91 38.89 42.04 42.36 41.74 41.42 40.44 41.71 42.29 43.66 43.42 42.05 40.08 36.98 35.00 33.54 32.22 30.79 31.06 30.49 30.02 29.20 28.90 28.82 28.37 27.17 26.80 26.05 25.71 24.78 23.70 23.13
39.89 37.35 33.83 31.71 30.65 34.50 36.01 40.05 38.17 35.39 35.29 39.02 38.04 40.69 41.95 40.66 39.78 38.92 40.75 42.48 43.03 43.43 44.09 42.34 40.36 36.91 34.28 32.59 31.76 31.03 29.99 29.60 29.45 28.33 28.12 27.85 27.29 26.12 25.94 24.97 24.09 22.81 22.72 22.42
38.29 38.27 35.22 32.78 28.82 26.73 33.06 36.92 43.42 42.71 35.11 42.62 42.48 41.91 41.89 40.14 36.15 38.28 40.42 41.50 42.40 43.20 42.03 39.24 36.66 34.84 32.13 31.14 31.91 30.67 29.07 28.80 27.86 27.68 27.23 27.01 26.92 25.97 24.37 23.64 22.85 22.33 21.88 21.75
34.93 35.60 33.16 33.66 30.55 31.40 36.69 36.96 42.86 32.69 33.24 37.89 42.88 43.67 40.99 39.45 38.22 36.56 37.22 35.98 37.56 38.51 36.49 35.54 34.88 32.92 30.84 31.83 31.73 29.15 28.37 27.34 27.22 27.20 26.73 26.10 25.43 24.19 23.03 22.51 22.06 21.50 20.65 20.45
31.74 31.69 32.94 33.60 29.71 24.31 37.26 37.09 32.18 36.05 36.80 37.63 37.88 41.38 41.70 37.51 35.82 35.07 34.69 34.94 35.06 33.90 33.16 32.66 31.35 29.77 30.49 31.41 30.58 28.30 26.93 26.04 26.91 26.44 25.44 23.93 23.49 26.21 25.44 23.12 22.49 21.83 19.89 19.02
31.50 34.64 32.35 33.31 31.93 37.32 38.61 38.44 39.99 38.68 37.38 36.06 36.24 36.71 37.33 35.18 33.87 33.13 31.40 31.59 30.97 31.07 30.44 30.62 29.38 28.16 27.91 29.19 30.46 26.83 24.37 26.40 25.65 24.18 22.53 22.45 23.08 23.00 23.53 23.01 21.98 20.88 19.33 18.76
34.55 37.19 35.76 36.33 36.37 37.89 38.52 38.93 38.78 38.70 36.64 36.29 36.97 37.06 37.15 33.61 32.41 30.65 30.88 30.56 30.20 30.06 29.32 29.92 29.31 27.55 25.34 26.32 26.91 26.06 25.81 25.44 23.84 21.43 21.35 22.32 21.88 21.38 21.04 21.77 22.85 21.03 19.48 19.06
36.05 37.41 36.20 35.55 37.57 37.08 38.06 36.69 37.41 36.81 37.51 37.16 37.30 37.23 35.44 34.00 32.72 31.68 30.12 29.54 29.30 29.23 29.42 29.73 28.28 26.30 24.22 25.40 24.76 24.69 24.14 23.81 22.32 21.41 21.72 21.28 21.34 20.51 20.28 20.70 20.10 21.43 21.18 21.93
37.09 37.99 36.91 35.93 39.63 38.44 37.21 38.03 38.35 37.79 36.97 37.50 37.08 35.98 36.49 36.02 33.35 32.35 30.32 30.10 29.41 28.04 28.04 26.58 25.47 24.55 23.60 23.84 22.86 22.72 23.24 23.02 21.97 21.26 21.83 21.46 20.48 19.45 19.91 19.41 19.73 26.42 28.04 29.36

GFSCGP_sfc_wetblb_027.txt.gz
Wetbulb
41.69 38.01 34.09 37.31 37.94 37.81 36.82 35.52 34.60 38.18 41.54 37.84 37.75 38.21 40.76 43.81 44.13 43.86 45.06 46.26 47.77 48.83 52.22 53.57 53.48 53.68 53.60 54.55 55.88 57.44 61.15 62.85 60.03 57.14 55.89 54.38 52.99 50.89 49.40 47.17 45.93 45.18 45.57 43.24
37.50 33.69 38.36 40.51 39.88 38.24 37.20 35.15 34.55 37.53 39.34 37.79 36.51 35.84 39.91 41.83 42.51 44.13 44.75 45.56 46.84 48.99 50.41 51.62 51.82 52.50 52.86 54.71 55.48 57.83 60.36 58.79 58.89 58.83 56.58 54.71 52.93 50.08 46.61 44.75 44.59 44.52 43.87 42.42
33.33 35.42 38.79 37.93 35.96 35.06 34.85 33.68 33.89 33.09 35.91 37.22 34.92 32.68 36.38 39.75 41.49 43.11 44.58 45.84 46.81 47.79 48.80 50.92 51.17 51.66 53.30 54.07 55.18 56.83 56.86 56.58 56.21 52.64 49.86 47.55 48.05 46.52 42.78 42.16 42.63 42.35 41.63 41.07
35.28 39.11 36.77 35.03 34.24 35.20 30.75 35.93 35.27 33.72 31.96 26.38 34.32 24.60 33.71 37.52 38.84 40.80 40.92 42.57 44.39 46.02 47.91 50.29 51.20 51.01 52.46 54.62 55.80 56.16 54.83 54.01 52.07 52.50 51.08 49.96 49.71 47.43 43.80 42.23 40.35 40.39 40.48 40.88
33.81 35.39 34.92 33.85 34.56 35.70 32.99 36.71 34.72 34.37 32.21 30.81 30.91 27.59 31.27 35.03 34.52 37.91 40.45 41.73 43.00 45.81 47.81 49.20 50.65 51.60 53.18 54.57 55.43 54.60 53.49 52.31 50.96 52.49 52.35 52.25 50.82 46.22 41.02 39.70 38.17 37.94 39.52 40.30
35.61 39.52 37.87 36.26 37.80 37.59 38.78 35.19 35.04 34.90 32.77 26.04 29.87 28.88 29.57 33.38 35.47 37.42 40.78 42.51 43.77 46.27 47.80 49.83 50.93 51.78 52.58 54.30 53.95 52.72 51.92 50.27 50.04 50.79 51.80 50.12 45.98 40.16 38.56 37.92 37.11 38.24 38.24 38.47
34.99 36.93 39.63 39.50 34.92 37.12 36.43 33.64 26.10 24.55 24.99 22.96 30.11 28.21 31.02 36.21 38.66 39.33 39.62 40.76 42.55 44.47 46.71 47.94 48.34 50.34 51.70 52.86 52.24 51.12 50.65 48.01 48.33 48.31 48.80 46.85 42.67 41.37 39.54 38.25 37.74 37.20 37.00 37.05
29.44 23.98 35.58 39.31 36.25 33.16 33.60 32.70 26.81 19.29 20.10 22.61 28.54 25.54 31.04 38.15 41.30 41.98 42.40 42.95 43.63 43.51 46.36 46.88 48.87 50.86 51.92 52.69 51.20 51.02 49.46 46.71 47.49 48.09 46.21 43.66 42.12 40.75 39.00 38.90 37.81 38.06 37.55 36.71
28.76 27.33 35.90 37.95 38.24 37.31 33.43 29.74 34.71 28.57 29.00 25.91 28.51 30.36 35.00 37.85 37.88 40.61 42.31 44.11 43.20 43.07 45.79 46.48 48.77 51.02 51.99 52.00 50.92 50.10 48.48 46.73 46.77 44.75 41.68 40.09 39.26 39.65 38.68 37.76 37.90 37.14 36.39 35.59
33.08 25.68 32.11 35.56 38.65 38.29 36.02 36.48 28.61 29.25 20.61 19.73 24.91 25.84 28.40 32.75 36.20 40.15 41.68 43.73 44.54 43.93 44.16 46.53 48.75 50.83 51.63 51.73 50.27 49.26 47.60 45.45 43.61 41.29 40.40 38.68 38.24 38.35 37.18 36.98 35.92 35.84 35.51 35.14
34.52 30.36 28.38 34.95 32.52 31.39 33.82 32.30 33.11 31.48 29.03 22.06 20.16 25.21 32.74 33.99 39.74 40.12 41.95 44.09 44.01 43.99 44.13 46.46 49.10 49.93 49.51 47.76 47.56 45.76 43.79 41.38 39.77 38.89 37.23 37.26 36.40 35.90 36.08 35.39 34.98 34.81 34.69 34.72
35.89 32.06 25.29 27.55 35.05 37.58 35.39 33.08 32.29 27.28 25.02 27.99 24.61 25.87 40.15 39.55 40.54 42.36 42.83 44.48 44.35 44.19 44.41 47.06 46.27 44.35 45.12 44.61 43.65 42.98 41.49 39.48 38.13 37.20 36.64 35.55 34.95 34.76 34.40 34.01 33.91 34.41 33.79 34.19
35.69 31.49 24.17 25.69 31.14 34.99 32.66 34.10 34.28 33.25 32.14 26.78 23.29 26.02 37.74 37.64 40.37 43.05 43.05 44.57 44.29 43.37 42.34 41.81 42.47 43.30 43.00 42.87 40.78 40.25 39.32 36.07 35.32 35.84 34.93 34.31 33.73 33.75 33.31 33.17 33.34 33.49 33.20 32.93
39.40 33.32 29.07 25.19 29.55 33.48 30.73 32.88 33.93 31.90 27.42 27.42 27.26 29.15 33.97 36.12 37.37 40.40 43.39 45.14 45.26 43.64 41.15 41.25 40.97 40.29 39.80 39.57 38.63 37.62 35.46 35.19 34.63 34.90 34.26 33.40 33.15 33.01 32.93 32.82 32.69 32.65 32.61 32.06
37.14 30.75 32.60 33.10 33.71 33.57 32.22 32.12 32.82 30.91 31.01 27.49 29.90 29.91 33.76 36.00 37.62 42.17 43.61 44.20 45.04 44.29 41.70 40.86 38.87 37.90 37.09 36.48 36.46 35.77 34.38 34.15 34.24 33.82 33.51 32.43 32.24 32.50 32.25 31.90 31.80 31.57 31.80 31.50
38.61 31.68 33.54 30.99 34.39 34.35 31.89 35.28 34.39 33.18 33.06 32.25 32.45 31.36 37.95 40.41 41.88 41.02 40.82 42.03 44.07 44.92 42.59 40.80 38.77 37.21 36.00 35.35 34.85 34.30 33.00 33.29 34.39 33.33 31.93 31.92 31.97 31.75 31.23 30.99 30.62 30.83 30.56 30.46
36.98 33.66 32.39 28.80 34.59 34.81 31.48 35.31 34.31 34.28 35.03 34.02 30.13 34.63 38.94 38.23 39.71 40.51 40.81 42.01 42.98 45.33 42.84 39.87 38.08 37.53 35.84 35.00 34.74 34.18 33.24 33.50 33.03 32.00 31.77 31.70 31.52 30.62 30.37 30.14 30.09 29.78 29.53 29.45
35.65 34.96 33.97 29.80 34.15 28.03 37.73 41.35 40.57 35.96 36.86 37.53 36.72 37.69 39.46 40.30 41.77 42.61 44.10 44.06 43.57 44.52 42.32 40.29 38.79 36.40 35.19 34.75 33.90 32.81 33.11 32.82 32.05 31.58 31.27 31.26 30.72 29.63 29.41 29.41 29.09 28.82 28.85 28.51
38.11 36.36 33.63 31.06 30.37 33.98 35.47 36.87 38.10 34.84 35.76 39.36 37.79 39.07 40.04 41.14 41.92 41.43 40.81 42.05 43.41 44.52 42.90 40.96 38.78 36.23 34.88 33.69 33.32 32.64 32.06 31.88 31.69 30.95 30.69 30.32 30.00 28.79 28.77 28.34 28.07 28.06 28.10 27.37
38.32 38.54 35.36 32.18 29.11 26.43 33.72 37.77 43.14 42.28 34.49 41.61 40.54 39.73 39.11 40.88 37.24 38.28 39.52 41.59 43.61 43.20 41.14 38.30 36.59 35.21 33.62 32.90 33.47 32.43 31.28 31.40 30.48 30.32 29.73 29.68 29.49 28.84 28.03 27.80 27.48 26.93 26.76 26.49
34.42 34.82 31.45 32.28 32.22 31.39 36.65 37.83 42.19 31.95 33.73 38.24 41.85 42.08 40.90 40.40 40.39 37.63 38.45 37.37 38.59 39.24 37.64 36.70 35.82 34.52 32.83 33.33 33.32 31.30 31.20 29.91 29.40 29.42 29.08 28.66 28.23 27.48 27.54 26.96 26.77 25.92 25.59 25.51
30.86 30.51 33.44 33.49 30.26 25.19 37.21 38.78 34.36 36.67 37.93 38.22 38.67 42.15 41.61 38.24 36.49 35.61 35.15 35.18 35.60 34.76 33.89 33.68 32.58 31.74 32.58 33.50 32.82 30.81 28.23 28.33 28.94 28.63 27.49 26.76 27.39 28.35 27.57 26.87 26.11 25.25 24.74 24.33
31.14 33.77 31.95 33.26 32.26 37.62 38.31 38.04 38.97 38.91 37.37 37.47 36.89 38.58 38.56 36.26 34.85 33.85 31.84 31.51 31.58 31.74 31.41 32.05 30.63 29.71 30.66 32.08 31.73 27.69 26.77 28.39 27.59 26.86 25.92 25.95 26.50 26.63 26.95 26.47 25.67 25.25 24.26 23.78
34.25 36.94 35.91 36.45 37.36 38.27 39.40 39.03 38.42 37.58 37.08 36.82 37.59 37.56 37.12 33.34 31.89 30.51 30.87 30.48 29.97 30.10 29.73 30.63 30.01 28.51 27.20 28.74 28.76 27.92 27.72 27.75 26.50 25.02 24.89 25.30 25.22 24.74 24.88 25.52 26.09 24.85 24.07 23.90
35.66 36.53 36.68 36.42 37.97 37.61 39.00 37.47 37.65 36.92 37.09 36.10 35.64 34.97 33.48 32.57 30.82 30.59 29.38 29.12 29.24 29.53 29.85 29.90 28.55 26.85 25.84 27.21 26.70 27.08 26.47 26.37 25.07 24.81 25.13 25.09 24.93 24.21 24.17 24.49 24.72 25.50 25.44 25.70
36.64 37.19 35.95 35.89 39.54 38.88 37.39 37.52 37.80 37.09 36.26 36.26 35.33 33.77 33.72 32.99 30.79 30.46 29.13 29.45 28.92 28.00 28.20 27.22 26.72 26.16 25.43 25.69 24.95 24.85 25.44 26.13 25.21 24.20 24.35 24.27 23.92 23.75 23.78 23.55 23.81 27.05 28.18 28.80

GFSCGP_sfc_wetblb_030.txt.gz
Wetbulb
45.57 40.55 37.36 40.41 41.67 42.42 39.87 38.77 37.71 40.39 43.97 41.97 41.05 41.65 44.38 47.23 47.72 47.53 48.61 49.65 51.08 52.55 55.22 56.80 58.29 59.54 60.01 60.34 60.58 61.11 61.52 63.50 65.50 66.17 66.56 66.11 62.65 61.08 59.40 56.44 55.37 51.72 52.43 49.03
40.35 36.10 41.84 42.46 42.00 39.93 38.53 37.07 37.23 40.56 42.91 40.93 40.16 39.29 42.88 44.72 45.43 46.84 47.34 48.19 49.07 50.51 52.68 54.66 56.38 58.13 58.85 59.29 60.19 60.97 61.91 63.98 65.48 65.86 64.63 64.68 62.16 57.83 55.07 52.50 53.51 50.99 46.73 45.54
38.06 38.82 41.34 40.49 39.43 37.10 36.69 34.18 35.03 36.12 40.64 41.26 38.88 37.38 41.76 44.59 45.43 46.41 47.19 48.03 49.01 49.42 50.17 52.04 54.12 56.33 58.15 58.56 59.85 60.24 62.11 64.15 64.90 64.29 63.33 58.66 53.17 48.82 47.29 47.00 47.61 46.72 45.53 45.47
39.33 42.38 38.86 38.41 37.22 38.79 34.53 39.53 38.06 36.81 34.80 30.06 37.94 30.28 39.03 42.74 43.38 44.60 46.02 47.16 48.06 49.28 50.27 51.03 52.22 54.07 56.53 58.23 60.47 60.64 62.19 62.95 63.57 62.31 58.31 56.23 55.77 50.25 51.73 49.45 45.35 44.73 44.31 43.74
36.71 37.79 37.80 35.70 37.04 39.48 35.61 39.71 37.57 37.07 34.34 32.71 34.24 28.75 36.67 40.34 39.85 42.69 45.72 47.51 48.65 49.30 49.86 50.27 51.71 52.79 55.06 58.47 59.85 60.42 61.53 61.77 60.70 59.52 59.98 59.26 57.16 55.10 50.92 47.11 44.54 42.10 42.68 45.59
39.51 42.50 40.44 39.76 40.69 40.63 40.39 37.70 36.73 36.95 34.33 27.44 33.19 30.89 33.99 39.13 41.54 43.32 45.05 46.74 47.82 48.80 50.33 51.13 52.34 53.85 54.46 57.53 59.59 59.99 59.81 59.56 59.07 59.98 59.38 59.81 56.70 49.68 45.84 42.69 40.22 39.72 41.92 44.50
37.04 38.18 40.80 40.90 36.69 39.53 37.77 34.07 27.61 26.15 26.13 26.27 35.81 32.95 35.12 41.37 42.56 43.84 44.72 45.92 47.50 49.42 49.33 49.52 51.46 53.53 54.58 55.80 58.28 58.77 58.59 57.62 57.82 58.86 58.74 57.74 52.22 50.78 46.99 44.25 40.33 40.37 41.58 43.28
31.86 30.37 37.69 40.99 37.99 35.22 34.71 34.30 28.99 22.13 25.18 28.65 34.47 29.22 35.51 43.06 44.72 45.61 45.54 47.47 49.86 50.69 51.68 50.13 50.86 52.86 54.45 55.89 57.64 58.01 57.55 56.13 56.66 57.64 57.07 52.74 49.18 49.48 44.81 40.79 39.90 41.56 43.02 43.05
32.14 30.44 38.50 40.52 41.13 39.25 34.34 31.30 37.59 29.82 31.93 27.27 31.19 35.76 40.57 42.67 42.73 43.54 45.33 47.04 48.29 49.98 51.02 50.63 51.58 52.99 54.59 56.09 57.39 57.55 57.02 55.74 55.53 55.69 52.28 47.04 44.18 43.08 40.70 41.25 42.71 41.01 42.28 41.42
36.31 29.90 35.96 37.72 40.54 40.25 36.94 38.90 29.71 30.82 21.78 21.41 29.33 31.47 32.98 38.37 40.11 44.20 44.08 45.88 48.38 49.44 50.84 50.90 51.04 52.88 55.00 56.58 57.56 57.92 56.94 54.57 54.88 53.59 51.30 46.04 42.26 40.49 41.56 40.20 39.68 41.83 40.85 40.96
38.41 33.17 31.95 35.98 33.72 33.93 33.82 32.38 34.03 33.14 30.73 23.89 23.46 29.99 39.79 39.28 41.47 42.39 43.95 46.33 47.98 48.51 49.78 50.23 50.74 53.48 55.26 56.60 56.75 55.74 54.64 53.32 51.42 49.80 46.71 43.78 40.54 39.17 41.41 41.17 40.75 41.37 41.03 40.50
38.67 33.85 27.93 31.33 38.56 40.08 38.35 34.85 33.66 28.05 26.45 29.13 28.33 29.17 42.05 42.93 44.09 44.43 44.41 45.84 48.13 48.83 48.73 49.89 51.01 52.87 54.21 54.61 54.29 53.55 52.06 50.26 48.49 45.20 43.84 39.57 38.98 39.54 40.80 39.72 40.90 40.72 39.86 39.85
38.80 32.65 27.47 30.70 34.85 37.65 33.86 35.61 35.63 34.71 33.24 28.52 25.71 29.58 41.09 43.12 43.91 44.09 43.64 45.66 47.36 48.51 48.07 48.07 48.32 49.79 51.64 52.35 51.93 50.82 49.59 45.98 43.37 42.38 39.32 38.20 38.67 40.53 40.37 40.05 39.57 39.59 38.98 38.36
41.09 35.14 31.58 28.54 32.95 36.72 32.21 34.42 35.24 32.80 28.52 29.96 29.98 32.34 37.40 39.59 40.35 42.41 43.71 45.27 46.44 47.49 47.17 46.99 47.25 48.63 50.20 50.82 49.70 47.82 43.23 41.15 40.51 38.17 38.51 38.13 40.14 40.11 39.45 38.84 38.46 38.35 38.22 37.32
39.09 31.24 33.69 34.22 35.16 35.30 34.17 33.79 34.12 31.66 32.52 29.06 33.14 33.73 37.93 40.32 41.36 42.46 43.55 44.86 45.06 46.25 46.75 44.40 45.61 46.68 47.52 45.87 43.33 40.87 38.43 37.85 38.07 37.42 37.65 39.29 38.88 38.78 37.97 37.66 37.27 37.20 37.06 36.68
39.95 32.03 34.38 31.65 35.64 35.92 33.89 36.08 36.62 35.70 34.54 33.89 34.29 34.14 41.46 43.12 43.48 42.03 44.01 44.09 43.86 45.27 46.98 44.80 44.38 44.86 43.51 41.05 38.32 36.96 35.77 35.98 38.27 37.83 36.89 37.54 37.21 36.84 36.71 36.30 36.14 36.20 35.83 35.55
37.27 34.22 32.22 29.74 35.18 35.10 33.11 36.58 36.97 36.33 36.91 36.32 31.76 36.99 41.67 40.87 41.07 41.92 42.63 43.52 44.48 45.37 46.47 45.70 44.00 43.62 40.74 38.66 37.07 35.31 35.84 37.22 37.29 36.68 36.86 36.18 36.14 35.50 35.49 35.43 35.47 35.15 35.00 34.97
36.98 35.05 33.15 29.52 33.30 27.99 37.96 41.41 40.00 39.13 38.86 39.77 39.02 39.80 41.19 41.60 42.76 43.02 44.73 44.70 45.31 46.60 47.49 45.37 44.48 40.01 38.75 38.38 37.12 36.60 37.44 36.78 37.04 35.29 35.30 35.70 35.42 34.46 34.57 34.75 34.63 34.51 34.83 34.30
40.99 36.85 32.65 29.82 31.29 34.04 37.53 39.52 38.87 35.92 37.87 41.53 40.33 41.53 41.98 42.03 41.94 41.95 42.63 43.83 45.26 47.69 47.59 45.05 42.89 37.51 37.89 37.82 37.31 37.50 36.80 36.72 35.73 35.41 34.93 34.97 34.68 33.78 34.07 33.77 34.04 33.99 33.87 33.06
39.29 39.01 33.96 31.89 29.15 27.46 36.40 40.24 43.76 43.38 35.89 41.54 41.67 41.92 41.78 42.14 39.25 40.65 40.91 44.63 45.23 45.87 44.40 42.63 41.12 40.55 39.89 38.75 39.05 37.45 36.63 35.55 34.61 34.76 34.40 34.58 34.58 34.33 33.89 33.82 33.30 32.61 33.14 32.02
34.82 34.48 31.36 31.52 31.20 35.99 41.64 41.79 44.53 34.67 36.32 42.22 41.94 43.37 42.18 42.26 41.25 40.51 41.35 41.06 42.94 41.22 39.79 39.53 39.65 38.58 37.22 37.65 38.07 36.17 35.76 34.09 34.41 34.17 33.98 33.84 34.00 33.69 33.56 33.06 32.64 32.29 32.04 31.88
35.08 33.84 32.73 33.67 31.65 30.50 43.25 43.37 39.43 42.28 44.00 42.72 42.19 43.01 42.70 41.01 38.50 37.91 38.04 38.02 39.08 37.36 37.11 37.60 35.78 34.39 35.62 37.02 36.94 35.46 33.12 33.18 33.47 33.14 32.52 32.07 32.52 32.08 32.38 32.26 31.73 31.41 31.68 31.20
35.61 39.47 38.04 38.96 39.25 43.83 43.95 44.58 45.63 43.99 42.83 42.43 41.15 42.53 43.37 39.91 37.74 36.33 35.53 36.69 36.69 36.77 37.25 37.74 36.53 35.73 36.67 37.36 35.91 31.92 32.12 32.76 32.12 31.75 31.36 31.65 32.08 32.29 32.42 32.18 31.42 31.45 30.95 30.19
40.68 42.66 40.56 40.47 44.38 44.47 45.19 44.94 43.78 42.06 41.23 40.74 41.23 42.40 42.77 39.37 37.43 35.71 35.44 34.92 34.04 34.59 34.27 35.42 35.04 34.18 33.78 35.00 33.08 31.41 31.69 32.20 32.00 31.25 31.36 31.77 31.49 31.07 31.35 31.62 31.32 30.80 30.27 29.47
42.34 41.90 41.27 41.43 44.71 46.04 43.79 43.88 42.89 40.72 40.55 38.88 39.34 40.52 40.58 38.18 36.71 36.04 34.36 33.87 33.59 33.17 33.84 34.44 33.34 32.24 31.67 32.74 31.57 31.38 31.79 32.89 31.85 31.53 31.37 31.71 31.28 31.02 30.37 30.38 30.67 30.54 30.54 29.56
42.12 42.79 41.31 41.02 45.09 44.42 43.62 42.10 41.73 40.71 38.82 38.40 37.05 36.41 37.82 37.55 35.53 35.29 33.88 33.83 33.04 32.43 32.66 31.97 31.56 31.28 30.99 31.03 30.41 31.30 32.78 33.14 32.06 30.59 30.62 30.83 30.48 30.20 30.29 30.13 29.76 28.04 28.11 28.45

GFSCGP_sfc_wetblb_033.txt.gz
Wetbulb
46.11 41.47 39.17 43.38 45.57 45.32 43.44 40.90 40.70 44.02 46.34 43.84 43.02 43.45 45.77 48.29 48.60 48.54 49.63 50.90 51.83 52.88 55.78 57.14 58.28 59.34 59.42 60.42 61.24 61.66 62.20 62.80 63.93 65.57 66.85 68.00 66.93 66.12 65.96 67.37 64.42 61.63 58.54 54.96
41.26 38.14 44.11 45.29 44.20 42.40 41.35 39.47 39.37 42.79 44.44 42.73 41.86 41.42 44.73 46.17 46.75 47.84 48.07 48.94 50.20 51.67 53.06 54.65 56.43 57.60 58.53 59.40 60.68 60.94 61.80 62.49 63.90 66.02 67.51 68.34 65.80 63.56 62.86 61.33 60.33 57.93 54.36 52.26
39.44 41.27 43.47 42.60 40.87 39.34 39.82 37.78 37.59 37.11 41.07 42.88 41.17 39.30 43.12 46.48 47.60 48.41 48.72 49.27 49.83 50.27 50.76 52.25 53.65 56.00 58.46 58.67 60.29 61.02 61.88 63.16 64.68 66.13 67.16 66.91 59.93 55.33 52.81 52.75 52.94 51.34 51.30 50.83
40.54 44.25 40.49 40.22 39.02 40.58 36.18 42.18 40.10 38.25 36.15 33.48 39.79 31.61 40.02 43.46 44.77 46.60 47.28 47.96 48.57 49.57 50.76 51.80 52.73 54.03 56.21 58.65 61.15 61.59 62.24 63.22 65.11 66.65 65.25 63.39 57.36 53.72 52.77 50.61 49.94 49.45 47.93 47.99
38.39 39.29 39.38 37.22 38.77 41.37 37.28 41.01 38.94 38.45 36.03 33.82 35.66 31.70 37.86 42.54 41.55 43.79 46.24 47.98 49.50 50.60 51.08 50.99 52.13 53.62 55.20 57.51 60.66 61.85 62.23 62.99 65.03 65.19 64.55 61.50 57.37 57.07 52.63 49.13 46.23 46.89 46.23 45.71
41.17 44.08 41.92 41.19 41.98 41.94 41.56 38.48 37.19 37.05 34.25 27.49 34.21 34.48 35.75 39.94 42.39 45.04 47.51 48.73 48.51 49.22 49.99 51.06 52.52 53.15 54.29 56.39 58.61 61.59 61.56 62.38 64.10 64.41 61.73 59.74 60.13 55.32 49.90 46.38 44.70 45.05 45.65 46.65
37.89 38.34 41.45 42.71 38.25 40.77 39.26 34.43 29.76 27.05 26.47 26.58 37.63 34.71 36.21 42.18 44.08 44.89 45.33 47.05 48.10 49.14 51.02 52.18 51.77 51.38 53.55 55.23 56.39 60.19 60.71 61.23 62.67 61.89 60.95 60.37 59.80 53.36 50.78 47.28 45.82 43.98 44.74 44.72
31.02 31.78 39.19 41.29 38.55 36.48 35.31 34.95 29.83 23.92 27.00 30.70 37.88 30.93 37.00 44.14 45.52 46.05 47.04 47.36 47.94 49.82 51.57 52.31 53.42 53.49 53.27 55.67 56.73 58.57 59.78 60.36 60.55 60.42 60.97 61.70 56.61 53.27 49.65 48.17 46.50 44.57 44.65 44.59
33.26 32.06 40.66 42.12 42.22 40.30 35.37 31.36 37.87 30.96 32.27 27.78 31.96 36.66 41.62 43.58 43.78 44.93 45.34 46.11 46.97 49.76 51.04 52.04 53.47 53.81 52.43 54.31 56.33 58.13 59.34 59.78 59.39 60.29 60.57 59.31 53.83 51.07 48.09 48.17 46.12 43.50 44.00 44.32
37.92 31.31 38.09 40.04 41.60 40.91 38.21 40.39 29.90 31.26 22.74 23.36 31.06 33.21 34.40 39.88 41.82 43.76 44.14 46.21 48.22 49.53 50.11 51.36 52.66 53.30 53.54 54.64 56.72 58.76 59.21 58.74 58.40 59.44 58.56 55.24 50.93 45.45 44.77 44.68 43.65 42.04 42.30 43.37
38.99 35.23 33.38 36.44 34.81 35.19 34.71 32.84 34.15 34.51 32.25 26.29 25.40 31.21 41.67 40.58 41.69 41.86 45.37 46.76 47.75 48.84 49.49 50.38 52.12 53.22 53.91 55.49 56.79 58.13 58.53 57.36 57.44 56.93 52.25 47.91 45.20 43.93 42.21 42.66 39.78 42.77 41.41 40.96
39.83 34.70 29.84 32.62 39.50 41.09 39.77 34.84 34.37 29.19 28.45 30.62 29.10 29.48 42.73 42.10 43.42 44.62 45.13 46.46 47.57 48.79 49.73 50.62 51.30 53.35 54.51 55.88 57.25 57.63 57.45 56.04 56.51 53.42 48.68 44.51 42.30 40.76 41.91 39.93 42.26 40.59 39.92 41.74
39.34 33.26 28.61 31.18 36.17 39.30 35.39 37.09 36.96 35.86 34.35 29.44 26.19 30.19 42.77 42.66 42.78 44.24 45.02 45.80 46.38 47.68 49.18 50.17 50.70 51.23 53.59 55.02 55.66 55.87 55.28 53.90 52.05 48.60 45.56 42.09 40.55 40.43 40.00 39.32 41.98 40.51 40.45 40.00
42.63 35.48 31.83 29.52 33.95 37.26 32.51 35.12 36.58 34.02 29.92 30.60 31.07 33.41 39.31 41.29 41.92 42.96 44.11 45.52 46.03 46.88 48.10 49.10 49.12 50.25 51.90 52.92 53.66 53.18 51.71 49.41 47.51 45.24 42.81 40.89 40.24 40.01 38.80 40.33 39.88 39.93 39.72 38.78
39.55 32.26 33.76 34.97 36.15 36.02 35.06 34.74 35.92 33.04 33.54 29.58 32.93 33.94 38.69 40.77 42.21 43.40 45.05 45.40 45.04 45.66 47.54 47.92 48.02 48.71 49.62 50.76 51.34 48.78 45.90 44.97 43.73 42.23 41.03 39.85 39.45 39.83 39.33 39.62 39.53 38.82 38.72 37.93
39.84 32.99 35.11 31.99 35.86 37.11 35.50 37.56 37.77 37.39 37.14 36.43 35.14 34.21 41.30 43.11 44.15 43.04 43.91 44.82 44.56 45.56 46.42 47.68 46.49 47.55 48.27 48.05 45.11 42.96 41.44 40.73 40.38 39.71 38.86 38.68 38.16 38.20 38.46 37.85 37.68 36.25 36.92 36.60
36.80 34.83 32.98 29.47 35.84 35.61 34.28 36.83 37.28 37.87 39.14 38.03 33.77 38.64 43.14 41.48 42.28 42.88 42.82 43.75 44.38 45.94 47.12 47.58 45.18 46.10 45.19 40.98 39.49 37.82 38.23 38.65 37.25 36.57 36.80 36.35 36.81 35.71 35.45 36.57 36.39 36.48 35.88 35.98
36.54 35.69 34.72 29.91 33.70 28.43 39.15 43.51 41.92 38.67 39.86 40.46 39.79 41.60 43.28 42.66 43.62 43.65 43.61 42.99 44.10 45.52 46.99 47.26 45.28 42.97 40.35 37.86 36.92 37.80 37.63 36.77 35.76 35.19 35.26 35.47 35.66 34.78 36.22 36.29 35.93 35.70 35.65 35.30
40.14 36.67 32.55 29.91 29.53 34.61 39.30 41.73 40.06 38.28 37.99 42.02 39.55 41.57 43.13 43.36 42.58 41.74 41.56 44.36 46.12 46.99 48.07 46.42 43.57 39.22 37.09 36.04 37.23 36.79 35.47 35.89 35.30 33.93 34.43 35.66 35.63 35.45 34.85 35.07 34.94 35.17 34.49 33.91
40.06 39.91 34.19 32.96 28.02 27.19 37.87 42.56 43.92 44.29 36.16 43.64 42.56 42.87 42.27 42.08 38.87 38.41 40.89 44.28 45.50 46.73 45.47 39.94 38.21 36.70 36.21 36.49 36.85 35.86 35.20 35.08 34.52 35.22 36.14 36.32 36.45 35.81 35.04 34.85 34.14 34.43 34.40 32.85
35.08 35.23 31.62 31.81 30.12 34.99 43.69 44.36 46.20 35.90 37.58 44.63 43.20 44.24 43.72 41.22 39.60 40.12 41.97 42.50 42.89 42.26 39.17 38.80 38.51 37.01 37.12 38.17 38.41 37.21 37.10 35.42 36.23 36.32 36.00 35.28 35.29 34.85 34.46 33.87 33.73 33.36 32.79 32.40
35.56 33.22 32.26 33.03 31.58 29.59 45.66 45.30 40.02 44.31 45.80 45.66 43.71 44.01 42.35 41.08 40.15 38.69 39.75 39.74 39.11 38.75 39.60 40.06 39.17 38.98 40.32 40.53 39.03 36.69 34.36 34.57 34.78 34.47 33.84 33.37 33.23 33.65 33.68 33.23 33.05 32.77 32.30 31.84
36.09 40.74 38.02 38.73 38.40 47.19 48.02 45.72 47.83 47.48 44.76 44.38 43.12 44.63 45.03 41.63 38.90 39.04 37.88 37.76 38.26 36.56 36.06 37.03 36.39 36.11 36.94 37.14 35.61 32.57 33.04 33.59 32.45 31.87 31.89 32.33 33.02 33.33 33.61 32.93 32.29 31.54 31.67 30.95
42.88 45.68 41.12 41.46 45.59 46.65 48.41 48.86 47.10 44.73 43.42 43.05 43.48 44.32 45.48 42.21 39.57 37.30 37.14 36.99 36.53 37.66 38.01 38.26 37.66 36.35 34.19 33.62 32.51 31.39 31.57 32.27 32.04 31.69 32.14 32.36 31.90 32.01 32.36 32.31 32.00 31.52 30.91 30.01
43.69 43.76 42.85 43.05 45.97 47.95 45.76 45.37 44.90 43.49 42.70 41.65 42.74 45.04 43.78 41.09 39.50 38.48 36.78 36.02 35.69 36.04 36.77 36.98 35.64 34.02 32.23 31.93 31.11 31.65 32.17 33.14 32.33 32.16 31.84 31.96 32.05 31.85 31.13 31.39 31.18 30.51 30.82 29.22
44.97 43.08 41.43 41.46 46.53 45.98 45.65 44.70 44.16 42.95 40.65 40.85 40.83 40.67 41.44 40.85 38.61 38.02 36.13 35.87 35.51 34.85 35.00 34.01 33.56 32.75 31.60 31.01 31.03 32.53 34.32 34.32 32.83 31.48 31.56 31.65 31.23 31.24 30.84 30.27 29.89 29.36 28.61 28.45

GFSCGP_sfc_wetblb_036.txt.gz
Wetbulb
48.13 42.25 38.84 40.57 42.48 42.72 42.97 39.75 37.51 40.61 44.77 41.14 40.10 40.84 43.18 45.71 45.80 45.69 46.72 47.41 48.41 50.13 52.38 53.08 53.90 54.47 54.26 54.32 54.63 58.67 57.89 57.70 58.26 58.94 64.13 65.21 64.67 64.87 65.64 65.71 64.96 61.00 58.14 55.31
41.21 36.07 42.73 44.95 44.92 42.59 40.06 36.77 36.16 40.21 43.20 40.17 38.35 38.07 41.76 43.77 44.41 45.23 45.40 46.12 47.22 48.22 49.75 51.74 52.22 53.18 54.08 54.18 54.56 55.20 57.11 58.56 59.28 59.93 61.39 63.81 62.90 61.74 60.46 61.67 60.85 57.35 53.38 50.85
38.04 40.14 44.52 42.75 40.66 38.31 37.40 35.12 35.36 35.29 38.91 39.57 37.54 35.25 38.71 42.95 44.45 45.64 46.57 46.97 47.35 47.49 48.16 49.74 50.38 51.41 53.19 54.44 55.03 55.28 56.49 57.05 59.50 59.99 62.47 60.13 55.66 54.41 53.08 55.11 53.82 52.58 51.38 50.32
39.55 43.40 40.78 39.09 38.55 39.20 34.06 40.22 39.34 37.76 33.75 27.97 37.15 25.64 34.51 39.12 40.45 42.32 41.96 42.89 44.66 46.20 47.92 48.91 49.51 49.07 50.27 53.01 55.61 55.46 56.45 56.81 58.38 60.74 62.20 60.37 59.68 56.03 51.72 50.47 51.19 50.15 51.11 49.22
37.12 38.89 38.59 36.84 38.28 40.49 35.90 40.66 37.95 37.29 33.04 31.72 31.00 26.39 30.92 37.87 37.14 39.54 41.49 42.45 43.61 45.12 45.88 46.33 47.18 48.70 49.58 49.89 52.49 56.13 56.15 56.43 58.27 61.63 62.64 60.15 56.23 52.35 50.34 48.74 47.45 47.33 48.13 47.33
40.14 44.13 40.91 39.67 41.51 41.05 41.29 37.27 36.92 35.81 33.41 24.45 29.82 29.55 28.86 33.27 36.28 38.87 41.80 42.46 44.44 43.63 44.29 46.24 47.82 48.41 48.38 49.11 49.93 53.53 55.64 56.18 58.91 61.22 61.57 57.67 54.47 49.86 47.88 45.68 44.81 44.52 44.86 46.42
37.20 37.91 41.38 42.27 37.80 40.80 39.17 34.51 23.06 22.34 24.33 20.63 33.32 30.01 31.88 38.46 41.14 42.00 41.60 42.14 42.12 43.53 43.76 46.18 47.25 48.96 48.28 47.95 49.41 50.54 55.23 55.12 58.91 60.13 59.33 56.60 55.16 49.94 47.03 45.65 44.53 43.79 43.31 44.53
30.02 29.21 37.69 40.52 37.93 35.54 35.41 34.06 23.81 18.69 20.04 23.79 33.00 26.61 31.56 40.03 42.37 42.61 43.23 42.84 44.30 41.55 45.06 46.59 48.26 49.20 49.55 48.83 49.42 49.94 54.15 55.24 58.18 59.31 57.40 56.50 51.72 49.30 47.01 46.47 45.24 44.40 44.13 44.32
31.62 31.61 40.52 40.91 41.39 39.97 34.51 29.73 34.35 26.44 27.59 20.52 26.43 31.19 37.12 40.94 40.89 41.66 41.43 42.51 42.03 42.01 46.13 46.39 47.99 48.88 49.26 48.59 49.88 50.70 53.78 55.59 57.45 57.89 57.13 55.14 50.75 49.15 46.82 44.67 44.99 44.66 44.07 44.46
37.27 30.21 37.55 40.16 41.41 40.39 36.42 38.21 29.21 28.36 16.90 17.44 25.03 27.70 30.45 35.20 37.42 39.37 39.46 40.45 42.40 45.39 45.60 46.02 46.79 48.14 50.55 49.54 49.55 51.28 54.22 55.21 56.05 56.69 55.76 51.81 49.18 46.69 45.53 45.50 43.33 43.38 43.53 42.86
38.69 34.47 32.08 35.83 33.59 32.73 33.36 31.95 33.16 32.00 29.49 21.82 20.77 25.30 34.65 36.70 38.02 38.45 39.90 41.83 43.12 43.99 46.16 46.08 46.78 48.20 50.48 49.45 49.35 51.61 54.01 54.71 55.72 55.46 52.48 45.48 43.18 44.25 44.26 42.95 42.77 42.22 41.71 41.44
39.00 34.48 25.66 29.88 37.45 39.08 37.80 33.40 32.07 25.80 22.44 27.85 26.41 26.97 41.24 40.49 38.83 40.75 40.64 43.70 44.68 45.74 46.24 46.59 47.05 47.92 48.69 50.23 50.54 52.08 53.97 55.53 52.89 48.24 43.97 40.94 41.11 42.33 41.11 41.60 40.46 41.26 41.26 40.38
38.89 30.64 22.80 26.76 32.78 36.21 32.50 35.17 35.88 34.13 32.36 26.73 24.41 26.47 40.80 40.25 41.37 42.73 41.29 41.43 43.82 44.80 44.53 46.02 46.71 46.90 47.52 50.68 52.94 54.13 54.74 53.39 47.37 42.96 40.70 40.16 40.43 40.51 40.41 39.13 40.45 40.44 39.70 39.91
41.32 35.09 27.96 22.95 29.83 35.01 29.98 33.44 34.97 33.69 28.87 28.22 28.71 30.51 36.04 39.26 40.45 42.64 43.36 44.11 43.28 43.78 44.30 45.80 45.88 45.89 47.10 51.39 52.08 51.95 48.17 46.36 42.99 40.40 39.22 39.17 39.40 39.87 39.30 39.29 39.70 39.15 39.10 37.86
37.68 30.25 30.66 32.40 33.83 32.89 32.27 33.12 34.34 32.43 33.51 29.86 31.70 32.98 37.05 39.48 40.56 42.07 42.99 43.70 43.09 42.43 42.07 45.40 45.06 44.79 46.64 49.45 48.54 45.49 44.49 42.18 40.03 38.73 38.60 38.84 38.68 39.24 38.78 38.49 38.28 37.73 37.41 36.25
38.76 30.41 31.25 27.74 33.77 33.72 31.18 34.64 35.72 36.75 37.41 37.08 36.94 35.77 42.20 43.02 43.71 42.20 41.94 43.25 43.03 43.67 43.38 44.83 44.83 44.53 46.93 44.85 42.09 41.04 39.12 38.74 39.09 37.97 37.66 38.17 37.93 37.95 37.32 37.24 36.36 35.79 35.03 34.60
36.66 32.76 32.02 23.75 33.46 32.90 31.09 35.27 37.75 38.06 39.59 38.82 34.34 38.78 41.97 42.01 43.04 42.58 42.13 42.84 42.15 43.09 44.04 45.34 45.16 45.79 41.07 40.08 39.78 37.11 36.39 37.30 37.75 37.42 37.20 36.95 36.37 36.06 35.42 35.50 35.33 34.24 33.55 33.69
36.96 35.22 34.15 26.80 31.11 24.74 37.34 42.13 41.00 39.04 40.13 40.89 41.16 41.31 41.58 43.00 43.11 41.93 41.98 41.69 42.54 43.50 44.34 45.68 44.42 39.82 37.98 37.69 37.49 37.22 37.14 36.82 35.97 35.32 35.12 35.08 35.01 34.66 35.09 34.93 34.18 33.53 32.46 31.67
39.59 36.57 32.21 26.93 28.09 31.70 36.04 39.57 39.13 36.85 37.12 42.01 40.51 41.52 42.75 43.52 42.69 40.15 41.32 42.85 44.34 44.44 46.32 43.75 39.24 36.60 36.09 36.55 36.73 35.76 35.52 35.55 35.27 34.68 34.39 34.96 35.17 34.57 34.43 33.52 32.22 31.16 31.90 31.10
39.39 38.60 33.38 30.73 26.81 24.15 34.04 39.98 42.48 42.57 35.27 40.96 41.97 42.74 42.58 42.70 37.48 37.81 41.07 40.98 38.62 38.31 38.22 36.19 35.64 36.22 35.96 35.74 36.42 35.50 35.03 35.64 35.35 35.41 35.35 35.84 35.39 34.19 32.20 31.09 30.37 31.53 31.21 30.87
34.37 34.60 30.93 31.38 29.61 31.41 39.03 41.45 43.81 33.17 33.98 41.96 41.74 43.93 41.48 40.05 39.13 39.68 39.98 39.65 37.94 36.86 35.74 36.16 36.16 35.17 35.72 37.13 37.25 35.59 35.29 34.39 35.11 35.36 35.16 34.08 33.19 31.50 31.68 30.58 30.95 31.00 30.26 29.51
32.75 31.55 31.08 32.50 30.03 26.06 41.66 40.97 37.23 40.34 41.35 41.46 40.53 43.76 41.33 39.56 38.69 38.66 37.80 37.06 38.86 38.92 38.21 38.04 36.92 37.38 38.65 38.99 37.61 35.71 34.46 35.38 34.86 33.09 32.37 31.75 31.55 32.91 32.22 30.37 29.37 28.50 27.46 26.63
32.49 36.64 34.93 33.96 33.22 41.20 43.67 42.36 43.93 42.54 40.53 40.03 39.52 42.03 42.78 39.66 38.01 37.67 36.73 35.22 34.96 36.29 37.58 38.73 38.33 38.04 38.64 37.70 34.18 31.07 31.11 31.23 31.11 31.17 30.94 31.40 31.85 31.14 30.18 27.87 26.91 26.33 26.81 25.19
38.68 41.36 37.13 38.10 41.83 41.44 42.34 43.32 43.06 41.55 39.38 39.95 40.77 41.37 43.01 38.33 36.65 36.25 35.97 36.38 36.04 35.16 34.66 34.79 32.97 31.49 30.54 31.45 31.26 30.81 31.50 32.25 31.69 30.70 30.36 28.58 27.95 28.08 28.05 27.91 27.03 25.40 24.54 23.96
39.26 41.59 38.73 38.63 41.70 42.83 41.70 41.32 40.92 40.97 40.18 39.55 40.90 42.17 39.83 38.08 36.91 35.54 33.89 33.62 33.83 34.43 34.41 33.15 30.38 28.97 28.48 30.22 30.69 31.65 32.31 32.45 30.65 29.01 27.58 27.53 27.65 26.44 25.16 25.25 25.14 24.48 25.01 25.37
39.85 38.69 36.98 36.79 42.24 41.60 39.99 41.27 42.33 39.73 38.12 38.96 39.24 38.60 39.20 38.20 36.12 35.33 33.66 33.70 32.94 32.02 32.06 30.48 29.28 28.82 29.57 30.65 31.26 32.16 32.75 31.81 29.47 27.27 25.85 26.09 24.98 24.78 24.22 23.66 23.74 30.10 29.29 29.14

GFSCGP_sfc_wetblb_039.txt.gz
Wetbulb
48.62 42.19 38.89 39.34 40.84 40.40 40.60 39.56 35.27 37.67 42.38 38.14 38.02 38.17 40.42 43.39 43.18 44.58 45.51 44.13 45.31 47.99 50.41 50.34 50.73 51.07 50.32 50.93 51.92 54.96 57.25 64.80 66.05 65.98 65.75 65.22 62.60 64.61 64.89 65.10 63.85 60.63 57.61 54.58
40.57 37.29 43.59 45.41 44.06 42.52 39.21 36.38 33.24 37.56 40.44 37.65 36.60 36.20 39.50 41.22 42.30 43.71 44.09 42.75 44.06 46.61 47.11 48.26 49.56 49.69 50.75 52.17 51.54 51.29 54.74 60.54 64.33 65.49 66.05 64.58 62.12 61.64 63.44 64.07 62.05 59.94 55.99 53.28
35.73 39.01 43.96 41.67 40.31 39.34 36.51 32.59 32.80 33.28 36.87 36.40 34.34 31.94 35.04 39.68 41.68 43.44 44.74 45.62 45.92 45.81 46.37 46.38 46.37 47.38 48.25 49.86 51.22 52.65 52.78 55.25 58.44 59.37 60.16 57.45 57.46 56.53 56.58 56.75 56.76 54.69 52.75 51.93
39.69 42.15 40.77 38.87 37.86 37.55 31.75 38.05 37.42 35.94 31.67 25.73 34.01 23.57 30.20 36.45 38.17 39.58 39.95 40.75 44.25 45.48 44.65 45.32 45.91 45.69 45.60 47.41 50.39 52.45 53.24 54.18 55.95 56.60 59.79 59.64 60.14 59.38 55.38 52.07 51.59 50.79 49.36 49.68
36.34 38.71 38.59 35.81 37.32 39.14 34.98 39.16 36.35 35.29 30.45 28.12 28.29 23.87 28.68 33.43 34.52 36.83 38.76 39.41 40.48 42.62 44.70 45.66 45.22 46.47 47.79 47.01 47.83 50.55 53.06 53.42 55.18 57.12 60.13 60.56 59.74 54.96 51.78 50.14 49.64 48.38 49.72 50.41
38.44 42.92 39.90 38.50 40.08 39.59 39.77 35.70 33.82 32.82 29.45 19.15 27.18 26.22 24.86 30.93 34.80 36.48 37.41 40.30 41.33 41.26 42.14 43.62 44.72 46.05 45.99 45.96 45.96 48.83 51.80 52.24 53.49 57.35 60.17 60.74 54.78 51.36 50.37 47.89 46.86 47.43 47.53 47.63
37.31 37.98 40.60 40.68 35.69 38.13 38.52 29.53 17.38 21.15 23.41 18.80 29.29 26.73 27.91 35.60 38.34 39.24 39.59 40.53 40.13 42.28 43.18 44.42 45.60 46.85 47.63 47.66 47.82 46.95 48.68 51.51 53.38 56.64 59.78 57.50 54.29 52.62 51.51 48.08 47.17 45.32 44.01 45.45
25.98 23.14 35.98 38.86 35.93 33.28 33.10 30.91 19.30 15.84 17.41 21.59 30.14 23.94 29.87 38.47 41.62 40.89 42.33 41.83 42.42 41.81 43.29 45.22 45.55 46.32 46.79 47.77 47.86 47.52 47.17 50.03 53.55 57.82 57.29 55.69 51.83 51.39 50.09 48.80 46.66 45.73 45.45 45.22
26.70 29.09 39.81 40.20 39.76 38.25 32.43 24.94 32.41 23.45 23.69 15.72 24.18 28.37 34.59 38.59 37.89 37.95 38.14 39.79 39.73 38.49 43.04 44.03 44.69 45.74 46.27 46.95 47.63 47.44 47.52 50.95 55.24 57.40 56.31 51.91 51.03 49.67 48.25 46.31 46.04 44.51 44.84 44.24
35.60 29.57 37.36 39.79 41.42 40.07 34.62 35.83 26.02 22.25 11.50 15.03 21.38 24.17 28.52 32.27 34.61 37.51 37.65 38.16 40.13 42.34 42.41 44.06 45.02 46.06 47.01 47.47 48.40 47.42 47.55 51.75 55.69 56.31 53.29 50.04 49.03 47.28 46.08 44.66 43.24 43.33 43.81 44.27
38.25 34.25 32.14 37.70 33.23 30.98 32.37 32.43 33.24 28.68 25.50 19.27 19.09 23.50 32.99 34.45 35.31 35.57 37.16 39.15 40.95 43.26 44.18 44.54 45.30 46.28 47.11 47.19 47.85 48.14 48.35 52.61 53.93 51.69 50.11 48.37 46.30 45.11 44.05 43.87 42.93 43.78 43.77 42.33
38.70 33.62 26.83 28.10 35.17 37.60 34.64 31.49 29.81 19.65 19.21 23.32 23.05 25.84 39.35 39.67 39.04 39.49 41.26 43.05 44.21 44.12 43.46 44.18 45.17 46.18 46.57 46.68 48.42 49.82 50.16 52.67 51.64 48.53 47.22 45.02 44.30 43.41 42.27 42.57 42.54 43.10 41.08 41.04
37.44 28.43 17.87 25.53 29.84 33.64 31.63 33.85 33.43 31.21 30.09 22.18 23.32 25.92 37.34 39.38 40.26 41.63 41.99 44.14 45.25 43.43 42.74 43.55 44.92 45.52 45.87 46.99 50.86 51.16 49.79 44.96 45.09 43.36 42.38 42.50 41.70 41.40 40.45 39.97 41.00 41.43 40.60 39.86
40.33 31.85 24.27 20.44 27.20 31.45 25.25 31.70 32.67 31.45 27.66 26.64 27.63 30.01 35.13 37.88 40.09 42.64 43.76 43.85 44.75 45.16 43.59 43.71 44.31 45.45 46.37 48.59 46.54 45.35 43.50 42.61 42.66 42.24 41.44 39.91 39.89 39.09 40.22 40.04 40.38 39.97 40.27 39.01
35.43 23.95 27.76 30.69 32.81 30.07 29.66 30.91 32.44 30.97 31.98 29.12 30.89 32.71 36.95 39.91 41.88 43.02 44.48 43.60 43.52 43.06 42.58 44.28 43.93 43.96 44.57 43.85 43.35 42.01 42.83 42.30 41.95 41.08 40.00 38.67 39.05 39.00 39.50 39.04 38.71 38.70 37.70 36.82
35.92 26.61 27.17 24.47 32.23 32.57 29.85 32.83 33.03 33.18 33.50 33.92 34.48 34.94 42.12 43.84 44.30 43.73 42.55 43.00 43.01 42.81 43.49 43.11 43.41 43.30 39.02 37.76 40.10 40.33 40.91 40.63 40.31 39.53 37.72 38.56 37.54 37.86 37.14 36.76 36.27 35.95 35.48 35.11
34.34 29.42 23.60 18.66 30.68 30.62 29.11 32.80 33.93 36.48 39.09 38.59 35.09 38.42 42.85 42.12 42.89 42.26 41.44 42.01 42.84 43.44 42.15 43.08 42.16 37.93 37.57 38.69 38.66 37.94 38.58 39.09 38.09 36.92 37.35 36.21 36.77 35.69 35.69 35.60 35.25 34.57 33.92 33.74
34.79 31.45 30.13 23.73 28.64 23.82 35.69 41.16 40.33 37.71 38.69 39.99 40.04 41.62 42.79 43.09 43.77 40.56 41.23 39.22 38.25 40.98 42.69 43.10 37.65 36.01 35.43 36.93 36.95 36.95 36.92 36.15 35.79 34.79 34.77 35.28 35.18 34.92 35.07 34.66 33.97 33.59 33.64 32.93
39.68 35.92 27.96 26.53 25.34 30.43 35.74 38.73 39.00 36.49 35.84 40.97 39.62 41.47 43.38 44.14 43.23 39.53 40.27 37.08 36.61 41.27 41.31 36.58 35.62 35.31 36.05 35.65 35.80 35.23 34.87 34.70 34.53 34.48 35.04 35.46 35.67 35.29 35.28 34.52 34.29 34.12 32.92 31.05
38.82 38.52 34.18 29.92 25.87 23.17 32.40 39.12 41.21 41.28 32.55 40.67 40.07 41.02 43.50 41.88 37.43 37.20 38.62 36.21 34.48 35.03 35.51 35.25 35.91 35.87 35.22 35.54 36.32 35.53 34.95 34.84 34.65 35.49 35.95 36.72 36.77 35.75 34.60 33.88 31.81 31.05 30.19 29.18
34.87 34.67 30.64 29.57 28.02 29.53 37.13 40.61 43.10 31.49 33.37 39.60 39.85 42.22 42.79 39.17 38.75 38.32 38.65 37.26 35.81 35.36 35.15 35.73 35.39 34.78 35.45 36.82 36.94 35.57 35.60 34.25 36.37 36.95 36.44 35.66 34.65 32.27 30.04 29.84 30.53 29.84 29.83 29.14
32.09 31.47 32.00 32.78 29.68 24.14 40.17 41.16 37.40 39.49 40.54 40.03 39.05 42.20 39.73 39.02 38.55 36.54 37.16 37.95 37.03 35.83 36.17 36.86 35.89 36.26 37.31 37.53 36.44 35.06 33.56 35.37 35.50 34.51 33.12 32.30 32.07 32.63 31.57 29.50 29.09 27.48 25.70 24.47
32.38 34.22 33.20 32.04 31.47 38.34 41.67 41.29 40.82 40.95 39.61 38.49 37.58 40.01 39.15 37.59 36.99 36.21 34.34 36.72 37.68 38.05 37.88 38.11 37.56 36.94 36.27 37.07 37.07 33.92 33.35 33.08 32.22 31.53 30.83 30.79 30.90 30.64 29.20 26.58 25.59 25.04 24.74 23.20
39.23 40.94 37.82 36.11 40.04 39.23 41.36 40.91 40.26 39.24 38.25 39.34 38.95 41.49 41.13 36.50 35.97 34.98 34.52 33.71 34.23 35.32 35.51 37.02 35.19 33.27 32.25 32.84 32.58 31.58 31.16 31.54 31.56 30.58 30.29 29.39 28.11 26.66 26.33 26.21 25.42 23.66 22.45 21.81
38.50 39.20 37.07 36.71 40.08 40.38 39.48 39.82 39.27 39.02 38.51 38.94 39.79 41.39 38.89 36.26 34.67 34.28 33.21 32.84 33.26 32.57 32.49 32.06 30.44 29.42 29.22 30.49 30.68 31.59 31.98 32.03 30.21 29.64 28.24 26.37 26.47 25.07 24.04 24.08 23.67 23.36 23.33 23.19
38.16 36.79 35.19 35.18 41.04 40.16 39.60 39.53 40.58 38.26 37.41 38.07 38.40 37.76 37.53 36.26 34.20 33.54 32.07 31.15 30.84 30.61 30.43 29.53 29.39 29.39 29.77 30.55 30.78 31.40 32.05 31.43 29.83 26.06 25.23 24.89 23.56 22.75 22.26 22.22 22.61 30.34 29.60 30.05

GFSCGP_sfc_wetblb_042.txt.gz
Wetbulb
48.07 42.44 39.18 42.37 43.00 40.14 38.29 38.21 37.99 37.37 40.84 37.13 36.51 35.81 38.55 41.77 40.88 41.18 43.76 44.25 44.51 45.50 49.13 48.62 48.94 48.66 48.42 48.90 49.25 51.39 59.90 64.09 65.89 65.19 64.52 63.76 63.47 63.63 63.31 63.42 62.72 60.98 58.83 56.37
43.63 39.46 42.29 44.25 43.96 41.59 39.30 37.56 34.77 36.75 39.43 36.84 35.53 35.37 39.25 40.93 41.55 42.57 43.77 44.65 44.54 45.39 45.68 46.57 47.85 48.43 48.95 49.57 49.00 48.93 52.77 61.55 64.75 65.88 66.01 65.36 64.30 62.55 63.06 63.37 62.61 60.97 57.97 56.00
38.40 40.17 44.35 43.23 41.49 40.37 37.74 32.50 32.06 33.21 36.19 35.11 33.90 33.36 34.76 38.11 40.00 41.48 43.53 44.37 44.71 44.56 45.75 47.02 44.86 46.01 47.19 47.45 49.07 50.57 50.42 54.73 62.82 65.48 63.33 58.79 58.69 57.86 57.96 58.88 59.83 59.72 57.27 56.22
37.82 41.15 40.95 40.20 38.76 36.55 32.90 37.03 36.51 34.75 31.25 25.49 33.53 23.76 29.70 34.72 35.99 37.70 37.88 38.38 41.21 42.93 44.54 45.02 45.82 44.57 45.33 46.43 47.47 49.25 50.89 51.76 56.36 59.70 61.28 61.91 61.11 59.37 60.10 60.42 57.77 53.89 53.89 55.11
35.87 37.86 36.99 35.73 37.30 39.30 34.33 38.01 35.35 33.89 29.27 26.57 26.69 24.07 27.85 31.98 33.50 35.45 36.79 37.75 39.23 39.88 41.91 43.17 42.87 44.47 45.17 45.11 44.47 46.11 48.60 50.33 52.43 55.27 60.70 61.24 62.07 62.02 54.00 52.42 53.06 51.33 52.21 53.27
37.48 41.58 39.49 37.89 39.18 38.79 38.89 34.64 32.22 31.37 26.97 17.68 25.02 24.99 25.04 29.06 33.00 34.12 36.67 39.12 39.88 40.91 40.83 41.56 43.13 44.94 45.95 45.43 45.01 45.07 46.70 48.40 50.22 52.44 56.14 59.91 60.90 53.23 52.04 50.81 49.45 49.22 49.37 50.25
37.16 36.67 39.36 40.42 35.32 37.80 35.29 28.50 18.46 15.77 14.33 17.71 27.06 25.23 26.62 33.08 36.99 36.66 38.32 39.24 39.84 39.64 40.38 42.98 44.65 46.05 46.56 46.27 46.51 47.23 46.68 47.49 48.68 50.20 53.67 58.11 58.13 54.94 53.83 51.90 50.71 48.05 46.87 46.28
27.86 23.50 35.32 38.21 35.56 32.96 32.72 29.38 19.66 14.79 17.44 20.18 28.24 23.25 28.85 35.48 37.81 38.00 38.32 38.78 39.07 39.27 39.44 43.12 43.63 45.29 45.41 45.24 46.13 47.08 47.59 47.03 47.31 48.82 53.72 57.22 57.06 55.83 54.23 53.06 51.23 49.74 48.61 47.42
24.83 26.52 38.23 38.68 38.74 36.84 31.83 25.54 31.24 22.50 21.23 15.66 22.73 26.10 32.09 34.73 35.10 36.63 37.87 39.48 39.87 39.27 41.65 42.27 44.04 45.03 45.29 45.58 46.20 47.02 47.64 47.42 46.77 48.67 55.93 55.37 54.19 53.34 51.06 48.53 48.75 47.59 46.78 46.67
33.41 25.55 36.55 38.99 40.40 39.88 33.59 35.08 22.95 17.84 10.78 13.44 19.75 21.56 26.15 31.16 33.38 35.95 36.40 38.31 40.91 42.59 42.64 43.37 44.30 45.35 45.97 46.13 46.16 46.67 47.53 46.99 46.87 52.30 54.84 51.80 51.44 51.77 49.70 47.65 46.72 46.98 45.98 45.54
35.31 30.52 31.09 37.87 32.21 30.94 33.19 30.65 28.91 27.07 23.32 18.26 17.37 22.96 31.64 32.40 33.79 35.17 36.10 37.66 39.70 41.35 42.23 44.21 44.51 44.90 46.20 46.04 45.63 46.57 48.72 48.53 50.05 51.90 49.22 48.48 47.78 47.22 47.37 46.84 45.75 45.05 45.36 44.81
37.79 30.82 20.59 30.59 33.86 35.91 33.62 30.75 28.57 17.81 16.54 20.60 21.31 24.68 36.89 34.33 35.28 38.07 40.80 42.09 44.58 45.56 46.36 47.26 45.32 45.43 45.96 45.55 45.78 47.90 50.13 48.99 50.69 48.61 47.88 46.20 45.25 45.49 45.22 44.26 44.05 44.45 42.64 42.34
35.99 26.68 17.86 24.24 29.39 32.70 30.17 32.26 31.65 29.59 29.49 17.30 20.46 24.25 36.23 35.80 40.45 42.48 43.50 44.96 46.16 46.30 44.80 46.02 43.86 45.74 45.94 46.15 47.27 48.32 47.02 46.45 45.80 44.81 43.82 43.62 43.38 44.27 43.46 42.95 42.35 40.39 40.66 39.67
39.69 30.04 24.60 21.04 23.11 27.52 23.34 30.34 31.75 30.90 26.33 22.76 24.56 28.61 34.34 37.03 39.81 42.58 43.99 45.36 44.96 44.60 43.71 44.40 44.43 45.42 45.41 45.99 43.11 41.43 40.15 40.97 42.01 42.50 42.38 41.52 42.40 42.65 42.36 41.97 40.27 39.76 39.52 38.71
34.60 24.22 26.20 28.69 31.70 28.70 28.80 29.76 30.69 25.38 30.31 23.59 29.30 30.35 34.74 37.97 40.28 42.62 45.00 44.32 44.12 43.86 43.39 44.14 44.88 44.49 42.38 39.73 38.85 38.82 39.26 39.96 42.10 41.67 40.15 39.45 38.61 39.91 39.96 39.26 38.80 38.27 37.60 37.14
34.47 22.62 26.11 24.51 31.28 31.20 28.03 30.96 31.17 31.52 32.23 32.51 32.21 31.66 39.01 41.81 44.78 44.40 41.53 41.56 41.20 42.83 44.30 44.32 43.86 40.63 37.79 36.41 36.12 38.15 38.73 41.16 43.41 41.01 39.36 39.10 38.71 38.39 37.02 36.32 36.14 35.81 35.22 35.21
32.43 27.45 23.87 20.91 28.63 28.70 25.82 30.87 32.24 32.71 33.73 34.84 32.51 37.56 42.28 42.43 43.35 40.05 39.60 38.39 36.72 36.69 40.62 43.94 42.81 37.52 35.13 35.10 35.86 36.08 38.04 39.30 37.73 37.11 37.40 36.69 36.01 35.37 35.51 35.99 36.06 35.65 34.90 34.77
31.86 30.37 27.57 20.22 26.06 19.31 35.34 39.56 38.88 34.80 36.81 39.02 39.44 40.69 42.05 43.22 44.22 39.71 38.89 35.00 34.06 34.59 40.56 42.29 35.71 32.99 32.79 34.21 35.48 36.54 36.56 35.85 35.31 34.81 34.99 35.60 35.64 35.49 35.69 35.20 34.49 34.19 34.32 33.99
38.49 35.24 28.51 21.91 22.39 29.10 35.69 38.73 37.78 35.30 35.29 39.32 38.64 40.47 41.59 44.43 43.05 39.58 38.55 35.50 34.03 34.54 34.70 33.36 33.43 33.05 33.28 34.59 35.35 34.97 34.77 35.08 34.96 34.80 35.46 36.27 36.50 35.86 35.56 34.59 34.39 34.60 33.90 32.81
38.79 38.52 31.16 25.80 24.37 23.83 33.26 37.69 40.51 39.77 32.48 39.93 39.74 39.21 41.33 42.38 37.49 37.78 37.30 34.75 34.66 35.10 35.35 34.91 35.33 35.59 35.31 35.48 35.84 34.92 34.54 34.89 34.81 35.76 36.53 37.34 37.12 36.19 35.22 35.06 34.37 32.81 31.97 30.35
34.43 34.22 29.45 28.47 25.61 29.80 36.51 38.59 42.12 31.07 34.26 39.55 39.65 39.36 41.93 40.35 39.86 37.84 38.06 35.98 35.90 35.54 35.13 35.81 35.74 35.17 36.10 37.07 36.63 35.15 35.09 33.78 35.74 37.27 36.96 36.13 36.29 35.39 34.62 32.94 31.98 30.19 28.91 28.94
32.32 30.38 29.76 30.84 28.37 23.90 40.08 40.15 37.72 39.07 39.71 39.34 38.12 39.67 38.73 38.32 38.15 36.06 38.51 37.45 36.31 35.77 36.21 36.70 36.10 36.02 36.79 36.99 36.09 34.20 32.12 33.75 34.88 33.85 33.27 32.77 32.68 33.34 31.56 29.48 28.70 28.26 26.70 24.56
32.01 32.67 32.12 32.76 31.74 37.66 38.66 41.30 43.33 41.00 38.62 37.76 36.68 39.29 38.81 37.28 36.67 35.35 36.66 37.65 37.48 36.68 37.01 37.47 36.09 35.98 37.10 36.96 35.89 32.75 32.61 33.97 33.57 32.92 31.98 30.49 30.14 29.42 29.45 26.46 24.15 23.15 23.10 22.27
36.02 40.04 36.97 35.94 39.02 39.62 41.44 39.83 41.02 39.56 38.02 38.02 38.26 40.13 38.24 36.47 36.11 34.27 33.33 36.42 36.95 37.47 37.47 37.08 35.84 34.34 33.22 34.38 34.49 33.61 33.56 33.40 31.69 30.02 29.33 28.75 26.58 24.95 24.67 24.58 24.47 22.73 21.93 21.36
36.17 38.96 38.46 37.12 38.95 41.05 40.74 39.84 40.32 39.93 37.95 37.99 38.67 40.81 39.44 36.00 34.29 33.42 33.21 32.79 33.44 33.31 32.81 31.35 30.51 30.36 30.44 31.50 31.45 32.06 31.84 31.80 29.72 27.50 26.01 25.47 25.28 23.68 23.07 23.27 23.13 23.11 22.11 22.12
37.38 34.78 34.35 34.22 40.46 39.31 39.28 40.26 39.86 37.97 36.80 37.50 37.43 36.36 36.28 35.62 34.69 33.57 31.96 32.04 31.97 30.52 30.23 28.71 29.25 29.39 29.69 30.30 30.39 30.98 31.74 31.13 28.28 24.88 24.11 23.84 23.02 22.23 22.34 22.43 22.43 30.77 30.34 30.60

GFSCGP_sfc_wetblb_045.txt.gz
Wetbulb
48.13 43.02 39.78 41.65 41.11 38.28 37.53 36.20 34.86 37.06 39.97 36.04 35.57 35.06 38.41 41.13 39.71 39.54 41.65 43.62 44.62 45.78 48.50 47.27 47.82 48.32 48.07 47.92 47.57 49.24 57.22 63.02 65.84 65.61 65.25 64.68 63.68 64.01 62.95 63.27 63.16 61.70 59.60 57.79
44.05 39.61 43.53 45.57 44.55 42.21 40.34 36.54 33.86 36.36 38.22 35.78 34.51 34.04 38.43 40.49 41.07 42.14 42.80 43.72 44.30 45.40 44.51 45.47 46.49 47.04 47.61 48.71 48.49 46.88 50.75 60.61 64.41 65.53 65.55 65.09 64.46 64.39 64.48 63.54 62.60 61.69 59.47 58.01
38.35 40.73 45.29 43.38 41.83 40.24 37.77 33.65 32.13 32.75 35.55 34.13 32.64 31.31 33.77 37.53 38.69 39.70 41.54 42.90 44.03 44.28 45.24 46.38 44.55 45.13 46.32 46.28 47.87 49.21 48.27 52.08 62.19 65.22 64.49 59.43 59.77 58.57 58.36 58.95 61.32 60.72 59.12 57.74
39.17 40.51 41.97 40.84 39.31 38.97 32.72 37.62 35.94 33.87 31.20 26.10 33.02 23.65 30.18 34.22 35.13 36.78 38.15 38.37 39.93 41.05 42.51 43.71 44.57 43.51 43.34 44.76 46.21 47.58 49.01 49.61 53.20 62.07 63.76 62.65 61.71 60.61 61.65 62.43 62.13 58.50 57.97 57.40
35.54 37.47 37.96 37.97 38.89 39.20 34.67 37.54 34.90 33.13 28.31 25.29 26.63 24.03 28.79 31.22 33.43 34.81 36.21 36.90 38.42 39.51 39.83 41.35 42.09 43.05 44.02 44.06 43.89 44.89 46.25 47.67 49.59 54.36 62.07 62.50 62.19 61.42 60.37 60.28 60.54 55.98 53.90 57.04
36.45 40.79 39.15 37.22 38.43 39.25 39.10 33.67 31.07 29.46 26.28 18.28 24.31 24.13 25.64 29.11 30.60 33.64 35.97 38.69 38.58 38.70 39.58 40.82 41.19 42.76 44.50 44.56 44.09 43.94 44.40 45.80 47.35 49.17 54.42 60.80 62.02 56.39 54.38 53.03 56.91 53.91 52.51 53.54
35.96 35.88 38.96 39.89 35.05 37.28 34.41 29.33 17.97 15.55 14.51 17.67 26.14 24.54 27.60 32.47 35.44 35.75 36.51 37.00 37.39 38.07 38.61 40.23 42.87 44.87 45.77 45.20 45.86 46.51 46.39 46.93 47.02 47.25 48.71 55.67 59.94 55.98 56.14 55.56 56.25 52.78 51.43 49.50
28.33 27.36 34.98 37.17 35.14 32.99 31.15 29.27 20.32 16.07 15.41 19.08 26.68 22.95 28.55 33.28 35.17 35.52 37.25 37.24 39.83 40.79 39.27 41.74 43.25 43.98 43.94 44.45 44.75 45.37 46.37 46.96 47.57 46.92 46.78 50.75 55.54 57.82 57.27 55.35 54.84 53.99 53.76 53.75
25.49 26.22 37.01 38.06 37.96 36.51 31.27 23.60 29.92 22.10 19.43 15.79 22.80 25.96 31.10 33.69 34.94 35.91 36.92 38.61 38.71 40.20 41.81 42.89 43.87 44.30 44.51 44.48 45.12 45.38 46.01 47.05 47.71 47.61 46.70 50.01 54.69 56.22 55.23 54.17 53.60 53.24 51.14 48.94
31.96 26.66 35.98 37.44 39.15 38.29 32.87 34.09 23.93 17.74 9.81 13.39 18.58 21.15 24.38 28.80 31.12 34.55 35.87 36.37 37.75 39.45 40.68 41.68 42.45 43.45 44.41 44.99 45.31 45.05 45.98 47.01 48.30 47.91 47.24 50.74 53.89 55.02 54.50 50.85 49.53 47.95 46.97 47.70
34.45 30.70 32.89 37.28 31.81 31.07 31.39 27.76 27.64 26.31 22.63 16.90 16.14 22.37 30.07 30.58 32.51 34.44 35.87 38.37 38.65 41.66 43.17 44.16 42.03 43.38 44.20 45.41 45.43 44.58 45.77 48.02 48.76 48.92 49.64 49.18 48.42 47.70 46.62 46.82 46.07 45.90 46.02 44.82
34.99 29.86 29.50 31.66 33.29 35.03 33.26 30.19 27.80 18.19 16.70 24.07 23.39 22.95 34.47 33.45 33.92 36.70 39.93 43.92 45.90 47.17 46.58 45.27 45.65 45.91 45.95 44.08 45.76 46.03 48.71 48.07 48.30 48.57 46.19 45.23 45.08 44.80 44.30 44.25 44.75 45.26 44.67 45.96
35.00 25.94 18.09 23.28 29.12 31.75 29.36 31.40 29.87 27.53 24.13 14.65 16.54 22.70 34.82 34.45 38.25 39.84 41.98 44.21 46.23 46.43 44.51 43.96 44.48 44.41 42.23 44.99 46.72 45.08 41.69 41.59 43.30 44.56 43.24 42.48 42.73 43.34 44.18 45.15 45.65 44.22 43.69 43.44
38.76 28.45 24.01 19.23 22.71 27.22 24.01 29.64 30.11 27.25 19.28 21.70 22.93 25.79 33.69 35.60 37.31 40.20 42.90 45.44 44.69 45.13 45.58 44.98 44.02 43.23 45.81 43.84 40.96 38.54 38.51 39.77 41.25 41.67 42.12 41.70 42.36 44.05 43.91 42.37 43.58 42.58 40.84 39.74
34.42 24.21 25.67 28.81 30.93 28.06 28.77 29.63 29.47 24.22 28.86 21.16 26.40 28.07 33.11 37.20 39.53 41.29 44.95 42.77 42.28 42.39 42.45 43.77 44.02 42.24 41.97 39.41 37.59 37.95 39.25 39.76 39.41 40.35 40.41 40.30 41.65 41.78 40.86 39.68 40.09 38.48 38.03 36.89
33.72 23.70 26.36 23.77 30.10 30.00 27.80 29.82 30.34 30.30 30.97 30.63 31.65 31.28 38.51 40.68 42.24 44.62 41.74 40.42 38.91 37.99 37.90 38.44 43.50 41.01 37.35 33.66 34.76 36.39 36.77 38.61 40.42 39.53 38.82 38.53 38.24 37.94 38.22 37.92 36.60 35.82 35.84 35.65
31.69 27.34 23.57 20.60 27.37 28.29 25.22 29.41 30.16 31.00 32.02 33.86 29.25 34.86 39.53 41.51 42.85 43.26 39.27 37.62 35.26 34.89 35.32 37.84 42.11 37.63 34.89 33.43 34.25 34.00 35.13 37.12 36.37 36.09 36.37 36.01 36.45 36.46 36.84 36.51 35.67 35.16 34.53 34.58
30.71 28.35 27.25 20.59 24.97 19.42 30.95 36.38 35.66 33.83 34.78 35.57 35.94 38.06 40.94 41.61 44.07 40.07 38.38 34.80 33.62 33.87 33.65 34.49 34.73 32.53 31.69 32.38 34.05 36.34 36.49 36.21 35.93 35.63 35.79 36.35 36.60 35.80 36.07 35.98 35.33 35.21 34.95 34.23
37.75 34.53 28.91 24.84 19.67 25.93 33.67 37.16 37.01 33.88 34.64 38.16 37.15 39.17 40.56 42.32 42.42 40.21 37.29 34.86 34.15 34.30 34.58 34.02 33.18 32.28 34.26 34.68 35.67 35.73 35.58 35.85 35.88 35.78 36.12 36.18 35.98 35.74 35.74 34.99 34.70 34.84 34.29 33.58
38.27 37.82 32.52 28.26 22.89 22.12 33.02 37.81 40.08 38.91 30.89 38.97 39.51 39.50 40.20 42.40 38.58 40.15 36.78 34.86 34.76 34.99 35.24 34.97 35.59 35.76 35.17 35.23 35.98 35.23 34.90 35.31 35.32 36.28 36.64 37.25 37.20 36.31 35.12 34.56 33.57 33.96 34.18 32.35
34.24 34.58 29.99 28.58 25.21 28.00 35.79 38.98 41.22 29.39 34.70 38.96 39.01 39.08 38.83 38.10 41.09 37.18 37.71 35.54 35.91 35.75 35.37 36.28 36.28 35.72 36.39 36.85 36.33 34.59 34.16 33.77 36.33 36.59 35.89 36.06 36.10 35.15 34.68 33.99 33.64 32.61 30.94 29.88
32.40 31.30 29.65 30.46 26.32 22.56 38.31 40.69 37.40 39.73 40.53 38.55 38.52 38.62 39.34 38.78 37.52 37.15 38.19 36.64 36.18 36.06 36.14 36.55 35.84 35.75 36.35 36.42 35.10 33.22 32.12 34.17 35.01 35.29 34.74 34.72 34.65 34.57 32.86 30.48 28.80 28.27 27.34 25.57
31.50 32.82 31.39 30.39 29.69 37.26 38.62 39.50 42.53 41.99 38.77 37.30 36.94 38.06 39.65 38.55 37.44 36.75 37.93 37.45 36.63 36.57 36.88 37.12 36.60 36.05 36.42 35.90 34.97 33.22 33.46 34.72 34.12 32.74 31.24 30.37 29.89 29.07 28.00 25.42 23.54 22.16 21.65 20.75
34.11 38.39 34.36 34.78 37.21 36.67 40.08 40.70 40.48 40.28 37.82 38.39 37.90 37.63 38.74 37.95 36.95 34.78 37.09 37.63 37.26 37.51 36.71 36.50 35.58 34.43 34.01 35.03 34.66 33.91 34.06 33.73 32.01 29.56 27.74 26.72 24.69 23.40 23.14 23.63 24.01 22.10 21.15 20.56
34.90 37.37 37.99 37.42 37.54 39.76 40.38 41.15 41.67 39.68 38.33 37.56 38.41 38.97 38.98 37.43 35.13 34.33 34.60 34.91 34.95 33.65 33.52 33.58 32.35 33.44 32.71 34.01 33.71 33.96 31.78 29.65 27.02 25.52 24.89 23.66 23.39 22.63 22.44 22.87 22.07 21.54 20.27 21.21
36.82 36.64 32.61 30.88 37.50 38.60 38.42 40.20 40.14 38.58 37.60 37.31 37.45 36.65 37.18 36.89 35.70 34.73 32.67 33.47 32.06 30.01 28.37 28.74 29.83 30.09 30.18 30.49 30.18 30.50 29.91 28.35 26.75 24.44 23.77 23.71 22.56 22.07 22.02 21.99 22.03 31.39 30.74 30.99

GFSCGP_sfc_wetblb_048.txt.gz
Wetbulb
47.56 43.06 39.06 40.76 40.09 38.14 36.83 35.02 33.72 35.75 39.35 35.57 35.75 34.14 37.47 41.19 38.91 38.62 39.58 41.06 42.78 45.06 47.70 47.23 47.36 47.88 47.59 47.71 47.06 48.11 50.58 60.89 66.41 66.91 65.91 65.25 64.07 64.71 63.86 63.66 63.02 60.44 59.59 59.29
42.59 39.68 44.08 44.05 43.28 40.26 37.94 35.08 32.82 35.98 37.43 34.91 34.20 33.21 37.62 40.66 40.17 41.02 41.86 42.54 43.35 43.88 44.93 44.69 45.54 45.74 46.30 47.47 47.16 46.44 48.22 53.61 61.87 65.87 65.95 65.49 65.37 65.19 64.67 63.74 63.01 62.25 59.48 58.63
39.10 41.59 45.34 43.64 42.15 40.64 39.19 36.92 34.31 32.98 34.49 33.13 31.95 31.27 32.76 36.77 37.45 38.79 40.01 40.71 41.10 41.22 42.13 43.89 42.91 43.78 44.04 44.29 46.04 47.49 47.07 49.85 58.01 64.31 65.03 59.96 60.77 60.22 62.82 61.40 62.01 62.10 60.12 58.77
38.92 43.52 42.97 41.60 40.16 40.94 35.58 38.36 35.85 33.60 31.03 26.37 32.01 24.58 30.40 33.65 34.06 35.50 35.36 36.41 37.84 38.92 39.47 40.52 41.62 41.83 42.28 43.64 44.24 45.85 47.48 47.87 50.84 60.56 63.21 62.63 62.39 61.65 62.28 62.70 62.57 61.61 59.90 58.49
35.80 40.21 40.52 39.33 40.08 41.38 34.98 37.28 34.31 32.16 28.44 24.52 26.42 24.06 28.87 30.72 31.61 33.55 35.44 36.65 36.93 37.19 38.16 39.81 39.89 40.84 42.33 42.70 42.58 43.32 44.59 46.78 48.60 52.28 62.58 61.98 61.65 61.99 59.26 61.02 60.25 59.70 57.91 58.70
37.44 41.39 40.13 38.31 38.37 39.60 37.88 33.16 30.90 28.68 26.23 18.50 23.85 23.56 25.59 28.88 29.28 32.59 34.22 36.49 38.32 38.88 39.01 40.44 42.77 44.48 44.54 44.89 44.75 44.29 43.07 44.08 45.37 47.75 53.28 60.60 61.19 61.03 56.27 56.54 59.46 56.40 55.24 56.76
36.12 36.25 39.60 39.64 34.65 37.19 34.48 31.40 25.94 16.62 15.70 18.13 25.53 24.38 26.87 31.29 34.01 33.30 33.89 36.24 37.94 39.45 40.25 41.75 42.51 43.16 43.90 44.02 43.90 44.59 45.55 45.86 46.01 45.53 46.20 52.20 59.35 59.83 56.84 57.85 58.79 57.16 54.87 54.78
27.12 29.20 36.19 37.41 35.05 32.45 29.48 29.20 20.86 15.55 16.36 19.47 26.32 22.30 27.55 32.46 33.67 35.33 35.93 36.79 38.23 38.88 39.67 41.30 42.48 42.81 43.03 43.91 44.02 44.09 44.18 44.89 46.26 46.40 45.96 46.32 49.69 55.28 57.34 56.92 57.66 57.06 55.48 55.30
26.24 26.47 36.22 37.46 36.97 35.92 30.78 24.11 29.95 21.93 19.31 15.72 22.12 25.27 29.15 32.36 32.12 33.04 35.80 37.10 37.42 38.21 39.39 40.78 42.19 43.04 42.95 43.35 44.50 43.88 44.28 44.78 45.57 46.48 46.53 45.64 46.70 49.89 54.91 55.77 56.32 56.45 54.86 54.21
30.81 26.46 34.50 36.02 37.88 36.89 33.07 33.46 23.27 18.04 13.54 14.62 18.25 20.35 23.44 27.93 31.22 34.59 35.63 37.18 37.91 38.82 40.65 41.64 42.93 43.26 42.88 44.39 45.69 44.63 44.56 44.47 45.50 47.40 47.60 47.62 47.33 49.91 53.02 52.91 52.19 50.78 48.96 48.55
33.75 30.42 32.10 36.77 31.36 30.29 30.25 26.48 27.11 25.75 22.56 17.34 16.16 21.82 28.82 29.77 31.73 33.16 35.26 36.63 38.69 42.01 43.93 44.06 43.82 44.05 44.61 45.95 44.67 43.96 43.78 45.69 47.10 47.51 48.33 47.82 47.60 48.69 48.45 47.82 46.05 45.41 45.65 45.58
34.32 30.99 29.61 30.19 32.46 34.00 32.29 29.35 27.02 18.38 16.91 23.67 21.55 21.82 32.79 32.02 33.35 34.52 36.43 39.65 43.29 46.85 45.16 43.18 42.81 43.42 44.50 42.17 42.71 44.01 42.10 43.20 43.39 44.64 45.08 44.88 47.66 47.70 46.40 44.45 43.85 44.73 44.28 45.13
34.15 25.93 18.73 27.43 31.20 31.96 29.84 31.09 28.82 26.39 22.91 14.58 16.11 22.18 33.62 32.93 35.40 37.83 37.94 39.73 44.38 43.89 42.98 43.21 43.61 43.10 42.75 41.84 40.28 40.02 39.94 40.37 42.04 43.22 43.09 43.29 45.10 45.76 45.96 45.72 45.72 45.08 45.12 44.13
37.68 27.96 24.49 19.82 23.60 27.62 24.57 29.49 28.88 25.97 18.30 20.22 20.81 24.38 32.24 34.20 35.14 38.00 39.34 42.59 43.17 43.14 41.59 41.63 39.87 41.73 40.81 39.86 39.51 38.84 39.97 40.21 40.76 41.26 41.75 43.01 44.00 44.47 43.80 43.81 42.96 42.43 41.92 40.61
33.98 23.50 24.73 28.20 30.01 27.32 28.29 29.44 28.73 22.90 26.62 20.36 24.50 26.31 31.72 35.07 36.93 38.83 41.06 42.82 41.39 39.64 36.91 36.88 35.99 40.84 39.17 37.18 37.44 36.64 37.64 38.15 38.16 37.77 38.45 39.81 41.05 40.60 40.77 40.25 39.48 38.59 37.88 37.70
32.92 25.99 26.17 22.98 29.38 29.57 27.73 29.52 29.80 29.06 29.44 28.94 30.50 30.13 37.60 39.85 40.87 42.32 42.06 40.56 38.37 36.24 35.33 35.63 36.42 38.89 36.30 34.10 33.37 34.06 34.01 35.68 37.09 37.24 36.41 37.28 37.45 37.57 37.24 37.25 36.91 36.86 37.05 37.74
33.04 27.28 23.56 19.16 27.07 27.88 24.87 28.73 29.58 29.40 30.99 32.45 27.66 33.42 37.45 37.60 41.15 42.72 40.58 38.01 35.16 34.42 34.41 33.64 33.90 33.96 34.34 32.71 33.64 33.39 35.58 36.85 36.59 36.33 36.55 36.82 36.61 36.01 35.93 35.79 35.53 35.29 36.51 36.30
30.41 28.21 27.33 20.67 24.51 17.46 29.10 35.01 33.62 32.33 33.28 34.05 34.60 36.23 37.90 37.85 42.48 40.57 38.11 34.56 33.35 33.98 33.88 32.52 32.97 32.71 30.65 32.61 35.90 36.78 37.07 36.87 36.60 36.30 36.42 36.77 36.76 36.21 36.10 35.53 35.05 34.99 35.38 35.28
36.83 33.30 28.01 24.62 19.79 24.62 31.18 34.95 33.54 32.43 35.17 36.80 35.48 36.93 39.32 41.83 39.67 35.79 35.94 33.93 34.01 34.28 34.87 34.72 34.97 32.81 33.84 35.23 36.12 36.04 35.87 36.27 36.39 35.97 36.12 36.57 36.53 35.64 34.57 33.05 32.72 32.24 34.00 33.44
37.93 34.91 28.00 27.73 23.31 20.43 30.99 36.97 39.81 38.09 32.64 38.38 38.32 38.82 39.25 39.42 35.53 36.76 36.11 35.47 35.23 34.68 35.41 35.25 35.91 35.94 35.48 35.77 36.79 36.25 36.02 36.09 35.78 36.26 36.50 36.93 36.51 35.52 34.55 34.43 34.08 34.24 33.86 32.63
32.97 33.55 29.47 28.13 25.87 26.44 34.36 37.72 40.86 31.43 32.83 38.91 38.32 38.71 37.23 36.66 38.79 38.13 37.44 35.71 34.97 35.18 36.13 36.62 36.40 35.54 35.72 36.43 35.90 34.43 34.38 34.69 35.89 36.48 36.26 35.76 35.47 34.44 33.52 32.44 32.70 31.99 31.50 30.54
30.37 29.01 29.30 29.77 26.89 22.20 36.98 40.22 36.88 39.09 40.81 39.36 38.27 37.23 37.50 37.74 36.93 38.26 38.10 36.57 35.59 34.20 35.54 36.60 35.78 35.43 36.19 35.98 35.20 33.87 32.86 34.86 35.81 35.42 34.56 34.50 34.86 35.54 33.86 31.17 29.94 28.63 27.18 24.78
30.25 31.63 28.95 29.43 28.56 35.95 39.03 38.93 40.30 41.26 40.95 39.05 36.95 37.63 37.42 37.92 38.68 37.95 37.92 36.85 36.51 35.82 36.46 37.21 36.32 35.62 35.74 35.62 35.48 33.84 33.96 35.14 34.40 33.21 31.30 31.29 30.83 29.40 27.68 25.25 23.62 21.72 21.06 20.47
34.19 38.67 36.10 34.28 35.15 36.41 39.73 40.27 39.56 39.64 38.99 38.80 37.99 36.96 37.37 37.24 36.96 36.37 37.80 37.55 36.79 36.07 36.11 36.37 35.65 34.91 34.50 35.02 34.73 34.29 34.33 33.74 31.09 27.75 25.71 24.83 23.47 22.25 22.02 22.70 23.19 21.22 20.31 19.86
35.65 37.78 36.82 36.78 37.71 38.53 39.31 39.77 40.49 40.72 38.60 37.82 37.47 37.76 38.22 38.04 35.34 35.06 37.45 37.33 37.29 36.09 34.50 35.22 35.03 34.22 33.92 34.48 33.85 32.53 31.74 29.02 25.62 24.83 23.85 22.66 22.30 21.72 21.76 21.98 20.88 20.44 18.86 20.66
34.61 33.23 31.57 30.52 36.20 36.00 37.11 39.32 39.92 39.26 38.15 37.83 36.65 36.42 37.17 37.99 35.93 34.70 35.93 34.88 35.03 32.34 31.25 31.38 31.83 32.19 32.13 32.20 31.18 28.54 27.95 26.83 25.09 23.41 23.04 22.82 22.18 21.64 21.92 22.11 22.57 31.79 30.97 31.20

GFSCGP_sfc_wetblb_051.txt.gz
Wetbulb
46.80 41.71 37.51 40.73 40.42 38.83 38.07 36.31 35.65 38.15 40.59 38.64 37.91 37.02 39.33 42.16 41.88 41.95 42.88 44.13 45.27 46.69 48.21 49.76 50.59 51.15 51.37 51.89 51.25 51.52 52.84 60.59 67.37 66.36 65.85 65.76 64.43 64.70 64.91 65.63 65.24 64.00 63.48 63.47
43.02 38.30 42.60 44.05 41.78 39.50 38.22 36.18 35.77 38.08 38.94 38.11 35.78 35.23 39.50 41.88 41.63 42.38 42.63 43.47 44.14 44.98 46.17 46.38 47.16 48.38 49.12 50.33 50.99 50.93 51.14 53.38 60.91 66.62 66.67 66.41 65.96 65.54 65.81 65.37 65.02 64.53 62.86 62.71
36.22 41.17 45.37 43.20 41.64 39.32 38.39 35.84 34.91 35.54 36.56 35.94 34.09 34.55 35.69 39.21 39.80 40.26 40.14 40.52 41.80 42.30 42.03 43.69 44.29 44.95 46.65 47.12 48.33 49.76 50.70 51.66 54.69 63.36 66.59 65.79 65.05 64.22 64.96 64.44 64.10 64.27 63.36 62.15
38.10 44.29 43.13 42.26 40.41 41.36 36.85 40.66 37.13 34.91 33.81 30.11 34.05 28.16 33.72 35.29 36.33 36.88 38.97 39.59 40.18 40.76 41.30 43.42 45.67 46.34 45.74 46.64 47.05 47.31 48.42 49.99 51.77 57.32 63.96 64.48 62.58 62.11 63.58 64.39 64.62 63.96 63.95 61.73
36.35 41.64 40.60 39.02 40.03 42.09 37.08 38.64 35.29 33.55 30.49 30.67 30.01 28.31 32.04 34.02 34.08 35.60 38.07 39.23 40.93 41.58 42.48 44.49 45.75 47.16 48.28 48.71 48.57 47.96 47.04 47.39 49.62 51.79 59.74 63.92 63.25 63.51 64.60 64.50 64.19 63.92 63.03 62.45
37.51 42.23 41.55 39.69 39.75 40.95 37.88 34.09 32.00 30.33 29.43 25.37 27.47 27.14 28.99 31.59 33.81 35.90 37.99 39.68 40.60 41.89 43.54 45.21 46.17 47.03 48.08 48.78 48.99 48.85 49.07 49.24 48.64 49.30 51.65 60.93 63.10 63.16 62.46 62.33 62.75 63.12 62.03 61.35
36.02 36.39 39.39 40.56 36.10 37.97 36.47 33.95 26.53 22.11 21.96 24.04 27.35 26.17 29.79 33.91 36.00 37.33 38.63 39.87 40.80 41.72 43.57 44.98 45.65 46.38 48.05 47.91 47.92 48.58 48.58 48.80 49.57 50.03 49.56 50.61 57.45 62.54 61.91 62.17 61.60 61.97 59.14 58.72
30.31 29.02 36.31 38.76 35.98 33.44 32.68 33.38 27.05 19.67 19.85 22.03 27.42 24.05 30.30 35.34 36.57 37.97 39.49 39.65 39.98 41.32 42.74 44.43 45.43 46.42 47.31 47.50 47.37 48.18 48.56 48.83 48.97 49.21 50.04 50.34 50.19 52.48 59.30 61.34 61.51 61.41 61.01 59.91
27.92 29.17 37.77 37.66 37.89 37.50 32.14 28.28 31.15 23.16 22.07 21.30 24.72 27.60 32.00 34.89 35.54 37.41 37.99 39.72 41.20 42.02 43.52 44.87 45.96 46.77 46.91 47.30 47.79 48.22 47.82 47.98 48.47 48.57 50.08 50.94 50.73 50.43 51.50 55.42 59.13 60.47 60.64 59.23
31.91 27.43 35.81 36.33 38.90 37.13 34.35 33.53 26.74 23.84 18.46 18.39 21.98 22.89 26.43 31.21 33.89 36.46 37.62 38.53 40.09 41.99 45.50 46.46 46.51 46.37 46.89 47.14 47.29 47.45 46.77 46.59 47.81 49.70 50.26 50.88 50.93 51.04 51.61 52.67 54.60 57.12 57.75 56.58
34.29 31.62 32.67 36.54 32.79 30.88 31.62 29.63 28.14 27.30 24.08 20.18 19.00 24.57 31.15 31.99 35.24 35.38 37.74 39.01 40.30 44.32 45.86 45.60 45.83 46.01 46.50 45.68 44.82 44.86 45.12 45.85 46.44 47.40 48.51 48.75 48.92 50.02 50.60 51.74 52.75 53.08 52.20 52.27
34.79 32.19 29.78 30.76 33.64 35.38 33.33 30.19 28.21 22.61 20.75 22.59 22.70 24.25 35.12 35.03 36.37 36.37 38.15 39.91 42.31 46.38 45.44 44.90 44.79 44.69 45.00 43.23 42.11 41.94 42.41 42.97 43.93 45.28 46.47 46.96 48.94 48.74 49.12 48.62 48.52 48.48 48.58 49.43
34.71 28.12 23.55 28.19 31.60 33.16 31.57 30.90 29.32 27.03 25.15 21.67 20.36 25.18 34.87 34.67 36.07 38.04 38.52 40.55 44.66 44.60 43.41 41.64 41.15 40.30 42.61 40.68 40.88 41.39 41.81 41.37 42.60 43.57 44.80 45.73 46.59 47.10 47.21 47.19 46.96 47.04 46.70 46.56
37.51 29.03 26.70 22.27 25.65 29.03 26.41 29.68 29.51 27.63 22.14 22.45 22.94 26.03 32.33 34.81 35.62 38.13 39.72 41.83 43.66 42.56 39.58 38.37 37.86 37.93 40.82 39.28 39.35 39.54 39.75 40.24 40.28 40.47 41.06 42.56 43.13 43.31 43.44 42.89 43.10 43.19 43.42 41.84
34.37 25.86 26.25 29.07 30.70 28.31 29.27 30.01 28.82 24.87 26.89 23.79 26.11 26.62 32.39 34.85 36.38 39.85 42.10 43.25 41.51 39.08 37.40 36.19 36.45 38.46 38.06 37.37 37.13 36.77 37.13 38.11 38.86 38.24 38.36 38.44 38.78 39.27 39.56 38.45 38.56 38.55 38.12 37.79
33.23 28.19 26.87 24.40 30.08 30.01 28.68 30.43 30.29 29.55 29.96 29.17 29.98 30.35 38.10 39.26 39.29 41.89 43.14 40.93 38.48 36.24 36.06 35.74 34.69 35.14 35.42 35.63 35.33 35.51 36.27 37.37 38.50 37.74 37.19 37.33 37.33 37.35 37.30 37.39 37.75 37.72 37.78 37.83
33.17 27.70 24.65 20.46 27.97 28.38 25.44 28.92 30.16 30.16 31.09 32.46 28.26 33.56 37.09 37.02 38.85 41.13 41.01 38.44 35.02 34.50 34.75 33.70 33.43 33.42 34.38 34.78 35.67 36.20 37.13 38.14 37.32 37.23 37.19 36.97 36.68 35.89 36.03 36.28 36.59 36.50 37.12 38.24
30.54 28.55 27.98 23.16 25.41 17.56 29.51 35.05 33.66 32.41 33.03 33.91 34.42 35.95 37.59 37.37 39.54 39.93 37.78 34.92 33.88 34.44 34.44 33.97 33.35 34.11 34.18 35.62 37.28 37.62 37.83 37.68 37.29 36.89 36.97 37.25 36.88 36.05 35.62 35.35 35.30 35.81 36.15 36.21
36.40 31.68 27.39 24.24 22.32 24.78 30.94 33.50 32.21 31.78 35.78 36.06 35.10 36.57 38.11 40.67 41.11 39.23 36.93 35.46 34.15 34.00 35.02 35.10 35.73 35.11 35.80 36.17 36.69 36.70 36.92 36.78 36.68 36.01 36.06 36.53 35.95 35.15 34.75 33.14 33.00 33.19 33.83 33.33
37.01 34.28 27.91 27.30 23.14 20.43 29.62 36.93 38.83 38.68 33.41 39.66 37.68 38.83 39.20 39.57 36.01 39.07 37.57 36.25 34.83 35.11 35.95 36.07 36.49 36.57 36.25 36.33 37.37 36.67 36.04 35.98 35.61 36.12 36.42 36.77 36.72 36.08 35.26 34.51 33.01 32.57 33.35 32.17
33.27 33.52 27.42 28.06 26.02 25.94 33.02 37.73 41.39 32.96 34.37 39.81 39.80 39.51 38.41 37.39 39.15 38.94 37.36 35.99 35.83 35.77 36.18 36.82 36.40 35.38 35.68 36.44 36.55 35.27 35.37 34.88 36.23 36.61 36.34 35.93 35.14 34.39 34.54 32.78 32.85 32.06 31.10 30.53
30.27 29.46 29.41 29.80 26.60 21.15 35.70 40.31 37.32 40.23 40.79 40.77 39.59 39.12 38.48 38.71 38.52 38.55 38.36 36.70 36.22 34.97 36.21 36.62 35.90 35.51 36.09 36.13 34.59 34.38 33.52 35.53 36.03 35.63 34.55 34.75 34.90 35.00 33.52 32.10 30.77 29.39 27.59 25.92
30.03 30.17 28.74 29.18 28.18 34.67 37.18 38.10 41.26 40.54 39.95 39.85 38.73 39.25 38.24 38.04 38.55 38.57 38.12 36.69 36.55 36.19 36.69 36.91 35.75 35.52 35.53 35.38 35.40 34.27 34.20 35.20 33.90 33.29 32.89 31.79 30.52 28.61 27.79 26.93 25.83 25.09 25.31 24.66
34.94 37.33 34.82 33.74 34.91 35.88 39.17 40.98 41.42 40.31 39.43 39.76 39.50 38.62 37.97 37.92 38.61 37.52 38.62 37.11 36.62 36.15 35.60 36.67 36.04 35.20 34.43 35.12 34.99 34.54 34.64 33.07 30.87 28.07 26.55 26.04 25.62 24.98 25.29 26.07 26.05 24.87 24.35 24.04
35.06 37.30 36.45 36.06 36.74 37.63 38.13 40.36 39.72 39.79 39.62 38.82 38.57 38.19 38.63 38.15 37.17 36.23 38.21 37.74 37.53 36.62 36.07 36.11 35.96 35.01 34.21 34.74 33.35 33.34 32.03 29.49 27.11 26.33 25.88 25.17 24.93 24.51 24.64 24.64 24.62 24.34 23.56 24.69
34.66 33.46 31.92 31.41 35.46 36.91 37.31 38.35 37.99 36.52 37.12 37.38 36.74 36.67 37.98 38.78 37.39 35.48 37.53 38.40 37.13 35.30 34.15 34.12 34.87 35.16 34.62 34.66 31.83 30.25 29.37 28.22 26.70 25.17 24.96 25.26 25.03 25.33 25.98 26.55 26.74 32.19 31.50 31.16

GFSCGP_sfc_wetblb_054.txt.gz
Wetbulb
46.83 41.97 40.62 43.20 43.92 42.29 41.88 39.72 38.56 41.30 43.20 42.65 42.68 43.08 45.36 47.92 48.45 48.37 49.41 50.15 51.08 51.94 53.54 53.29 53.85 54.36 54.86 55.96 57.09 57.62 57.98 59.69 63.77 67.25 67.11 66.96 65.83 66.52 66.60 67.55 69.38 68.78 67.92 67.45
41.68 39.15 44.18 46.45 44.92 42.40 41.00 39.07 38.71 41.25 42.26 42.50 41.41 41.14 45.06 46.82 47.11 46.84 46.85 48.19 49.17 49.45 49.82 49.77 50.58 50.94 51.75 53.05 54.80 56.23 57.07 57.78 59.26 63.27 66.81 67.95 67.52 67.70 67.93 67.49 66.90 66.96 67.86 67.07
38.73 41.47 46.03 44.08 42.70 40.57 40.58 38.49 39.31 38.96 40.07 40.17 39.54 39.97 40.49 41.85 43.26 44.54 44.12 45.18 46.09 46.63 48.53 50.90 52.08 52.16 52.21 52.31 52.64 53.12 54.42 56.10 56.91 58.43 62.52 66.22 67.51 68.32 66.99 66.71 65.98 66.12 66.35 67.67
37.27 44.03 43.47 42.82 40.96 42.34 37.60 42.93 41.04 39.10 38.62 35.74 38.59 34.61 38.20 39.74 41.30 43.61 45.24 46.19 47.13 48.62 50.62 51.30 51.99 52.58 53.38 53.83 54.72 53.89 52.96 53.33 54.34 56.09 57.58 61.66 63.72 63.58 64.95 65.54 66.45 66.72 65.93 64.92
36.55 39.37 41.64 40.85 41.71 44.37 40.02 42.87 39.76 38.36 37.34 36.37 35.43 34.73 36.41 39.61 38.77 41.43 44.71 46.28 47.76 49.42 50.57 51.25 52.05 52.71 54.23 54.57 54.50 54.97 54.61 53.99 53.11 53.91 55.19 57.62 61.77 63.43 64.16 65.06 65.51 66.17 66.31 65.32
39.36 44.14 42.12 39.55 40.82 43.02 41.13 39.09 37.28 37.14 36.35 31.83 33.95 33.02 34.47 37.16 39.37 41.75 44.78 46.44 47.39 49.28 51.25 52.39 53.22 53.67 53.88 54.90 54.86 55.09 55.11 54.95 54.81 54.03 53.97 55.02 57.42 61.35 62.82 64.05 64.45 65.53 65.99 64.32
36.66 36.67 40.85 41.53 35.63 38.85 40.36 37.92 31.08 29.34 30.28 30.73 31.73 30.58 36.33 39.31 41.85 42.80 43.58 45.59 47.24 49.07 50.44 51.08 51.40 52.08 52.69 52.99 53.69 53.92 54.00 53.96 55.03 54.60 54.37 54.37 54.51 57.31 61.25 62.56 63.21 63.73 63.66 62.93
33.06 30.38 36.57 39.96 38.92 36.95 37.97 37.54 33.25 25.23 25.93 28.62 30.72 29.49 35.30 40.81 42.32 43.05 43.44 44.83 45.76 47.76 50.21 50.82 51.08 51.47 51.60 51.90 52.33 52.63 52.90 52.75 53.84 54.35 54.43 54.93 55.32 55.32 55.79 58.18 61.14 62.33 62.81 63.93
33.12 31.51 39.21 39.94 40.64 41.59 35.73 34.95 35.49 30.06 27.93 28.50 31.95 33.87 37.72 38.95 40.31 41.75 43.61 45.61 46.61 47.74 50.22 50.20 50.67 50.78 50.80 51.37 51.24 51.23 51.31 51.77 52.78 53.15 54.43 55.24 55.89 55.93 55.85 56.25 56.86 58.33 60.55 61.65
36.44 31.39 37.00 37.79 40.65 40.06 38.63 38.69 31.77 32.84 25.25 24.86 28.74 29.77 33.74 36.01 38.65 41.20 43.47 45.23 46.44 48.21 50.22 49.67 49.92 49.92 50.76 50.89 50.24 50.71 50.97 51.13 51.97 52.73 53.88 54.01 54.69 55.14 55.56 56.32 56.57 57.12 57.93 59.25
39.18 36.62 33.52 37.90 36.12 35.52 35.36 34.91 33.25 34.36 30.81 27.45 27.14 30.56 37.32 39.32 40.91 40.38 43.28 45.05 46.04 48.60 49.24 48.55 48.70 48.69 50.12 50.16 49.02 48.82 48.90 49.14 49.54 50.40 51.62 52.77 53.37 53.55 53.56 52.60 53.19 54.33 55.71 56.87
38.48 37.27 31.99 33.13 36.65 38.46 37.58 35.83 34.78 31.63 27.57 29.43 29.36 31.64 40.04 41.02 41.53 41.53 43.75 45.39 47.27 48.81 47.92 46.58 46.67 46.92 48.55 47.65 47.50 47.49 47.45 47.38 47.80 48.54 49.75 50.63 51.57 52.27 52.82 52.72 52.50 52.19 52.80 53.25
39.27 34.41 28.60 29.66 33.77 36.19 34.28 34.97 34.35 32.96 32.23 28.49 29.08 32.36 39.86 41.28 41.52 43.86 44.01 45.91 47.84 47.43 45.65 45.04 45.26 45.18 46.53 45.54 45.57 45.49 45.65 45.56 45.76 46.24 47.18 47.82 48.03 48.77 47.86 47.24 48.64 49.20 48.59 48.80
41.08 33.96 31.78 29.16 31.10 34.63 32.02 33.49 34.18 34.64 31.08 30.23 31.26 33.52 37.82 39.65 41.11 43.73 44.95 46.61 47.02 45.09 42.45 42.48 43.87 44.56 44.48 43.56 43.34 43.08 43.59 44.14 44.09 44.16 44.24 43.85 43.98 44.40 43.48 42.05 41.51 41.11 41.46 41.87
39.60 33.16 32.23 32.65 33.58 33.14 32.86 33.25 32.57 30.69 33.32 32.53 32.88 32.72 37.74 40.70 42.45 43.49 45.06 46.36 44.81 41.93 41.29 40.79 40.94 42.15 42.37 41.52 42.08 42.28 42.75 43.01 43.23 42.67 42.05 41.00 40.74 40.21 39.52 39.09 39.13 39.12 39.12 38.95
37.89 32.26 32.27 30.50 32.62 32.76 31.12 33.92 34.33 33.67 34.61 33.49 34.94 34.96 42.49 43.82 43.92 43.91 45.19 44.67 42.60 40.62 39.86 39.20 38.77 39.74 40.40 40.97 41.09 41.56 41.67 41.63 42.03 41.48 40.39 39.75 39.04 38.21 37.88 38.27 38.28 38.75 38.76 39.04
36.80 33.80 32.13 28.99 31.12 31.41 29.27 32.86 33.98 34.61 35.64 35.82 32.43 38.09 42.12 41.95 42.45 43.55 44.89 43.35 40.68 39.23 38.62 38.00 37.51 38.41 39.15 39.97 40.91 41.00 40.57 40.21 40.61 40.29 40.27 39.58 38.63 36.87 36.53 37.08 37.41 37.81 38.48 39.28
35.67 34.70 34.00 30.44 30.20 24.04 33.60 37.81 37.78 35.87 36.75 37.98 38.40 39.99 42.23 42.48 44.12 44.96 44.21 42.24 39.93 38.72 38.31 38.34 38.70 38.50 38.97 40.48 40.82 40.49 39.22 39.76 39.87 38.56 38.46 38.19 36.45 35.56 35.63 35.32 34.88 34.79 35.96 35.88
39.72 36.70 31.70 29.42 28.22 31.53 34.46 35.39 35.21 34.42 36.00 39.78 38.86 41.23 42.95 44.09 44.22 44.58 42.93 39.76 39.74 39.04 39.17 39.16 38.53 37.67 38.69 39.11 39.00 39.20 38.01 37.95 38.07 37.40 36.92 36.88 36.47 35.80 35.66 34.52 34.08 33.10 33.43 33.02
37.78 38.52 34.48 30.44 25.57 24.35 35.26 40.32 42.63 40.25 35.44 43.03 41.77 42.41 42.84 42.72 40.05 44.87 42.53 39.83 38.75 39.08 39.36 39.53 38.93 37.69 37.82 38.08 39.63 37.93 36.74 36.65 36.11 36.79 36.60 37.01 36.99 35.94 35.01 34.75 34.40 33.50 34.47 32.67
33.72 34.05 31.10 30.78 27.55 32.04 38.28 39.30 43.84 34.42 35.62 43.04 43.72 43.94 42.61 41.79 44.13 43.95 41.90 39.17 38.29 39.73 39.07 39.37 39.00 38.21 37.31 38.95 38.91 36.84 36.36 35.56 36.75 37.24 36.60 36.20 36.22 35.47 35.10 34.45 34.40 34.33 33.14 33.14
32.87 31.33 30.77 31.57 27.94 25.33 39.89 41.84 37.30 41.08 44.36 44.16 43.81 43.52 42.66 43.24 43.08 42.48 41.64 38.74 37.41 38.14 38.43 38.77 38.46 37.53 37.54 38.44 37.18 35.22 35.08 36.53 36.65 36.13 35.95 35.70 35.74 35.58 35.67 34.07 32.07 31.99 31.55 30.96
31.92 35.98 34.24 34.72 34.04 39.72 41.30 40.61 43.53 43.82 42.79 43.40 43.02 43.48 42.70 41.66 42.56 42.54 41.50 38.66 37.79 37.98 38.84 39.17 38.37 36.72 36.91 36.90 37.27 35.42 35.61 35.75 35.23 34.76 33.87 32.98 33.33 33.17 32.89 32.13 31.51 31.44 31.83 31.12
38.01 40.56 36.68 36.73 40.41 40.47 41.98 44.49 44.42 43.38 43.02 43.91 43.78 43.04 42.27 41.71 42.76 42.69 42.53 40.51 38.16 37.47 37.78 39.19 38.56 37.19 36.44 37.41 36.93 36.35 35.53 34.94 34.08 34.31 33.03 32.25 31.61 31.17 31.73 32.08 31.86 31.74 31.33 30.73
39.59 39.52 38.38 38.43 41.63 42.30 42.01 42.86 41.68 42.63 42.40 42.23 42.54 42.22 42.06 42.08 42.20 42.91 42.59 41.43 39.43 37.86 37.25 38.92 39.27 38.25 36.19 36.44 36.29 35.74 33.88 35.71 33.80 32.35 31.53 31.23 31.27 31.14 30.44 30.60 30.60 30.13 29.55 30.08
40.33 39.56 37.49 36.88 42.36 42.35 42.80 43.22 41.77 41.00 40.44 40.63 40.08 40.64 41.83 42.33 42.77 42.28 42.65 42.79 40.05 37.52 37.02 37.54 39.20 38.83 37.85 38.28 37.64 36.31 35.25 33.83 32.16 30.78 30.57 30.88 31.37 31.75 32.21 32.09 31.51 32.38 31.76 31.17

GFSCGP_sfc_wetblb_057.txt.gz
Wetbulb
47.24 42.48 39.33 42.48 44.16 43.70 42.07 40.46 40.01 42.41 45.56 44.03 42.97 44.19 45.78 48.59 49.26 49.06 49.93 50.35 50.78 51.52 53.97 55.30 55.53 56.20 56.42 57.39 57.93 58.51 58.65 59.67 60.61 63.50 66.47 68.28 67.01 67.12 67.11 69.37 70.43 69.89 69.46 69.01
43.61 35.88 43.98 45.97 44.77 43.43 42.06 39.87 39.90 42.78 44.07 43.24 42.94 42.61 45.79 47.38 47.83 48.85 49.28 49.87 50.67 51.64 52.40 52.92 52.64 53.02 53.09 54.24 55.59 56.90 57.99 58.79 59.42 60.72 63.30 68.21 67.45 66.90 67.08 67.29 68.16 69.36 69.72 69.32
39.49 41.09 43.97 43.47 42.52 41.14 40.96 39.14 39.32 39.50 42.01 43.49 41.83 40.04 42.51 43.99 45.30 46.24 46.64 47.81 48.72 49.08 49.68 51.75 52.89 53.33 53.72 54.19 54.72 54.22 55.18 56.77 58.55 59.75 60.63 63.01 67.37 67.94 67.85 68.07 67.81 67.05 67.09 68.61
39.26 44.56 42.06 42.16 41.35 42.35 37.83 43.26 42.06 40.31 38.59 34.26 42.21 33.95 40.67 41.27 42.58 44.73 46.11 47.05 48.50 50.23 51.52 52.15 52.83 53.50 54.11 54.55 56.00 55.75 55.31 54.60 55.45 57.09 57.33 57.84 60.13 62.67 65.39 66.02 67.12 67.26 67.22 65.34
37.75 40.29 41.25 40.08 41.95 44.12 40.43 44.76 42.49 41.15 39.33 38.33 38.13 36.02 38.70 41.12 39.72 42.72 45.50 47.19 48.99 50.84 51.70 52.13 52.89 53.70 54.98 55.82 55.93 56.58 56.33 55.49 55.83 55.00 55.49 56.20 57.13 60.49 64.00 64.95 64.78 65.17 66.50 66.73
39.36 42.44 42.44 42.72 41.24 44.55 45.56 41.74 40.57 39.99 38.15 32.47 38.31 36.93 35.10 37.66 40.78 42.79 45.80 47.56 48.94 50.57 52.03 53.00 54.09 54.66 54.72 55.85 55.96 56.22 55.77 55.93 56.50 55.98 55.52 54.86 55.55 56.46 59.23 62.12 62.78 63.86 65.05 66.12
34.36 34.98 41.23 41.43 37.66 40.74 42.53 39.10 31.64 30.26 30.88 31.22 35.94 33.85 38.50 42.07 43.82 44.76 45.26 47.12 49.10 50.40 51.40 51.96 52.40 52.82 53.40 53.57 54.23 54.57 54.68 54.77 55.72 56.11 55.80 55.39 55.40 55.50 56.30 58.46 61.04 62.19 63.05 64.28
34.00 30.32 35.14 38.88 38.44 37.18 38.76 39.77 34.62 26.96 28.57 31.50 33.34 31.05 37.70 43.36 45.38 45.74 46.38 47.49 48.32 49.67 51.73 51.81 52.02 52.34 52.47 52.87 53.08 53.14 53.08 53.12 54.19 54.87 55.26 55.84 56.09 55.80 55.86 56.22 57.39 59.77 61.46 62.49
33.55 32.68 38.34 39.40 40.76 41.39 37.28 36.02 38.63 32.26 32.43 31.25 33.14 36.16 39.26 41.74 42.73 43.81 45.77 47.45 48.25 49.39 51.16 51.15 51.68 51.92 51.99 52.12 51.81 51.90 52.12 52.69 53.47 54.07 55.00 55.49 56.04 56.20 56.09 56.70 56.96 56.80 57.36 58.55
38.12 31.78 37.42 38.80 41.88 40.91 40.31 41.18 33.88 35.31 26.65 26.13 30.60 32.60 35.01 36.30 39.21 42.61 44.95 46.47 47.92 49.41 50.86 50.56 50.82 50.64 51.47 51.90 51.35 51.49 51.48 51.23 51.88 52.46 53.39 54.02 54.84 55.00 55.20 55.20 55.26 56.13 57.17 57.84
41.80 37.74 34.26 38.97 37.44 36.72 36.88 36.24 36.15 36.00 32.84 29.33 28.35 31.48 39.24 39.21 41.40 42.12 44.34 46.27 47.37 49.42 49.75 49.35 49.42 49.55 50.82 51.00 50.43 50.36 50.02 49.96 49.90 50.46 51.53 52.43 52.82 53.50 54.29 54.40 54.28 53.99 53.85 54.75
40.92 38.41 32.68 34.42 38.77 40.75 40.07 38.66 38.50 33.20 30.23 32.20 31.13 31.93 41.26 42.98 43.60 43.26 44.38 46.59 48.25 49.52 48.71 47.87 47.98 48.35 49.40 48.70 49.08 48.67 48.51 48.32 48.20 48.57 49.44 50.03 50.36 50.87 50.19 49.52 50.65 51.97 51.88 52.88
41.18 36.08 29.35 30.34 35.43 38.33 35.93 38.36 38.26 35.62 35.20 30.94 30.25 32.19 42.50 43.19 42.89 44.46 45.03 46.79 48.36 48.50 46.72 46.47 46.84 47.00 47.85 47.18 46.99 46.58 46.84 46.57 46.79 46.96 47.07 46.89 46.62 46.71 45.90 45.52 45.45 45.52 46.04 47.11
43.41 36.92 33.95 30.57 32.94 36.63 32.79 35.73 36.78 35.66 31.75 32.19 33.00 34.87 38.61 40.85 42.17 44.90 45.67 46.96 48.18 47.11 44.77 44.79 45.73 46.47 46.36 45.46 45.12 45.22 45.60 45.96 45.84 45.59 44.94 43.86 43.35 43.08 42.65 42.32 42.06 41.34 41.03 40.41
41.33 34.29 33.52 34.72 35.67 35.08 34.88 34.53 34.60 32.41 34.86 34.17 35.34 35.69 39.29 40.96 43.23 44.53 45.79 47.56 47.05 45.54 44.07 43.23 43.30 44.27 44.95 44.59 44.75 44.87 44.88 44.74 44.83 44.06 43.01 41.95 42.04 41.63 41.04 40.10 39.71 39.79 39.59 39.53
40.49 33.63 34.22 31.94 34.68 34.73 32.34 35.21 35.96 35.16 35.41 35.67 36.49 35.94 42.88 44.60 45.28 44.97 45.79 46.31 45.62 44.38 43.04 42.02 41.74 42.27 42.68 43.21 43.38 44.00 43.57 42.98 43.34 42.44 41.88 41.54 40.88 40.02 39.26 39.37 39.61 40.05 39.92 40.31
38.36 35.42 33.35 30.70 33.04 33.05 30.06 34.26 35.49 36.21 37.51 37.46 33.14 38.88 43.49 42.88 44.08 44.93 46.11 46.34 44.60 43.36 42.21 41.32 40.90 41.09 41.62 42.17 43.00 42.42 42.35 42.71 42.16 41.55 40.99 40.16 39.34 38.07 37.52 37.55 37.43 37.24 36.34 36.39
37.68 36.14 35.27 31.35 31.99 25.42 35.37 39.48 39.31 37.38 38.42 39.35 39.62 41.07 42.51 44.02 45.30 46.54 47.50 46.53 44.37 42.80 41.67 41.31 41.44 41.13 41.32 42.22 42.15 41.92 41.49 41.01 40.05 39.03 38.82 38.77 37.68 36.65 36.74 36.32 35.81 35.63 35.34 34.73
41.55 37.60 32.72 30.01 29.95 34.31 35.77 36.52 36.53 35.82 36.35 40.79 39.98 42.08 43.99 45.54 45.76 45.57 47.67 44.63 43.33 42.47 41.99 41.68 41.45 39.78 40.07 41.06 41.01 40.67 39.47 38.80 38.01 37.29 36.97 37.00 36.46 36.38 35.78 34.83 34.27 33.69 33.81 33.03
38.97 39.96 34.29 31.82 27.45 26.22 36.91 40.97 42.88 42.01 35.15 43.30 42.49 42.98 44.12 44.52 41.04 45.37 45.90 43.46 42.07 41.80 41.74 41.45 41.11 40.15 40.23 40.15 40.91 39.40 38.05 37.27 36.60 36.94 36.71 37.28 36.96 35.42 35.28 35.21 34.68 34.37 33.92 33.02
33.96 34.85 31.49 30.76 29.03 33.30 40.14 42.90 44.97 34.43 35.93 44.66 45.09 45.13 44.29 42.55 44.46 45.55 44.72 42.44 42.09 42.05 41.38 41.50 41.08 39.96 39.31 40.35 39.95 37.24 36.31 34.90 36.71 37.14 37.08 36.73 36.38 35.64 35.42 35.29 35.14 33.69 33.18 33.66
33.44 31.55 31.08 31.96 28.39 26.37 42.01 41.43 37.48 40.84 45.22 44.94 45.20 44.80 43.92 44.56 44.77 44.49 43.85 42.04 40.50 40.49 40.35 40.89 40.26 38.98 39.92 39.45 37.61 35.70 35.56 36.99 37.19 37.07 36.59 36.32 36.42 36.24 36.29 35.09 34.54 34.34 33.36 32.23
32.63 37.02 34.68 35.76 35.15 41.83 44.49 43.96 45.40 45.43 44.39 44.63 44.28 44.68 44.12 43.38 43.72 44.74 43.72 42.30 40.59 40.19 39.88 40.96 40.10 38.12 37.83 37.63 37.91 35.91 36.21 36.79 36.75 36.62 35.80 35.54 35.97 34.83 34.16 33.29 32.93 32.66 32.88 32.06
39.37 41.97 37.04 37.37 41.18 41.66 43.51 45.06 46.19 45.68 44.01 44.19 44.98 44.26 44.19 43.07 44.25 44.33 44.41 42.76 41.14 40.03 39.63 40.09 39.28 37.55 36.34 37.99 38.09 37.30 36.96 37.23 36.39 36.66 35.40 33.95 32.83 32.58 32.94 32.84 32.90 32.77 31.96 31.03
40.29 41.24 39.05 38.88 42.00 43.61 44.33 45.65 45.24 44.40 44.52 43.79 43.84 43.57 43.41 43.55 43.61 44.17 44.50 44.01 42.40 40.41 39.86 39.77 39.99 39.28 38.13 38.29 37.85 37.72 36.83 37.29 36.80 34.31 33.03 32.70 32.36 32.04 31.16 31.40 31.42 30.20 29.87 30.29
41.71 39.66 37.60 36.37 42.92 43.36 43.60 44.98 44.01 42.93 42.49 42.48 41.73 42.08 43.33 42.97 43.12 44.75 44.33 45.29 43.53 41.00 38.90 38.27 40.20 39.68 38.74 38.46 38.03 37.11 37.20 38.10 34.16 32.25 31.50 31.62 31.55 32.38 32.63 31.79 30.65 32.48 31.85 31.50

GFSCGP_sfc_wetblb_060.txt.gz
Wetbulb
45.37 40.93 37.09 40.07 41.90 41.76 40.15 38.61 37.62 40.83 45.08 42.91 41.76 42.06 44.27 45.64 45.84 44.90 45.69 45.75 46.64 47.89 49.96 50.33 51.10 51.29 50.95 51.37 52.12 53.04 54.14 55.32 55.81 56.34 59.74 66.14 65.77 65.17 66.12 67.40 67.48 67.89 66.60 64.86
41.32 36.95 42.23 44.60 43.91 42.03 40.13 37.53 37.31 41.00 44.19 42.44 40.77 40.28 43.49 45.04 45.49 46.41 45.49 45.32 45.96 46.98 46.59 48.77 49.85 48.96 48.98 49.06 50.16 51.31 52.14 53.89 55.09 55.57 56.06 61.34 65.80 65.99 66.04 65.62 66.89 66.86 65.95 66.05
37.54 40.11 44.86 43.61 41.80 40.10 38.56 36.46 37.11 37.54 40.51 41.00 39.16 36.51 40.47 43.79 43.53 44.35 43.53 43.77 44.80 44.74 45.70 48.43 48.98 49.54 49.75 50.58 51.22 51.72 51.22 51.19 51.90 53.27 54.45 54.91 60.73 64.12 63.44 63.60 64.79 65.56 66.37 65.60
40.74 43.78 42.26 41.42 40.26 41.36 36.11 41.57 40.91 39.85 36.32 30.59 39.14 26.25 37.24 40.09 39.88 42.10 41.73 41.18 42.21 44.92 47.64 49.22 49.48 49.68 50.46 51.41 52.78 53.04 52.58 51.73 51.50 51.48 51.35 51.28 51.36 54.02 61.32 63.49 65.24 65.86 65.52 64.27
36.55 39.81 40.15 37.88 40.53 42.98 39.17 42.60 40.61 39.49 36.13 34.60 34.41 28.34 33.38 37.69 36.87 39.59 41.31 42.80 44.86 46.33 47.70 48.76 49.41 50.76 51.80 52.13 51.75 52.51 53.09 52.61 52.05 51.67 50.65 49.82 50.17 51.78 53.72 57.69 60.54 61.57 62.25 63.88
38.92 42.58 42.48 40.40 43.16 43.11 44.70 40.29 38.95 37.86 35.83 29.01 34.70 32.46 29.26 33.81 37.57 39.56 42.30 43.65 45.77 47.00 47.98 49.17 50.47 50.96 50.81 51.28 51.31 51.49 51.91 51.98 52.54 52.01 51.56 50.22 49.36 49.60 49.87 51.44 55.92 58.55 59.71 61.02
36.42 35.87 40.22 41.76 39.59 42.92 41.19 35.31 28.08 27.93 27.11 26.66 34.76 31.44 32.17 37.97 40.23 41.34 42.08 43.69 45.39 46.79 47.60 48.07 48.24 48.67 49.13 49.18 49.66 50.49 50.10 50.09 51.07 50.88 51.34 51.14 50.28 50.13 49.62 50.16 51.85 54.51 56.95 58.57
31.73 28.85 35.41 39.12 39.30 36.54 38.60 36.33 28.03 21.86 23.57 25.06 32.36 26.89 32.35 39.98 42.03 43.38 44.66 44.96 45.58 45.65 47.52 47.57 47.30 47.88 47.99 48.65 48.35 48.49 48.84 49.05 50.16 50.32 50.44 50.72 51.03 50.82 50.92 50.94 51.04 51.28 52.21 53.66
32.88 31.18 37.83 39.34 41.40 40.58 37.80 34.20 35.50 28.70 27.26 24.11 28.01 32.07 35.91 39.89 39.67 40.90 42.67 44.37 44.71 45.85 47.35 46.77 46.46 47.49 47.53 47.73 47.45 47.44 47.44 47.97 48.77 49.05 49.61 49.99 50.79 50.85 50.74 51.08 51.58 52.18 52.79 54.70
37.06 30.57 36.29 39.16 41.02 40.34 38.99 41.12 30.11 28.25 18.28 20.91 25.74 28.28 29.64 33.73 36.30 39.41 41.21 42.45 44.26 46.17 47.28 46.72 46.72 46.42 47.42 47.51 47.10 46.96 46.87 46.58 46.89 47.08 47.55 49.02 49.18 49.93 50.31 50.60 50.15 50.46 50.77 51.64
40.40 36.58 34.51 38.03 35.79 34.94 35.49 35.25 33.88 31.96 28.06 21.98 19.89 24.23 33.61 36.30 37.64 38.24 41.00 43.43 43.94 45.39 46.17 45.31 45.18 45.54 47.08 46.63 46.02 45.69 45.33 45.25 44.65 44.97 45.78 46.14 46.45 47.16 46.55 45.85 46.36 47.37 48.68 49.66
39.48 36.35 30.87 33.99 38.43 40.55 38.90 37.22 36.23 31.06 27.45 25.72 24.38 25.16 37.35 38.11 39.17 41.18 41.80 44.55 45.33 47.15 45.48 44.19 44.12 44.48 45.18 44.54 44.26 43.71 43.69 43.34 43.36 43.77 43.74 43.49 43.83 43.65 42.49 42.03 41.87 42.11 42.12 45.02
39.15 32.59 26.05 27.45 33.92 36.88 34.63 37.17 37.22 33.87 32.58 28.22 23.27 24.78 39.30 39.20 39.71 41.35 42.00 43.67 45.96 46.42 43.82 43.39 43.49 43.59 43.34 43.03 42.67 42.50 42.49 42.01 42.64 42.72 41.98 41.22 40.68 40.21 39.39 39.32 39.83 39.97 39.70 40.37
42.14 34.63 30.41 25.04 30.60 34.11 30.24 34.04 35.10 31.43 24.00 27.06 26.75 29.55 34.40 37.33 39.13 41.51 43.04 43.91 45.26 44.33 43.41 42.11 42.49 42.94 42.30 41.90 41.67 41.66 41.56 41.69 42.04 41.67 40.28 39.26 38.85 38.81 38.54 38.45 38.93 39.97 40.24 39.61
38.93 28.91 28.49 32.69 35.35 32.66 32.35 33.18 33.46 25.53 30.76 24.06 30.40 31.98 34.99 37.23 38.65 41.14 42.18 45.43 45.28 43.63 42.25 40.82 40.22 40.18 41.00 40.60 40.70 41.16 41.00 40.76 40.73 40.31 39.15 38.36 38.45 39.17 39.70 39.55 39.29 40.07 40.05 39.84
38.28 28.40 30.05 28.19 34.09 33.75 29.74 33.47 34.25 33.42 33.46 32.84 33.52 32.79 37.83 40.33 41.88 42.23 42.51 45.00 44.48 42.86 41.78 40.61 40.04 38.87 39.85 38.89 39.78 40.86 39.85 40.19 40.89 39.45 38.39 38.46 37.82 38.35 38.11 39.07 38.50 37.76 37.18 37.00
35.50 31.13 27.91 23.68 30.51 30.27 25.79 31.78 33.46 33.88 35.04 34.98 29.81 35.21 40.16 40.00 42.79 42.79 43.82 45.36 43.48 41.55 40.81 39.87 38.68 38.03 38.03 38.60 39.68 38.15 38.68 39.60 39.07 39.70 39.36 37.57 37.21 36.24 36.88 37.28 36.89 36.10 35.63 35.76
34.85 33.30 31.41 26.12 26.71 18.11 33.57 37.50 37.29 35.31 36.88 37.63 38.09 39.07 40.16 40.46 42.48 43.01 44.88 44.40 42.09 41.26 40.55 39.72 38.53 38.00 37.98 38.59 38.48 38.40 38.35 39.73 38.95 38.14 37.42 36.72 36.72 36.27 36.22 35.95 35.21 34.77 34.71 34.17
38.03 34.76 30.13 24.90 24.22 30.68 33.39 35.27 34.94 33.89 34.27 38.63 36.98 39.10 40.66 43.32 42.00 41.57 45.14 42.12 40.22 39.57 39.16 38.38 37.29 36.64 37.04 37.40 37.88 37.30 36.58 37.61 37.25 36.27 35.63 35.89 36.49 35.85 35.65 34.45 33.87 33.32 33.06 32.73
37.40 38.05 31.14 28.38 24.03 23.11 34.77 38.54 40.51 38.99 32.73 39.25 39.63 39.54 41.47 42.00 38.00 40.39 41.77 41.15 39.81 39.76 39.50 38.36 37.30 37.43 36.76 36.70 37.35 36.24 36.91 36.19 36.27 36.49 36.09 36.12 36.40 35.95 35.06 34.71 33.49 33.40 33.39 32.52
30.95 31.32 29.75 29.55 28.07 29.34 39.58 41.01 41.87 32.29 34.24 41.79 41.70 42.11 41.75 39.63 40.64 42.83 41.79 40.11 39.99 39.59 38.91 39.10 37.85 36.19 35.93 37.11 36.96 36.02 35.79 35.25 36.61 37.10 36.69 36.59 36.18 35.58 35.36 34.55 33.89 32.99 27.80 24.52
32.21 30.67 30.35 31.22 28.02 21.42 39.94 38.73 35.93 39.54 42.41 43.26 42.11 42.51 42.19 41.91 42.49 42.81 41.68 39.39 38.81 38.54 38.59 39.17 36.83 36.14 36.59 36.87 36.98 36.06 35.14 36.90 37.34 37.03 36.42 35.78 35.22 35.79 34.68 32.09 30.60 30.23 28.54 26.02
29.02 32.66 31.32 31.30 31.14 38.73 40.18 40.63 42.26 42.90 41.70 41.98 42.86 41.49 41.77 41.18 41.47 42.44 41.53 39.54 38.56 38.45 38.57 39.35 37.47 36.25 37.51 37.44 37.25 35.70 35.90 37.00 36.86 36.16 35.36 33.74 34.17 32.43 31.23 27.39 26.42 25.73 26.26 25.00
35.03 38.05 33.46 34.48 36.92 37.44 40.75 42.08 43.16 42.69 41.18 41.58 42.69 42.44 41.73 41.51 41.53 41.20 42.25 40.89 38.56 38.14 37.61 38.40 37.64 36.64 35.41 36.88 37.66 36.96 36.96 37.12 36.58 34.95 32.18 29.98 28.20 27.97 27.38 27.80 27.17 25.48 24.61 23.97
36.90 37.54 35.63 35.08 37.57 39.13 40.42 42.12 42.29 42.06 41.81 41.48 41.40 40.97 40.83 41.12 41.46 42.06 42.14 41.39 39.58 38.37 38.24 39.13 38.43 36.89 36.28 37.19 37.57 37.37 37.12 36.88 33.66 30.48 28.01 28.03 28.38 27.35 25.75 26.97 27.59 23.81 25.10 26.80
37.14 36.05 34.01 32.84 40.23 40.46 40.58 40.96 41.72 40.51 40.02 40.00 38.91 38.51 39.99 40.79 41.13 41.91 41.75 42.23 40.51 38.53 37.64 38.38 39.04 38.61 37.56 37.76 37.44 37.30 36.64 34.67 30.70 27.46 26.73 26.91 26.46 26.55 26.90 26.51 26.20 32.63 31.59 31.82

GFSCGP_sfc_wetblb_063.txt.gz
Wetbulb
45.31 40.47 36.21 38.75 41.24 39.90 39.39 37.72 35.77 39.19 43.44 42.00 41.45 41.35 43.74 45.04 42.66 42.80 43.81 44.78 45.35 46.28 48.22 47.94 47.94 47.17 48.09 47.97 48.21 49.01 50.80 51.66 53.44 57.46 64.33 63.62 64.66 63.94 63.76 66.04 66.77 65.84 65.93 64.46
41.45 36.67 40.42 42.51 42.29 40.90 38.57 36.04 36.10 38.75 43.07 42.31 41.00 39.74 43.37 43.55 42.97 43.88 44.44 44.39 44.63 44.92 45.66 47.38 48.10 47.39 48.13 48.99 49.66 49.85 49.20 49.25 50.53 52.33 53.06 61.71 64.74 65.06 66.18 65.89 65.49 65.76 65.57 64.67
37.76 39.43 43.29 42.18 40.17 38.75 37.26 33.46 34.06 35.23 38.86 38.93 37.73 35.30 38.09 41.92 43.66 44.58 43.58 42.45 42.88 42.76 45.60 46.38 48.02 49.02 49.88 49.90 49.93 50.92 50.22 50.20 49.92 50.17 51.20 52.15 56.19 62.57 62.80 62.65 63.07 64.46 64.87 64.61
39.12 42.47 41.31 40.29 38.78 39.11 34.12 39.40 38.94 37.92 34.41 29.52 38.12 27.01 33.45 39.00 39.35 41.47 40.52 39.75 40.09 44.71 46.32 47.99 49.04 49.33 50.20 50.24 51.12 51.58 52.00 51.01 51.09 50.19 48.94 48.43 48.80 49.40 56.15 61.64 63.32 63.75 63.80 63.43
37.67 38.75 39.54 39.28 39.62 41.67 36.81 40.86 39.16 37.14 34.04 32.41 33.43 27.82 31.43 36.22 35.43 37.80 40.05 39.60 40.37 43.58 45.91 47.46 48.92 50.23 51.18 51.14 50.89 50.87 51.45 51.40 50.98 50.68 49.78 47.64 47.14 48.26 49.78 50.74 53.51 58.63 62.79 63.62
39.41 43.46 42.49 39.73 42.16 42.95 43.28 39.37 36.55 35.53 33.46 25.49 32.78 29.97 28.79 31.38 37.46 37.18 38.85 42.20 44.15 45.44 46.28 47.82 49.06 49.71 49.17 49.36 49.44 49.57 49.69 50.39 50.74 50.04 49.80 48.95 47.50 47.38 47.66 48.14 48.66 51.05 55.83 58.70
36.66 36.68 40.19 42.98 39.50 41.40 41.56 33.10 24.33 23.70 21.35 23.08 31.79 31.16 32.50 36.26 37.39 39.06 40.08 41.89 44.02 45.77 45.91 46.38 47.00 47.45 47.82 47.56 47.75 49.12 48.42 48.64 49.33 49.51 49.59 49.32 48.78 48.19 48.01 48.18 48.43 49.00 51.37 53.95
28.48 30.39 37.25 40.05 37.82 38.07 38.95 33.28 24.86 19.11 19.97 23.41 30.43 28.13 32.46 37.35 39.92 42.34 43.26 43.36 44.40 45.26 45.95 46.44 46.91 46.33 46.48 46.70 46.29 46.51 46.56 47.11 47.93 48.27 48.87 49.51 49.87 50.08 50.17 50.03 50.12 50.17 50.38 51.11
29.91 29.02 38.16 39.52 41.69 40.65 37.55 31.42 35.34 26.66 24.72 20.06 25.16 30.06 36.08 38.28 38.86 40.94 41.64 42.69 42.81 45.04 45.93 46.06 46.05 45.92 46.12 45.54 45.69 45.46 45.50 45.69 45.89 46.07 46.73 47.57 48.14 48.41 48.58 48.78 49.19 49.40 49.65 51.81
35.22 28.75 36.86 39.11 41.53 41.33 38.61 39.97 29.97 24.44 18.96 19.27 21.95 24.72 28.34 33.66 35.92 39.13 40.46 40.35 42.19 45.08 45.28 45.17 44.92 44.81 45.94 45.46 45.18 44.58 44.67 43.93 43.84 44.25 45.26 45.71 45.40 45.12 44.47 44.26 43.65 44.90 46.80 48.59
39.73 33.72 33.94 38.37 35.81 35.92 35.45 34.07 32.97 31.30 26.23 20.76 18.58 23.23 32.86 37.25 38.43 37.83 40.15 41.53 42.54 43.74 43.94 43.21 43.39 44.05 45.40 44.66 43.92 43.00 42.92 42.67 42.49 43.05 42.98 42.47 42.48 42.22 41.69 40.94 40.37 40.21 41.82 43.20
39.18 35.82 30.19 34.05 39.36 41.06 38.95 36.26 34.57 26.15 24.73 22.80 21.37 24.29 35.58 37.26 38.53 39.58 41.00 43.28 43.95 44.87 42.92 42.42 42.65 43.10 43.00 42.18 41.74 41.34 41.59 41.59 41.69 41.93 41.11 40.53 40.43 39.75 38.80 38.43 38.70 39.08 38.33 39.16
38.14 31.45 24.94 26.70 32.39 35.94 34.49 36.49 37.89 33.68 30.14 22.60 19.39 23.82 35.14 36.24 38.61 40.60 40.98 42.35 44.66 43.68 42.16 41.54 41.82 41.81 41.28 40.32 40.48 40.68 40.61 40.39 40.88 40.43 39.43 38.92 38.55 38.04 37.26 37.29 37.99 38.59 38.34 38.60
41.38 33.35 29.40 23.10 27.35 32.01 29.01 34.38 34.10 32.08 26.64 27.88 25.72 27.11 32.23 35.10 37.29 38.81 40.77 42.54 43.97 42.50 42.28 40.92 41.31 41.14 40.16 40.33 40.56 40.27 39.65 39.88 40.07 39.24 38.26 37.43 37.28 37.45 37.42 37.90 38.09 38.67 39.21 39.49
37.17 26.95 27.91 32.06 34.77 31.23 31.67 32.72 32.64 27.09 30.36 24.23 29.07 30.75 34.73 36.01 37.37 39.47 41.58 43.81 43.18 41.83 40.98 40.29 39.90 39.34 39.08 38.98 39.26 39.40 39.23 39.55 39.38 38.40 37.49 36.78 37.16 39.07 39.75 39.74 38.35 38.07 38.18 40.06
36.36 26.26 28.00 26.31 33.16 32.26 29.10 32.67 33.66 32.41 32.30 31.41 31.30 31.52 36.85 38.36 40.99 41.52 42.15 44.06 43.67 42.08 41.01 40.11 40.00 39.35 38.30 37.72 38.67 39.20 38.83 39.04 38.89 37.45 36.59 36.87 37.41 37.88 37.97 37.85 37.50 37.21 36.95 37.02
33.69 29.04 25.56 22.33 29.80 29.58 25.39 30.54 31.57 32.63 33.36 33.58 28.38 33.41 37.79 38.18 40.83 41.19 42.06 44.01 42.99 40.83 39.85 38.96 38.37 37.39 37.21 37.91 38.27 37.27 37.68 38.21 38.06 38.45 37.72 36.97 37.38 37.06 37.04 37.12 36.51 35.79 35.66 35.91
32.50 30.32 27.99 21.75 25.64 16.46 29.06 35.82 35.81 34.46 35.21 35.40 36.23 37.17 38.52 39.98 41.19 42.46 44.33 43.33 40.97 40.30 39.63 38.66 37.36 36.96 37.36 37.49 37.47 37.35 37.64 39.02 38.17 37.10 36.51 37.16 36.81 36.28 36.36 35.96 35.01 34.43 34.18 33.71
35.58 32.21 26.70 22.98 19.41 25.84 31.59 33.92 33.59 32.20 32.24 36.88 35.86 37.89 39.49 42.26 41.41 40.42 42.79 41.85 39.94 39.14 38.51 37.57 36.65 36.24 36.30 36.63 36.75 36.28 36.07 37.54 36.91 35.63 35.64 36.44 36.24 35.92 35.61 34.38 33.57 33.04 32.89 32.33
35.75 34.47 28.14 24.78 21.55 22.36 33.39 36.16 38.77 38.25 30.09 37.85 37.86 37.72 38.35 40.95 35.97 39.00 39.23 39.33 38.56 38.82 38.43 36.62 36.25 36.54 35.95 35.78 36.07 35.16 36.07 36.68 36.16 35.70 35.67 36.46 36.71 35.99 34.89 34.06 33.38 33.80 33.17 31.21
30.03 30.36 26.66 28.35 23.78 28.26 38.01 38.68 40.16 30.96 31.91 39.23 39.35 39.77 40.64 38.79 40.17 42.39 40.55 39.23 38.91 38.55 38.23 37.51 36.48 35.21 34.83 35.58 35.78 35.34 35.86 35.69 36.78 36.75 36.78 36.71 36.47 35.79 35.11 34.08 33.95 26.93 21.98 21.24
31.06 29.93 29.65 30.64 27.66 21.94 39.56 37.68 36.56 38.36 40.48 41.51 40.44 41.03 41.02 40.91 42.12 41.63 40.49 38.54 38.24 37.43 38.16 37.50 35.16 34.87 35.15 35.42 35.39 35.63 35.21 37.04 37.23 36.88 36.03 35.26 35.65 35.70 34.75 32.25 29.30 28.37 26.74 24.85
28.09 31.22 31.11 30.40 30.04 36.69 38.60 38.64 40.39 41.70 41.42 42.44 41.84 42.31 41.99 41.17 41.32 42.26 41.01 38.59 37.74 37.49 37.47 38.21 35.73 34.91 35.08 35.92 37.44 35.80 36.06 37.28 36.84 36.19 35.71 35.14 34.28 33.19 32.61 28.64 27.16 25.64 24.74 23.11
33.02 36.34 32.41 33.06 35.42 36.52 40.11 40.37 41.53 41.49 40.20 41.02 41.71 42.18 42.57 41.63 41.81 41.19 41.86 39.39 37.81 37.47 37.04 37.42 36.82 36.08 34.56 36.78 37.45 36.99 37.14 37.33 36.56 35.65 33.21 31.78 28.77 26.97 26.73 26.95 26.31 24.61 23.05 21.96
33.83 35.33 33.53 32.89 36.10 37.33 38.63 40.53 41.48 41.10 41.05 40.34 39.99 39.63 40.58 40.62 40.55 40.86 41.09 40.89 38.90 37.95 37.59 37.41 36.67 36.39 35.85 36.62 37.15 37.23 37.39 37.21 35.75 32.60 28.52 25.94 26.04 25.11 25.02 27.10 25.31 24.56 25.36 25.43
35.06 34.50 32.55 31.56 37.33 37.77 38.32 40.03 40.81 40.16 39.49 39.17 38.41 37.80 38.42 38.82 39.12 39.93 40.91 42.15 40.33 37.73 37.28 36.57 38.11 36.67 36.64 36.85 37.36 37.43 37.67 36.97 32.49 27.50 25.17 24.83 24.24 23.98 24.71 25.30 26.29 32.16 31.61 32.04

GFSCGP_sfc_wetblb_066.txt.gz
Wetbulb
46.02 40.35 35.69 38.42 40.57 39.84 39.76 36.56 36.88 38.65 42.86 41.20 40.55 40.37 43.57 45.02 40.49 41.82 42.85 44.05 44.78 45.21 45.50 46.28 45.77 45.42 46.33 47.78 47.42 47.56 49.42 49.70 56.97 62.86 62.97 62.55 63.01 63.71 63.24 64.25 65.74 65.55 65.43 64.47
41.80 35.65 39.71 41.95 42.37 40.43 39.83 36.01 35.08 38.47 42.53 41.52 40.18 40.13 43.15 44.29 42.22 42.52 43.38 43.38 44.51 43.44 43.97 45.59 45.38 47.59 48.42 47.99 48.18 48.12 48.21 48.19 49.10 50.96 52.40 61.40 63.04 63.43 64.06 64.11 64.56 64.46 64.32 64.49
37.16 38.03 42.56 41.13 40.01 38.88 36.82 36.21 34.89 34.88 38.22 38.29 37.39 35.16 38.52 41.62 41.32 43.18 43.49 42.88 43.35 43.82 44.58 45.40 46.38 47.72 48.77 48.69 49.31 50.44 50.25 49.07 48.73 48.95 49.64 50.74 53.00 61.10 61.76 61.89 62.40 63.90 64.32 63.82
40.09 41.81 40.53 39.17 38.23 38.53 33.92 38.71 37.76 37.02 34.14 29.83 37.08 26.60 32.79 38.59 39.28 40.64 40.95 40.41 41.29 42.88 44.42 46.43 47.68 48.69 49.63 49.58 49.81 50.52 50.96 50.52 50.18 49.27 48.03 47.54 48.12 48.64 54.40 56.35 60.16 61.67 62.86 62.90
37.20 38.70 38.68 37.77 38.66 39.49 36.04 39.55 37.60 36.34 33.15 30.82 30.70 27.90 31.06 35.01 35.22 37.47 38.23 38.94 38.91 43.11 45.31 46.50 47.70 49.63 50.09 50.06 48.55 48.30 49.35 49.97 49.77 49.41 48.58 46.91 46.33 47.02 48.28 48.75 49.32 50.48 54.46 59.74
39.42 42.80 40.99 39.31 41.66 41.79 42.10 37.13 35.87 35.14 32.76 24.55 30.19 28.69 27.51 31.63 35.71 39.20 37.24 38.20 40.14 42.84 44.93 46.56 47.79 48.70 47.82 48.05 48.00 48.02 48.44 48.51 48.91 48.87 48.53 47.88 47.16 46.07 46.48 46.92 47.31 48.48 51.27 54.95
37.21 37.41 40.76 41.93 37.47 40.13 38.67 32.20 25.76 26.98 27.08 22.54 30.79 28.63 32.27 34.68 36.73 38.52 38.90 40.62 42.39 44.18 45.03 45.66 46.01 46.21 46.47 46.23 46.46 47.70 47.55 47.50 48.21 48.62 48.69 48.85 48.71 47.94 48.46 48.29 48.70 49.00 49.57 49.92
30.96 30.80 37.59 39.87 37.74 38.09 36.64 31.64 23.51 19.65 21.63 23.38 29.47 26.63 32.62 36.45 37.82 40.15 43.14 43.13 43.80 43.79 44.52 45.51 45.89 45.78 45.83 45.76 45.41 45.38 45.76 45.39 45.81 46.23 47.43 47.80 48.23 48.47 48.44 48.28 48.46 48.39 48.76 49.55
28.07 29.79 38.66 40.12 41.44 40.16 36.99 30.37 33.87 24.00 22.35 19.40 25.33 29.42 34.68 37.01 36.95 38.95 40.24 42.10 42.66 44.30 44.74 45.15 45.26 45.26 45.34 44.93 44.57 44.15 44.01 43.49 43.78 45.02 45.44 44.72 44.50 44.27 43.97 43.94 44.64 46.17 46.88 49.64
32.63 28.58 36.31 39.00 41.65 41.20 38.92 38.81 28.08 23.14 17.45 18.10 22.01 22.92 27.40 32.36 36.06 39.22 40.24 40.83 42.29 44.79 44.60 44.35 44.32 44.71 44.97 44.57 43.57 43.31 43.14 42.40 42.68 43.25 43.28 42.78 41.99 41.64 41.06 40.50 39.76 40.27 41.97 43.67
35.58 31.05 33.03 38.19 36.02 35.94 36.57 34.41 31.51 30.57 24.87 20.85 18.67 22.78 30.03 35.69 39.09 39.84 41.17 41.41 41.93 44.17 43.73 43.29 43.07 44.05 44.37 43.33 42.19 41.75 41.74 41.75 41.65 41.58 41.00 40.18 39.73 39.46 38.95 38.49 38.39 38.26 38.80 39.25
38.04 33.50 30.44 32.59 39.23 41.15 38.92 35.81 34.17 25.69 22.36 20.65 20.14 22.84 34.06 36.88 38.64 40.86 40.52 42.22 43.16 44.28 43.12 42.26 42.23 43.03 42.32 41.11 40.66 40.50 40.71 40.70 40.61 40.33 39.39 38.81 38.68 38.07 37.31 37.30 37.59 38.25 37.54 38.24
37.98 29.48 22.54 28.55 33.19 37.20 36.33 35.71 35.91 31.75 26.45 18.59 18.59 23.53 35.49 35.60 37.85 40.50 41.21 42.45 44.08 43.51 41.38 40.70 40.54 41.14 40.55 39.59 39.90 39.81 39.82 39.62 39.50 39.09 38.18 37.70 37.41 37.06 36.76 36.91 37.67 38.18 37.76 37.64
40.48 32.48 26.90 22.36 26.61 31.06 30.49 34.31 34.98 31.78 23.24 25.46 24.69 27.43 32.42 35.50 38.00 39.46 41.16 42.29 44.04 42.76 41.54 40.68 40.06 39.51 38.85 38.76 39.35 38.87 38.54 39.05 38.66 37.90 36.98 36.25 36.29 38.86 39.56 37.28 37.46 37.84 38.36 38.25
35.15 24.44 26.54 31.53 33.37 30.16 30.94 33.23 32.62 28.38 33.38 28.15 31.29 29.93 33.61 36.10 37.92 39.48 41.30 42.06 42.49 41.24 40.54 40.40 39.79 38.79 37.99 38.10 38.33 38.34 38.44 38.27 37.69 36.84 36.22 35.79 37.94 39.30 39.02 38.46 37.70 38.30 38.25 38.98
34.44 25.82 25.96 25.90 32.35 31.04 28.93 32.08 33.35 31.86 31.63 31.33 31.03 31.75 37.36 37.88 36.67 38.78 40.09 42.57 42.50 41.44 40.72 40.06 39.79 39.01 38.19 37.73 37.97 38.49 37.84 37.46 37.36 36.06 35.49 36.06 38.01 38.25 37.84 37.46 37.29 37.35 36.86 37.07
31.95 27.88 24.16 20.56 28.81 27.91 23.89 30.09 31.51 32.53 32.85 33.47 29.03 33.97 36.00 36.50 39.04 39.89 40.34 43.00 42.93 41.65 40.33 39.19 38.80 38.37 37.72 37.75 38.14 37.19 37.26 37.46 36.54 36.83 37.29 37.40 37.68 37.04 37.01 36.71 36.08 35.48 35.37 35.56
31.06 28.34 27.10 21.11 24.73 15.43 28.50 34.17 34.43 33.82 34.02 34.71 34.71 35.79 37.24 38.25 40.02 40.86 42.65 43.32 42.52 40.99 39.90 38.78 37.42 37.12 37.54 37.60 37.32 37.24 37.29 37.33 37.83 37.11 37.10 37.25 37.04 36.49 36.29 35.49 34.58 34.10 34.04 33.63
34.51 30.85 25.87 22.41 18.73 25.14 29.57 33.12 32.44 31.02 31.12 35.54 35.16 36.51 37.70 39.98 39.82 38.07 42.20 42.38 40.99 39.82 39.07 38.14 36.78 36.25 36.08 36.50 36.57 36.45 35.80 36.49 36.97 36.03 36.58 36.54 36.50 35.98 35.29 33.85 33.27 32.92 32.86 31.45
34.78 32.89 27.13 23.11 20.78 21.01 30.86 34.85 37.16 36.45 27.56 36.05 37.22 36.33 37.75 39.63 34.69 37.66 38.60 38.71 38.45 38.42 37.72 36.66 36.39 36.25 35.66 35.76 35.68 35.06 35.26 36.64 35.80 35.82 36.06 36.84 36.86 36.01 34.46 33.77 33.66 33.45 29.30 24.70
31.13 31.90 26.71 24.81 20.77 26.86 34.18 37.13 38.64 27.24 29.46 37.74 37.53 37.27 38.39 37.58 38.73 41.15 39.31 38.39 38.25 37.94 37.23 36.71 36.12 35.33 35.39 35.60 35.29 34.30 35.40 36.05 36.87 36.67 36.61 36.73 36.62 35.65 34.37 34.16 30.80 24.11 20.66 20.57
28.10 28.42 28.39 28.72 25.58 20.88 37.59 36.89 33.58 36.93 39.64 39.30 39.45 39.93 40.17 40.74 42.03 40.09 39.57 38.28 37.76 37.38 37.54 36.85 35.36 34.72 35.27 35.52 35.13 33.82 34.90 36.99 36.92 36.80 36.33 35.70 35.73 35.83 34.80 30.56 27.58 27.04 25.45 25.25
27.87 30.32 28.36 29.18 28.78 35.99 37.68 36.92 40.00 41.13 41.96 41.74 40.41 40.53 41.10 41.35 41.41 41.78 39.95 38.41 37.90 37.44 37.77 37.36 35.58 34.78 34.83 35.16 35.00 33.69 36.33 37.01 36.65 36.11 35.11 34.98 35.40 32.59 31.54 28.89 28.00 27.21 25.64 23.80
31.19 34.39 31.60 32.40 33.79 35.41 38.77 39.82 40.97 40.87 40.16 41.11 42.70 42.04 42.28 41.88 42.18 42.17 42.24 39.71 38.13 37.56 36.76 36.59 35.24 34.98 33.49 34.62 35.90 36.41 37.44 37.31 36.45 35.07 35.00 34.39 31.86 29.87 28.74 26.19 25.45 23.76 22.47 22.31
32.74 33.51 32.14 32.11 35.19 36.03 38.08 39.88 40.69 40.57 40.67 40.14 40.00 39.72 40.37 41.51 41.34 41.61 41.06 41.27 39.12 37.77 37.20 36.87 35.79 35.22 35.09 35.38 36.91 37.09 37.67 37.28 35.87 35.36 31.54 29.73 27.98 27.73 23.58 23.95 22.91 23.30 23.48 23.94
33.76 33.31 31.17 30.46 36.46 36.63 37.31 38.90 40.59 39.48 39.25 39.16 38.45 37.48 38.18 38.05 38.29 38.60 39.11 40.23 40.39 38.07 37.13 36.75 36.41 36.21 35.52 36.55 36.71 37.10 37.37 36.79 35.83 33.03 28.10 25.14 23.66 22.94 23.69 25.17 24.89 31.31 31.43 32.53

GFSCGP_sfc_wetblb_069.txt.gz
Wetbulb
45.05 38.69 33.87 37.51 38.77 37.47 37.70 36.25 36.28 38.52 43.22 41.97 41.07 40.57 43.34 43.88 42.20 41.06 41.69 43.12 44.29 45.14 43.87 44.48 44.30 44.60 46.75 46.48 46.68 47.02 49.83 49.28 60.47 62.83 62.61 62.03 62.51 63.21 62.68 64.08 65.30 64.96 64.89 63.41
41.92 33.22 38.59 40.98 41.26 39.28 38.25 35.31 35.78 38.99 42.05 42.07 40.11 39.82 43.22 44.64 42.92 42.72 41.88 41.74 42.99 43.65 43.93 44.18 46.29 45.93 46.94 46.74 46.95 47.38 47.60 47.66 48.27 51.47 55.67 61.69 62.23 62.73 62.96 63.07 63.58 64.24 64.13 64.01
36.25 38.98 41.88 40.91 39.28 37.58 35.49 34.18 34.80 36.09 38.61 38.44 38.24 36.23 39.09 41.53 40.53 42.51 43.44 41.92 42.39 43.19 43.79 44.32 45.75 46.60 47.52 47.85 48.36 49.31 49.23 48.26 47.73 47.76 48.26 49.57 51.35 60.05 60.81 61.07 61.58 62.51 63.40 63.47
39.23 41.75 39.71 39.03 37.91 37.67 32.87 38.44 38.01 36.65 34.89 30.82 37.90 27.80 33.55 37.47 39.28 40.15 41.99 40.99 41.31 41.57 43.13 45.21 46.47 47.50 48.15 48.66 49.08 49.24 49.57 49.33 49.33 48.67 47.34 46.49 46.93 47.87 51.18 52.25 54.55 52.29 56.39 59.70
36.27 38.29 37.71 37.07 37.87 38.86 35.04 38.80 37.27 36.22 33.41 31.63 31.53 28.63 31.18 32.76 34.57 39.96 41.48 39.17 39.88 40.88 43.54 44.96 46.85 48.50 49.04 48.42 47.57 47.47 48.19 48.32 48.06 48.14 47.41 46.48 46.16 46.81 47.89 48.18 48.61 49.10 50.78 55.07
39.67 41.99 40.31 38.42 40.85 40.27 40.88 36.37 35.51 34.49 32.21 25.05 30.47 29.27 28.33 30.46 33.31 35.88 39.16 38.06 38.65 41.83 43.92 45.46 47.14 47.72 46.84 46.56 46.82 46.96 47.62 47.63 48.22 48.17 47.53 46.82 46.27 45.71 46.41 47.48 48.23 48.81 50.34 51.43
38.00 38.01 40.85 40.75 37.26 39.56 37.42 31.98 25.25 24.40 25.87 23.33 29.52 28.73 33.82 34.87 35.50 36.84 38.13 36.93 37.39 41.69 43.34 44.81 45.50 45.34 45.61 45.15 45.41 46.54 46.36 45.45 46.53 47.82 48.09 48.26 47.76 47.50 47.21 47.36 47.63 48.02 49.04 49.05
31.56 29.75 37.56 39.28 36.75 34.62 33.63 32.03 23.68 20.07 21.94 23.48 28.78 25.83 31.24 36.82 37.30 37.89 39.17 39.55 40.66 42.43 43.76 44.59 44.98 44.98 44.88 44.72 44.30 44.76 44.36 43.89 45.26 46.24 45.76 45.65 46.63 47.07 46.62 46.18 46.71 46.42 46.82 47.95
29.02 30.45 39.28 41.30 40.53 38.68 34.42 32.89 31.55 23.39 21.16 19.61 25.14 28.30 33.56 35.76 36.00 34.62 38.41 40.88 42.01 43.39 43.56 44.35 44.62 44.79 44.36 43.81 43.46 43.48 42.65 42.37 43.82 44.10 43.46 42.29 41.94 41.94 41.37 40.94 41.40 43.08 43.46 46.65
32.43 29.39 36.63 39.41 41.94 40.08 36.86 37.01 27.88 21.81 15.83 17.91 22.14 23.26 27.95 31.47 34.08 36.03 38.12 39.93 42.19 43.87 44.01 44.02 43.79 44.06 43.93 43.37 42.44 42.06 41.84 41.58 41.90 41.68 41.41 40.48 39.72 39.51 39.16 38.90 38.15 38.49 38.84 39.88
33.76 30.88 32.79 38.71 36.22 35.77 37.20 34.67 31.19 29.41 24.15 20.49 18.83 23.35 30.53 31.85 35.78 36.84 39.75 41.91 42.16 43.15 43.47 43.35 42.86 43.63 43.43 42.28 41.36 40.77 40.92 41.13 40.65 40.38 39.68 38.77 38.36 38.20 37.95 37.53 37.51 37.30 37.84 38.17
35.60 31.78 29.46 33.06 38.12 41.24 39.79 36.78 31.45 23.92 21.71 19.56 19.61 22.90 32.88 32.37 36.42 39.57 40.07 41.90 42.54 44.42 43.08 42.36 41.99 42.59 41.38 40.33 39.85 39.82 40.03 39.88 39.60 39.25 38.40 37.87 37.88 37.60 36.89 36.84 37.30 37.58 37.11 37.84
36.57 30.84 27.03 28.87 33.54 37.85 36.71 37.56 34.61 29.98 25.01 18.21 19.16 24.14 33.95 32.24 35.47 39.60 39.60 41.02 42.94 44.26 42.38 41.11 40.34 41.10 40.23 39.12 38.92 38.85 39.12 38.63 38.52 38.32 37.57 37.15 37.03 36.94 36.39 36.60 37.44 38.00 37.71 37.84
40.76 31.18 26.32 22.39 24.95 31.30 32.77 36.30 34.46 29.59 22.34 23.26 22.89 26.71 31.30 33.00 35.31 37.88 39.88 41.31 43.18 43.30 41.79 40.34 39.76 40.39 39.72 39.01 39.03 38.41 38.12 38.28 37.66 37.14 36.52 36.02 36.32 39.79 38.87 36.29 36.52 37.30 38.09 37.71
35.12 28.52 27.67 30.86 32.38 29.71 30.00 32.98 34.79 27.09 33.31 27.48 32.27 29.34 34.71 35.91 36.18 38.46 40.49 41.18 42.41 41.69 40.53 40.10 40.22 39.89 39.11 38.53 38.71 38.38 37.97 37.65 37.15 36.38 35.53 35.64 38.74 39.12 38.86 38.38 38.25 38.32 38.20 38.12
33.31 24.88 26.24 25.59 31.44 29.98 28.69 31.30 34.13 34.10 33.01 32.82 33.05 31.06 37.60 38.36 38.92 38.97 40.65 41.44 42.09 41.89 41.06 40.25 40.37 39.69 38.21 37.69 37.87 38.28 37.76 37.06 36.90 35.72 35.18 36.23 38.37 38.34 37.68 37.67 37.51 37.07 36.81 37.12
30.91 27.49 23.56 19.81 27.96 27.95 24.31 28.64 30.90 32.27 32.46 33.86 29.69 36.86 35.68 35.05 37.43 37.96 37.72 41.07 42.15 41.87 41.42 40.29 39.63 38.93 38.00 37.71 37.93 37.23 36.96 36.61 35.82 35.58 36.09 37.65 37.80 37.18 36.81 36.52 35.83 35.37 35.27 35.85
29.32 27.01 26.05 19.77 23.57 14.38 28.06 33.17 33.16 32.89 33.43 34.58 34.17 35.20 36.80 37.32 38.42 38.93 39.80 40.81 42.12 42.49 41.04 39.91 38.97 38.19 38.06 38.09 37.79 37.49 37.20 36.90 36.62 36.30 37.00 37.45 37.09 36.48 36.06 35.44 34.47 34.12 34.26 34.04
33.17 29.62 25.36 21.87 18.14 24.40 29.00 31.49 31.42 30.29 30.59 35.66 35.15 36.52 36.83 38.14 38.67 37.30 42.00 42.10 42.78 41.22 39.54 38.70 37.43 36.85 36.84 36.96 36.86 36.67 36.15 36.28 36.14 36.22 36.90 37.00 36.87 36.07 35.27 33.94 33.24 33.06 32.97 29.68
33.44 31.60 26.59 22.87 20.24 19.77 27.67 34.06 35.43 34.26 26.65 36.20 35.49 35.41 36.22 38.53 33.66 36.22 40.11 39.69 38.99 39.28 38.48 37.16 36.36 36.23 36.01 35.87 36.34 35.21 35.17 35.18 34.99 36.17 36.40 37.01 37.06 35.98 34.54 33.89 33.47 29.12 27.91 24.08
30.08 31.69 24.47 24.70 20.24 25.47 32.22 36.14 36.82 25.31 27.93 37.51 35.60 35.82 37.10 36.52 37.24 39.52 38.40 37.63 37.85 37.48 36.89 36.74 36.41 35.68 35.62 35.77 35.59 34.56 34.53 34.44 36.83 36.96 36.86 36.90 36.93 35.55 34.62 34.19 32.67 22.02 26.58 20.99
27.40 27.47 26.53 25.15 22.54 18.96 35.56 36.04 31.57 34.83 38.12 38.09 35.57 36.91 38.81 39.33 39.61 38.48 38.40 37.45 37.16 37.19 37.21 36.69 35.54 35.18 35.14 35.45 34.98 33.76 33.83 36.98 37.09 36.53 36.44 36.15 35.88 35.50 34.86 31.77 26.67 26.40 24.84 24.32
26.26 29.44 27.38 28.28 27.74 34.05 35.92 37.11 38.22 40.15 40.21 40.86 39.03 39.31 40.63 40.62 40.37 39.74 38.78 37.72 37.21 37.36 37.41 37.08 35.83 34.97 34.78 35.05 35.03 33.61 34.38 37.00 36.49 36.11 35.38 35.32 35.51 34.71 34.04 27.88 26.82 25.83 24.16 22.72
30.79 32.78 30.33 31.05 32.40 33.95 36.35 38.54 39.22 39.28 38.74 39.59 42.30 41.15 40.18 40.48 41.93 41.98 40.87 39.71 38.45 38.05 37.53 36.92 35.52 34.70 34.70 34.52 34.93 34.63 36.37 37.20 36.40 35.41 34.87 34.80 34.16 31.91 29.29 28.65 28.17 26.45 23.45 22.15
32.98 32.90 31.30 30.75 33.30 34.91 37.10 39.11 39.12 39.72 40.19 39.73 39.74 40.39 41.41 41.97 41.50 42.24 42.84 43.03 41.49 38.98 37.29 36.58 35.62 35.02 34.83 34.86 34.92 35.73 37.58 37.17 35.77 35.21 34.46 33.62 33.16 32.40 27.54 25.50 23.13 23.30 22.04 22.92
33.37 33.29 30.42 29.66 34.87 35.29 36.00 38.17 40.41 39.29 39.13 39.08 38.75 38.54 38.45 38.81 38.86 38.73 39.40 40.42 40.82 38.72 37.23 36.78 36.43 35.68 35.39 35.49 36.04 37.01 37.87 37.18 35.60 34.22 33.40 31.69 28.98 25.87 23.65 23.13 23.95 30.45 30.49 33.30

GFSCGP_sfc_wetblb_072.txt.gz
Wetbulb
42.49 36.89 33.42 37.44 36.92 35.77 36.03 34.52 34.25 37.18 43.34 41.64 40.76 41.14 42.28 46.90 46.83 46.47 47.67 43.09 44.23 44.90 43.60 43.58 43.55 44.37 45.76 46.31 46.81 47.11 54.56 50.62 61.83 62.35 61.90 61.64 62.19 62.43 62.83 63.64 64.47 64.37 63.41 62.58
39.91 33.30 37.61 40.46 40.67 37.51 36.95 33.61 32.42 37.87 42.73 41.59 40.51 40.16 43.70 44.89 43.71 44.55 45.30 44.72 43.91 42.74 41.57 42.34 43.49 44.09 46.51 46.02 46.06 46.70 47.00 47.04 48.40 54.56 58.92 61.15 61.24 61.70 62.22 62.40 62.89 63.61 63.98 63.94
35.75 37.42 41.36 40.10 38.71 36.43 33.70 33.06 32.84 34.10 38.35 38.99 39.19 37.39 40.44 44.13 46.25 44.43 43.44 41.74 41.93 42.70 42.74 42.14 43.85 44.99 46.37 47.01 47.71 48.65 48.04 47.48 47.36 47.09 47.66 48.76 50.39 58.06 59.73 60.25 60.72 60.98 61.83 62.53
38.53 40.37 39.60 38.48 37.42 36.99 31.54 37.34 36.80 36.19 34.47 30.82 38.44 29.02 36.20 41.77 42.69 43.87 45.83 41.32 41.36 41.26 41.89 43.52 45.11 45.74 46.42 47.43 48.41 48.79 48.80 48.55 48.69 47.79 46.69 45.86 46.06 46.82 49.01 50.18 50.78 49.97 51.72 55.27
36.80 36.92 38.39 37.41 37.84 38.41 34.69 38.22 36.31 35.22 32.58 31.06 31.26 29.98 32.40 33.76 36.86 42.14 45.17 41.79 40.74 40.69 41.75 43.46 45.24 46.87 47.62 46.96 46.33 46.92 47.76 48.06 47.90 48.11 47.29 46.53 45.71 45.80 46.43 47.03 47.70 48.49 50.90 52.06
37.37 42.95 41.15 38.48 39.62 39.35 38.84 35.73 36.22 34.57 32.09 26.20 30.40 29.87 29.52 31.32 34.01 35.84 40.94 41.62 42.48 40.66 41.20 43.74 46.10 46.69 45.52 45.65 45.90 46.38 46.89 47.05 48.17 48.36 47.83 46.99 46.21 45.44 46.31 47.62 48.35 48.88 49.65 50.08
37.76 38.53 40.84 40.36 37.25 39.36 35.73 31.52 24.12 24.26 23.13 23.43 29.22 28.96 33.56 35.95 35.88 37.53 38.63 38.93 39.21 39.35 41.89 43.83 44.99 44.63 44.53 44.19 44.53 45.88 45.45 44.95 46.87 47.07 47.13 47.54 47.16 46.96 46.70 46.95 47.00 47.14 47.81 48.10
31.97 29.35 37.50 38.70 35.97 34.07 34.98 32.94 22.89 19.06 20.71 22.66 28.44 25.92 31.91 37.30 38.10 37.90 39.08 39.23 37.12 39.91 42.20 44.35 44.52 44.22 43.90 43.78 43.54 43.67 43.38 43.89 45.40 44.87 43.86 43.66 44.51 44.81 44.08 43.64 44.77 44.59 45.43 46.60
30.07 31.50 39.68 41.05 40.01 37.77 33.40 32.48 30.77 22.12 19.34 18.45 25.01 28.43 33.61 35.86 36.00 36.28 36.38 38.15 37.27 40.72 42.60 43.62 43.75 43.79 43.31 42.91 42.79 42.48 42.05 42.91 43.30 42.75 41.94 40.77 40.53 40.53 39.97 39.81 40.06 40.86 40.40 43.33
32.30 30.22 36.93 39.53 40.68 39.18 35.17 35.57 28.95 22.02 15.42 16.62 20.56 22.51 26.79 31.09 34.10 35.99 36.07 37.44 39.06 41.78 42.52 43.09 43.20 43.31 42.99 42.55 41.95 41.43 41.47 41.59 41.31 40.90 40.32 39.32 38.57 38.49 38.34 38.25 37.52 37.70 38.01 38.87
33.26 31.59 33.76 38.10 34.85 32.98 35.90 31.51 29.50 28.79 23.98 20.30 18.25 23.19 30.32 31.84 33.26 33.63 36.17 39.19 40.46 42.27 42.55 42.59 42.57 43.06 42.66 41.29 40.49 40.05 40.47 40.61 39.90 39.46 38.67 37.91 37.57 37.44 37.15 36.89 36.82 36.85 37.24 37.63
34.47 31.13 29.90 33.01 37.92 38.74 37.09 34.51 30.07 22.57 20.33 18.82 19.48 22.94 32.17 32.51 33.32 35.39 37.21 41.02 42.13 42.65 42.58 42.32 41.92 41.92 41.19 40.00 39.45 39.36 39.41 39.29 38.92 38.49 37.70 37.20 37.27 36.84 36.24 36.24 36.67 36.95 36.69 37.33
35.84 28.61 26.25 28.49 32.87 35.71 34.87 36.91 34.16 29.04 25.37 17.76 20.11 25.05 33.14 32.91 34.90 37.16 38.36 40.11 41.78 43.16 42.15 41.16 40.62 40.91 40.11 39.12 38.70 38.51 38.61 37.98 37.76 37.37 36.53 36.16 36.18 35.92 35.22 35.33 36.26 36.97 36.88 36.73
38.81 29.26 25.87 21.98 25.02 30.71 32.12 35.59 36.86 30.89 29.70 25.10 24.27 26.46 31.00 32.57 33.68 36.01 38.07 39.75 40.53 42.52 41.71 40.26 39.70 40.45 39.63 38.72 38.51 38.25 37.65 37.44 37.12 36.71 35.79 35.36 36.06 39.34 37.94 35.88 37.92 38.64 37.91 36.24
34.96 27.71 27.30 28.64 31.21 29.32 29.76 32.80 35.60 33.30 33.47 30.17 30.38 29.82 35.68 35.88 34.64 35.74 38.12 39.82 40.59 41.05 40.63 40.05 39.52 39.47 39.17 38.40 38.60 38.14 38.14 37.28 36.79 35.87 35.72 36.06 38.40 39.17 38.86 38.42 38.28 38.33 38.49 38.29
32.66 26.19 28.71 27.31 31.70 29.93 28.54 30.81 33.65 35.11 35.19 34.57 34.45 32.76 37.51 37.15 35.58 38.04 39.20 40.20 40.94 41.16 40.97 40.39 40.45 39.95 38.79 37.99 38.31 38.17 37.68 37.24 37.23 36.30 35.76 36.80 38.56 38.30 37.90 37.91 37.36 37.19 37.08 37.57
29.90 27.00 24.25 21.00 27.93 27.64 23.70 28.26 30.31 32.57 35.18 35.25 31.81 36.93 35.70 35.76 36.77 38.67 38.42 40.33 41.15 41.79 41.59 40.62 40.08 39.83 38.70 38.40 38.70 37.76 37.41 36.80 35.97 35.74 35.96 37.15 38.09 37.34 36.92 36.68 36.18 35.77 35.69 36.22
28.39 26.27 25.53 19.98 23.44 14.96 28.96 33.40 32.84 32.98 33.85 35.45 35.14 35.19 37.27 37.62 38.60 37.76 38.99 39.88 40.76 41.76 41.65 40.93 40.05 39.26 38.23 37.85 37.73 37.61 36.63 35.91 35.71 35.59 36.04 37.42 37.38 36.58 36.18 35.47 34.73 34.60 34.73 33.72
31.71 28.57 24.86 20.95 17.41 24.10 27.37 30.71 31.13 30.10 30.27 34.24 35.35 37.04 36.14 36.59 36.12 36.94 39.56 40.54 40.45 41.73 41.42 40.30 38.77 38.09 38.04 38.02 37.64 37.21 36.35 36.12 35.80 35.51 36.38 37.30 37.16 36.05 35.46 34.42 33.71 33.26 32.83 29.78
31.84 30.76 26.33 22.70 19.50 18.43 25.67 33.55 34.32 33.24 26.63 34.13 35.13 34.98 34.94 37.47 32.46 34.63 39.80 41.30 40.11 40.01 38.71 37.56 36.86 36.54 36.71 36.43 36.97 36.06 35.00 34.82 34.79 35.63 37.00 37.26 37.28 36.03 34.65 34.23 33.58 31.47 29.07 26.39
28.34 31.00 27.85 26.38 21.30 25.24 30.99 32.68 35.27 24.47 27.29 36.34 36.06 35.35 34.96 35.25 36.45 38.00 38.33 37.31 37.42 36.92 36.79 36.26 36.16 35.87 36.36 36.18 36.02 34.66 34.16 33.73 35.47 37.03 37.08 37.05 36.98 35.58 34.68 33.99 30.54 25.92 28.83 23.57
27.21 25.07 27.23 25.38 25.61 19.85 33.35 34.67 30.36 33.62 36.69 37.48 36.19 34.44 36.41 37.50 38.44 37.19 37.12 36.41 36.59 36.34 36.77 36.53 35.76 35.70 35.54 35.72 35.41 34.13 33.57 35.44 36.21 36.84 36.58 36.41 35.94 35.54 34.79 32.89 28.34 26.83 25.34 24.86
25.67 28.82 26.86 27.86 27.35 33.30 34.22 36.47 36.90 38.58 38.56 38.73 36.83 37.00 38.66 39.10 38.13 38.07 37.42 36.49 37.24 37.55 36.46 36.27 35.54 35.04 35.07 35.49 35.88 34.37 34.31 35.88 35.74 36.09 35.72 35.62 35.51 34.61 33.65 30.33 27.58 25.79 24.46 23.78
30.16 31.34 29.17 29.84 31.53 32.77 34.72 35.84 38.05 38.84 37.49 37.67 41.76 39.77 40.03 39.54 40.52 40.82 40.03 39.06 37.95 37.41 36.71 36.36 35.36 34.71 34.26 34.74 35.24 34.99 35.10 36.10 36.05 35.42 35.09 35.11 34.39 33.33 32.13 28.72 28.35 26.24 24.20 22.45
32.56 32.17 30.55 30.08 32.86 33.53 35.54 36.72 37.66 38.79 38.97 38.36 38.21 40.25 40.59 41.56 41.87 42.28 42.75 42.64 41.92 40.77 39.38 38.44 37.08 35.86 35.17 35.26 35.33 35.42 36.30 36.29 35.63 35.36 34.65 34.09 34.09 34.21 31.59 27.98 26.38 25.82 24.22 24.29
33.76 32.54 30.44 30.12 34.30 34.48 34.74 36.37 38.57 38.80 38.63 39.13 38.21 37.37 38.91 39.28 38.45 38.81 38.59 38.71 39.48 39.64 38.20 37.28 36.99 35.97 35.39 35.32 35.29 35.64 37.11 36.57 35.77 34.57 34.02 33.63 33.25 32.15 30.83 26.42 24.32 30.50 30.82 31.55

GFSCGP_sfc_wetblb_075.txt.gz
Wetbulb
41.84 36.11 34.78 38.02 38.76 38.14 37.29 36.63 36.79 39.91 44.25 42.63 41.67 41.53 44.02 47.33 47.75 48.31 49.65 48.77 48.78 48.77 49.43 48.56 48.87 49.15 50.08 50.77 53.10 57.56 63.70 63.11 65.97 65.68 65.46 65.35 65.08 66.05 66.19 66.44 66.43 65.95 65.44 65.35
37.71 34.03 38.14 40.98 40.98 38.46 38.32 35.01 35.70 39.34 43.37 42.37 41.18 40.53 43.80 46.43 46.30 48.35 48.79 48.17 47.92 47.32 47.71 47.81 47.85 49.02 49.76 49.75 50.01 50.89 53.02 53.13 58.85 64.15 65.11 65.48 65.52 65.82 66.29 66.43 66.44 66.69 66.74 66.64
35.54 37.21 40.44 40.41 39.26 37.00 35.86 34.58 34.30 35.63 40.23 41.07 39.95 38.00 40.92 44.50 45.74 46.79 48.17 48.55 48.68 46.47 47.19 46.79 47.71 48.65 49.47 50.01 50.74 50.98 50.61 50.63 50.98 51.48 52.95 53.94 55.70 60.93 63.02 63.83 64.04 59.29 60.58 63.19
38.13 41.17 38.44 38.53 37.90 37.73 34.01 38.09 37.63 36.66 36.57 32.23 39.89 30.26 37.92 41.89 43.22 45.29 47.09 48.50 48.20 45.65 45.08 46.34 46.96 48.02 49.07 50.23 51.30 51.20 51.20 51.19 51.13 51.20 50.75 50.78 51.38 51.85 53.09 53.46 53.19 53.03 55.36 55.93
36.13 37.94 37.04 36.94 38.38 39.57 36.27 38.74 37.23 36.58 33.85 34.12 33.70 32.44 35.28 39.84 40.03 42.65 45.95 47.81 48.50 46.21 45.53 45.83 47.18 48.61 49.74 49.77 49.95 50.14 50.55 50.54 50.62 50.73 50.68 50.47 49.76 49.88 50.25 51.05 51.70 52.27 54.01 53.75
37.45 43.11 41.82 39.87 40.70 39.95 38.95 36.85 36.73 34.95 34.61 29.90 32.86 33.35 32.82 33.81 39.40 42.98 45.60 47.14 48.40 46.30 44.94 45.64 47.76 48.82 48.12 48.55 48.87 49.69 49.87 49.79 50.82 51.18 50.97 50.45 49.83 49.35 50.46 51.22 51.49 51.84 52.48 52.26
37.39 38.31 41.48 41.27 38.70 40.09 36.93 33.83 28.45 26.57 27.33 25.57 30.76 29.87 34.93 38.24 38.38 40.20 41.71 43.52 45.83 44.40 43.93 45.26 47.20 47.24 47.09 47.15 47.96 48.09 48.69 48.42 49.25 49.44 49.66 50.02 50.01 50.21 49.98 49.86 49.73 49.81 50.44 50.30
31.17 29.26 38.51 39.93 38.15 35.63 35.05 32.95 26.06 20.83 22.74 25.53 29.93 27.00 33.62 39.36 40.18 40.44 40.73 42.12 42.04 41.25 43.22 45.64 47.70 47.15 46.70 46.58 47.15 46.82 47.17 47.21 47.46 47.07 46.36 46.46 47.06 47.07 46.23 46.03 47.25 46.52 47.06 47.61
32.02 31.26 40.34 40.68 40.51 38.52 35.25 30.28 32.43 24.27 23.13 23.31 27.49 30.29 35.15 37.31 38.34 38.83 39.38 39.70 40.49 40.38 43.28 45.78 46.33 46.44 46.06 45.99 46.21 46.07 46.40 46.10 45.96 45.24 44.57 43.66 43.77 43.64 43.15 42.74 43.24 43.38 42.95 44.35
34.37 31.10 37.36 39.40 40.67 40.00 36.36 36.13 29.24 25.33 19.51 19.75 23.21 25.28 29.25 33.96 36.18 36.93 37.41 39.04 40.37 41.33 43.75 45.24 45.65 45.69 45.57 45.59 45.20 44.87 45.53 45.21 44.42 43.76 43.46 42.14 41.61 41.53 41.45 41.53 40.96 41.10 41.41 41.89
35.50 33.88 34.47 38.46 35.14 34.51 35.16 32.32 30.71 30.34 26.55 22.80 20.56 26.12 32.65 34.52 35.54 34.84 36.12 38.39 40.81 42.34 44.15 45.03 45.05 45.20 45.01 44.30 43.79 43.40 43.82 43.35 42.57 42.11 41.31 40.90 40.34 40.14 40.11 39.92 39.81 39.94 40.39 40.64
35.66 34.04 30.96 33.79 38.26 38.79 37.79 34.11 31.21 26.18 23.20 21.49 22.72 26.21 35.41 35.16 35.08 35.52 37.45 40.49 42.34 43.82 44.19 44.37 44.49 44.25 43.28 42.95 42.41 42.62 42.58 42.48 41.93 41.18 40.45 39.85 39.64 39.46 39.25 39.13 39.32 39.91 39.76 40.05
35.63 28.77 27.37 29.27 33.78 35.15 35.17 36.40 32.52 29.22 26.75 20.92 24.13 27.30 34.37 35.38 37.83 39.84 39.67 41.48 43.07 43.87 43.64 43.54 43.40 43.44 42.97 42.16 41.70 41.58 41.62 41.29 40.58 40.19 39.79 39.38 39.04 38.78 38.28 38.62 39.24 39.44 39.23 39.01
38.39 30.23 26.91 22.47 25.63 30.96 31.37 33.90 33.86 31.59 28.55 26.05 26.74 28.68 35.08 35.24 35.95 38.38 40.59 41.57 42.70 43.98 43.58 43.00 42.38 42.82 42.57 41.77 41.30 40.92 40.68 40.41 39.69 39.19 38.80 38.75 39.78 40.24 39.15 39.05 39.25 39.52 39.17 38.81
34.97 25.92 25.85 29.71 31.04 31.24 31.70 32.69 33.96 31.08 33.01 29.32 30.85 30.74 35.75 38.03 37.89 38.35 39.49 40.59 40.98 42.82 42.68 42.58 41.97 42.32 42.02 40.90 40.55 40.26 40.14 39.34 39.05 38.33 38.15 38.52 40.12 40.35 39.83 39.31 38.99 39.13 39.06 39.01
32.46 25.39 27.51 25.57 31.42 30.74 29.51 31.21 33.25 34.72 34.62 33.64 34.11 33.28 40.35 39.32 38.00 38.26 38.78 39.65 40.46 41.68 42.99 42.50 42.00 41.58 41.52 40.69 40.41 39.87 39.48 38.72 38.77 37.93 37.73 38.65 39.38 39.31 39.11 38.66 38.09 37.94 38.02 38.61
30.15 27.26 26.04 22.26 28.27 28.04 24.65 29.19 30.36 32.82 35.06 35.59 31.97 36.59 38.81 38.49 39.09 40.29 39.86 39.78 41.23 42.55 43.00 42.53 42.34 42.12 41.59 40.92 40.82 39.67 39.17 38.62 37.99 37.62 37.58 38.59 39.04 38.31 38.08 37.54 37.06 36.76 36.71 37.01
28.35 26.64 26.26 21.26 24.90 17.32 29.80 33.94 32.88 32.02 34.00 36.66 36.72 38.43 37.58 38.99 40.99 40.40 39.96 40.30 41.25 42.61 42.97 42.99 42.56 42.02 41.44 40.52 40.09 39.66 38.72 37.91 37.49 37.15 37.30 38.25 38.46 37.36 36.87 36.25 35.81 35.75 35.62 34.31
31.20 28.47 25.49 21.89 18.93 24.70 28.61 31.38 30.97 30.51 31.83 34.54 36.13 38.18 38.89 37.71 38.21 38.22 40.32 40.50 42.16 43.02 43.38 43.27 42.51 41.17 40.02 39.71 39.43 38.75 37.34 37.11 36.95 36.76 37.21 38.06 38.04 36.74 36.07 35.09 34.79 34.29 33.60 31.91
31.19 30.50 26.60 23.97 19.93 18.73 26.01 33.81 35.04 34.10 27.69 35.52 35.92 36.29 35.87 36.54 32.95 36.99 39.94 40.66 42.05 42.52 41.99 40.42 39.40 38.92 39.08 38.81 39.09 37.92 36.97 36.68 36.39 36.86 37.48 38.44 37.91 36.67 35.62 35.06 34.37 33.41 31.67 29.59
27.96 29.82 27.06 28.08 26.02 25.98 31.11 33.05 35.14 25.85 28.25 36.24 37.55 36.66 35.25 34.65 37.05 38.46 39.63 38.71 38.86 38.51 38.11 37.70 38.00 38.12 38.32 37.92 38.15 37.13 36.66 36.39 37.20 37.66 38.03 37.85 37.63 36.44 35.78 34.91 32.91 30.87 29.90 28.20
26.84 24.79 25.14 26.91 26.26 21.73 33.47 34.84 31.33 33.89 36.54 38.65 37.91 36.58 35.77 37.70 38.99 37.90 37.65 37.14 37.09 36.96 37.04 37.02 36.67 36.55 36.92 37.46 37.60 36.29 35.77 37.10 37.29 37.57 37.43 37.05 36.61 36.12 35.30 33.63 30.11 30.50 29.03 28.37
25.64 28.76 26.90 27.61 27.24 33.42 34.32 36.63 37.37 38.28 38.69 39.55 38.68 38.69 38.38 39.42 38.76 38.33 37.17 36.90 37.08 37.10 37.29 37.80 37.47 36.35 36.57 37.20 37.60 36.14 36.27 36.93 36.72 36.86 36.45 36.42 35.96 35.39 34.86 32.82 30.11 28.98 28.03 27.90
30.51 31.58 29.30 29.69 31.51 32.60 34.33 35.38 36.44 38.52 38.88 39.68 40.74 41.54 40.37 40.06 39.33 39.80 39.30 38.38 38.32 37.87 37.29 37.03 36.42 36.00 35.55 36.13 36.56 37.21 36.68 37.38 36.65 36.10 35.98 35.84 35.03 34.24 33.55 32.62 31.30 29.39 27.51 27.05
32.42 31.82 30.85 30.02 32.80 33.24 35.13 35.92 37.08 38.84 40.02 39.47 39.10 40.05 41.61 42.24 41.94 41.79 41.32 40.66 40.38 39.54 39.03 38.35 37.45 37.12 36.74 36.48 36.55 36.89 36.67 37.04 36.04 36.00 35.61 35.10 34.99 35.09 32.82 31.97 30.23 29.76 28.65 28.48
34.05 32.75 30.62 30.22 35.16 34.51 35.07 36.13 37.71 38.75 38.80 38.97 38.16 37.84 39.22 40.33 39.58 40.07 40.39 39.73 40.42 40.43 39.73 39.44 39.42 38.73 38.41 37.01 36.44 36.46 37.00 37.13 36.22 35.33 34.95 34.66 34.49 34.85 33.38 32.33 30.46 33.22 32.91 32.87

GFSCGP_sfc_wetblb_078.txt.gz
Wetbulb
41.94 36.83 36.18 40.21 42.69 42.44 42.26 39.49 38.12 42.77 45.99 45.29 44.32 44.58 46.71 49.24 50.11 51.05 52.46 53.15 54.26 54.22 54.52 54.28 53.74 54.13 60.80 63.03 64.33 67.54 67.80 69.25 69.63 69.13 68.68 68.85 68.74 69.57 69.93 70.22 70.30 69.93 69.19 68.51
38.39 34.74 40.61 43.66 43.21 41.76 41.87 39.78 39.93 43.01 46.18 45.33 44.22 43.75 47.00 48.27 49.03 50.04 50.50 52.72 53.89 54.48 54.21 54.00 54.18 53.32 54.65 59.67 60.06 62.29 65.75 67.53 68.58 69.08 69.22 69.34 69.29 69.52 69.83 70.38 69.79 69.78 69.52 69.49
36.07 38.14 42.33 42.13 40.95 39.92 40.80 39.40 40.07 40.14 44.25 45.15 43.18 41.58 44.14 47.22 48.79 50.19 51.40 52.76 54.74 54.93 53.43 52.93 53.37 53.62 54.37 54.93 55.75 56.86 58.53 60.06 61.97 65.03 64.88 64.23 64.99 66.58 67.26 68.03 68.12 64.51 64.29 64.82
38.01 40.92 39.71 40.47 39.24 41.48 36.86 42.90 42.54 41.06 40.48 35.52 43.45 35.24 41.79 44.77 45.50 47.84 50.23 51.92 53.57 54.70 53.77 51.03 50.79 52.81 54.00 55.06 55.97 55.79 55.35 55.53 55.54 55.88 57.16 58.67 60.56 60.47 60.41 60.73 59.69 58.48 58.53 58.90
37.06 38.04 37.20 38.08 39.96 42.88 38.80 42.81 41.65 41.26 39.63 38.75 38.65 35.96 40.64 43.90 42.94 45.60 48.92 51.10 53.18 55.17 55.05 51.90 50.62 51.61 53.37 54.70 55.27 55.51 55.29 55.15 55.35 55.69 55.73 56.04 54.77 55.39 55.31 55.50 55.18 56.22 57.34 56.71
39.37 42.74 40.07 41.21 42.98 42.80 43.32 41.48 40.51 40.21 38.02 32.07 37.66 36.79 38.43 40.85 43.15 46.07 48.75 50.13 51.72 53.92 53.27 52.36 52.28 52.18 52.93 53.80 53.94 54.74 54.63 54.28 55.22 55.69 55.65 55.47 55.09 54.17 54.53 55.23 55.64 56.17 56.68 56.13
37.70 37.65 42.03 42.97 40.41 42.04 42.47 39.43 31.53 29.21 29.76 29.92 36.63 35.87 38.89 44.16 45.17 45.10 47.53 49.85 51.69 52.84 53.79 53.36 50.73 51.34 51.75 51.90 52.81 53.63 54.13 53.45 54.34 54.64 54.84 54.96 54.81 54.62 54.23 54.40 54.72 54.31 54.96 54.75
32.96 30.01 37.54 42.92 40.93 38.58 40.32 39.42 33.32 24.76 26.75 30.93 34.92 32.74 39.09 44.72 44.91 44.87 45.96 47.39 49.87 52.00 53.35 52.33 51.51 51.80 52.06 51.95 52.41 52.44 52.93 52.16 52.79 53.08 52.54 52.90 53.05 53.49 52.67 51.98 52.64 52.21 52.22 51.72
33.04 32.09 40.37 42.01 42.90 41.96 37.56 36.08 37.14 32.09 30.31 31.68 35.07 37.40 42.30 43.32 44.17 44.57 44.55 45.16 46.51 47.65 47.45 47.51 50.29 52.22 51.92 51.77 51.71 51.92 51.91 51.40 51.37 50.89 50.93 50.40 50.65 50.17 49.81 48.73 49.53 49.72 49.07 48.29
37.27 31.98 38.40 40.63 42.36 42.55 40.69 40.59 33.59 34.63 26.28 25.27 30.44 32.80 36.48 40.05 41.27 42.63 42.74 43.25 45.26 47.11 46.56 47.63 49.47 51.06 51.54 52.00 51.46 51.45 51.62 50.64 50.30 50.01 49.71 48.70 47.84 47.66 47.73 48.01 47.12 46.81 47.16 46.87
38.99 37.38 34.53 39.89 37.43 37.98 38.24 37.10 36.97 36.43 33.09 29.09 28.45 33.03 41.74 40.65 41.21 41.85 44.09 44.13 44.44 46.33 46.90 48.19 49.52 50.04 50.05 50.94 50.34 50.29 50.28 49.43 49.00 48.50 47.68 47.04 46.34 45.70 45.97 46.09 45.54 45.46 45.54 45.47
39.02 37.81 33.10 35.28 39.99 41.67 40.74 38.41 39.19 33.35 30.31 31.60 31.65 33.71 42.10 42.18 42.79 42.75 45.31 45.25 46.07 46.45 47.84 49.48 50.18 49.41 48.26 48.62 48.79 49.26 49.30 48.85 48.38 47.33 46.61 45.77 45.18 44.95 44.96 44.67 44.34 44.65 44.56 44.47
39.84 35.83 30.26 31.38 35.97 38.72 37.34 39.47 38.67 36.82 34.79 31.49 30.38 34.21 40.41 41.98 42.93 44.92 45.58 46.57 46.86 46.99 48.20 49.26 49.70 49.36 49.59 49.05 48.34 48.22 48.30 48.20 47.12 46.42 45.96 45.07 44.56 44.49 43.99 43.66 43.48 43.44 43.32 43.24
42.25 36.45 33.87 30.85 33.23 37.06 33.96 36.37 38.54 36.83 33.19 33.51 33.69 36.01 39.48 40.82 42.13 43.72 45.45 46.99 48.14 47.72 48.42 49.10 49.31 49.80 49.79 49.21 48.61 48.25 47.61 47.28 46.03 45.40 45.26 44.72 44.63 44.52 43.95 43.19 42.44 42.27 42.80 42.72
40.29 34.51 33.28 33.99 34.27 35.54 35.00 35.62 36.91 34.07 36.05 32.95 36.12 36.69 39.87 42.44 44.22 45.30 45.21 45.44 46.81 47.69 48.23 48.76 48.81 49.44 49.34 48.68 48.29 47.86 47.45 46.22 45.52 44.55 44.18 44.11 44.56 44.31 43.59 42.97 42.15 41.50 40.92 41.08
38.24 34.87 33.91 32.46 34.99 34.58 33.04 35.99 36.97 37.52 37.58 37.28 37.95 37.49 43.86 44.78 45.53 44.42 45.94 45.60 44.55 46.77 48.50 49.10 49.30 49.42 49.32 49.10 47.77 46.70 46.03 45.01 44.54 43.87 43.42 43.38 43.35 42.99 42.33 41.46 40.44 39.68 39.43 40.02
36.66 35.21 32.47 30.06 32.08 32.68 29.64 34.62 36.00 37.01 38.95 38.42 34.60 39.53 43.66 42.54 43.37 44.42 45.77 46.63 46.39 46.68 48.13 49.48 49.59 49.57 49.81 49.22 48.37 46.51 46.07 45.20 43.73 43.26 42.83 42.51 42.41 41.62 40.87 39.80 38.99 38.41 38.50 38.92
35.93 34.91 33.80 30.62 30.20 23.56 33.90 37.84 37.40 36.55 38.06 40.00 40.05 41.33 42.73 43.17 44.83 46.11 47.01 46.17 46.59 47.50 47.62 49.20 50.51 50.38 50.11 49.51 48.02 47.40 45.65 43.65 43.08 42.44 41.88 42.03 41.62 40.58 39.42 38.31 37.74 37.60 37.43 36.78
37.94 36.38 32.04 29.07 28.05 32.27 34.36 34.59 34.51 33.46 35.12 39.53 38.76 40.71 42.12 43.23 42.44 41.80 45.27 46.14 46.44 47.02 48.18 49.83 50.78 50.21 49.42 47.75 46.96 45.27 43.67 43.22 42.39 41.66 41.38 41.55 41.24 39.91 38.15 37.05 36.71 36.09 35.29 34.43
35.77 36.98 34.16 30.21 25.48 23.75 32.64 38.48 39.31 38.70 32.23 40.89 40.64 41.18 40.88 40.53 36.82 41.97 44.95 46.03 45.87 46.43 48.32 48.51 48.20 46.70 47.08 46.18 45.28 43.94 42.81 42.20 41.47 41.73 41.36 41.75 41.41 39.96 37.59 36.90 36.16 35.55 34.62 33.44
33.42 34.20 31.50 31.21 28.04 31.23 38.15 39.13 40.05 30.22 33.97 41.78 42.63 42.47 39.89 37.96 40.82 42.61 43.72 43.30 43.55 44.58 44.42 45.15 45.15 45.14 45.65 44.66 44.15 42.82 42.49 41.36 42.39 41.95 41.62 41.17 40.67 38.97 37.68 36.75 35.77 33.75 33.24 33.98
32.79 31.74 31.11 31.93 28.68 25.03 39.27 37.93 34.80 40.03 42.52 43.46 44.42 43.91 41.31 41.54 42.89 42.10 41.74 41.40 41.67 41.80 41.82 43.47 43.57 42.96 42.78 43.15 43.12 42.45 41.48 42.46 41.41 40.93 40.03 39.82 38.88 37.43 36.62 35.46 33.38 32.86 32.64 33.12
31.25 35.59 34.38 34.51 34.21 40.01 40.41 42.61 43.87 42.92 43.01 43.68 44.34 45.07 42.92 42.63 43.29 42.43 42.12 42.16 42.21 42.11 41.74 42.18 42.48 41.77 41.96 42.36 42.74 40.94 40.70 41.24 40.71 40.22 39.47 38.82 37.58 36.61 36.21 34.33 32.69 32.28 33.41 32.49
35.67 37.18 34.79 34.05 39.14 39.29 40.87 42.05 42.42 43.27 42.89 44.51 45.78 45.03 43.65 44.18 43.89 43.45 43.14 42.67 42.72 42.48 42.34 42.47 41.99 41.17 40.14 41.09 41.04 41.44 39.67 40.45 40.21 39.32 39.03 37.95 36.46 35.60 35.69 35.12 34.13 34.03 32.14 31.35
37.71 35.95 35.89 35.79 37.83 39.86 41.08 41.77 42.97 42.97 43.20 44.52 44.62 44.74 44.23 43.91 42.69 42.90 42.01 41.75 41.90 41.41 41.57 41.61 40.70 39.44 39.54 40.13 39.45 39.38 38.60 38.98 38.16 39.27 38.76 37.09 36.28 36.40 34.94 34.91 34.47 34.28 34.42 33.93
37.72 38.25 35.24 35.12 40.65 39.92 40.73 41.87 42.98 41.16 42.83 44.32 43.56 42.75 41.57 43.19 41.97 43.52 43.59 41.99 43.35 44.01 43.69 43.11 42.65 40.95 39.98 38.56 37.97 38.39 38.50 38.51 38.44 37.89 37.94 37.10 35.75 36.24 35.44 34.70 33.45 35.82 35.27 34.68

GFSCGP_sfc_wetblb_081.txt.gz
Wetbulb
40.38 36.25 34.65 40.97 43.20 42.88 42.29 40.99 40.29 43.88 47.56 45.83 45.31 45.60 48.61 50.95 51.15 51.05 52.05 53.15 54.56 55.44 57.23 56.04 55.74 56.82 63.29 67.98 68.89 69.26 69.17 69.65 69.86 69.55 69.01 68.93 68.39 69.72 70.21 70.59 70.60 70.58 70.40 69.84
37.75 34.71 40.53 44.05 44.11 42.77 42.26 40.27 39.61 43.51 46.34 45.60 44.99 44.41 47.76 49.81 50.13 51.32 51.87 52.59 53.92 55.33 56.12 55.57 55.48 55.63 56.64 63.26 64.81 67.25 68.32 69.05 69.31 69.41 69.60 69.90 69.73 69.95 70.08 70.79 70.27 70.12 69.76 69.40
36.30 37.98 42.80 42.58 41.76 41.11 41.27 39.90 40.52 40.54 43.89 45.83 44.42 42.38 45.12 48.74 50.49 51.10 52.47 53.78 54.49 54.82 55.45 55.76 54.96 55.46 55.76 58.36 60.63 61.78 64.86 67.88 67.91 69.09 68.95 67.12 67.70 68.19 67.99 68.39 67.93 66.92 65.94 66.14
38.32 40.79 40.80 40.80 39.88 41.88 37.96 43.90 43.16 42.13 40.43 35.47 43.96 35.00 42.77 46.14 47.03 48.67 50.72 51.90 53.06 54.89 55.66 56.52 53.94 53.34 55.34 56.14 58.07 57.67 58.74 60.04 60.77 62.40 64.31 64.82 64.83 64.44 63.95 64.08 63.88 61.52 60.38 60.46
36.37 37.71 38.42 38.35 40.27 42.96 39.84 44.27 42.94 42.67 40.75 39.59 40.02 36.73 41.03 45.46 44.06 46.69 49.40 51.39 52.83 53.91 55.43 56.11 53.74 53.59 54.99 56.86 56.82 57.10 56.82 56.74 56.84 57.23 57.91 58.05 57.19 57.45 56.96 56.22 56.29 56.65 57.62 57.36
39.44 43.13 40.98 41.79 43.84 43.98 44.34 42.36 41.65 41.44 39.49 32.03 37.99 37.66 38.36 42.40 43.91 46.26 49.22 50.82 52.23 53.50 54.97 56.94 55.63 54.03 54.12 55.95 56.23 56.50 55.77 55.60 56.33 56.66 56.62 56.60 57.42 56.08 55.25 55.89 55.89 56.28 56.75 56.41
36.90 37.47 40.90 43.79 40.46 43.66 42.44 38.61 31.31 29.50 30.00 30.05 39.14 37.00 39.46 44.83 46.32 46.74 47.43 50.06 51.84 53.46 54.49 56.63 54.33 52.54 53.51 53.88 54.53 55.03 55.12 54.56 55.81 56.25 56.21 56.20 56.24 56.14 55.75 55.49 55.47 55.10 55.20 55.19
32.72 29.64 38.87 43.57 41.38 39.11 39.92 39.26 32.87 24.94 27.05 30.93 37.87 33.07 39.22 46.24 47.32 47.20 47.88 49.29 50.70 52.76 54.37 55.76 55.13 53.52 53.72 53.57 53.52 53.88 54.33 53.94 54.76 54.98 54.62 54.96 54.98 54.53 53.91 53.55 53.70 53.25 52.88 52.78
33.24 32.14 39.95 42.47 44.14 43.34 39.57 36.81 39.87 34.50 35.30 32.98 35.66 39.17 43.76 44.82 45.31 46.46 46.65 47.18 48.53 49.52 51.70 51.47 54.04 53.55 53.99 53.37 53.41 53.21 53.73 53.23 53.39 53.24 53.07 52.69 52.62 52.35 51.39 50.99 51.22 51.00 50.41 49.42
38.88 32.11 38.43 41.75 43.91 43.58 41.36 43.41 33.88 36.15 26.88 25.63 32.17 34.54 37.29 40.88 42.20 44.44 44.94 45.40 46.54 48.93 49.89 49.65 50.19 52.25 53.58 53.49 53.53 53.72 53.48 52.29 52.17 52.09 51.98 51.08 50.11 49.95 49.54 49.47 48.74 48.35 48.43 48.19
41.09 38.28 35.09 40.45 37.55 38.20 38.83 37.16 38.68 38.28 34.71 29.45 29.22 33.33 43.42 42.24 43.84 44.49 45.87 46.62 46.60 47.35 48.77 49.48 50.47 52.55 52.78 52.74 52.28 52.15 52.04 51.42 50.75 50.63 49.68 49.16 48.28 47.84 47.76 47.54 47.05 46.82 46.86 46.60
41.08 38.68 32.80 35.21 41.75 43.36 42.42 40.02 39.79 33.56 31.19 33.90 32.63 34.40 44.68 44.48 45.38 46.17 46.66 47.69 48.21 48.36 48.86 49.72 50.61 51.45 51.34 51.08 50.99 50.98 51.13 50.53 50.10 49.65 48.94 48.27 47.35 46.83 46.62 46.21 45.81 45.85 45.80 45.67
41.39 36.79 30.23 32.40 38.01 41.01 38.60 40.72 40.85 40.23 37.15 34.42 30.74 34.29 43.98 44.54 44.25 46.38 46.34 47.42 48.55 48.56 49.20 50.05 50.39 49.95 50.10 50.03 50.02 50.15 50.21 49.89 49.33 48.60 48.17 47.19 46.71 46.52 46.08 45.37 44.96 44.76 44.58 44.45
43.04 38.42 35.29 31.57 34.42 39.04 35.17 38.07 40.14 37.87 33.73 33.78 34.57 36.84 40.62 42.23 43.55 45.47 46.42 47.98 48.34 49.03 49.34 49.99 50.22 50.33 50.65 50.98 50.36 49.85 49.42 49.62 48.16 47.80 47.53 46.85 46.54 46.45 45.86 45.02 44.27 43.80 43.94 43.73
41.70 35.69 35.11 35.96 36.18 37.13 36.50 37.12 38.03 35.41 36.53 33.53 36.56 37.41 41.22 43.54 44.64 45.95 47.35 46.95 46.93 48.63 49.09 49.82 50.15 50.81 51.10 50.64 50.43 50.25 49.88 48.79 47.69 46.47 46.38 46.36 46.77 46.78 45.75 44.75 43.82 43.12 42.69 42.36
42.20 36.21 35.74 33.43 37.17 36.25 33.89 36.77 37.50 38.06 38.51 38.09 38.25 37.65 44.29 45.99 46.80 46.30 46.22 46.45 46.57 47.07 49.02 50.00 50.60 51.22 51.17 50.88 50.33 49.81 49.04 47.97 47.49 46.44 45.74 46.13 45.79 45.19 44.37 43.75 42.74 41.82 40.87 40.79
39.35 37.57 34.18 31.48 34.07 34.28 30.43 35.37 37.14 38.21 39.86 39.34 35.16 40.28 44.69 43.94 44.56 45.32 45.86 46.63 47.00 48.16 48.87 50.08 50.79 51.35 51.89 51.65 51.16 49.45 48.87 48.01 46.24 45.89 45.63 44.84 44.72 43.89 43.29 42.49 41.43 40.32 39.63 39.96
38.66 37.45 36.35 32.04 32.40 24.54 36.14 39.46 38.96 37.69 40.18 41.76 40.98 42.01 43.35 43.67 45.09 45.86 47.21 46.90 47.47 48.25 49.11 49.74 51.26 52.36 52.65 52.94 51.87 50.81 49.37 47.37 45.68 45.39 44.84 44.28 43.86 42.94 42.13 40.83 39.91 39.33 38.92 38.34
40.70 38.52 33.81 29.92 29.78 33.82 36.16 37.48 36.17 34.88 36.04 41.07 40.12 41.52 43.52 44.66 44.08 43.67 46.99 47.63 47.48 48.29 48.91 49.28 50.94 52.51 52.99 52.08 51.21 49.57 47.55 46.14 45.02 44.45 44.07 43.69 43.33 42.03 40.59 39.25 38.58 37.79 37.16 36.29
38.59 39.23 35.19 32.03 26.76 24.89 35.25 39.66 41.34 40.38 32.25 42.74 42.53 42.46 42.69 42.69 37.47 42.18 45.20 46.27 47.09 48.54 48.27 49.70 51.24 51.92 51.68 50.77 49.52 47.38 45.85 45.17 44.12 44.20 43.85 43.88 43.19 41.81 39.91 39.11 37.82 36.87 35.90 34.28
33.90 34.29 31.38 31.21 28.87 32.72 39.56 40.82 41.91 30.35 34.51 42.49 43.62 44.12 43.51 40.52 42.56 44.00 45.48 45.53 45.36 46.18 47.14 49.17 49.56 49.08 49.37 48.87 47.47 46.06 45.68 44.44 45.15 44.87 44.08 43.33 42.71 41.40 40.68 38.74 37.12 34.69 33.91 33.94
33.80 32.39 32.10 33.06 29.16 26.13 41.04 39.16 34.24 40.54 43.77 43.98 44.66 45.31 44.66 44.17 44.08 44.63 43.74 43.22 43.20 43.34 44.49 46.28 46.37 45.99 46.05 46.31 45.65 44.83 44.11 45.01 44.58 43.56 42.60 42.03 41.42 39.88 38.44 36.46 34.56 33.75 32.92 32.94
31.48 36.63 34.49 35.57 35.37 41.67 42.50 42.37 44.77 45.28 43.56 44.30 44.43 45.92 45.95 44.03 44.81 45.14 44.33 43.90 43.73 43.48 43.30 44.71 44.45 43.50 43.88 44.62 45.13 43.72 44.00 43.59 42.52 41.85 41.12 40.88 39.69 38.44 37.09 34.96 33.42 32.68 32.64 33.32
38.68 41.19 35.89 35.85 39.84 41.15 42.93 44.18 44.29 44.71 44.40 45.38 45.22 46.33 46.22 44.20 45.82 45.25 45.00 44.54 44.49 44.22 43.87 44.18 43.73 43.06 42.34 43.36 43.26 44.04 42.92 42.02 40.93 40.11 40.82 40.12 37.90 36.91 36.15 34.99 34.02 33.36 32.80 33.88
39.89 39.10 37.86 37.50 40.23 41.82 43.02 44.07 44.10 44.63 44.97 44.59 45.88 46.50 46.35 45.98 45.27 44.60 43.27 43.20 43.45 44.02 43.65 43.35 43.21 42.61 42.25 42.12 41.59 42.77 41.60 40.98 39.20 39.48 39.75 39.18 37.88 37.09 35.18 34.89 34.43 34.20 36.33 35.71
41.16 38.62 36.62 35.95 42.17 41.28 42.16 43.96 44.76 43.67 43.32 44.27 45.36 44.86 44.66 45.07 44.34 45.16 45.30 44.55 44.49 43.86 43.83 44.16 44.25 42.36 40.70 38.88 38.39 38.58 38.86 39.04 38.44 37.78 38.28 38.11 37.40 36.93 35.41 34.53 34.39 37.62 37.81 37.44

GFSCGP_sfc_wetblb_084.txt.gz
Wetbulb
39.27 34.52 33.22 38.57 41.01 41.39 40.98 38.78 38.20 41.98 46.44 44.81 43.76 43.87 45.64 48.44 47.96 47.15 48.08 49.96 50.65 52.00 54.49 53.74 53.67 53.18 61.14 65.33 65.94 65.34 65.95 66.44 67.57 66.97 66.61 65.87 66.50 67.04 67.51 68.08 67.89 68.30 68.08 68.11
37.09 33.61 39.46 43.05 43.08 41.57 40.99 38.36 38.08 42.53 46.32 44.91 43.16 42.12 45.96 48.39 47.92 48.91 49.58 50.26 51.32 51.92 51.19 52.27 52.74 52.68 54.09 62.56 64.21 64.80 65.82 66.11 66.12 67.09 66.57 66.33 66.81 66.63 67.81 68.11 67.71 68.17 68.32 67.42
35.36 37.37 41.15 41.40 40.08 38.73 39.37 37.21 37.98 39.31 42.94 43.35 41.21 38.69 41.75 45.09 46.66 48.44 49.46 50.18 51.71 52.38 51.78 51.23 51.81 51.91 51.93 55.26 60.71 61.94 64.01 65.41 65.36 66.02 65.63 64.70 64.53 65.35 65.18 65.74 65.67 61.61 63.21 62.91
37.25 40.11 39.22 40.07 39.01 41.30 36.56 42.66 42.11 41.04 37.79 32.75 40.46 27.89 38.56 42.49 43.74 46.08 46.36 46.94 48.50 51.50 53.40 52.90 51.50 51.72 51.95 52.74 55.11 55.40 57.72 59.98 59.71 61.22 63.16 62.00 61.78 62.05 58.86 59.83 60.62 57.29 57.65 57.32
35.49 37.93 38.44 38.39 39.98 42.85 38.97 43.77 42.42 41.20 37.76 37.05 35.31 30.39 34.56 42.05 40.86 43.75 45.65 46.14 47.98 49.54 51.10 52.89 50.82 51.01 52.43 53.94 54.07 53.66 54.15 54.87 54.69 54.73 56.43 57.67 54.30 52.99 52.83 52.64 53.10 54.06 54.53 54.62
38.70 42.71 40.68 40.19 43.41 43.26 43.74 40.98 40.36 38.71 36.20 25.67 34.61 33.07 32.10 36.64 39.81 41.82 44.84 46.60 48.00 49.21 50.19 51.45 51.42 51.06 52.51 53.58 53.67 53.31 52.61 52.56 53.24 53.18 52.96 52.45 51.49 50.65 50.53 51.23 51.38 52.38 53.40 53.27
36.15 37.07 40.66 42.84 39.66 42.10 40.49 36.07 26.54 24.27 21.92 23.83 35.11 31.91 34.39 39.98 42.12 42.86 41.70 43.14 46.16 48.44 49.17 50.48 48.84 48.56 50.44 52.07 52.95 52.94 52.44 51.77 52.83 52.75 52.86 53.11 52.71 52.24 51.85 52.03 51.87 51.88 52.16 52.01
30.91 28.46 37.68 42.65 40.37 37.26 37.21 35.84 27.77 20.83 21.37 24.81 34.36 27.31 34.08 41.28 43.52 43.92 44.35 43.59 45.13 45.69 48.23 49.83 49.14 49.11 50.11 51.37 51.87 52.13 51.94 51.91 52.72 52.59 52.13 52.18 51.97 50.96 50.20 50.02 49.99 49.01 48.57 48.27
32.04 30.96 40.27 42.58 43.59 41.86 36.33 31.47 36.07 31.10 29.90 25.69 30.03 34.00 37.34 41.74 40.40 42.11 42.40 43.17 42.71 43.08 45.78 49.10 49.97 50.08 50.29 50.12 50.66 50.57 51.28 51.37 51.77 51.09 50.44 49.83 49.97 49.51 48.26 47.65 47.70 47.18 47.05 47.31
36.99 29.56 37.56 41.69 43.44 42.83 40.07 40.19 30.18 30.71 20.45 19.87 26.59 29.22 31.31 35.64 37.61 39.71 39.19 39.03 41.33 42.49 43.33 45.44 46.90 48.55 50.20 51.37 50.53 50.71 50.59 50.16 49.93 49.90 48.93 48.53 47.67 47.42 47.11 46.56 45.28 44.92 44.86 44.94
39.15 35.07 34.80 39.91 36.24 35.63 36.77 34.68 35.89 34.50 29.69 23.04 21.04 26.36 37.64 37.85 39.98 39.81 40.82 42.16 40.84 40.51 43.83 44.59 45.73 47.75 49.25 50.58 50.98 50.39 49.75 49.33 48.39 47.71 47.31 46.26 45.75 45.69 45.11 44.33 43.94 43.51 43.73 43.61
39.01 36.35 29.75 33.54 40.29 42.06 40.37 37.66 35.97 27.26 26.37 27.13 26.37 27.64 40.70 40.13 41.12 42.29 42.50 44.41 43.22 43.65 44.36 45.05 46.49 47.63 47.98 47.93 49.24 50.17 49.83 49.06 48.38 47.32 46.42 45.19 44.63 44.43 44.07 43.39 43.14 43.41 42.55 42.62
38.80 35.18 29.57 29.41 34.91 38.51 36.13 38.76 39.30 36.99 32.71 26.19 22.73 27.37 40.28 38.86 39.36 42.25 41.13 41.82 44.53 44.90 43.85 44.94 45.75 46.19 46.74 46.93 46.92 46.94 47.37 47.06 46.69 46.05 45.79 44.70 43.81 43.48 42.84 42.38 42.38 42.45 41.79 41.39
41.47 36.12 31.39 25.34 29.08 34.84 31.91 35.82 37.47 34.20 27.50 29.24 29.62 31.79 34.24 37.17 39.11 41.29 42.29 40.69 42.20 44.54 45.83 45.26 45.06 45.16 45.45 46.49 46.44 46.33 46.10 46.29 45.82 45.42 44.45 43.48 43.29 43.66 43.04 42.58 42.31 42.16 41.60 40.98
38.89 31.47 29.38 32.86 34.72 34.74 34.19 35.05 35.78 31.01 33.74 27.12 32.69 34.20 38.03 38.39 39.06 40.58 42.00 43.25 42.66 42.37 45.49 45.62 45.52 45.24 45.63 45.59 45.53 45.87 45.59 44.61 44.26 43.98 44.03 43.88 44.03 43.80 43.11 42.34 41.27 40.82 40.27 39.94
39.04 30.89 31.85 28.69 35.77 34.46 31.50 34.63 34.96 35.70 36.50 36.21 36.25 35.23 41.77 42.97 43.19 42.58 42.36 43.18 43.04 43.39 44.24 46.48 46.96 46.72 46.27 45.58 45.33 45.69 44.68 44.03 43.98 43.00 42.63 43.37 43.76 43.17 42.26 41.50 40.48 39.55 38.59 38.54
36.56 33.45 28.70 24.86 31.67 31.47 26.47 33.10 34.69 35.44 36.86 36.68 32.70 37.91 41.50 40.09 41.46 41.19 41.23 43.09 43.08 44.09 44.97 45.16 46.65 46.93 46.69 46.44 46.38 44.76 44.10 43.93 42.93 42.57 42.78 42.84 42.76 41.74 40.80 40.56 40.46 39.79 37.70 38.89
35.47 33.76 31.93 24.60 26.43 17.10 32.32 37.53 36.92 34.86 36.53 38.92 39.32 39.97 40.53 40.28 41.22 41.56 42.49 41.89 42.73 44.05 45.37 45.34 46.20 47.29 47.77 47.68 46.78 45.74 44.74 43.12 42.50 42.14 42.05 42.08 41.80 40.81 40.13 39.57 39.64 38.31 37.98 38.23
37.15 33.74 28.98 24.35 23.31 29.17 32.93 34.33 33.58 31.54 32.72 37.70 36.16 37.90 39.90 41.25 39.78 38.81 42.44 42.56 41.77 43.21 44.27 44.07 44.34 45.98 47.76 47.59 46.76 45.45 43.56 42.48 42.02 41.72 41.40 41.39 41.16 39.87 39.75 39.08 38.26 35.91 37.33 36.60
37.14 35.48 29.87 27.15 23.32 21.28 31.52 36.60 38.68 36.56 26.72 39.46 39.64 38.61 38.86 39.23 32.63 36.04 41.12 42.14 42.43 43.28 43.78 44.10 45.39 45.87 46.96 46.26 45.85 43.88 42.32 41.49 41.15 41.86 41.59 41.34 40.90 39.67 39.75 38.64 37.78 35.65 35.85 34.13
30.02 31.07 26.45 27.03 26.86 29.40 35.81 38.26 38.87 24.93 28.93 38.50 39.81 40.12 39.69 37.11 37.72 39.62 42.18 41.71 41.89 42.04 42.76 43.96 44.20 44.34 44.61 44.62 44.43 42.66 41.32 40.50 42.03 42.61 41.74 41.05 40.31 39.84 39.95 38.58 37.21 34.49 33.59 33.20
29.67 28.29 28.08 28.05 24.01 22.98 37.31 35.89 30.97 36.35 38.87 39.71 40.17 40.55 41.06 41.71 41.34 40.87 40.99 39.97 40.67 40.54 42.35 43.51 42.07 41.49 42.56 43.12 43.13 41.75 40.45 41.77 41.95 41.61 40.86 39.85 39.06 39.80 38.71 36.87 34.54 34.06 33.24 32.56
27.70 32.33 29.47 31.15 31.20 37.96 38.75 37.96 39.83 40.15 40.04 40.29 39.78 41.32 43.06 42.23 41.32 42.34 41.59 39.69 40.21 39.98 41.33 42.67 41.71 41.22 41.91 42.37 42.59 41.04 40.44 41.11 40.50 39.88 39.07 38.54 38.39 38.12 37.30 34.55 33.51 32.55 32.54 32.41
33.83 36.37 31.37 32.71 36.62 38.39 38.90 40.38 40.56 40.48 39.36 40.91 41.73 41.42 42.57 41.95 42.64 42.28 42.23 41.42 40.69 40.76 40.22 40.98 40.66 39.95 40.48 41.33 41.56 41.39 40.73 40.30 39.46 39.59 39.61 39.36 37.78 36.76 36.03 35.13 34.01 33.03 32.17 32.13
34.82 35.40 33.63 33.39 36.43 38.52 40.26 39.96 41.20 42.20 42.39 41.56 41.65 42.18 43.22 43.16 42.66 41.92 41.15 42.13 41.83 41.23 41.28 41.15 40.08 39.09 38.69 39.25 39.25 39.98 39.99 39.01 38.43 39.24 39.25 38.52 37.47 37.02 35.07 34.63 33.88 33.47 34.25 34.64
35.41 35.60 34.31 32.99 38.97 38.63 39.04 40.94 42.03 41.08 41.58 42.60 42.06 42.36 42.66 41.59 42.25 43.26 41.35 42.04 42.74 42.34 42.93 42.32 42.10 39.17 38.05 37.65 38.64 38.79 39.53 39.61 38.74 38.08 38.20 37.86 36.94 36.60 35.18 34.17 33.80 37.47 37.28 38.38

GFSCGP_sfc_wetblb_087.txt.gz
Wetbulb
37.37 35.20 32.27 35.07 37.48 38.81 39.51 38.44 37.67 41.25 45.98 44.23 43.31 43.54 45.31 47.49 46.31 45.02 45.54 46.37 47.66 50.69 52.09 51.75 53.51 56.32 60.71 63.74 65.41 66.57 66.56 65.96 66.58 65.66 65.21 65.03 64.89 66.06 66.71 67.17 67.63 67.54 67.52 67.29
36.17 33.13 38.13 40.65 39.89 40.08 40.29 37.98 37.30 42.35 44.90 42.58 41.81 41.56 44.92 45.81 45.97 46.44 46.50 47.00 47.83 48.75 49.69 50.34 51.12 51.38 55.47 62.91 64.67 64.95 66.28 65.17 66.26 66.97 66.21 64.91 64.69 65.52 66.68 67.00 66.63 67.58 67.04 66.87
32.80 37.31 41.92 41.13 39.52 38.75 38.29 36.56 37.02 38.42 42.74 43.94 41.79 39.19 42.11 44.63 46.35 47.10 47.38 47.49 48.36 48.98 48.52 48.83 49.23 50.44 50.88 57.99 62.27 64.09 64.94 64.85 65.08 65.73 65.78 64.15 64.26 64.27 64.50 64.82 61.81 61.50 62.35 61.65
35.53 40.35 40.52 38.98 37.79 38.49 33.92 40.75 40.44 40.46 38.10 32.81 40.90 30.66 37.73 41.43 41.93 44.23 45.01 44.85 46.54 47.55 48.80 49.29 49.09 49.03 49.54 52.79 57.39 58.35 62.18 64.14 63.70 65.16 63.93 62.97 62.56 62.18 60.89 64.21 60.08 59.07 57.80 56.58
35.66 37.72 38.15 38.24 39.32 41.31 37.32 42.37 40.65 41.06 37.51 36.46 35.64 31.18 34.52 39.29 38.26 41.19 42.41 43.90 45.28 46.50 47.79 48.97 49.25 50.74 50.32 52.47 53.14 54.21 55.69 57.14 57.08 58.91 62.10 61.76 57.15 55.51 54.93 55.28 55.53 54.30 54.14 54.20
37.79 42.55 40.15 39.80 42.40 42.04 43.32 40.91 40.30 38.81 34.15 24.63 33.03 30.30 29.58 33.92 40.05 40.11 41.78 43.66 45.27 46.76 47.87 48.59 50.21 50.14 50.64 52.01 52.58 52.41 52.80 52.12 54.74 53.77 54.49 54.23 51.68 50.47 50.03 50.20 50.54 51.95 52.49 52.11
34.75 35.64 39.23 42.33 37.60 41.26 41.22 33.15 27.07 25.38 22.37 23.43 32.39 30.58 32.19 36.83 39.63 41.26 41.84 42.66 43.88 45.29 46.89 47.30 47.17 47.39 50.12 50.26 51.69 52.14 52.90 52.92 54.09 52.35 52.09 51.53 50.63 50.23 50.56 50.77 50.74 51.18 51.24 50.19
25.91 22.61 37.11 40.74 39.05 36.64 37.56 34.84 24.35 20.24 20.40 23.24 32.22 26.28 32.56 39.07 40.99 41.91 42.79 43.29 43.31 41.66 44.67 46.32 47.25 46.99 49.61 50.87 50.93 50.50 50.98 51.89 52.77 51.35 51.31 51.31 51.15 51.00 50.27 50.46 49.36 48.49 48.53 47.70
26.96 30.65 40.12 41.95 42.10 40.26 34.83 27.74 34.81 28.05 26.44 22.07 27.07 31.47 36.41 38.05 38.49 38.39 39.18 41.46 40.26 41.60 43.17 45.70 46.28 47.75 48.65 49.42 50.25 50.78 50.56 50.94 51.52 51.33 50.56 49.49 49.00 48.70 48.14 47.85 47.19 46.22 45.62 46.11
33.77 30.54 37.36 40.61 41.57 41.69 38.60 38.89 28.05 25.13 20.12 19.67 24.57 26.70 28.94 33.13 35.22 37.19 36.85 37.10 39.70 41.04 42.47 43.96 45.55 46.48 48.42 49.15 49.39 49.63 51.21 50.66 50.37 50.17 49.13 48.27 47.77 47.31 46.84 45.45 45.02 44.51 44.73 44.91
36.72 32.21 33.29 38.93 34.58 35.21 35.95 33.69 34.51 32.44 28.33 23.06 20.23 24.50 33.51 35.77 37.60 37.88 38.55 39.96 40.04 41.00 41.58 42.39 43.89 46.36 47.61 48.09 48.36 48.18 49.19 49.65 48.94 48.42 47.16 46.34 45.63 45.24 44.64 43.87 43.54 43.94 43.31 43.13
36.68 32.91 30.34 31.08 38.57 40.15 38.42 37.02 35.12 24.82 25.34 24.46 24.07 25.36 37.41 38.00 38.99 40.84 40.86 42.23 42.03 41.95 42.70 42.78 43.43 45.89 46.52 46.95 47.65 48.13 49.31 49.14 47.75 46.59 46.13 45.25 44.77 43.86 42.73 42.68 43.04 43.29 42.53 42.69
36.73 29.70 22.02 28.33 32.48 36.34 34.57 36.88 37.56 34.47 30.35 24.54 22.23 25.41 37.83 37.13 39.32 40.48 40.52 41.36 42.64 42.72 42.58 43.24 43.81 44.78 45.18 45.61 46.39 46.79 47.31 47.82 46.38 45.55 45.74 44.53 44.22 43.69 43.00 42.65 42.65 42.50 41.87 41.00
40.46 33.24 26.95 20.82 26.66 32.75 30.14 34.82 36.62 32.79 24.42 27.93 27.39 30.07 32.97 35.65 37.42 38.84 40.46 39.04 41.31 42.79 43.69 42.99 43.27 43.84 44.30 44.92 45.56 45.76 45.48 46.02 45.40 44.76 43.52 43.37 43.10 43.00 42.47 41.52 41.10 41.04 40.52 39.98
37.19 28.16 26.39 31.30 33.58 32.82 32.58 33.50 34.20 28.30 32.11 26.79 32.29 32.53 37.15 36.29 35.23 37.48 40.49 41.39 41.53 42.51 43.34 43.43 43.35 43.58 43.75 44.04 44.03 44.23 44.08 43.79 43.66 43.35 42.69 42.14 42.39 42.42 41.80 41.21 40.55 40.45 39.98 39.43
36.81 28.19 28.87 26.46 33.52 32.53 30.22 32.92 33.24 33.66 34.24 33.91 34.05 33.41 39.60 39.74 41.79 40.24 40.30 41.09 41.07 41.94 43.62 44.45 45.03 44.58 44.08 43.68 43.74 44.11 43.29 42.86 43.07 42.30 42.03 42.54 42.56 42.02 41.07 40.42 39.35 38.64 37.87 37.93
34.64 31.02 26.20 22.16 29.95 29.54 25.27 30.60 32.96 33.19 34.69 34.84 31.04 37.02 38.07 38.43 40.04 39.57 39.57 40.51 40.58 41.67 42.64 42.98 44.52 45.43 45.50 45.22 45.62 44.25 43.61 42.86 41.94 41.61 41.73 41.97 41.67 40.74 40.03 39.47 38.83 37.95 37.02 37.54
34.78 33.71 30.97 22.53 24.77 15.23 29.90 35.24 35.37 34.46 35.89 36.70 36.93 38.34 39.08 38.58 38.96 38.82 39.87 39.47 40.20 40.96 41.96 43.16 43.26 45.46 45.70 46.02 45.87 44.66 43.86 42.98 41.92 41.22 41.24 41.47 40.99 39.97 39.15 38.31 37.71 37.71 35.82 35.64
34.98 31.98 27.37 23.15 20.89 26.50 29.98 32.81 32.99 31.07 31.60 35.90 33.77 37.87 38.99 39.18 37.93 36.91 40.50 39.94 39.89 40.69 41.63 41.80 42.45 43.63 45.61 46.15 46.15 45.04 43.18 42.25 41.70 41.17 40.81 40.91 40.48 39.01 38.09 36.83 36.71 37.39 34.70 34.78
35.45 33.18 27.83 24.81 21.89 20.48 29.16 34.71 36.89 34.77 25.26 37.36 37.91 37.82 38.02 38.10 32.34 34.26 39.72 40.90 40.80 40.80 40.85 41.82 43.03 43.96 43.57 45.27 45.69 44.24 42.37 41.56 41.04 40.79 40.50 40.70 40.18 39.11 37.84 36.67 37.91 37.18 34.72 32.28
28.08 28.32 24.28 24.85 21.91 27.54 34.03 35.87 37.20 23.37 26.56 37.50 38.48 38.30 38.43 36.42 37.07 38.86 40.23 40.37 40.23 40.36 40.60 41.91 41.49 41.63 42.62 43.91 44.89 42.90 41.36 40.97 41.42 41.60 40.91 40.29 39.77 38.74 38.13 36.82 37.67 35.95 33.77 33.85
27.86 24.75 25.09 25.55 21.95 20.19 36.09 34.10 28.69 33.66 37.67 38.98 39.33 39.26 39.65 40.61 41.28 40.24 41.07 39.90 39.67 39.35 40.45 41.57 40.35 40.06 40.87 42.06 42.72 40.55 40.17 40.91 41.68 40.89 40.04 39.13 38.23 39.11 38.34 37.41 35.87 35.12 34.10 33.23
26.00 29.76 27.32 29.56 29.51 36.16 37.38 37.18 39.68 39.86 37.32 38.46 38.99 40.51 40.83 41.40 41.40 41.09 40.93 39.53 39.07 38.94 39.70 40.63 39.78 39.81 40.61 41.65 42.08 40.77 40.59 41.06 40.40 39.56 38.47 37.93 37.85 37.51 37.57 35.86 34.54 33.42 33.37 32.80
32.33 34.07 29.90 31.28 32.70 34.60 36.54 37.32 38.30 39.27 39.28 40.13 40.47 40.31 39.91 39.91 41.84 41.53 41.17 39.88 39.15 39.15 38.93 39.72 39.25 38.70 38.82 40.56 41.55 41.20 40.40 40.11 39.32 38.40 37.69 37.48 36.08 36.85 36.52 35.70 34.62 33.57 32.73 32.54
32.44 33.29 31.65 31.36 33.86 36.49 38.27 38.91 38.77 40.15 41.48 41.38 42.69 42.38 42.03 41.80 41.56 41.54 40.62 40.36 40.68 39.79 39.76 39.92 39.90 39.65 38.95 39.22 39.43 40.39 39.80 39.16 38.16 38.14 38.26 37.29 37.76 37.15 35.56 35.23 34.53 33.81 34.54 34.63
36.49 34.99 31.13 32.46 37.16 35.59 36.11 37.78 39.55 38.69 38.80 40.40 40.32 41.01 42.84 42.80 42.12 42.51 41.94 40.94 40.92 40.65 41.09 41.25 40.45 39.27 38.25 38.11 38.55 39.40 40.04 39.66 38.91 38.25 38.49 38.03 37.17 36.91 35.61 34.56 34.09 37.75 37.30 37.88

GFSCGP_sfc_wetblb_090.txt.gz
Wetbulb
38.23 34.59 31.82 34.63 38.34 37.34 38.23 36.78 36.07 41.11 44.50 42.18 41.87 42.15 43.80 47.75 47.66 46.17 45.42 45.30 48.10 49.92 50.55 51.26 58.19 61.16 62.99 64.97 64.60 65.31 65.40 65.90 66.20 65.37 65.84 64.25 65.47 65.66 65.45 64.97 66.33 66.20 66.10 65.45
36.01 31.81 36.82 37.65 39.08 38.56 37.94 36.72 37.05 42.29 44.23 42.76 41.66 41.22 45.45 47.50 47.99 48.26 45.79 45.52 46.78 48.01 50.48 49.86 50.67 55.31 60.30 63.02 64.63 64.79 65.44 65.63 65.78 65.82 65.90 64.91 64.83 64.17 65.18 66.25 66.27 67.27 67.29 66.85
34.31 36.89 40.65 38.95 38.66 38.06 38.24 36.94 37.39 38.20 42.48 42.98 39.79 37.87 40.79 44.60 47.46 48.27 46.64 46.60 47.41 47.79 48.75 49.72 48.29 49.31 51.71 61.13 63.34 64.78 65.49 64.98 65.52 65.92 65.43 63.60 63.96 63.93 63.78 62.99 62.09 63.35 63.40 62.77
37.16 40.64 39.25 38.30 37.60 38.60 34.60 40.97 40.55 39.98 38.15 33.91 41.42 30.11 36.72 41.13 41.58 44.34 46.48 44.06 45.51 46.99 47.63 48.88 49.05 48.07 48.24 54.30 61.57 63.26 64.02 64.23 65.20 64.69 64.40 62.64 62.42 61.63 62.43 63.25 60.47 60.30 59.70 58.32
34.45 38.96 38.44 37.21 38.41 40.48 37.00 42.64 41.17 40.43 37.23 35.42 36.82 32.15 35.23 37.43 38.93 40.99 42.89 45.62 45.03 45.99 46.99 48.28 48.07 49.26 50.04 49.93 56.37 59.16 61.47 62.13 62.34 63.51 64.00 63.28 61.05 61.46 58.47 59.13 57.88 57.23 55.06 54.56
37.97 41.47 40.45 38.85 41.69 41.82 42.87 40.51 39.86 39.47 36.08 29.18 33.69 32.87 32.12 32.98 38.20 41.68 40.86 43.29 44.98 45.55 46.04 46.71 48.85 48.32 47.60 49.40 52.04 53.76 56.49 57.50 56.88 57.60 61.02 60.92 59.09 54.52 54.75 53.72 53.77 52.63 52.25 51.99
34.98 35.96 39.93 41.76 38.67 41.52 40.42 35.18 28.64 27.16 26.10 24.61 33.71 32.57 34.31 38.10 39.14 41.48 41.53 42.27 43.52 44.26 44.68 45.49 46.32 45.87 47.32 49.09 50.15 51.17 51.81 52.57 55.21 53.92 56.06 56.33 55.59 54.61 54.40 53.84 53.74 52.75 52.49 50.03
25.77 27.26 36.90 40.75 38.54 36.66 37.07 34.93 27.18 22.08 21.01 22.87 31.45 27.67 32.10 37.76 40.49 41.25 41.48 41.12 41.91 42.98 43.61 45.01 46.03 45.59 47.70 49.12 49.54 49.92 50.91 51.40 52.34 53.46 54.40 55.15 53.62 53.31 53.05 52.98 53.61 52.33 50.76 48.84
25.05 27.95 39.89 40.75 40.74 40.10 36.38 29.29 34.02 26.65 24.86 21.93 26.61 31.40 36.48 37.87 38.02 38.88 40.10 40.55 40.29 41.69 42.35 44.43 44.89 45.38 47.62 48.48 49.06 49.08 49.38 50.01 50.87 51.56 51.78 51.89 50.63 50.47 49.38 48.41 47.68 46.87 46.00 46.46
32.17 25.45 35.39 39.11 39.59 39.86 36.42 37.07 27.24 25.27 18.86 19.15 23.41 25.92 28.02 31.45 35.25 36.13 35.62 36.07 36.89 38.15 40.81 43.26 43.99 44.57 46.91 47.80 48.36 48.45 49.12 49.34 49.81 49.95 50.04 49.38 48.54 47.81 47.12 46.36 45.68 44.97 44.53 44.77
35.09 30.68 31.33 36.18 32.76 33.08 34.79 31.88 32.28 29.85 26.19 20.89 19.96 24.11 31.71 34.26 35.53 36.40 37.00 38.40 38.91 39.93 40.45 41.33 43.29 44.80 46.82 47.51 47.92 47.81 48.30 48.70 48.44 49.00 48.41 48.04 47.00 47.11 46.12 45.38 44.64 44.24 44.03 43.41
35.62 31.51 26.39 29.91 37.00 39.23 37.21 34.28 32.88 23.01 22.95 22.04 22.32 24.70 35.82 35.39 37.33 38.79 38.60 40.12 40.63 41.80 41.36 41.57 41.95 44.75 45.86 46.54 46.54 46.88 47.48 48.19 48.56 47.85 46.67 45.63 46.22 45.18 44.53 44.08 43.75 43.34 42.56 42.75
35.76 28.13 26.63 26.50 31.62 35.25 33.42 35.46 36.66 32.72 28.25 21.99 20.21 24.47 36.69 35.64 36.51 39.06 38.62 39.38 41.39 41.87 41.42 41.96 42.78 43.88 44.49 44.94 45.54 46.03 46.31 46.73 47.39 46.36 45.05 43.91 42.64 43.02 43.34 43.06 42.62 42.70 42.25 41.37
39.61 31.26 25.68 20.48 25.80 30.85 29.20 33.18 35.18 31.71 22.66 27.28 26.51 30.17 33.96 35.53 36.31 36.81 36.65 38.73 39.24 41.29 42.37 41.93 42.05 43.06 43.95 44.64 45.14 45.26 45.12 45.18 44.44 44.97 44.52 43.12 42.90 42.73 42.94 41.42 42.32 41.48 40.89 40.68
36.00 27.22 24.95 30.34 32.52 31.85 31.49 32.43 32.83 27.90 31.28 26.67 31.00 31.44 35.32 36.70 36.45 38.37 40.25 40.04 40.16 40.49 41.78 42.50 42.50 42.73 43.19 43.71 44.03 44.38 44.13 43.63 43.28 42.89 42.53 42.16 42.39 42.73 42.44 41.82 40.38 40.22 40.23 39.75
35.35 26.64 27.07 25.82 32.00 31.45 29.63 31.78 32.07 32.62 32.70 32.66 33.31 32.79 40.15 39.21 38.27 39.37 39.65 40.05 39.97 39.79 40.96 42.92 43.13 42.98 42.98 42.74 43.59 43.75 43.20 42.70 42.81 41.99 41.65 41.80 41.52 40.89 40.41 39.76 39.09 38.62 37.97 37.21
33.39 29.45 25.47 21.90 29.01 28.13 24.56 29.70 30.87 31.48 32.83 33.48 30.00 35.69 38.29 37.55 39.19 39.11 38.36 39.31 39.79 40.43 40.80 41.41 41.75 43.75 43.85 43.59 44.32 43.24 42.86 42.27 41.76 41.60 41.20 41.32 40.98 40.09 39.36 38.75 37.87 36.90 36.08 36.04
32.30 31.10 28.28 20.89 24.12 14.78 28.63 33.99 33.98 33.02 34.54 34.62 34.86 36.57 37.96 37.54 38.08 38.26 38.46 38.15 38.92 39.88 40.67 41.09 41.25 41.80 44.13 44.90 44.08 43.73 42.58 42.53 41.91 41.14 41.13 41.13 40.59 39.50 38.45 37.50 36.76 35.70 35.00 35.01
33.66 30.99 26.40 22.62 20.15 25.22 28.62 31.51 31.25 28.98 30.12 34.89 33.30 36.85 38.57 39.31 37.73 36.43 40.00 39.58 39.19 39.48 40.40 40.39 40.54 40.65 41.30 43.74 45.23 43.78 42.30 42.10 41.40 40.91 40.69 40.80 40.44 38.83 37.65 36.48 35.57 34.88 34.80 33.73
33.37 31.66 27.34 23.40 21.05 19.89 27.65 33.87 35.35 33.01 24.63 34.97 36.31 36.70 37.29 37.31 31.27 34.44 38.80 39.75 40.23 40.33 39.89 39.69 40.26 41.30 41.87 42.69 43.92 43.50 42.33 41.38 41.25 40.98 40.70 40.73 39.99 38.94 37.35 36.08 35.41 35.49 36.61 32.57
27.28 27.23 24.04 24.38 23.05 26.37 32.64 35.06 35.42 22.89 25.75 35.66 37.21 38.10 37.77 35.51 36.66 39.18 39.29 39.27 39.89 39.77 39.80 40.60 40.16 39.66 40.10 41.39 43.25 43.08 41.80 41.28 42.51 41.64 40.74 40.23 39.81 38.50 37.42 35.64 34.97 34.82 34.83 34.21
26.90 24.00 24.07 24.49 21.13 19.08 34.31 33.47 28.14 31.96 36.19 37.41 37.33 38.50 38.71 39.36 40.34 40.80 40.55 39.64 40.12 39.27 39.53 40.40 39.13 39.09 39.81 40.65 42.96 41.93 41.12 41.70 42.28 40.84 40.69 39.64 38.58 39.00 37.24 35.47 34.02 34.90 35.30 34.29
25.19 28.68 26.15 28.21 27.43 34.53 34.95 33.39 36.37 37.07 35.56 35.99 36.00 37.98 38.75 38.84 39.41 40.98 40.56 40.51 39.86 39.11 39.06 39.99 39.08 39.26 39.40 40.45 41.73 40.72 41.09 42.02 41.52 40.93 39.56 38.66 38.30 37.90 36.73 34.92 33.52 34.67 34.51 33.73
29.39 32.51 28.75 30.37 30.93 33.39 36.60 37.57 37.84 38.38 38.39 39.44 39.30 39.38 39.09 38.59 40.12 39.80 40.64 40.49 39.33 39.18 38.61 39.05 38.22 37.81 37.97 39.50 41.07 42.00 41.36 41.40 40.95 39.90 38.69 38.16 37.63 36.77 36.26 35.96 35.45 34.73 33.69 33.21
30.65 31.33 30.36 30.02 32.63 34.73 35.72 36.48 36.80 37.53 38.93 39.33 40.52 40.98 41.19 41.14 40.33 40.74 41.29 40.76 39.72 39.38 38.97 39.11 38.62 39.35 38.65 38.26 39.60 40.19 40.03 40.08 39.10 38.46 37.80 37.09 36.97 37.03 35.68 35.63 35.43 34.89 35.24 35.11
31.91 31.83 28.55 27.12 34.27 33.67 33.86 36.22 37.94 35.71 35.97 37.98 38.90 39.96 41.15 41.55 41.10 41.36 41.77 41.32 40.53 40.18 40.35 39.14 38.68 39.01 39.36 39.50 39.66 40.16 40.22 39.56 38.72 37.60 37.74 37.40 36.81 37.14 36.24 35.38 34.76 38.24 37.68 38.03

GFSCGP_sfc_wetblb_093.txt.gz
Wetbulb
37.99 34.17 30.49 33.22 37.15 35.46 35.88 34.85 35.37 38.90 43.75 40.85 39.59 41.21 44.05 46.47 46.29 43.90 45.12 44.99 47.16 51.03 53.74 54.85 60.06 62.12 63.07 63.43 64.01 64.54 65.38 66.40 66.79 66.02 65.37 64.90 65.20 65.81 65.32 65.89 66.04 65.69 64.17 64.03
35.12 31.20 35.59 37.75 36.76 36.52 36.84 34.88 34.66 40.57 43.42 41.33 40.27 39.10 44.81 46.96 45.66 44.89 45.18 45.36 45.72 47.89 49.29 49.98 51.40 58.77 61.28 63.53 64.20 64.23 65.57 65.54 66.19 65.94 66.12 65.77 65.33 64.48 65.38 66.09 65.97 65.67 65.17 65.49
32.72 35.64 38.53 35.98 35.28 36.40 35.60 35.92 37.30 37.49 41.54 41.49 39.64 36.71 39.24 44.62 46.79 45.94 46.81 46.34 46.31 47.19 48.09 49.39 47.72 52.03 55.61 60.05 62.31 64.15 64.22 65.27 65.19 65.89 65.12 63.48 63.63 63.48 62.80 63.38 63.61 64.17 64.91 64.40
37.23 39.91 36.76 34.88 37.02 37.46 33.37 40.39 40.97 39.27 37.63 34.34 40.59 29.49 37.48 40.79 42.44 43.80 43.87 44.38 44.75 46.04 47.35 48.32 48.83 47.72 49.11 52.72 60.37 62.85 63.94 64.06 64.73 63.85 63.49 62.84 61.97 61.23 61.96 61.70 60.84 60.93 61.54 61.01
35.13 37.92 35.68 35.87 38.06 39.33 36.33 42.04 39.96 39.02 36.25 35.55 36.79 31.83 35.21 37.74 38.58 40.28 41.38 42.87 44.51 45.21 46.23 47.84 48.64 49.31 49.61 49.36 51.22 59.73 61.00 62.05 63.07 63.45 64.04 63.13 61.55 61.65 60.43 60.15 59.59 57.32 57.10 56.97
38.16 41.77 40.34 38.88 41.03 41.69 42.71 39.70 38.62 38.06 35.70 27.80 34.87 32.97 32.88 32.24 37.08 40.44 42.94 41.69 44.18 45.53 45.75 46.58 48.14 48.99 48.43 47.39 49.51 54.53 58.51 59.79 59.65 61.33 61.85 61.51 61.17 59.12 58.47 58.31 58.10 56.50 55.44 53.88
35.91 36.34 40.23 40.97 37.88 41.61 39.89 35.43 28.96 26.51 26.74 26.39 34.34 32.04 33.40 38.00 39.94 38.68 41.74 41.54 42.78 43.98 44.39 44.94 45.23 45.94 47.04 47.52 49.46 51.64 54.59 56.53 55.88 55.82 58.70 59.27 59.23 57.90 58.32 57.75 56.35 54.57 53.95 53.38
28.91 23.33 37.27 40.11 37.92 36.56 35.14 33.49 27.37 22.40 21.52 22.71 32.73 29.13 33.47 37.55 39.10 39.57 41.37 40.95 41.11 41.73 41.82 42.99 44.37 45.11 45.28 46.72 48.54 50.40 51.37 52.09 54.21 53.43 54.13 54.71 55.76 56.22 56.07 55.84 55.13 54.62 54.14 51.58
26.16 30.10 39.19 40.94 40.81 39.61 34.53 32.00 33.43 26.57 25.26 22.17 26.91 29.51 36.34 38.48 38.61 38.56 39.22 40.02 39.82 40.58 40.83 41.99 44.26 43.69 44.98 45.70 47.66 48.93 49.72 50.26 50.98 51.40 51.58 52.12 53.57 53.14 53.00 52.49 52.64 51.28 49.34 47.81
30.55 27.31 34.85 39.48 41.23 41.03 35.46 36.88 28.45 28.12 23.08 18.12 22.12 25.09 27.55 33.15 36.20 37.84 37.68 37.13 37.58 38.44 40.44 41.17 42.92 43.55 44.28 45.71 47.06 47.61 48.43 48.87 49.29 49.72 49.18 49.26 49.17 50.71 49.81 48.66 46.70 46.25 45.52 45.38
33.23 29.05 29.79 35.33 32.97 33.60 35.30 31.68 30.76 29.37 25.01 20.48 20.09 24.49 31.16 33.81 35.54 34.76 35.61 38.41 38.17 38.70 39.95 40.29 41.52 43.87 44.87 46.20 47.11 47.38 47.70 48.20 48.09 47.85 46.90 46.34 46.23 46.39 46.96 47.52 46.88 45.74 44.64 44.07
34.00 30.48 23.14 28.60 35.87 37.87 35.88 33.20 30.01 22.54 22.62 20.58 21.57 24.66 33.63 33.65 34.58 37.08 37.71 40.44 40.54 41.05 41.04 40.65 41.11 42.74 44.02 44.73 45.55 46.46 46.92 47.43 47.08 46.63 46.19 45.05 44.71 45.29 45.27 44.12 45.36 45.55 44.56 44.12
34.07 27.20 18.24 23.60 29.04 34.06 32.52 33.82 33.49 30.25 27.37 21.36 19.41 24.03 35.39 35.96 36.87 37.34 36.68 38.53 40.16 40.78 41.33 41.29 41.75 42.68 43.00 43.50 44.54 45.28 45.90 46.41 45.78 45.10 44.53 43.88 43.87 43.35 42.18 41.84 41.90 42.99 42.21 41.83
38.40 29.21 25.22 19.80 24.93 29.66 28.75 31.20 33.58 30.03 20.61 25.04 24.83 28.19 32.63 33.54 34.29 35.71 36.61 38.14 39.66 39.67 40.94 41.04 41.01 41.84 43.07 43.35 44.28 44.68 44.87 45.33 44.64 44.16 43.54 43.43 43.44 43.29 41.64 41.88 42.58 41.42 41.96 41.01
34.67 26.81 24.27 29.37 30.90 30.93 30.80 31.00 31.79 25.46 30.24 26.54 30.99 30.42 34.08 36.00 36.15 36.62 38.02 39.35 39.36 39.47 39.64 40.65 41.31 41.25 41.91 42.81 43.26 44.02 44.30 43.99 43.39 42.93 42.48 42.15 42.68 43.17 43.00 42.24 41.44 41.17 40.90 40.22
34.14 25.68 26.05 25.94 30.71 29.80 29.01 30.35 30.70 31.16 31.57 31.77 31.72 31.58 39.84 40.17 37.48 37.80 38.70 39.46 39.33 39.81 39.95 40.05 41.41 41.93 42.15 42.11 43.28 43.68 43.43 43.11 42.74 42.18 41.82 41.55 41.26 40.62 39.99 39.39 38.68 38.20 37.43 37.53
32.15 28.37 25.05 21.57 27.45 27.45 22.98 27.84 28.93 30.02 31.33 31.82 28.23 33.24 35.54 36.23 37.90 38.32 39.00 39.40 39.44 39.62 40.04 40.19 40.09 40.13 40.61 42.35 43.74 43.29 43.02 42.40 41.64 41.57 41.25 41.03 40.42 39.60 38.85 38.25 37.42 36.67 35.75 35.49
31.75 29.52 27.51 20.43 23.83 13.93 27.54 31.65 32.41 31.62 32.56 33.59 33.24 34.06 34.79 35.69 37.26 38.41 38.60 38.23 38.88 39.26 39.93 40.42 40.12 40.18 40.70 41.39 43.21 43.81 42.73 42.20 41.52 40.79 40.59 40.41 39.90 38.92 38.01 37.10 36.38 35.27 34.54 34.57
33.22 29.88 25.55 22.13 19.52 24.09 27.25 30.27 29.82 28.01 29.18 33.82 33.58 35.75 37.01 38.21 36.72 35.54 39.35 39.18 39.20 39.18 39.71 39.83 40.01 40.02 40.27 40.86 42.30 42.75 41.69 42.10 41.58 41.14 40.68 40.44 39.98 38.37 37.36 36.22 35.20 33.99 33.94 33.40
32.03 30.77 28.20 23.14 20.19 18.82 25.94 32.92 34.20 31.56 24.35 32.69 35.48 35.62 36.00 36.57 30.49 32.74 37.57 39.17 39.88 40.00 39.85 39.44 39.35 39.50 39.69 41.33 41.81 42.07 41.49 41.24 41.30 41.39 41.01 40.77 40.19 39.05 37.64 36.49 35.08 34.42 33.97 33.06
26.67 26.59 23.78 24.18 22.41 25.59 31.21 33.79 33.96 22.15 24.52 33.49 35.04 34.66 35.06 33.91 35.76 37.74 39.34 39.23 39.34 39.88 39.85 39.68 39.71 38.78 39.11 39.48 40.10 41.16 40.92 41.04 43.02 41.58 40.89 40.45 39.96 39.08 38.37 35.87 34.45 34.05 32.63 35.04
26.12 23.34 23.41 23.44 20.68 18.77 32.75 32.51 26.42 30.74 34.32 35.00 35.46 35.92 35.81 36.55 37.91 38.64 39.67 40.40 40.20 39.36 39.53 39.76 39.01 38.78 39.14 39.38 39.33 40.16 40.05 41.66 41.00 41.83 40.77 39.61 38.87 39.21 37.76 35.93 33.69 33.52 33.65 35.20
25.27 28.12 26.04 27.02 26.36 33.65 34.30 32.76 36.18 36.15 35.26 35.55 35.74 36.99 37.58 37.59 37.66 38.48 38.86 40.14 40.87 40.93 39.36 39.37 38.69 38.30 38.83 39.17 39.72 39.38 38.99 40.17 40.81 41.41 40.60 40.00 39.42 38.86 37.42 35.72 33.75 34.41 35.10 34.96
27.52 30.64 27.96 28.97 29.69 32.16 34.51 35.17 36.10 36.34 35.47 36.95 38.06 38.22 38.87 38.21 39.67 40.02 40.85 41.46 41.68 42.31 40.17 38.92 38.55 37.71 37.32 38.21 39.61 40.10 39.64 40.40 40.60 40.80 40.04 39.41 38.85 37.73 37.09 36.13 35.15 33.86 33.36 34.16
29.66 30.20 29.37 28.73 29.74 32.16 33.31 33.32 33.61 34.60 34.70 34.48 35.28 36.64 36.44 37.07 37.55 39.22 40.41 41.33 41.99 42.38 42.39 38.90 38.58 38.32 38.41 38.66 38.13 38.40 40.66 41.18 40.95 40.58 39.89 39.05 38.65 37.93 36.56 36.60 36.16 35.74 36.21 36.27
30.73 30.40 27.61 26.30 32.13 32.41 32.21 33.70 34.95 32.60 32.45 33.93 35.34 35.25 36.24 36.41 36.25 37.85 39.24 41.19 41.69 42.42 42.78 39.98 39.90 38.93 39.37 39.21 40.16 39.94 40.28 40.51 39.66 38.62 38.31 37.95 37.65 36.74 36.36 35.85 35.35 38.68 38.33 38.80

GFSCGP_sfc_wetblb_096.txt.gz
Wetbulb
37.64 31.86 29.79 31.19 34.31 33.41 32.69 32.77 33.70 38.27 43.10 39.81 38.46 37.69 40.62 45.78 44.88 45.03 45.06 45.06 47.19 50.27 54.51 59.05 61.43 63.34 63.79 64.20 62.75 64.67 64.29 65.46 66.46 65.64 65.43 65.40 64.78 65.71 65.82 65.44 64.83 64.13 63.45 62.99
34.29 30.37 35.22 36.19 37.33 35.57 33.94 33.60 35.60 40.20 41.68 39.94 39.07 37.98 41.02 43.19 44.96 45.46 45.86 45.32 45.68 47.10 49.19 50.20 55.07 60.30 62.61 63.12 64.17 64.65 64.85 64.64 65.71 65.76 65.60 64.95 65.01 64.80 64.98 65.46 65.40 65.08 64.16 64.09
31.05 34.30 37.81 36.31 35.54 35.31 33.59 34.32 36.56 36.59 39.64 41.79 39.32 36.39 38.60 41.73 44.78 45.25 46.07 47.01 45.82 46.50 47.19 48.02 49.46 56.43 58.97 61.25 63.58 64.17 64.52 64.69 65.03 65.20 64.86 63.45 63.38 63.15 63.20 63.66 64.09 64.45 64.66 64.51
35.43 38.21 35.44 34.19 35.63 37.19 31.97 38.10 39.12 37.96 36.62 32.71 39.87 28.59 36.70 39.86 41.09 42.51 42.95 43.82 45.55 46.13 46.71 47.78 48.31 48.45 53.76 57.03 60.55 62.66 63.35 64.37 65.03 64.95 64.65 63.51 62.91 62.26 63.17 63.13 62.59 61.59 61.98 61.73
34.76 35.95 35.05 34.23 37.45 37.90 34.85 40.82 39.16 38.14 36.18 35.78 35.96 32.31 34.36 38.44 37.67 39.15 40.59 42.23 44.35 45.65 46.72 48.09 48.49 49.22 49.85 49.55 52.61 59.48 61.44 61.92 62.62 63.41 64.19 63.49 62.60 63.19 60.99 60.93 60.36 59.74 59.62 59.51
36.75 36.61 37.30 38.83 40.37 40.65 41.13 37.92 36.90 36.83 34.03 26.65 34.14 31.87 32.21 33.95 37.35 39.19 40.49 41.32 42.99 44.82 45.53 46.97 48.31 48.22 48.84 48.19 48.75 51.25 58.11 60.21 60.73 61.45 62.68 62.32 61.61 59.99 59.45 59.19 58.27 57.44 56.49 56.32
35.34 37.25 40.94 40.66 36.91 40.89 38.39 31.80 24.57 23.94 25.33 23.88 33.79 30.92 33.97 37.91 39.38 38.30 39.55 40.23 41.09 42.85 44.46 45.26 45.76 46.44 47.43 47.77 47.77 49.49 53.41 56.88 58.38 58.00 60.82 61.35 59.88 59.21 58.73 59.08 57.51 55.35 54.83 54.49
20.88 26.11 37.08 40.62 38.59 36.89 35.73 32.47 24.23 21.58 22.49 23.66 32.98 28.46 31.96 37.20 38.32 38.50 38.64 39.20 40.00 40.74 41.37 43.15 44.53 44.73 45.46 46.77 46.91 48.40 51.26 53.81 55.17 53.86 55.25 55.93 56.66 56.77 56.77 56.80 56.48 55.37 54.27 52.61
25.74 30.96 38.93 40.08 41.07 39.33 35.86 27.49 31.85 25.06 24.90 22.72 27.81 30.49 35.21 37.36 37.48 37.72 37.38 37.68 37.89 39.01 39.97 40.67 42.36 44.28 43.29 44.03 45.78 47.28 49.69 51.41 53.26 53.25 53.28 52.93 53.07 53.47 53.66 54.65 55.17 54.87 53.30 51.49
29.60 29.96 35.62 39.36 40.86 39.72 35.91 35.08 26.31 25.21 18.97 17.51 21.78 23.91 27.28 31.89 35.77 37.23 37.14 36.81 37.52 38.25 38.95 39.79 40.30 42.73 43.39 44.69 45.67 47.13 48.99 49.80 49.87 50.59 50.31 50.74 51.02 51.22 50.91 50.85 50.24 50.53 49.24 47.78
31.54 29.01 30.98 33.76 33.19 32.96 32.80 31.20 29.96 28.45 24.63 21.10 19.38 23.96 30.94 32.20 34.11 35.97 35.78 37.44 37.71 38.22 38.93 39.46 39.78 41.95 43.84 44.60 45.26 46.06 47.27 48.06 48.28 48.32 47.42 47.19 47.19 47.46 47.49 47.70 47.09 46.77 46.11 45.63
33.63 29.20 26.84 28.38 35.46 36.94 35.27 32.36 28.89 23.24 22.95 20.19 21.09 24.18 32.36 32.56 33.98 36.78 37.03 38.48 38.16 39.14 40.26 40.20 40.80 41.84 42.99 43.43 44.35 45.26 46.20 47.01 47.21 46.98 46.09 45.33 45.04 44.58 44.06 43.35 43.37 43.69 43.06 43.44
32.78 26.50 17.96 23.25 28.66 32.93 31.08 32.81 31.27 28.67 25.96 20.51 18.10 23.72 34.80 33.05 35.44 36.39 36.75 38.62 39.14 39.33 39.97 40.35 40.33 40.54 41.29 42.28 43.67 44.59 45.33 46.04 46.04 45.60 44.71 43.70 43.16 42.68 42.17 42.08 42.31 42.35 41.57 41.23
37.35 28.11 24.52 19.09 24.58 28.85 28.61 31.21 31.86 28.28 20.34 23.95 23.32 25.51 31.03 33.94 34.71 35.76 36.49 37.04 38.26 39.13 39.62 39.46 40.12 40.38 40.75 41.71 42.54 43.54 43.88 44.76 44.56 44.34 43.57 42.72 41.91 41.84 41.72 42.33 42.36 41.53 40.69 40.25
33.36 26.20 23.53 28.53 30.12 30.37 30.81 31.03 30.06 24.43 27.55 24.34 27.45 28.48 32.61 34.69 35.47 36.64 36.95 37.87 38.89 40.06 40.12 39.59 39.21 40.11 40.76 41.45 42.31 42.69 43.13 43.55 43.22 42.97 42.46 42.05 41.94 41.88 41.17 40.98 40.62 41.06 41.16 39.65
33.12 25.17 25.29 25.38 29.14 29.82 28.53 29.44 29.38 30.15 30.71 30.39 29.83 30.38 36.25 36.66 36.73 37.33 37.62 38.33 38.64 38.85 39.50 39.52 39.59 39.60 40.56 41.01 41.69 42.69 43.12 43.05 42.67 42.18 41.88 41.66 41.18 40.59 40.11 39.66 39.43 40.05 38.67 37.77
30.72 27.69 24.44 21.00 26.52 26.08 22.26 27.26 27.95 29.16 29.77 30.49 27.30 31.29 33.70 33.79 35.44 36.18 37.33 38.44 38.24 38.64 39.61 39.98 39.80 39.56 39.61 40.21 41.17 41.71 42.82 42.59 42.00 41.58 41.45 41.01 40.40 39.53 38.74 38.00 37.30 36.54 35.81 35.65
30.60 27.76 26.85 19.91 22.72 13.02 26.21 30.36 31.05 30.32 31.27 32.00 32.52 33.32 34.46 34.76 36.48 37.10 37.88 37.81 38.66 39.30 39.93 40.57 40.62 40.65 41.10 41.16 40.88 41.41 42.04 41.63 41.54 40.78 40.80 40.37 39.76 38.71 37.60 36.79 36.24 35.13 34.34 34.53
32.28 28.66 25.04 21.18 18.32 22.65 26.05 29.14 29.14 27.96 28.08 31.97 33.26 34.32 35.11 36.36 35.61 34.81 37.18 38.17 38.24 38.79 39.62 39.87 40.52 40.83 40.31 40.51 41.34 40.81 41.10 40.73 40.74 40.99 40.95 40.58 40.08 38.41 37.33 36.33 35.15 33.73 33.83 33.27
31.14 29.93 26.06 22.85 19.35 17.17 24.38 31.51 33.64 31.45 22.94 31.95 33.34 33.10 33.23 34.17 28.94 32.03 36.61 38.36 39.13 40.38 40.04 39.91 40.17 39.77 39.42 41.01 40.29 40.25 40.64 39.49 40.18 41.90 41.80 41.04 40.25 39.20 37.97 36.90 35.41 33.90 33.22 33.15
25.97 25.61 23.92 23.96 21.53 24.45 29.53 32.75 33.44 21.57 23.44 32.82 33.40 33.58 33.45 31.21 33.80 36.84 37.95 37.90 38.56 39.24 39.62 39.82 39.10 38.65 39.67 39.79 39.03 38.81 39.78 39.59 42.36 41.87 40.50 40.42 40.10 39.14 38.39 36.83 34.39 33.81 31.96 33.32
25.53 22.67 22.65 22.77 19.87 17.66 31.89 30.84 25.74 30.16 32.68 34.39 33.82 34.45 34.67 36.03 37.36 37.97 38.71 39.21 39.43 39.03 39.12 40.22 38.42 38.86 39.73 39.37 38.67 38.90 38.56 41.47 41.17 40.69 40.27 39.73 39.01 39.28 37.59 35.94 33.57 33.15 33.07 32.54
24.43 26.86 25.24 26.12 25.72 32.20 32.74 33.35 34.92 34.88 33.44 33.39 33.34 35.07 35.13 34.75 35.07 35.83 36.40 38.16 39.56 40.00 40.52 40.32 39.27 39.02 39.10 38.98 38.82 38.35 39.89 39.63 39.57 40.03 40.65 39.79 38.54 38.21 36.92 35.27 33.57 33.19 32.64 33.01
26.18 29.16 27.22 28.09 28.27 31.50 31.77 34.21 34.11 33.45 32.13 33.81 33.94 33.43 34.30 33.75 34.30 34.58 35.28 35.96 36.80 38.06 39.54 41.05 39.23 37.35 38.16 38.50 38.62 38.77 39.31 39.23 39.24 39.55 40.56 39.99 39.33 38.30 37.86 37.27 36.28 34.91 34.48 33.20
28.85 29.72 28.04 27.68 28.90 30.32 31.91 32.15 30.84 31.92 32.23 32.13 32.94 33.56 33.96 34.38 34.46 35.28 35.62 36.87 38.06 38.95 41.00 41.79 41.55 41.28 38.85 38.78 38.07 38.29 39.26 39.02 38.06 37.53 39.27 39.23 39.01 38.06 36.93 36.94 36.54 36.26 35.63 35.92
29.91 29.51 27.65 27.04 30.96 30.75 30.54 30.61 31.86 31.17 31.08 32.11 33.15 34.21 35.90 34.93 33.94 34.87 35.48 37.26 38.05 39.41 41.38 40.98 41.50 41.97 40.13 40.11 39.01 39.33 40.30 40.99 40.52 40.21 39.66 39.35 39.21 38.00 37.61 36.68 36.18 39.16 38.56 39.56

GFSCGP_sfc_wetblb_099.txt.gz
Wetbulb
37.57 31.39 28.99 30.52 32.86 33.14 33.72 31.46 31.78 37.37 42.35 39.51 38.40 37.71 39.89 42.64 43.53 44.83 48.23 49.56 52.49 56.92 59.73 59.60 61.14 63.08 62.71 62.63 61.93 62.63 63.00 63.12 64.98 66.06 65.54 65.45 64.53 66.00 66.65 66.11 66.16 66.21 66.07 65.29
32.91 30.29 35.33 35.62 34.64 33.54 31.33 31.14 33.91 38.80 41.83 40.25 38.77 38.39 41.30 42.60 42.93 45.17 47.22 49.35 49.25 51.50 53.50 59.09 61.26 62.02 62.56 61.79 61.51 61.83 62.38 63.24 64.00 65.62 66.18 66.19 65.42 66.19 66.56 66.82 67.02 66.72 65.57 64.35
30.16 33.65 37.95 35.53 34.04 32.37 29.89 32.08 34.88 35.08 39.83 40.99 38.88 36.76 39.17 42.80 44.59 45.42 47.70 48.81 49.64 49.95 49.91 51.27 57.29 60.65 61.73 61.17 61.15 61.70 63.08 63.50 64.58 66.10 65.80 64.67 65.04 64.90 65.15 65.62 65.83 65.84 65.65 65.60
33.59 37.20 36.65 34.14 32.77 35.28 30.72 37.69 38.58 37.64 36.76 32.77 39.90 29.25 36.95 40.49 41.89 43.49 44.97 46.20 47.75 49.12 49.76 50.09 51.38 53.21 58.36 60.80 63.14 62.72 63.83 63.93 64.72 64.82 64.93 64.24 62.80 62.06 63.48 64.64 64.31 63.45 64.07 62.94
34.20 35.96 33.33 34.44 35.11 38.51 34.29 40.36 38.93 38.56 36.43 35.73 35.40 32.01 35.29 38.83 39.57 42.01 43.75 45.56 46.86 47.92 49.52 50.60 50.89 51.81 53.53 54.53 59.23 61.76 62.65 63.28 64.69 64.08 64.86 64.22 62.98 63.52 63.80 63.95 61.63 60.18 59.57 59.53
34.31 38.50 38.04 38.46 40.45 39.66 41.31 38.26 37.83 37.47 34.91 28.13 34.04 32.44 32.63 36.49 38.95 40.59 43.13 45.54 46.73 48.16 48.47 49.01 50.21 50.95 51.25 52.06 52.04 55.02 60.71 61.93 62.69 63.81 64.08 63.48 62.89 62.96 61.77 61.43 60.80 58.50 58.22 57.46
34.96 35.57 40.66 41.32 38.24 40.40 37.74 32.75 26.49 24.80 25.65 25.70 32.18 32.25 34.01 38.55 41.10 40.95 42.14 42.32 43.71 45.84 46.89 47.73 48.43 49.56 50.40 50.78 50.34 51.20 53.89 56.90 60.87 62.45 62.77 63.13 62.60 61.88 61.38 60.78 58.99 56.95 55.77 54.77
28.72 29.58 36.88 40.92 38.71 36.26 35.41 32.34 25.59 21.09 23.52 25.54 33.68 29.26 33.50 37.99 40.06 39.91 40.47 40.87 42.23 43.79 45.10 46.13 46.48 46.63 47.70 48.94 49.46 49.61 51.84 53.81 58.18 59.09 60.39 61.63 61.78 60.76 60.36 60.46 58.86 58.00 56.84 55.41
30.39 31.30 39.62 40.87 41.36 39.79 34.71 29.23 33.42 26.34 26.76 26.50 27.67 32.44 36.35 38.24 38.46 38.74 38.32 39.19 39.72 41.41 43.07 43.72 45.05 45.91 46.60 46.85 47.17 48.55 49.95 52.56 56.12 56.14 56.73 57.19 57.83 58.58 58.86 58.45 58.24 57.05 55.46 54.26
32.23 31.25 36.56 38.88 41.10 40.77 36.95 36.15 27.95 27.67 21.04 19.60 25.16 26.72 28.66 33.03 34.86 37.46 38.17 38.28 39.24 40.25 41.56 42.57 43.09 45.15 46.50 47.12 48.08 48.85 49.96 51.83 53.98 55.02 54.78 54.51 54.96 55.53 55.98 56.74 55.53 55.02 54.07 52.92
31.97 31.24 32.23 36.05 34.06 33.86 34.73 32.49 29.95 28.91 25.77 23.65 21.15 26.13 33.59 33.23 34.72 36.98 38.41 39.70 40.37 41.18 41.61 42.32 43.18 44.16 45.84 47.29 47.96 48.20 49.36 50.70 51.13 51.61 51.54 51.90 52.27 52.72 52.72 53.74 53.03 52.18 51.05 50.13
33.59 30.09 28.04 30.69 35.25 37.02 35.50 33.21 29.25 25.21 24.39 21.82 24.43 27.10 34.80 35.78 37.35 38.63 39.53 40.29 40.78 41.80 42.59 42.97 43.02 43.84 44.73 45.93 47.39 47.93 48.52 49.53 50.07 50.18 49.71 49.51 49.49 49.65 49.25 48.44 47.21 47.61 46.38 46.64
33.61 26.99 20.31 25.04 29.52 33.26 32.56 33.71 31.01 29.11 27.67 23.00 22.82 27.09 35.52 36.60 37.55 37.94 38.77 40.70 41.19 41.21 42.19 42.35 43.22 43.33 43.70 44.96 46.15 47.07 47.78 48.43 48.79 48.45 47.91 47.03 46.82 47.01 46.65 45.98 45.86 46.10 45.55 45.06
36.82 28.40 24.71 19.59 25.40 29.87 30.01 32.35 32.57 28.83 24.10 26.16 25.75 28.88 32.61 35.08 36.22 37.97 38.48 38.74 39.86 40.58 41.52 41.13 41.31 41.97 43.10 44.02 45.16 46.13 46.84 47.25 47.52 47.23 46.74 46.24 45.89 46.15 45.76 45.49 45.16 44.67 44.69 43.84
33.28 26.67 24.38 28.46 30.83 30.87 31.77 31.84 31.76 25.46 29.35 26.14 28.69 29.80 33.60 35.42 36.04 37.52 37.97 39.12 39.68 40.56 40.91 40.99 41.28 41.59 42.40 43.20 43.98 44.97 45.94 46.50 46.42 45.99 45.66 45.57 45.27 45.01 44.62 44.25 43.74 43.27 42.98 42.60
32.59 25.91 25.74 25.96 29.21 29.40 29.48 30.19 30.40 31.49 31.94 31.71 31.65 31.82 35.88 36.20 36.13 37.35 37.38 38.19 38.67 39.19 39.99 40.69 41.15 41.60 41.90 42.06 42.38 43.33 44.54 45.29 45.62 45.43 45.45 44.97 44.07 43.47 43.01 42.62 42.28 42.36 41.86 41.42
30.34 27.85 25.01 22.03 26.95 27.06 23.89 28.10 29.19 30.32 31.48 31.86 28.53 31.81 34.31 34.91 36.66 37.15 36.92 37.78 38.14 38.87 39.78 40.42 40.84 41.15 41.72 42.22 42.40 42.21 42.75 43.96 44.31 44.66 44.86 44.38 43.74 42.94 42.29 41.84 41.26 40.93 40.57 40.25
30.14 27.66 27.13 20.82 22.46 13.82 26.90 30.69 31.03 30.66 29.77 31.48 32.70 33.49 34.39 34.89 36.67 37.43 37.94 37.53 37.84 38.87 40.08 40.91 41.67 41.96 42.53 42.57 42.19 42.14 42.21 42.61 43.06 43.61 43.87 43.76 43.00 42.23 41.26 40.61 40.36 39.42 39.15 39.25
31.48 28.27 24.98 21.50 18.78 22.44 26.77 29.86 29.74 28.53 27.98 32.03 32.23 33.42 34.42 35.72 35.67 35.86 37.71 38.88 38.40 39.15 40.33 41.06 41.84 41.69 41.94 41.87 42.42 41.52 41.47 42.04 42.22 42.46 43.02 43.28 42.71 41.32 40.36 39.70 39.23 37.95 38.08 37.56
31.04 29.34 26.38 23.01 19.32 17.06 24.79 31.47 33.52 31.48 24.33 32.70 33.47 33.19 33.46 34.26 30.19 33.19 37.44 39.25 39.13 40.16 40.92 40.86 41.89 41.37 41.11 42.45 41.63 40.84 41.29 41.56 41.23 42.38 43.24 43.42 42.52 41.64 40.35 40.20 38.58 37.50 38.08 36.11
25.94 25.52 23.81 24.26 20.47 24.38 29.61 32.30 33.31 23.62 24.47 33.31 33.93 33.88 33.94 32.48 34.15 36.79 38.36 38.19 39.15 39.60 39.83 41.16 41.29 41.08 41.64 42.09 41.08 40.01 40.81 40.59 42.85 42.93 43.00 42.43 42.16 41.63 41.31 39.42 37.73 37.13 35.45 35.88
25.38 22.80 23.18 23.34 20.82 17.26 32.60 31.10 28.03 30.58 33.32 34.03 34.24 34.49 33.89 34.22 34.44 35.16 35.51 35.02 35.57 35.84 37.52 39.21 39.24 40.67 41.99 42.17 40.33 39.99 40.01 42.35 42.04 42.34 41.75 41.41 41.45 40.93 39.31 38.41 36.86 36.74 35.65 35.36
24.02 26.57 25.06 26.33 26.12 31.40 33.06 32.66 34.48 34.65 32.63 33.71 32.81 33.07 33.01 32.36 33.08 33.63 33.83 35.04 36.10 36.94 37.56 38.87 38.68 38.74 40.78 41.76 40.55 39.54 40.83 41.38 41.11 41.26 41.09 40.95 40.17 39.90 39.06 37.81 36.71 35.97 36.16 35.98
26.02 28.60 27.20 27.87 27.98 31.71 32.82 33.61 34.08 34.47 33.13 33.02 32.70 32.29 32.48 31.97 33.59 33.77 33.93 34.27 34.65 36.43 37.44 38.97 39.23 39.61 40.70 41.48 41.38 40.24 40.71 40.53 40.05 40.12 40.66 40.70 39.91 39.12 38.54 38.52 37.59 37.11 36.23 35.97
27.79 29.19 27.30 27.08 28.75 30.25 31.77 33.00 32.50 33.19 32.21 31.61 32.28 33.16 33.55 34.47 33.97 33.88 33.56 34.17 35.52 36.70 38.20 39.20 39.61 40.00 40.35 41.74 41.80 40.52 39.61 39.82 39.17 39.33 39.80 39.79 40.34 39.04 37.81 38.30 37.84 37.70 37.78 37.82
29.36 29.26 27.83 27.17 31.27 31.07 31.00 32.35 32.74 30.34 29.96 31.20 32.00 32.34 33.39 33.53 32.97 33.93 33.31 34.56 35.38 35.33 37.20 38.21 39.42 38.54 39.12 40.41 41.74 40.51 40.11 40.60 40.06 38.94 38.84 39.44 39.98 39.10 38.58 37.02 36.62 39.61 38.85 39.95

GFSCGP_sfc_wetblb_102.txt.gz
Wetbulb
37.33 32.75 30.31 32.93 35.68 35.23 33.31 32.37 32.31 37.34 40.69 40.47 39.42 40.40 42.21 45.41 45.37 45.01 47.11 48.39 51.31 54.94 59.61 61.36 58.67 62.70 62.95 63.25 62.67 62.19 62.57 63.81 65.46 66.64 66.58 66.61 66.33 66.61 66.74 66.96 67.67 67.73 67.95 68.00
33.77 30.30 35.41 36.86 36.15 34.77 32.99 32.46 33.54 38.78 41.89 41.25 40.11 40.26 43.61 45.13 44.29 45.13 46.65 48.29 50.90 54.49 57.62 57.39 57.04 58.74 61.24 61.51 61.95 62.04 62.73 62.92 63.63 65.63 66.58 66.90 66.91 67.50 68.28 68.30 68.04 67.77 68.02 67.39
30.79 33.26 36.16 36.10 32.86 31.83 32.56 32.19 34.91 36.19 40.52 42.62 41.11 38.39 40.92 44.60 45.57 46.88 48.09 48.95 50.49 53.08 55.86 55.41 56.02 58.63 61.00 60.72 61.40 61.83 62.18 63.01 63.18 64.19 66.11 66.83 67.76 67.63 67.51 67.22 67.95 68.45 67.83 67.67
34.09 36.78 35.58 34.92 32.64 34.32 30.26 36.52 38.53 38.40 38.55 34.24 40.98 31.22 38.41 41.98 42.92 45.05 46.27 48.11 50.13 50.75 51.99 54.06 57.80 59.16 59.88 61.05 62.75 62.38 62.34 63.02 62.74 64.06 65.02 63.67 62.60 63.57 64.97 66.22 66.68 65.87 66.62 66.16
34.14 34.45 33.68 32.48 34.55 37.27 35.18 39.07 39.89 39.90 37.65 37.92 36.69 34.47 36.09 39.72 40.27 43.25 45.59 47.85 49.88 51.53 51.76 52.09 53.39 56.31 59.96 62.24 62.51 62.78 62.62 62.92 63.53 63.73 64.11 62.84 62.42 63.81 64.75 64.42 64.34 63.01 63.93 63.90
35.40 39.98 38.83 38.90 40.37 39.66 41.98 38.63 38.94 39.52 37.50 30.87 33.96 33.59 34.13 36.90 39.16 42.49 45.48 47.98 48.57 49.94 51.00 52.04 52.64 53.30 54.33 57.26 60.73 62.70 62.97 62.78 64.05 64.03 64.03 63.65 63.41 63.29 63.23 63.47 63.41 61.27 60.65 60.41
34.82 37.00 40.13 42.30 38.50 41.66 40.61 36.72 30.04 28.19 29.46 27.33 35.90 34.44 33.66 39.77 42.86 42.04 43.17 44.14 46.56 49.26 50.86 51.24 51.65 52.47 53.60 53.85 54.24 55.57 60.29 62.62 63.78 64.11 64.57 64.39 64.48 63.81 63.21 63.52 63.59 60.46 58.12 57.35
32.91 30.83 37.34 41.50 39.80 37.70 38.23 36.25 31.43 23.72 25.92 29.14 36.33 31.37 33.35 40.96 42.41 42.45 41.93 43.72 46.47 46.96 49.01 48.81 49.85 50.89 51.20 51.47 52.90 53.69 53.98 55.58 59.26 62.46 63.63 63.91 64.85 63.74 64.38 63.98 62.46 60.40 58.80 57.08
33.81 32.64 39.80 41.42 42.77 41.96 37.65 33.89 35.77 31.77 33.55 31.77 32.39 34.62 39.23 41.98 41.81 42.63 42.80 44.87 45.21 46.26 47.35 47.55 49.01 49.78 50.44 50.88 50.68 52.00 53.26 54.54 56.94 59.69 62.19 63.61 62.78 61.82 62.09 62.70 62.14 61.08 59.43 57.73
36.08 32.67 37.40 39.16 43.00 42.63 39.73 38.93 33.30 34.71 27.50 25.05 29.76 32.17 33.21 37.70 39.00 42.46 42.77 43.95 45.44 46.76 47.29 47.78 48.21 48.79 50.37 51.44 51.93 51.87 52.20 53.40 55.77 58.70 60.11 60.52 61.08 62.05 62.35 60.96 60.14 58.97 58.63 56.61
37.82 37.28 35.06 38.54 37.53 36.40 38.50 36.60 34.85 34.38 32.69 30.20 27.58 30.84 38.62 38.44 39.54 41.94 43.67 44.51 45.49 46.63 47.65 48.25 49.00 49.34 50.04 52.10 52.62 52.26 52.70 53.35 54.89 57.34 58.00 58.11 58.51 58.69 59.76 59.30 58.69 58.06 56.78 55.32
38.48 37.44 33.01 34.94 39.17 39.74 39.19 36.55 35.12 33.68 29.32 30.14 34.06 31.95 41.32 41.57 42.83 44.10 44.30 45.21 46.55 47.18 47.71 48.20 48.95 49.63 50.09 50.57 51.88 52.40 52.72 53.31 54.63 55.19 54.67 55.02 55.92 56.56 56.86 56.92 55.90 54.98 54.20 54.52
38.52 34.50 31.64 32.79 36.37 38.51 37.28 37.88 37.20 35.06 35.68 29.70 32.08 32.07 41.47 42.98 43.14 44.40 44.23 45.30 46.52 47.00 47.74 48.10 48.19 47.89 48.73 49.51 50.32 51.52 52.48 52.81 53.07 53.26 53.57 53.21 53.29 54.08 54.93 54.86 53.12 52.44 51.82 52.83
40.35 34.93 32.01 30.15 31.56 35.08 33.78 36.11 37.53 35.38 35.37 33.15 34.34 34.26 38.58 40.59 40.92 42.33 43.29 44.77 45.93 46.52 46.47 46.81 47.55 48.02 48.46 48.62 48.98 50.04 51.07 52.03 52.04 51.86 51.91 52.23 52.49 52.85 52.95 52.39 51.75 51.92 51.97 50.53
39.91 32.81 32.18 33.72 34.64 35.12 35.41 35.42 36.22 34.08 34.44 33.85 34.14 35.34 36.67 39.03 40.29 41.49 43.39 44.13 44.22 44.46 45.19 45.82 46.47 47.50 48.08 48.26 48.60 48.92 49.39 50.14 51.02 51.12 51.12 51.27 51.67 51.66 51.20 50.73 50.66 50.53 49.74 49.00
38.85 33.53 32.70 32.17 34.54 35.03 33.10 34.35 34.91 35.52 35.68 36.07 36.31 35.03 39.98 41.78 42.84 41.22 41.83 42.29 42.38 43.31 44.46 45.36 46.14 46.89 47.37 47.90 48.08 48.33 48.68 48.55 48.82 49.65 50.52 51.32 50.16 49.70 49.49 49.50 48.99 48.48 48.11 47.64
36.48 35.18 33.00 29.25 32.27 32.46 30.91 32.29 33.94 34.75 36.11 35.91 33.33 35.74 39.66 39.54 39.63 40.27 41.62 42.11 42.03 42.77 43.73 44.60 45.56 46.39 47.09 47.45 47.80 47.53 48.20 48.57 48.07 48.36 49.25 50.21 49.90 48.92 48.62 48.39 47.71 46.91 46.44 46.54
36.02 34.56 34.10 30.81 30.69 24.26 32.25 36.02 35.46 34.25 34.31 36.53 36.82 37.11 38.14 38.62 40.70 41.90 42.09 41.73 41.06 41.40 42.02 43.29 44.57 45.35 46.40 47.22 47.62 48.04 47.93 47.71 47.33 47.22 47.77 48.75 49.29 48.58 48.09 47.00 46.66 46.67 46.21 45.22
38.58 36.00 31.52 29.50 28.53 29.32 32.06 34.77 34.64 33.60 33.07 36.47 36.45 37.20 37.93 39.12 40.42 41.34 41.80 41.91 40.07 40.50 41.34 41.93 43.23 43.90 44.92 45.45 46.49 46.57 46.44 47.10 46.89 46.44 47.12 47.77 48.40 48.24 47.73 45.79 45.52 45.74 44.98 44.85
36.92 37.50 35.03 30.62 25.60 24.07 32.59 36.89 38.69 37.73 31.51 37.28 37.07 36.22 36.17 37.14 35.09 38.91 39.97 39.30 39.35 40.02 40.31 40.26 41.18 42.44 43.41 44.14 45.15 44.80 44.75 45.32 45.73 46.46 46.63 47.25 47.89 47.95 47.73 46.49 45.62 45.14 44.61 42.77
33.47 34.06 31.33 31.19 29.12 31.37 36.25 37.65 38.73 29.40 31.57 37.79 37.31 36.31 35.41 33.50 35.79 37.50 38.37 38.31 39.16 39.32 39.58 40.73 41.00 40.74 41.69 42.82 43.41 42.85 43.67 44.03 46.15 46.79 46.63 46.17 46.54 46.44 47.64 47.07 46.24 44.02 42.84 41.45
31.97 31.09 31.22 30.86 28.41 25.71 38.05 36.59 33.58 37.18 38.43 37.56 37.32 35.80 34.59 35.26 35.77 36.38 37.03 37.24 37.89 37.58 38.51 39.69 39.45 40.38 42.17 43.19 42.73 42.15 42.77 45.09 45.80 46.25 45.56 45.55 45.65 45.48 45.07 45.74 44.07 42.27 40.41 38.33
30.79 34.36 33.55 33.85 34.19 36.78 39.47 38.31 39.25 39.30 37.47 37.00 35.62 35.25 34.93 34.50 35.02 35.52 36.28 36.70 36.95 37.27 37.35 37.85 37.90 39.20 40.83 41.94 42.44 41.67 43.86 44.79 44.94 45.08 44.62 45.29 45.36 44.83 44.64 43.39 41.91 40.60 39.79 38.90
34.38 35.07 34.27 33.21 36.07 37.22 38.43 38.84 38.74 38.19 36.89 36.40 35.39 35.09 35.15 34.03 35.25 35.76 36.20 36.48 36.76 37.37 36.69 38.19 37.68 37.70 38.20 40.24 41.04 40.77 41.93 44.31 44.27 43.37 43.76 45.01 44.10 43.51 43.04 42.82 41.83 41.18 39.33 38.68
36.48 35.27 35.02 34.71 35.98 36.02 38.02 39.26 38.62 37.04 36.19 34.32 34.84 34.97 35.03 34.96 34.67 35.12 34.95 34.61 34.58 34.62 34.79 35.60 35.90 37.28 37.34 38.27 38.83 39.55 40.88 42.29 42.57 42.63 43.15 43.65 43.05 42.41 41.18 41.63 41.31 41.62 41.01 41.23
36.02 36.49 34.61 35.27 39.72 39.19 37.91 39.72 37.84 35.62 33.88 34.14 34.23 34.34 34.96 34.75 33.97 34.13 33.72 34.23 33.45 33.06 34.09 34.65 36.30 36.15 35.93 37.10 37.07 39.62 41.54 42.59 41.22 41.79 42.19 42.14 41.49 41.81 40.50 39.58 39.40 41.41 41.72 41.63

GFSCGP_sfc_wetblb_105.txt.gz
Wetbulb
39.05 33.49 30.04 32.70 34.71 34.74 33.91 32.83 31.13 34.66 37.79 38.39 38.49 39.57 42.69 46.47 47.31 47.13 47.86 48.80 51.31 52.73 56.37 60.12 58.97 61.38 62.20 61.78 62.81 62.78 62.66 63.01 64.63 65.87 66.26 65.85 65.37 66.57 66.69 67.02 66.98 66.86 67.17 68.26
33.86 29.93 35.50 37.69 36.89 35.82 34.60 31.59 31.96 36.24 38.96 39.27 39.37 39.55 42.99 45.35 45.85 46.93 47.39 48.44 50.19 51.87 56.88 57.79 57.24 57.45 57.80 60.26 61.83 62.01 62.33 62.37 63.81 65.58 65.70 66.98 67.10 67.44 67.49 67.73 67.46 67.54 67.61 67.75
32.03 34.39 37.03 35.99 35.52 33.37 33.76 32.12 32.56 32.02 38.97 41.26 39.83 38.21 41.39 45.14 46.76 47.38 48.24 49.19 50.61 51.54 55.97 55.73 55.19 56.41 57.80 59.29 60.95 61.47 62.08 62.62 63.17 63.94 64.33 65.63 66.90 67.27 66.86 67.33 67.67 67.72 68.11 68.23
34.61 37.10 35.55 34.98 33.82 35.10 31.00 37.38 33.81 35.51 36.33 32.54 41.62 30.96 38.57 42.24 43.55 45.99 47.55 49.40 50.68 52.06 55.93 55.80 55.61 56.44 58.92 58.66 61.54 61.69 61.47 61.73 62.53 63.60 63.64 63.78 63.14 62.92 65.69 66.78 67.33 67.33 67.84 67.32
34.49 34.54 34.28 33.83 34.70 36.95 34.58 40.44 36.84 38.99 37.53 38.00 36.85 34.31 35.99 41.47 40.44 43.52 46.94 48.32 50.64 52.06 54.93 55.70 56.56 57.73 58.66 59.51 60.38 61.24 61.35 61.78 62.03 62.52 62.90 63.46 62.60 63.67 64.69 64.82 65.04 65.00 65.61 65.77
36.12 39.99 38.02 37.82 40.88 39.60 39.61 38.01 36.59 38.05 37.08 31.14 35.00 34.75 34.66 35.65 39.12 43.04 45.23 48.39 50.31 51.23 52.67 54.60 55.98 57.32 58.67 60.35 60.40 61.49 61.57 61.70 61.77 62.07 61.96 62.74 62.12 62.23 62.38 63.16 63.32 63.18 63.14 63.01
36.43 37.24 40.70 42.30 37.76 38.95 35.60 35.60 30.84 29.49 29.24 28.10 37.12 34.81 34.98 37.64 38.97 42.41 42.50 43.39 49.17 50.95 50.81 51.39 52.07 52.65 54.00 56.83 59.56 61.12 61.68 61.19 61.70 61.92 61.99 62.43 62.30 61.61 62.07 61.51 61.35 61.48 60.80 59.37
33.25 29.69 36.30 42.31 39.79 37.02 34.24 36.94 30.85 24.81 26.17 29.24 36.66 29.16 33.52 40.86 42.08 42.26 42.79 44.64 46.78 49.12 50.30 49.77 51.05 52.94 53.69 54.34 54.21 55.80 58.25 61.17 62.10 62.87 62.20 62.47 63.39 62.47 62.89 62.88 62.79 62.85 62.03 59.89
33.82 32.94 41.26 42.64 43.89 42.45 38.40 33.80 37.56 33.86 36.20 30.94 32.21 33.01 39.22 42.57 41.19 42.58 43.12 44.59 45.16 47.30 48.28 49.29 50.36 51.57 51.78 52.17 52.45 53.70 54.12 54.93 57.58 61.08 62.93 63.77 63.69 63.67 63.97 64.01 63.84 62.34 60.73 59.13
37.96 31.68 39.11 41.82 44.45 44.32 39.41 40.19 34.51 36.80 28.44 25.07 28.85 30.15 31.47 37.39 39.77 41.89 42.33 43.66 45.33 46.92 47.63 48.40 48.81 50.41 52.20 52.89 53.27 53.46 52.98 53.86 55.51 57.44 59.88 61.28 63.12 63.13 62.75 62.66 61.77 61.40 60.13 58.23
39.59 37.93 36.62 41.02 38.55 36.36 38.68 37.14 37.50 36.48 34.46 30.15 27.50 29.93 39.53 39.32 42.20 42.59 43.21 44.80 45.73 46.86 47.94 48.51 48.89 50.17 51.19 52.66 53.72 53.63 53.73 53.94 54.83 56.99 58.83 59.86 60.73 61.33 62.37 61.40 60.33 60.06 59.32 57.50
40.79 38.74 33.86 35.49 41.06 41.18 40.47 38.31 38.22 34.41 31.60 35.21 34.29 31.12 42.86 43.17 43.78 44.72 44.54 45.66 46.73 47.53 47.99 48.42 48.65 49.06 49.53 50.12 51.13 52.48 53.50 53.93 54.86 55.95 56.62 57.63 58.63 58.66 58.88 59.68 58.94 59.14 57.68 56.20
39.82 36.42 32.10 34.01 38.35 40.81 38.07 39.56 39.66 38.00 38.99 32.49 32.54 31.48 43.53 44.64 43.99 44.56 44.61 45.80 46.56 47.09 47.72 48.47 48.82 48.78 48.71 49.12 49.62 50.63 51.85 52.64 53.61 53.65 54.08 54.70 54.75 55.78 56.79 57.55 57.02 56.46 55.65 54.67
42.86 37.82 35.07 31.61 32.84 36.88 35.37 37.53 38.96 37.76 36.23 34.72 33.74 35.11 38.94 40.57 41.42 43.30 44.43 45.56 45.97 46.26 46.74 47.14 47.83 48.46 48.95 49.21 49.37 49.40 49.71 51.03 52.16 52.68 52.57 52.63 53.29 53.80 54.71 55.62 55.05 53.72 53.03 53.14
42.42 33.97 34.47 36.05 37.02 36.67 36.29 36.21 37.59 34.79 37.49 34.16 35.97 34.97 38.00 40.37 41.16 42.66 44.40 44.88 44.70 44.83 45.30 46.02 46.51 47.32 48.36 48.62 49.09 49.39 49.75 49.98 50.03 50.45 51.52 52.08 52.72 52.95 52.98 53.01 53.10 53.45 51.83 51.41
41.68 34.55 34.96 33.66 36.78 36.95 34.03 36.44 37.67 37.34 37.97 37.68 37.55 35.24 41.45 42.82 43.19 42.48 42.84 43.31 43.09 43.67 44.59 45.49 46.21 46.98 47.38 47.89 48.16 48.63 49.15 49.42 50.02 49.20 49.44 51.48 52.30 51.98 51.27 51.08 51.28 51.54 51.11 50.07
39.10 37.16 35.11 30.93 34.69 34.57 32.00 33.47 35.62 36.26 37.34 37.36 34.85 37.42 40.97 40.27 40.69 41.39 42.46 42.63 41.62 41.71 42.20 42.84 43.71 44.92 45.80 46.58 47.57 47.29 48.31 49.34 48.89 48.89 49.31 49.65 50.76 50.89 50.72 50.43 49.88 49.18 48.60 48.66
37.99 36.89 36.39 32.39 32.91 25.57 34.00 38.20 37.50 36.13 36.50 38.50 38.45 38.89 39.83 40.03 41.58 43.03 43.70 42.33 40.49 39.55 39.79 40.61 41.38 42.11 43.11 44.11 44.79 45.95 47.16 47.62 47.89 48.13 48.56 49.22 49.37 49.65 50.37 49.90 49.11 48.84 48.42 47.45
41.21 38.01 33.49 30.73 30.13 31.91 33.26 35.35 35.53 34.81 35.25 38.78 38.50 39.16 39.75 40.71 41.51 42.76 43.67 41.69 39.36 39.28 40.16 40.71 41.78 42.01 42.48 42.90 44.16 44.16 44.04 45.03 45.85 46.22 47.49 48.52 49.11 48.63 49.34 49.12 48.25 48.16 47.49 46.73
39.64 39.99 35.70 32.41 27.64 26.04 35.30 38.46 40.95 39.72 32.17 39.70 39.99 38.64 38.12 38.74 35.34 38.93 39.64 39.23 39.52 40.70 40.94 40.77 41.55 42.10 42.35 42.91 43.76 43.04 42.58 43.03 43.60 44.94 46.19 47.81 48.60 48.27 48.09 49.06 48.50 47.75 47.22 45.56
34.92 35.49 32.70 32.93 30.93 33.58 38.83 40.01 40.94 30.63 33.51 40.23 40.30 38.99 37.62 35.88 37.39 38.27 38.79 39.07 40.08 40.26 40.01 40.28 40.03 39.24 40.18 41.18 41.45 40.50 41.83 42.23 44.15 45.39 46.10 46.33 47.49 47.45 47.78 48.25 49.15 47.24 45.64 45.11
33.58 32.57 32.79 33.24 30.03 27.74 40.42 38.26 34.45 38.70 40.99 40.65 39.71 38.61 36.52 36.71 36.82 37.37 38.16 38.16 39.07 38.89 39.24 39.99 39.03 38.87 40.09 40.80 40.51 39.65 39.55 42.06 43.62 43.63 44.28 45.17 46.40 46.79 46.54 46.96 47.81 46.98 44.67 43.36
32.36 36.48 35.06 35.32 35.91 39.32 41.76 40.91 41.81 42.57 40.88 39.66 38.67 37.33 36.31 35.61 36.07 37.02 36.89 38.05 38.43 38.70 38.56 38.42 37.08 37.00 37.68 38.37 38.74 38.72 39.41 40.54 41.02 41.68 41.30 43.72 44.05 45.68 46.51 45.68 45.47 44.72 43.67 42.33
37.91 38.94 35.47 35.38 39.15 39.23 41.23 42.04 42.09 41.26 40.34 39.40 37.47 36.54 36.42 35.21 36.24 36.34 36.84 37.12 37.09 37.33 36.31 36.03 35.27 35.04 35.44 38.07 37.91 37.17 38.55 39.14 39.22 38.96 39.86 41.25 42.52 44.05 45.28 45.27 44.62 43.52 42.00 41.05
38.80 37.82 37.09 37.15 39.77 38.73 40.61 42.12 41.56 39.92 39.01 36.70 36.54 36.27 36.14 36.12 35.54 35.93 35.63 35.65 35.92 35.68 35.56 35.32 34.75 34.14 33.97 35.12 34.84 37.39 37.74 36.99 36.87 39.28 40.21 41.19 42.56 42.99 43.85 43.93 43.46 42.78 43.56 42.34
39.28 37.91 35.74 36.29 41.83 40.94 40.94 42.70 42.76 39.60 37.48 36.58 35.81 35.93 36.95 36.25 35.38 35.64 34.99 35.59 35.18 34.43 34.93 33.98 33.78 33.41 33.14 34.13 34.05 34.61 35.08 35.35 35.25 37.29 40.36 41.27 42.02 42.65 42.88 42.01 41.63 43.44 43.43 43.36

GFSCGP_sfc_wetblb_108.txt.gz
Wetbulb
38.21 31.52 27.60 30.58 32.86 32.41 31.14 30.70 28.98 33.18 37.91 34.71 32.72 34.56 36.55 43.44 43.98 43.07 44.56 45.33 46.34 49.22 53.22 56.72 59.60 59.47 60.91 61.59 61.85 62.49 62.39 62.37 62.41 62.42 63.34 63.14 62.18 62.26 62.37 63.75 65.43 67.03 66.81 66.86
34.11 29.67 34.59 35.94 35.32 33.86 32.93 30.04 29.40 34.20 37.00 35.98 32.73 33.57 38.96 41.71 42.56 44.02 44.59 44.96 46.36 48.86 52.15 56.37 56.84 57.74 57.61 59.38 61.48 61.78 61.76 61.34 61.92 62.73 64.49 64.96 64.44 64.60 64.55 64.89 64.69 64.98 65.29 66.34
32.37 34.15 37.63 35.49 33.45 31.75 32.47 30.08 30.17 30.70 34.95 36.69 34.18 31.94 36.74 41.71 43.28 43.97 45.05 45.55 45.97 48.28 53.25 54.92 55.23 56.11 57.42 57.54 59.83 61.57 61.84 61.59 62.11 62.22 63.30 62.82 64.09 64.22 64.35 64.59 64.37 64.98 65.04 65.58
34.39 36.91 35.48 34.28 32.59 33.73 28.34 36.33 34.67 32.15 31.02 27.66 34.79 23.07 35.55 39.75 41.61 43.51 42.76 45.46 46.70 49.97 54.74 53.99 54.73 55.26 57.46 57.58 58.81 61.36 61.64 61.42 61.97 62.16 61.26 60.34 60.44 59.56 61.51 62.59 63.66 64.24 64.87 64.96
33.87 35.40 33.37 31.41 33.96 36.70 31.68 37.07 37.21 33.88 33.23 32.38 33.30 30.05 34.43 40.71 39.53 42.03 45.06 45.88 49.65 52.33 54.42 54.25 54.96 56.21 57.79 58.45 58.95 60.81 61.00 60.94 61.26 61.49 61.52 60.65 60.00 60.59 61.74 62.26 62.38 62.91 63.76 64.05
35.56 40.43 38.02 36.77 39.89 40.06 39.72 36.61 35.80 33.52 32.51 28.54 33.73 33.03 32.29 34.83 36.12 41.82 43.66 47.47 50.10 52.22 54.91 55.71 56.19 56.55 57.11 57.98 58.50 58.37 58.78 59.98 61.05 60.48 60.78 60.50 59.87 59.86 60.13 60.62 61.26 61.53 61.75 62.30
36.15 36.70 39.91 41.10 37.56 39.26 36.52 32.63 27.75 27.18 27.26 27.26 34.80 32.13 32.29 38.62 39.35 41.47 41.79 43.87 50.33 51.47 52.11 53.67 54.41 55.01 56.32 57.13 57.64 58.79 59.13 59.22 60.42 59.87 59.99 60.37 60.70 61.13 60.22 60.10 60.68 60.29 60.42 60.45
30.41 24.43 36.85 42.07 37.83 34.17 35.40 35.27 29.20 23.38 25.55 28.72 34.60 28.08 33.35 39.59 42.75 43.82 44.19 45.38 48.85 49.27 50.46 50.57 50.63 50.75 50.91 53.91 56.90 58.13 59.20 59.58 59.98 59.92 59.77 60.67 60.50 60.45 60.65 60.74 61.12 60.57 60.06 60.38
33.49 30.97 40.62 41.61 42.69 41.58 37.16 32.00 36.33 32.22 32.12 28.39 32.13 33.72 38.31 39.61 39.53 42.08 43.24 45.31 46.45 46.73 47.21 47.27 47.85 48.70 48.92 49.17 49.78 51.73 53.60 54.73 57.74 59.97 59.69 60.06 60.20 60.21 60.79 61.28 61.96 62.01 62.02 61.48
36.83 31.27 39.30 41.39 43.74 43.29 39.11 39.72 30.81 31.98 26.04 23.71 28.97 28.79 30.46 34.60 35.87 40.58 41.20 41.90 43.55 44.98 45.22 45.76 46.49 48.09 49.67 50.20 50.53 50.79 50.47 50.14 51.71 53.51 57.22 59.42 60.67 61.45 61.10 60.71 60.33 60.57 59.81 59.34
37.89 36.57 34.82 40.18 36.62 34.73 36.37 33.65 35.04 33.25 30.87 24.33 23.10 27.69 38.11 37.14 38.82 39.35 41.42 42.98 43.32 43.51 44.41 45.44 46.13 47.15 47.71 48.75 50.20 50.54 50.93 51.59 51.94 53.54 54.98 55.86 57.21 58.63 59.95 60.61 60.27 59.98 58.79 58.03
38.21 35.74 30.20 32.57 38.27 39.13 38.00 35.08 34.34 26.65 27.36 28.07 27.86 28.76 40.14 40.05 41.38 41.99 41.95 43.36 43.89 44.23 44.55 44.87 44.88 45.29 45.53 46.00 47.00 48.41 49.99 50.50 50.99 51.97 52.37 52.78 53.51 55.18 55.42 57.30 58.58 58.40 57.75 56.97
37.84 32.65 25.70 28.12 33.75 37.24 35.36 36.97 36.87 35.96 33.64 27.13 24.25 28.43 41.37 39.11 39.77 41.05 41.20 42.39 43.59 44.27 44.45 44.39 44.60 44.26 44.03 44.58 45.16 45.65 47.07 48.28 49.92 50.37 50.29 50.54 51.12 51.54 52.44 54.35 55.20 56.22 56.13 54.94
40.88 34.28 30.06 23.31 27.56 33.60 30.52 34.77 36.36 34.18 27.20 29.16 29.11 30.82 34.45 36.59 37.89 39.66 40.37 41.19 41.81 42.57 43.32 43.26 42.98 43.22 43.90 44.47 44.80 45.16 45.49 45.97 46.88 47.95 48.70 48.97 49.42 50.10 50.95 52.60 53.30 52.92 53.65 53.69
38.92 29.54 29.26 32.37 35.06 33.48 32.80 33.65 34.81 31.39 33.38 27.86 31.21 31.59 33.93 35.18 36.60 38.32 40.03 41.27 41.12 41.26 41.61 41.43 41.27 41.76 42.80 43.21 43.64 44.50 45.04 45.47 46.11 45.72 45.66 47.38 49.24 49.46 49.30 49.95 51.20 51.48 50.57 51.92
38.93 29.97 30.00 27.17 34.50 33.80 30.41 33.57 34.50 34.50 35.56 34.02 33.45 32.22 37.53 37.47 38.58 39.28 39.27 40.13 39.06 38.74 39.21 39.52 39.77 39.49 39.55 39.64 41.59 43.11 43.60 44.04 45.08 44.37 44.83 46.13 47.18 48.78 48.17 48.04 48.33 49.33 48.96 49.01
35.31 32.37 28.86 24.18 31.54 31.22 26.68 30.49 32.71 32.96 34.28 34.34 30.46 34.12 37.75 36.88 38.92 38.73 39.10 39.24 37.55 36.91 37.21 37.39 37.29 37.50 37.33 38.18 39.43 39.13 40.20 41.75 42.23 43.12 44.46 45.23 45.75 45.86 47.68 47.54 47.04 46.76 46.91 46.48
34.69 32.96 30.65 23.93 27.04 17.27 30.20 35.40 34.97 34.00 35.47 36.18 36.35 36.91 37.63 37.41 37.75 38.59 40.27 37.55 35.78 35.67 35.87 36.42 36.58 37.47 38.38 39.59 40.07 40.77 41.20 41.02 40.87 40.93 42.11 43.93 44.87 45.04 45.35 46.53 46.08 45.62 45.19 45.09
36.76 33.45 27.11 23.84 22.03 26.58 30.09 33.08 32.94 31.00 31.79 36.59 35.94 37.18 37.48 37.11 35.78 36.94 37.72 35.85 33.27 35.26 36.99 37.22 37.67 38.46 38.87 38.92 39.80 39.89 40.06 40.29 40.41 40.77 41.44 42.33 42.89 43.54 43.99 43.77 44.61 44.32 44.00 43.29
37.26 35.57 29.39 26.07 21.99 20.02 29.78 35.13 37.66 35.38 26.11 36.79 37.49 36.12 34.69 34.73 28.20 30.26 33.58 33.86 35.34 35.60 36.98 36.35 36.43 37.15 36.75 37.02 37.83 37.35 37.77 38.22 38.43 40.32 41.58 42.59 42.93 42.82 42.70 43.45 43.39 44.17 43.86 43.54
29.59 29.67 25.89 26.60 22.79 27.73 34.81 36.87 36.88 23.85 28.81 37.07 37.52 36.25 34.08 30.87 31.31 32.80 34.74 34.49 35.31 36.10 35.82 36.42 35.40 34.95 35.32 36.44 37.52 37.45 38.52 38.33 40.47 41.52 41.69 41.69 41.33 40.85 42.16 42.75 43.76 44.01 43.62 43.48
28.50 26.07 26.11 26.93 22.61 20.19 36.90 34.95 29.64 34.19 36.66 37.50 36.53 35.19 33.26 32.35 32.93 33.69 34.56 34.64 35.59 35.21 36.00 36.11 34.02 33.93 34.80 35.33 35.90 35.93 36.30 38.48 38.80 39.36 39.42 39.53 40.01 40.46 41.17 41.92 42.99 42.36 45.29 43.06
26.25 31.07 28.63 29.83 30.17 36.07 37.23 35.72 37.90 38.57 36.54 36.01 36.14 34.25 32.78 31.99 32.42 33.92 33.68 33.57 34.04 34.36 34.59 34.93 33.22 33.46 34.36 34.90 36.12 34.02 35.74 36.51 37.26 37.01 36.69 37.70 40.06 40.67 41.00 41.37 41.88 42.65 44.53 44.46
32.47 34.43 30.06 31.23 33.19 34.65 37.07 37.64 38.50 36.71 36.46 36.52 34.50 33.06 32.65 31.41 33.02 33.00 33.06 33.13 33.03 33.61 33.01 33.28 32.86 32.37 33.15 34.73 34.45 34.44 34.78 35.09 35.26 33.82 34.92 36.59 39.46 39.89 40.67 41.79 42.79 42.99 43.41 43.06
32.71 33.33 31.94 31.79 34.38 33.58 36.33 38.01 38.11 37.38 36.37 34.53 34.05 33.45 33.26 33.00 32.75 32.58 32.08 32.15 32.39 32.43 32.62 32.63 32.25 33.26 33.02 33.54 33.40 34.18 34.23 33.86 32.24 31.81 32.51 34.52 38.23 40.45 40.86 41.89 42.40 43.12 44.31 44.02
34.04 32.23 29.88 29.36 36.33 35.32 35.19 37.91 39.00 35.98 34.78 34.19 33.51 33.07 34.25 33.76 32.44 32.71 31.68 32.20 32.03 31.41 32.06 31.06 31.86 32.95 32.69 32.83 33.17 33.73 33.77 33.42 31.41 30.85 32.88 33.85 35.06 37.81 38.86 41.35 42.00 44.09 43.96 44.30

GFSCGP_sfc_wetblb_111.txt.gz
Wetbulb
36.86 30.45 25.91 28.19 31.28 30.85 29.53 27.78 26.45 30.27 35.86 33.83 32.53 33.04 35.35 37.92 38.45 37.83 40.43 40.13 44.21 46.27 49.51 53.31 56.72 57.66 58.99 60.17 61.27 61.68 61.75 60.70 61.96 63.59 63.04 62.98 62.42 63.57 64.63 65.13 65.09 65.82 65.65 65.16
32.37 28.61 32.96 34.83 34.39 32.48 31.79 29.89 28.73 31.97 35.08 34.52 33.18 32.18 35.72 38.18 38.36 39.82 41.05 42.53 43.79 44.62 49.22 54.04 57.05 54.96 56.05 59.11 61.16 61.49 61.60 59.98 60.33 62.07 63.11 63.56 62.73 62.33 63.20 64.34 65.90 66.34 66.35 65.74
30.17 32.32 37.60 35.41 33.78 31.75 30.76 28.86 29.34 27.05 33.22 35.07 31.96 28.90 32.10 36.80 39.09 40.01 42.19 43.70 44.59 45.51 47.98 53.61 55.38 55.54 55.24 56.90 58.93 61.30 61.48 59.85 60.40 61.33 62.87 62.95 63.44 63.56 63.05 62.44 62.28 63.41 65.68 66.23
33.15 37.08 35.07 34.55 32.98 33.61 27.53 33.98 34.24 33.02 29.47 19.85 32.24 22.04 30.03 34.15 36.16 40.29 40.22 41.90 43.49 46.23 51.58 54.31 54.35 53.95 55.66 56.92 58.13 60.44 61.64 60.86 61.44 61.78 60.98 60.17 60.09 59.54 60.35 61.63 63.40 63.48 63.31 63.35
33.45 35.00 34.61 31.58 31.96 34.92 31.15 36.02 33.87 33.33 31.57 29.98 30.35 27.56 33.61 38.15 36.71 39.09 41.30 41.09 43.21 48.53 51.83 53.41 53.99 56.08 57.51 58.06 58.12 58.83 61.43 61.13 61.19 60.98 60.72 59.66 58.99 59.85 60.65 60.68 60.89 61.09 62.79 63.43
35.57 40.47 37.18 36.30 38.37 39.15 40.20 35.47 35.26 34.33 32.03 24.88 31.37 29.29 31.38 33.40 36.15 38.24 43.00 42.94 47.50 50.48 53.63 54.27 55.40 56.30 56.77 57.29 57.66 59.51 60.41 60.39 60.65 60.66 60.61 59.82 59.01 59.36 59.32 59.59 59.62 60.85 60.75 61.59
35.26 35.37 38.34 39.73 37.05 39.74 37.12 32.07 26.04 23.49 23.59 25.80 33.19 30.24 31.66 36.21 40.48 41.08 42.16 42.37 47.76 52.50 53.68 53.64 54.07 55.14 55.92 55.92 56.90 57.89 58.41 59.36 59.96 59.70 59.83 60.05 59.76 59.88 59.25 59.35 59.49 59.74 59.95 60.22
29.51 21.88 35.45 41.73 37.74 34.26 33.95 33.71 28.36 22.82 23.68 27.77 33.96 27.81 30.76 38.91 42.14 43.80 44.57 46.67 49.18 48.08 49.48 49.13 50.94 52.29 52.37 55.29 56.75 57.43 58.18 58.13 59.27 59.21 59.02 59.82 60.12 60.38 60.34 60.02 59.68 60.07 60.26 60.56
31.06 28.24 39.48 40.77 42.17 41.00 36.73 33.42 36.36 31.74 32.37 25.91 29.95 32.73 37.12 37.89 39.73 42.56 44.67 44.56 44.45 45.17 45.77 46.86 48.15 48.55 48.62 48.44 50.97 54.64 55.65 56.24 57.62 59.28 59.33 59.03 59.57 59.28 59.43 60.15 60.44 60.30 60.84 60.87
35.29 30.08 38.56 41.31 43.04 42.37 39.55 39.94 30.57 30.46 24.52 23.40 27.56 28.85 29.32 32.71 36.22 40.12 41.55 42.16 43.66 44.67 45.29 46.27 47.03 47.92 49.23 49.39 49.41 49.96 49.64 50.12 51.03 53.37 58.01 59.28 59.35 59.87 60.04 60.11 60.22 60.37 60.77 61.33
36.32 35.89 33.09 38.52 35.11 33.30 33.94 32.98 33.24 31.96 29.98 25.51 23.63 28.00 33.33 34.20 39.08 39.12 40.14 42.74 42.80 42.91 43.83 44.59 45.39 46.16 46.58 46.82 48.42 49.27 50.09 50.74 51.44 52.66 53.79 54.54 55.64 57.02 59.11 59.53 59.66 59.67 59.95 59.58
36.94 33.68 25.36 30.74 37.74 38.32 35.66 34.04 32.84 25.08 25.47 27.40 26.79 28.13 40.08 39.02 40.33 41.13 41.12 42.39 42.99 43.18 43.43 43.72 43.23 43.28 43.19 43.64 45.03 46.16 47.44 48.64 49.40 50.01 50.24 50.69 52.17 53.12 54.43 55.10 58.01 59.28 58.68 57.63
35.87 29.62 22.18 25.99 30.81 34.39 33.37 35.37 34.81 34.09 29.58 24.04 22.40 29.27 39.41 39.05 39.00 40.28 39.97 41.00 41.96 42.30 42.22 41.74 42.05 41.75 42.19 42.71 43.88 44.32 44.55 44.88 46.54 47.68 48.42 48.97 49.12 49.65 50.41 51.97 54.27 55.33 56.06 56.24
39.86 31.78 27.51 21.95 26.92 31.86 29.26 33.09 34.01 30.65 22.87 26.35 25.86 27.87 31.51 34.55 36.11 37.47 37.85 38.88 39.45 39.90 39.94 40.08 39.74 39.45 40.07 40.80 41.98 42.71 43.39 43.98 44.60 44.91 44.65 45.18 46.91 48.48 48.97 49.74 51.99 53.01 53.23 53.41
36.47 27.71 26.39 30.76 33.58 32.07 30.32 31.80 32.31 27.25 30.24 23.78 28.41 29.30 30.59 32.67 33.81 35.28 37.35 38.54 37.72 37.25 37.31 37.39 36.96 36.36 36.54 37.01 38.15 39.16 40.43 41.63 42.69 42.89 43.58 44.07 44.88 46.11 47.87 48.32 48.96 50.96 51.05 51.20
36.01 28.02 29.06 26.23 32.02 31.12 28.55 31.32 32.68 32.71 32.96 31.66 31.51 30.46 34.92 34.87 36.36 36.95 36.42 36.77 35.17 34.97 35.19 35.57 35.82 35.70 35.47 34.89 36.86 38.14 38.37 39.43 40.66 40.29 41.08 42.95 43.97 44.44 44.91 46.24 46.96 47.34 48.56 48.55
32.86 29.88 25.97 23.28 28.96 28.40 24.74 28.64 30.06 30.56 32.51 32.72 28.70 32.38 35.67 34.86 37.18 36.30 36.21 36.05 34.63 33.52 33.78 34.13 34.04 34.56 35.45 36.14 37.35 36.63 37.70 38.77 38.83 39.10 40.15 41.06 41.82 42.47 43.50 44.30 45.26 45.57 45.37 46.02
32.21 30.29 27.74 20.66 23.52 15.42 29.03 33.54 33.28 32.38 33.79 34.26 34.64 34.91 35.70 35.63 35.81 35.55 34.40 32.75 31.46 33.05 34.15 34.40 34.46 35.12 35.75 36.76 37.05 37.29 37.91 37.98 38.40 38.38 39.29 40.47 40.96 41.01 41.82 42.57 42.78 43.90 44.13 44.60
34.11 30.82 25.38 22.16 19.75 24.22 27.83 31.50 31.71 30.43 30.34 35.42 34.62 35.41 35.54 35.91 34.52 31.27 33.39 33.46 33.55 34.15 35.05 35.21 35.13 35.71 35.16 36.15 36.92 36.99 36.80 37.36 37.60 37.61 38.32 39.48 39.83 40.00 40.80 40.66 41.13 41.62 42.69 43.69
35.05 32.84 27.36 24.13 20.78 19.50 27.58 33.30 35.65 33.85 24.61 35.30 36.14 35.22 33.98 33.11 28.83 31.43 32.53 34.15 34.78 35.51 35.63 35.51 35.42 35.32 34.64 34.94 36.19 35.21 35.00 36.02 36.13 37.65 38.69 38.30 38.55 38.26 37.91 38.53 38.96 40.37 41.69 42.44
26.95 26.92 24.13 24.17 20.16 26.11 33.01 35.35 36.00 23.42 26.94 35.40 36.12 34.97 33.83 30.48 30.63 31.57 32.59 32.80 33.81 34.63 35.21 35.37 34.60 33.55 33.85 34.38 34.53 33.93 35.14 35.97 38.03 37.86 37.13 37.54 38.15 37.82 37.72 38.55 40.05 39.61 39.52 41.37
26.67 23.79 23.71 23.97 21.78 19.06 35.25 34.15 28.66 31.50 34.27 36.02 34.85 34.58 33.61 32.17 31.36 32.12 33.15 32.66 33.17 32.78 34.22 34.83 32.69 32.29 33.15 33.88 35.61 34.68 33.85 35.73 36.68 36.45 37.06 36.91 36.27 36.35 37.17 38.12 39.42 40.03 39.44 40.32
25.39 29.24 27.00 28.04 27.70 33.98 35.19 34.34 36.02 36.80 35.40 35.38 35.09 33.84 33.66 31.57 31.12 32.19 32.00 30.68 32.16 32.56 33.24 33.94 32.08 31.71 32.33 33.92 34.86 32.55 33.27 34.54 34.63 33.98 33.70 33.61 34.48 34.75 36.01 37.57 38.86 39.45 39.65 40.00
29.91 32.31 29.36 29.80 29.80 33.68 35.30 35.80 36.92 36.94 36.03 35.95 34.94 33.09 32.62 30.56 31.52 31.03 31.20 31.38 31.35 31.87 31.34 31.82 30.88 30.05 29.85 31.65 33.70 33.57 34.04 34.03 32.91 31.81 31.53 31.89 32.54 33.83 35.48 36.91 39.46 40.20 39.85 39.97
30.45 31.86 30.07 29.26 31.75 32.67 34.96 35.72 36.91 36.41 35.79 34.06 33.24 32.91 32.34 31.95 31.03 30.90 30.77 30.75 30.88 30.88 30.99 31.05 29.91 30.18 30.00 30.98 30.58 31.39 32.08 33.44 31.93 31.03 30.62 30.71 31.83 32.35 33.41 34.78 36.53 37.69 40.49 42.18
31.92 31.47 30.79 28.18 33.54 33.45 33.80 35.43 37.09 34.53 33.51 33.26 32.62 31.96 32.60 32.49 31.25 30.95 30.39 30.78 30.67 30.23 30.80 29.87 29.67 29.63 29.92 30.71 30.45 31.27 31.73 32.77 31.09 29.74 29.64 29.80 30.19 31.75 32.58 32.76 33.50 37.44 39.54 41.38

GFSCGP_sfc_wetblb_114.txt.gz
Wetbulb
35.73 28.51 25.03 25.89 30.32 28.95 27.20 26.36 25.31 29.04 33.79 31.97 31.32 31.93 34.55 38.27 36.74 33.40 34.64 36.70 38.73 39.39 44.06 49.69 55.29 55.94 57.80 57.69 58.64 59.62 60.44 61.49 62.01 61.93 61.23 61.38 61.84 61.30 62.91 62.78 63.19 63.05 63.67 62.60
29.91 27.28 31.19 33.84 32.70 31.07 29.95 28.63 27.61 30.79 34.37 32.81 31.37 31.29 35.51 37.37 36.10 36.06 36.14 36.54 39.57 39.89 45.90 50.85 53.55 54.27 54.90 57.17 58.56 59.53 60.52 60.85 60.71 61.29 63.41 63.22 62.20 62.21 62.56 62.76 63.13 63.64 63.27 62.99
29.80 30.41 37.08 34.90 32.73 30.43 30.23 27.81 27.85 26.92 32.11 34.06 31.46 27.86 31.32 35.07 36.78 37.22 37.95 39.89 41.38 42.76 45.16 50.92 52.99 52.99 56.14 56.08 59.10 59.76 61.68 59.86 60.12 61.21 63.45 63.20 62.74 62.62 62.18 62.41 62.79 64.04 64.50 64.22
33.47 35.56 34.08 33.87 32.51 32.66 27.17 33.27 32.39 30.89 31.21 20.88 29.64 17.88 28.67 36.03 36.12 35.73 35.79 36.57 39.87 43.04 46.71 51.20 52.54 54.04 54.75 54.24 56.09 58.00 59.40 59.38 60.02 60.78 60.87 61.49 60.72 59.87 60.80 61.87 62.69 62.90 64.35 64.35
31.02 33.45 33.75 32.30 32.28 34.77 30.45 35.73 33.92 33.60 33.18 30.71 27.15 19.78 29.99 37.66 35.21 36.86 39.12 40.60 40.23 43.11 49.10 50.75 53.29 54.55 54.79 55.74 55.93 59.03 60.15 59.28 59.55 60.69 60.65 60.03 59.24 59.91 60.65 60.73 60.57 60.89 61.29 62.16
35.01 39.54 36.64 35.77 37.51 37.33 38.27 36.68 35.08 35.18 31.96 22.50 28.82 25.79 30.74 33.08 34.98 36.62 39.22 42.06 43.13 44.80 49.40 51.70 54.28 55.70 55.17 55.64 57.01 58.09 59.36 59.10 59.93 60.47 60.15 59.72 59.01 58.74 58.78 58.71 59.16 59.92 60.33 60.66
33.82 35.02 37.32 39.19 35.69 39.75 37.73 31.98 24.97 22.63 22.05 21.45 33.72 29.63 31.12 34.37 37.21 40.95 41.55 43.17 46.51 48.88 50.38 53.33 53.56 54.20 55.21 55.89 56.39 58.18 58.78 59.20 59.68 59.94 59.77 59.29 59.06 58.75 58.56 58.84 58.61 58.48 58.64 58.93
28.87 22.43 35.14 40.37 38.00 33.44 34.02 32.89 27.99 21.82 21.87 26.48 34.72 27.01 30.29 37.67 43.37 44.47 45.67 45.74 46.62 47.37 48.75 48.95 49.28 49.48 50.57 53.87 55.60 56.96 57.47 58.55 59.27 59.40 59.24 59.95 59.89 59.42 59.25 59.33 58.99 58.71 58.61 59.16
28.69 26.18 38.64 40.10 42.16 39.56 37.08 33.38 36.53 31.33 32.81 24.83 29.87 32.61 35.88 37.88 38.29 42.04 42.85 43.78 44.60 45.72 46.89 47.73 48.77 49.18 49.01 48.84 49.87 52.94 54.82 56.64 57.68 58.59 59.13 59.21 59.39 59.40 59.18 59.61 59.60 59.51 59.78 59.83
35.05 29.41 37.38 40.66 42.25 41.37 38.96 39.65 30.53 29.83 24.24 19.77 25.42 28.20 27.92 31.93 33.89 38.27 39.34 41.87 43.15 44.51 45.01 45.45 46.01 46.58 47.81 48.64 49.58 50.21 50.43 50.75 52.16 53.87 55.63 58.81 58.85 59.18 59.32 59.32 59.38 59.80 60.11 60.31
35.23 33.84 32.99 36.87 33.46 32.67 33.69 32.78 32.96 32.37 31.35 24.01 22.84 27.42 34.06 32.94 35.73 37.98 40.71 41.61 41.96 42.50 43.07 43.51 43.51 43.92 44.04 44.97 45.79 46.61 48.10 48.83 49.17 49.95 50.58 51.89 54.00 56.56 58.27 58.95 59.73 59.90 60.12 60.15
34.77 32.06 26.23 30.72 35.56 36.30 34.29 32.41 31.66 25.46 25.99 27.64 27.75 27.65 39.04 39.12 39.99 40.62 40.18 40.66 41.10 41.20 41.33 41.52 41.68 41.97 42.05 42.17 42.97 43.42 44.09 44.66 45.74 47.07 47.99 48.64 49.44 50.15 50.79 52.19 53.85 56.68 57.66 57.68
34.98 28.83 21.29 24.01 29.46 33.75 31.92 33.21 32.96 31.20 27.72 24.32 23.76 27.50 38.13 38.00 37.83 38.65 38.34 38.94 39.13 38.93 38.31 38.45 38.21 37.88 38.32 38.80 39.41 40.07 41.23 41.87 42.92 44.04 44.51 44.94 45.58 46.82 47.88 48.88 50.21 53.12 54.97 55.47
38.86 30.29 26.50 18.49 25.89 30.17 28.67 31.22 31.94 28.16 20.87 24.19 23.97 28.58 30.87 33.77 34.90 36.04 36.37 36.05 35.60 35.62 35.88 35.73 35.50 35.21 35.99 37.26 37.78 38.27 39.23 40.61 41.35 41.69 41.79 41.95 42.81 43.80 45.07 46.77 47.82 49.37 51.78 52.28
35.08 27.32 25.05 29.79 32.15 31.37 28.80 29.48 30.59 26.89 27.57 23.48 27.53 27.97 30.47 32.59 33.29 34.32 35.54 35.26 34.35 33.83 34.19 34.06 33.75 33.70 34.33 34.59 35.67 37.01 38.04 38.93 39.50 39.69 40.00 40.23 41.30 42.28 43.02 43.69 44.88 46.38 47.86 49.65
34.50 27.04 28.30 26.63 31.29 30.01 28.03 30.04 31.40 31.09 31.32 30.39 29.71 28.53 33.50 34.12 35.07 35.03 34.05 34.47 33.17 32.51 32.42 33.02 33.72 33.35 33.61 33.40 35.09 36.42 37.01 37.91 38.72 38.18 38.34 39.63 40.16 40.73 41.03 41.64 42.29 43.21 44.15 45.25
31.64 28.48 25.42 23.25 27.15 27.72 24.57 28.14 28.56 29.38 31.25 31.55 27.94 31.41 34.01 33.67 36.08 35.34 34.82 33.99 32.24 32.09 33.04 33.33 32.98 33.90 34.31 34.86 35.93 35.13 35.63 36.85 37.02 37.40 38.28 39.11 39.90 39.92 39.88 40.39 40.58 40.81 41.46 42.85
31.39 28.58 26.89 20.16 22.79 14.44 27.43 32.09 31.83 31.17 33.04 33.77 32.90 33.50 34.76 34.84 34.70 33.70 33.27 31.53 30.39 32.19 32.97 33.41 33.39 33.59 34.11 34.32 34.31 34.72 35.40 35.27 35.74 36.07 36.83 38.21 38.50 37.80 38.38 38.89 39.24 39.69 40.17 40.29
32.88 28.86 24.18 20.71 19.03 23.46 26.43 30.63 30.72 29.01 29.23 34.63 33.46 34.25 34.98 34.38 33.55 29.21 31.68 30.97 31.34 31.83 33.15 33.22 33.02 33.38 33.03 33.30 33.65 33.75 33.74 33.92 34.59 35.10 35.93 36.04 36.25 36.31 36.85 36.62 36.82 37.44 37.80 38.43
33.07 30.49 26.20 22.47 19.16 18.81 25.86 31.00 34.26 31.94 23.78 33.95 35.21 34.34 33.79 32.30 25.58 28.40 30.07 32.44 32.57 33.50 33.45 33.21 33.83 33.73 33.50 33.48 34.07 33.69 33.59 34.04 33.77 34.25 34.84 35.45 35.86 36.00 35.36 35.64 35.66 37.29 38.76 39.13
26.05 26.10 23.20 22.93 20.02 25.18 30.25 33.85 34.23 22.54 25.61 33.81 35.66 34.97 33.35 30.60 30.54 30.65 31.26 32.46 33.28 33.66 33.89 34.61 32.58 31.55 31.75 33.12 33.37 32.83 33.01 32.47 34.24 34.78 34.79 34.90 35.14 35.11 34.83 34.90 35.26 35.46 36.64 38.75
25.34 23.27 22.75 22.97 21.00 18.94 33.57 33.02 28.42 30.52 32.90 34.67 34.92 34.51 33.55 31.58 30.50 30.45 31.60 31.52 32.32 32.76 33.93 34.08 32.25 31.74 32.43 33.01 33.32 32.41 31.88 34.03 34.23 34.68 34.45 34.08 34.37 34.21 33.92 33.45 33.79 34.54 36.09 37.29
25.47 28.27 25.83 27.07 26.85 32.41 34.91 32.47 34.72 35.55 34.69 34.42 34.41 33.89 34.34 31.73 30.40 31.21 30.94 30.10 30.94 31.28 32.01 32.96 31.66 31.06 31.49 31.82 32.33 32.69 33.42 34.47 33.74 33.25 32.93 32.91 33.15 32.75 32.95 33.01 33.12 32.63 33.73 35.18
28.74 30.73 28.93 29.51 29.01 31.78 35.03 35.16 35.31 35.84 35.73 35.44 35.23 33.69 32.55 30.37 30.22 30.39 30.54 30.48 30.64 30.85 30.77 30.80 30.31 29.38 29.03 30.32 31.18 30.90 31.62 32.30 31.85 31.61 31.37 31.64 31.31 31.69 32.42 32.81 32.93 32.39 32.33 32.85
30.54 30.55 29.43 28.27 30.72 31.31 34.11 34.68 36.06 35.80 35.58 34.29 32.81 32.61 32.32 30.71 30.22 30.30 29.74 30.12 30.08 29.93 30.01 30.13 29.34 28.72 29.23 29.66 29.46 29.97 30.61 30.15 30.37 30.73 30.62 30.40 30.68 30.54 30.44 31.40 32.36 32.70 33.71 34.48
31.21 30.89 29.29 29.88 33.14 32.62 32.36 34.47 36.41 34.88 34.60 33.86 32.31 31.17 31.47 31.55 30.48 30.56 29.74 30.00 29.66 29.35 29.88 29.20 29.05 28.77 29.04 29.19 29.30 29.88 30.16 29.45 30.56 29.13 29.12 29.31 30.01 30.04 30.39 30.29 30.84 35.07 35.82 37.11

GFSCGP_sfc_wetblb_117.txt.gz
Wetbulb
34.84 25.16 24.51 24.84 28.08 28.24 26.46 24.47 25.29 28.42 32.80 30.83 30.03 31.01 33.75 37.00 36.23 35.29 34.42 35.76 35.17 37.24 41.18 43.28 45.88 50.14 55.95 56.48 56.60 56.68 57.97 59.49 60.09 60.49 60.69 60.58 60.35 61.06 61.22 62.58 64.73 64.75 64.34 64.53
30.32 26.75 30.32 32.40 31.84 29.83 27.67 27.66 26.53 29.76 33.12 31.23 30.41 30.19 34.45 36.46 36.62 37.04 35.28 34.73 34.09 36.57 40.45 42.93 47.60 54.00 54.30 54.98 55.73 56.74 58.29 59.27 60.48 60.99 61.26 61.82 61.89 62.42 61.67 62.81 64.64 64.62 64.08 64.20
30.56 29.04 36.27 34.35 32.61 30.93 30.17 27.93 28.18 26.99 31.11 32.56 30.32 26.99 29.35 36.41 35.73 34.59 35.31 35.65 36.92 38.75 41.03 43.27 50.97 52.94 53.28 53.63 54.76 58.67 59.63 59.67 59.71 60.06 61.22 61.07 62.33 62.06 61.21 62.20 62.90 62.76 63.96 63.65
32.85 34.68 33.70 32.18 31.31 32.06 26.73 32.76 32.23 30.58 29.63 24.00 31.30 21.99 26.54 34.14 36.05 36.21 35.81 36.66 36.26 38.43 42.49 45.42 50.44 51.42 52.50 53.39 54.43 55.86 59.04 59.79 59.10 58.72 60.34 58.63 61.23 59.30 60.94 61.45 62.06 62.53 63.28 62.95
27.64 32.24 33.49 32.29 32.69 34.22 28.92 35.55 34.14 34.42 32.31 31.81 28.77 25.12 25.84 35.01 32.77 36.27 37.63 39.68 42.23 41.83 42.49 46.09 50.40 52.25 53.23 53.93 54.35 55.08 57.90 58.62 57.75 57.91 60.00 58.81 60.28 60.82 61.16 61.05 61.36 61.73 62.62 63.23
35.94 39.14 37.08 35.38 36.74 36.87 37.17 34.81 34.92 35.31 32.31 21.73 28.04 25.66 25.87 31.68 34.25 36.44 38.44 40.33 43.13 45.67 44.48 48.69 50.89 52.46 54.53 56.00 56.67 57.17 56.68 58.56 57.68 58.75 59.36 58.67 58.93 58.95 58.91 59.26 59.25 59.42 59.81 60.26
34.51 34.28 36.46 38.18 34.91 39.21 37.27 31.99 21.54 18.32 16.34 19.91 32.71 28.52 30.96 34.99 37.51 40.36 41.59 44.29 46.80 48.26 48.77 49.21 49.62 50.55 51.48 52.58 52.93 54.16 57.55 57.93 57.95 59.77 59.19 58.79 58.74 58.98 58.71 58.68 58.56 58.44 58.35 58.32
27.30 23.38 33.44 38.65 36.78 34.59 34.59 33.04 27.54 20.07 21.86 22.36 33.10 26.12 31.10 37.76 40.48 43.01 44.65 44.92 47.13 47.65 48.87 48.91 49.40 49.61 49.75 50.15 50.45 50.90 57.91 58.43 59.08 59.25 59.30 59.36 59.26 58.87 58.87 58.70 58.52 58.28 58.25 58.64
26.71 26.91 36.39 38.78 41.03 39.66 36.00 33.28 36.83 30.77 32.30 22.30 28.25 32.22 36.33 37.46 36.06 40.09 41.45 43.53 44.45 46.57 46.03 46.18 46.06 46.54 47.14 48.26 48.81 50.15 51.31 52.32 54.42 55.52 57.02 58.85 59.51 59.12 58.55 59.00 58.95 58.69 58.90 59.21
32.40 28.49 35.45 38.79 40.87 40.23 38.70 39.56 30.93 28.97 23.09 20.30 24.86 28.17 28.01 31.79 32.16 35.35 37.59 39.61 42.55 43.02 42.90 42.82 42.88 43.05 43.48 43.89 44.46 45.29 46.29 47.09 48.72 50.72 52.40 55.92 58.96 59.30 59.14 58.94 58.85 58.97 59.28 59.38
33.64 31.38 30.45 34.95 32.07 31.39 32.17 31.56 33.21 31.80 30.53 22.99 21.65 26.36 36.46 33.80 34.90 35.19 37.42 39.77 40.11 40.17 40.34 40.38 39.99 40.08 40.09 40.46 41.31 41.84 42.53 42.93 43.95 45.32 46.76 48.11 49.36 51.27 54.11 56.23 57.10 58.68 59.53 59.66
34.24 30.50 25.15 29.32 34.16 35.44 33.33 31.63 30.23 23.79 25.88 26.29 26.00 27.45 39.81 39.16 39.05 39.98 38.56 38.77 38.23 37.70 37.49 37.40 37.12 37.45 37.82 38.19 38.91 39.52 40.45 40.90 41.57 42.81 43.35 43.80 44.78 45.98 46.99 48.25 49.57 51.73 53.79 56.98
33.70 27.30 20.13 23.92 27.63 31.88 30.87 31.62 31.28 30.23 29.56 24.20 22.88 27.03 37.75 38.34 39.58 36.98 35.51 34.35 34.76 34.87 34.97 34.20 34.66 35.43 35.70 36.53 37.48 38.22 39.04 39.47 40.43 41.01 41.07 41.22 41.69 42.32 42.84 44.11 45.67 47.00 48.68 51.02
38.20 28.87 25.43 18.66 25.32 29.00 27.71 28.90 30.23 27.46 19.75 24.16 24.75 29.43 31.33 32.74 33.86 33.88 32.95 32.37 31.96 32.67 33.48 34.07 33.79 33.39 33.38 35.57 36.27 36.85 37.57 38.38 38.72 39.35 39.30 39.23 39.76 40.51 41.37 42.24 42.83 43.62 44.90 46.22
33.89 26.78 24.31 28.76 30.32 30.31 29.16 28.45 29.18 24.10 26.62 22.97 26.85 27.29 30.37 32.40 33.06 33.82 34.31 32.60 32.71 31.88 33.02 32.67 32.74 32.62 32.92 33.40 34.60 35.50 36.32 37.23 37.82 37.64 37.72 38.11 39.21 39.91 40.21 40.15 40.51 41.41 42.20 43.06
33.07 26.81 27.81 26.65 29.41 28.48 27.96 29.24 29.55 29.36 29.45 28.82 28.41 28.47 33.02 33.46 34.08 34.07 32.56 32.62 31.38 31.15 32.26 32.97 33.36 32.82 32.60 31.98 33.57 34.61 34.92 35.55 36.42 36.11 36.50 38.08 38.73 38.58 38.01 38.21 38.49 39.10 39.76 40.40
30.58 27.89 25.35 22.62 26.15 26.22 23.07 26.91 28.72 28.89 30.54 30.67 26.87 30.67 32.55 32.32 34.50 34.46 33.92 33.58 30.89 30.31 31.51 31.69 32.18 32.46 32.63 33.08 33.82 33.27 33.97 35.04 34.95 35.32 36.39 37.25 37.52 36.58 36.59 37.36 37.38 37.26 37.33 38.03
30.15 27.31 26.41 20.95 22.19 13.82 26.01 30.68 30.45 30.16 31.33 32.72 32.14 32.83 33.37 33.77 33.80 32.99 33.16 32.57 30.41 31.21 31.52 31.80 31.90 32.12 32.72 33.40 33.19 33.38 33.60 33.46 34.13 34.52 34.87 35.17 34.95 35.01 36.21 36.22 36.39 36.73 37.02 36.39
31.83 27.79 24.15 19.75 17.82 23.01 24.54 29.23 29.71 28.88 28.75 33.45 33.13 33.30 34.12 33.57 31.37 31.06 31.67 30.64 30.95 30.41 32.10 32.36 32.19 32.26 31.86 31.80 31.96 31.95 31.76 31.95 32.44 32.33 32.88 33.60 33.93 33.89 34.70 34.55 34.37 34.94 35.15 35.93
31.17 29.19 25.30 22.09 18.29 18.20 24.72 29.80 33.12 30.58 23.49 31.02 34.65 33.60 33.10 31.63 26.37 27.31 30.09 31.21 31.33 32.19 32.54 32.13 32.30 32.31 30.76 30.44 30.94 30.87 30.56 30.77 31.35 32.18 32.38 33.31 33.53 32.93 33.15 33.39 33.10 33.94 34.20 34.37
25.69 25.42 23.11 22.31 19.78 24.07 28.02 32.55 32.79 21.15 25.71 31.10 34.54 33.94 32.37 30.09 30.56 30.63 30.81 30.62 31.38 31.61 31.74 31.83 30.28 29.56 30.07 30.71 31.14 30.93 30.72 30.73 32.56 33.07 32.84 32.68 32.81 32.19 32.14 33.06 33.11 32.99 33.01 33.35
24.89 22.35 22.03 22.23 19.87 18.69 32.24 31.38 28.03 30.17 31.25 33.18 34.36 34.10 33.21 31.92 30.01 29.91 30.81 30.91 31.39 31.07 31.25 32.07 30.66 30.04 30.56 31.17 31.43 30.86 30.71 32.36 33.29 32.91 32.33 32.09 32.18 32.33 32.44 31.76 32.13 32.49 32.38 31.94
24.05 27.65 25.01 26.16 26.02 31.72 33.31 32.70 34.02 33.45 34.51 33.49 34.53 34.44 34.33 31.61 30.54 30.98 30.22 28.86 30.12 30.74 30.77 31.43 29.96 29.84 30.46 30.78 30.92 29.91 31.23 31.79 31.91 31.87 30.57 31.84 32.29 31.96 31.99 31.55 30.89 30.32 30.76 30.55
27.92 29.35 27.99 28.67 29.23 30.30 33.16 35.32 34.17 34.60 34.98 35.42 34.90 34.22 33.23 31.73 30.78 29.79 29.93 29.70 29.66 29.80 29.64 29.59 29.18 28.63 28.39 29.36 29.93 29.53 29.96 31.86 30.08 28.64 30.68 30.76 30.19 30.38 30.03 30.40 30.87 30.49 30.40 30.51
29.89 29.64 28.19 27.63 31.13 31.41 33.59 33.48 35.40 35.45 35.51 34.76 34.00 33.76 33.09 31.23 29.32 29.42 29.19 29.19 29.44 28.92 29.08 29.11 28.64 28.31 28.28 28.73 28.56 29.00 29.36 29.90 27.90 28.74 29.34 29.43 29.71 29.26 29.50 30.50 30.73 30.93 31.85 32.43
31.07 30.93 28.98 29.68 32.71 32.90 32.03 32.96 33.75 34.81 34.92 34.86 33.26 31.23 31.25 31.16 30.28 30.37 29.12 29.30 29.09 28.65 28.63 28.70 28.59 28.46 28.11 28.21 28.25 28.86 29.23 28.54 27.43 28.17 28.93 29.16 29.74 29.74 29.53 29.45 29.41 33.19 33.74 34.76